<?xml version='1.0' encoding='UTF-8'?><gpx version="1.1" creator="JPX - https://github.com/jenetics/jpx" xmlns="http://www.topografix.com/GPX/1/1"><trk><trkseg><trkpt lat="44.1785733" lon="12.0786667"><ele>31.0</ele><time>2026-04-04T09:39:20.699Z</time></trkpt><trkpt lat="44.178545" lon="12.0787867"><ele>31.0</ele><time>2026-04-04T09:40:08.7Z</time></trkpt><trkpt lat="44.1784817" lon="12.078925"><ele>31.0</ele><time>2026-04-04T09:40:10.699Z</time></trkpt><trkpt lat="44.1784267" lon="12.0790583"><ele>31.0</ele><time>2026-04-04T09:40:12.699Z</time></trkpt><trkpt lat="44.178395" lon="12.0791567"><ele>31.0</ele><time>2026-04-04T09:40:14.699Z</time></trkpt><trkpt lat="44.178315" lon="12.0792017"><ele>31.200000000000003</ele><time>2026-04-04T09:40:30.7Z</time></trkpt><trkpt lat="44.17818" lon="12.07917"><ele>31.400000000000002</ele><time>2026-04-04T09:40:32.7Z</time></trkpt><trkpt lat="44.1780983" lon="12.0791567"><ele>31.6</ele><time>2026-04-04T09:40:33.699Z</time></trkpt><trkpt lat="44.1780183" lon="12.07914"><ele>31.8</ele><time>2026-04-04T09:40:34.7Z</time></trkpt><trkpt lat="44.1779317" lon="12.0791133"><ele>32.0</ele><time>2026-04-04T09:40:35.699Z</time></trkpt><trkpt lat="44.177835" lon="12.0790883"><ele>32.166666666666664</ele><time>2026-04-04T09:40:36.699Z</time></trkpt><trkpt lat="44.1777533" lon="12.0790517"><ele>32.33333333333333</ele><time>2026-04-04T09:40:37.699Z</time></trkpt><trkpt lat="44.1776733" lon="12.0790233"><ele>32.5</ele><time>2026-04-04T09:40:38.699Z</time></trkpt><trkpt lat="44.17761" lon="12.078985"><ele>32.666666666666664</ele><time>2026-04-04T09:40:39.7Z</time></trkpt><trkpt lat="44.1775467" lon="12.07896"><ele>32.833333333333336</ele><time>2026-04-04T09:40:40.7Z</time></trkpt><trkpt lat="44.1774417" lon="12.0789383"><ele>33.0</ele><time>2026-04-04T09:40:42.699Z</time></trkpt><trkpt lat="44.1773583" lon="12.0789467"><ele>33.199999999999996</ele><time>2026-04-04T09:41:01.699Z</time></trkpt><trkpt lat="44.1772133" lon="12.0789383"><ele>33.4</ele><time>2026-04-04T09:41:03.7Z</time></trkpt><trkpt lat="44.1771317" lon="12.0789433"><ele>33.599999999999994</ele><time>2026-04-04T09:41:04.699Z</time></trkpt><trkpt lat="44.1770517" lon="12.0789517"><ele>33.8</ele><time>2026-04-04T09:41:05.699Z</time></trkpt><trkpt lat="44.176965" lon="12.0789833"><ele>34.0</ele><time>2026-04-04T09:41:06.699Z</time></trkpt><trkpt lat="44.17687" lon="12.079005"><ele>34.0</ele><time>2026-04-04T09:41:07.7Z</time></trkpt><trkpt lat="44.1767583" lon="12.0790283"><ele>34.0</ele><time>2026-04-04T09:41:08.699Z</time></trkpt><trkpt lat="44.176645" lon="12.07904"><ele>34.0</ele><time>2026-04-04T09:41:09.7Z</time></trkpt><trkpt lat="44.176525" lon="12.0790467"><ele>34.0</ele><time>2026-04-04T09:41:10.699Z</time></trkpt><trkpt lat="44.176415" lon="12.079035"><ele>33.8</ele><time>2026-04-04T09:41:11.699Z</time></trkpt><trkpt lat="44.176305" lon="12.079015"><ele>33.599999999999994</ele><time>2026-04-04T09:41:12.699Z</time></trkpt><trkpt lat="44.1762067" lon="12.0789583"><ele>33.4</ele><time>2026-04-04T09:41:13.699Z</time></trkpt><trkpt lat="44.1761133" lon="12.078885"><ele>33.199999999999996</ele><time>2026-04-04T09:41:14.699Z</time></trkpt><trkpt lat="44.1760467" lon="12.078805"><ele>33.0</ele><time>2026-04-04T09:41:15.7Z</time></trkpt><trkpt lat="44.176" lon="12.0787183"><ele>33.0</ele><time>2026-04-04T09:41:16.7Z</time></trkpt><trkpt lat="44.175975" lon="12.0786367"><ele>33.0</ele><time>2026-04-04T09:41:17.7Z</time></trkpt><trkpt lat="44.1759633" lon="12.078545"><ele>33.0</ele><time>2026-04-04T09:41:18.699Z</time></trkpt><trkpt lat="44.17598" lon="12.0783633"><ele>33.0</ele><time>2026-04-04T09:41:20.699Z</time></trkpt><trkpt lat="44.1760017" lon="12.078265"><ele>33.0</ele><time>2026-04-04T09:41:21.7Z</time></trkpt><trkpt lat="44.1760217" lon="12.078155"><ele>33.0</ele><time>2026-04-04T09:41:22.699Z</time></trkpt><trkpt lat="44.176035" lon="12.0780333"><ele>33.0</ele><time>2026-04-04T09:41:23.7Z</time></trkpt><trkpt lat="44.1760217" lon="12.07791"><ele>33.0</ele><time>2026-04-04T09:41:24.699Z</time></trkpt><trkpt lat="44.1759683" lon="12.0777967"><ele>33.0</ele><time>2026-04-04T09:41:25.7Z</time></trkpt><trkpt lat="44.1758917" lon="12.0777033"><ele>33.0</ele><time>2026-04-04T09:41:26.7Z</time></trkpt><trkpt lat="44.1758" lon="12.07766"><ele>33.0</ele><time>2026-04-04T09:41:27.699Z</time></trkpt><trkpt lat="44.1756933" lon="12.077665"><ele>33.0</ele><time>2026-04-04T09:41:28.699Z</time></trkpt><trkpt lat="44.17557" lon="12.07773"><ele>33.0</ele><time>2026-04-04T09:41:29.699Z</time></trkpt><trkpt lat="44.1754583" lon="12.0778417"><ele>33.0</ele><time>2026-04-04T09:41:30.7Z</time></trkpt><trkpt lat="44.1753667" lon="12.077985"><ele>33.0</ele><time>2026-04-04T09:41:31.7Z</time></trkpt><trkpt lat="44.17526" lon="12.0781017"><ele>33.0</ele><time>2026-04-04T09:41:32.7Z</time></trkpt><trkpt lat="44.1751117" lon="12.0781633"><ele>33.0</ele><time>2026-04-04T09:41:33.699Z</time></trkpt><trkpt lat="44.17495" lon="12.0781783"><ele>33.0</ele><time>2026-04-04T09:41:34.699Z</time></trkpt><trkpt lat="44.174775" lon="12.0781667"><ele>33.0</ele><time>2026-04-04T09:41:35.7Z</time></trkpt><trkpt lat="44.174595" lon="12.0781433"><ele>33.0</ele><time>2026-04-04T09:41:36.7Z</time></trkpt><trkpt lat="44.1744083" lon="12.0780917"><ele>33.0</ele><time>2026-04-04T09:41:37.7Z</time></trkpt><trkpt lat="44.17422" lon="12.0780267"><ele>33.0</ele><time>2026-04-04T09:41:38.699Z</time></trkpt><trkpt lat="44.17403" lon="12.0779433"><ele>33.0</ele><time>2026-04-04T09:41:39.7Z</time></trkpt><trkpt lat="44.1738283" lon="12.0778633"><ele>33.0</ele><time>2026-04-04T09:41:40.699Z</time></trkpt><trkpt lat="44.1736267" lon="12.0777817"><ele>33.333333333333336</ele><time>2026-04-04T09:41:41.7Z</time></trkpt><trkpt lat="44.1734117" lon="12.0777117"><ele>33.66666666666667</ele><time>2026-04-04T09:41:42.7Z</time></trkpt><trkpt lat="44.1731883" lon="12.0776483"><ele>34.0</ele><time>2026-04-04T09:41:43.699Z</time></trkpt><trkpt lat="44.17297" lon="12.0775917"><ele>34.0</ele><time>2026-04-04T09:41:44.7Z</time></trkpt><trkpt lat="44.172745" lon="12.0775267"><ele>34.0</ele><time>2026-04-04T09:41:45.699Z</time></trkpt><trkpt lat="44.1725117" lon="12.0774667"><ele>35.5</ele><time>2026-04-04T09:41:46.699Z</time></trkpt><trkpt lat="44.1722767" lon="12.07741"><ele>37.0</ele><time>2026-04-04T09:41:47.699Z</time></trkpt><trkpt lat="44.1720433" lon="12.077355"><ele>37.0</ele><time>2026-04-04T09:41:48.699Z</time></trkpt><trkpt lat="44.1718183" lon="12.0772967"><ele>37.0</ele><time>2026-04-04T09:41:49.7Z</time></trkpt><trkpt lat="44.1716" lon="12.0772383"><ele>37.0</ele><time>2026-04-04T09:41:50.699Z</time></trkpt><trkpt lat="44.17138" lon="12.0771767"><ele>37.0</ele><time>2026-04-04T09:41:51.699Z</time></trkpt><trkpt lat="44.1711517" lon="12.0771217"><ele>37.0</ele><time>2026-04-04T09:41:52.699Z</time></trkpt><trkpt lat="44.1709183" lon="12.0770583"><ele>37.0</ele><time>2026-04-04T09:41:53.699Z</time></trkpt><trkpt lat="44.170685" lon="12.0769917"><ele>37.0</ele><time>2026-04-04T09:41:54.7Z</time></trkpt><trkpt lat="44.1704483" lon="12.0769133"><ele>37.0</ele><time>2026-04-04T09:41:55.699Z</time></trkpt><trkpt lat="44.1702083" lon="12.0768283"><ele>37.0</ele><time>2026-04-04T09:41:56.699Z</time></trkpt><trkpt lat="44.16997" lon="12.076755"><ele>37.0</ele><time>2026-04-04T09:41:57.7Z</time></trkpt><trkpt lat="44.1697233" lon="12.0766883"><ele>37.0</ele><time>2026-04-04T09:41:58.699Z</time></trkpt><trkpt lat="44.169475" lon="12.0766167"><ele>37.0</ele><time>2026-04-04T09:41:59.7Z</time></trkpt><trkpt lat="44.1692317" lon="12.0765417"><ele>37.0</ele><time>2026-04-04T09:42:00.699Z</time></trkpt><trkpt lat="44.1689833" lon="12.0764667"><ele>37.0</ele><time>2026-04-04T09:42:01.699Z</time></trkpt><trkpt lat="44.1687333" lon="12.0763817"><ele>37.0</ele><time>2026-04-04T09:42:02.699Z</time></trkpt><trkpt lat="44.1684817" lon="12.076285"><ele>37.0</ele><time>2026-04-04T09:42:03.699Z</time></trkpt><trkpt lat="44.1682267" lon="12.0761867"><ele>37.5</ele><time>2026-04-04T09:42:04.699Z</time></trkpt><trkpt lat="44.1679683" lon="12.07609"><ele>38.0</ele><time>2026-04-04T09:42:05.7Z</time></trkpt><trkpt lat="44.1677067" lon="12.075995"><ele>38.0</ele><time>2026-04-04T09:42:06.7Z</time></trkpt><trkpt lat="44.1674517" lon="12.075895"><ele>38.0</ele><time>2026-04-04T09:42:07.699Z</time></trkpt><trkpt lat="44.1672" lon="12.0757867"><ele>38.5</ele><time>2026-04-04T09:42:08.7Z</time></trkpt><trkpt lat="44.1669517" lon="12.0756867"><ele>39.0</ele><time>2026-04-04T09:42:09.699Z</time></trkpt><trkpt lat="44.1667017" lon="12.0755967"><ele>40.0</ele><time>2026-04-04T09:42:10.699Z</time></trkpt><trkpt lat="44.16645" lon="12.0754983"><ele>41.0</ele><time>2026-04-04T09:42:11.7Z</time></trkpt><trkpt lat="44.1662" lon="12.0754"><ele>41.0</ele><time>2026-04-04T09:42:12.699Z</time></trkpt><trkpt lat="44.16595" lon="12.0753117"><ele>41.0</ele><time>2026-04-04T09:42:13.7Z</time></trkpt><trkpt lat="44.16571" lon="12.0752367"><ele>40.5</ele><time>2026-04-04T09:42:14.699Z</time></trkpt><trkpt lat="44.1654767" lon="12.0751833"><ele>40.0</ele><time>2026-04-04T09:42:15.699Z</time></trkpt><trkpt lat="44.165245" lon="12.0751467"><ele>40.0</ele><time>2026-04-04T09:42:16.699Z</time></trkpt><trkpt lat="44.1650233" lon="12.0751217"><ele>40.0</ele><time>2026-04-04T09:42:17.7Z</time></trkpt><trkpt lat="44.1648167" lon="12.0750983"><ele>40.0</ele><time>2026-04-04T09:42:18.7Z</time></trkpt><trkpt lat="44.1646167" lon="12.0750783"><ele>40.66666666666667</ele><time>2026-04-04T09:42:19.699Z</time></trkpt><trkpt lat="44.1644183" lon="12.0750533"><ele>41.333333333333336</ele><time>2026-04-04T09:42:20.699Z</time></trkpt><trkpt lat="44.16422" lon="12.0750283"><ele>42.0</ele><time>2026-04-04T09:42:21.699Z</time></trkpt><trkpt lat="44.1640083" lon="12.075005"><ele>42.333333333333336</ele><time>2026-04-04T09:42:22.699Z</time></trkpt><trkpt lat="44.1637983" lon="12.074975"><ele>42.66666666666667</ele><time>2026-04-04T09:42:23.699Z</time></trkpt><trkpt lat="44.1635783" lon="12.074945"><ele>43.0</ele><time>2026-04-04T09:42:24.7Z</time></trkpt><trkpt lat="44.1633583" lon="12.0749067"><ele>43.5</ele><time>2026-04-04T09:42:25.7Z</time></trkpt><trkpt lat="44.163115" lon="12.0748667"><ele>44.0</ele><time>2026-04-04T09:42:26.699Z</time></trkpt><trkpt lat="44.16287" lon="12.0748133"><ele>44.0</ele><time>2026-04-04T09:42:27.7Z</time></trkpt><trkpt lat="44.162615" lon="12.0747433"><ele>44.0</ele><time>2026-04-04T09:42:28.699Z</time></trkpt><trkpt lat="44.1623717" lon="12.0746533"><ele>43.5</ele><time>2026-04-04T09:42:29.699Z</time></trkpt><trkpt lat="44.1621133" lon="12.0745617"><ele>43.0</ele><time>2026-04-04T09:42:30.699Z</time></trkpt><trkpt lat="44.1618533" lon="12.0744667"><ele>43.0</ele><time>2026-04-04T09:42:31.699Z</time></trkpt><trkpt lat="44.1615833" lon="12.07437"><ele>43.0</ele><time>2026-04-04T09:42:32.699Z</time></trkpt><trkpt lat="44.1613083" lon="12.0742733"><ele>43.0</ele><time>2026-04-04T09:42:33.7Z</time></trkpt><trkpt lat="44.1610267" lon="12.0741817"><ele>43.0</ele><time>2026-04-04T09:42:34.699Z</time></trkpt><trkpt lat="44.1607467" lon="12.0740833"><ele>44.0</ele><time>2026-04-04T09:42:35.699Z</time></trkpt><trkpt lat="44.1604633" lon="12.0739817"><ele>45.0</ele><time>2026-04-04T09:42:36.7Z</time></trkpt><trkpt lat="44.1601867" lon="12.0738683"><ele>45.0</ele><time>2026-04-04T09:42:37.699Z</time></trkpt><trkpt lat="44.1599" lon="12.0737567"><ele>45.0</ele><time>2026-04-04T09:42:38.699Z</time></trkpt><trkpt lat="44.159615" lon="12.0736367"><ele>45.0</ele><time>2026-04-04T09:42:39.699Z</time></trkpt><trkpt lat="44.1593317" lon="12.0735117"><ele>45.0</ele><time>2026-04-04T09:42:40.699Z</time></trkpt><trkpt lat="44.1590433" lon="12.0734"><ele>45.5</ele><time>2026-04-04T09:42:41.7Z</time></trkpt><trkpt lat="44.1587517" lon="12.073285"><ele>46.0</ele><time>2026-04-04T09:42:42.699Z</time></trkpt><trkpt lat="44.1584617" lon="12.0731633"><ele>46.0</ele><time>2026-04-04T09:42:43.699Z</time></trkpt><trkpt lat="44.15818" lon="12.0730467"><ele>46.0</ele><time>2026-04-04T09:42:44.7Z</time></trkpt><trkpt lat="44.157895" lon="12.07294"><ele>46.0</ele><time>2026-04-04T09:42:45.699Z</time></trkpt><trkpt lat="44.1576067" lon="12.0728467"><ele>46.0</ele><time>2026-04-04T09:42:46.7Z</time></trkpt><trkpt lat="44.1573083" lon="12.07277"><ele>45.5</ele><time>2026-04-04T09:42:47.699Z</time></trkpt><trkpt lat="44.1570183" lon="12.072695"><ele>45.0</ele><time>2026-04-04T09:42:48.7Z</time></trkpt><trkpt lat="44.1567217" lon="12.0726467"><ele>45.5</ele><time>2026-04-04T09:42:49.7Z</time></trkpt><trkpt lat="44.15643" lon="12.07258"><ele>46.0</ele><time>2026-04-04T09:42:50.7Z</time></trkpt><trkpt lat="44.15614" lon="12.0725067"><ele>46.0</ele><time>2026-04-04T09:42:51.699Z</time></trkpt><trkpt lat="44.1558533" lon="12.0724433"><ele>46.0</ele><time>2026-04-04T09:42:52.7Z</time></trkpt><trkpt lat="44.15556" lon="12.0723717"><ele>46.5</ele><time>2026-04-04T09:42:53.7Z</time></trkpt><trkpt lat="44.1552733" lon="12.0722867"><ele>47.0</ele><time>2026-04-04T09:42:54.7Z</time></trkpt><trkpt lat="44.1549917" lon="12.0721817"><ele>47.5</ele><time>2026-04-04T09:42:55.699Z</time></trkpt><trkpt lat="44.15472" lon="12.0720517"><ele>48.0</ele><time>2026-04-04T09:42:56.699Z</time></trkpt><trkpt lat="44.1544533" lon="12.0719"><ele>48.0</ele><time>2026-04-04T09:42:57.699Z</time></trkpt><trkpt lat="44.1541917" lon="12.0717467"><ele>48.0</ele><time>2026-04-04T09:42:58.699Z</time></trkpt><trkpt lat="44.1539367" lon="12.071585"><ele>49.0</ele><time>2026-04-04T09:42:59.7Z</time></trkpt><trkpt lat="44.15367" lon="12.07144"><ele>50.0</ele><time>2026-04-04T09:43:00.699Z</time></trkpt><trkpt lat="44.1534083" lon="12.0713133"><ele>49.5</ele><time>2026-04-04T09:43:01.7Z</time></trkpt><trkpt lat="44.153135" lon="12.0712167"><ele>49.0</ele><time>2026-04-04T09:43:02.699Z</time></trkpt><trkpt lat="44.1528717" lon="12.0711617"><ele>49.0</ele><time>2026-04-04T09:43:03.7Z</time></trkpt><trkpt lat="44.1526033" lon="12.0711483"><ele>49.0</ele><time>2026-04-04T09:43:04.699Z</time></trkpt><trkpt lat="44.1523333" lon="12.0711633"><ele>50.0</ele><time>2026-04-04T09:43:05.7Z</time></trkpt><trkpt lat="44.15206" lon="12.071205"><ele>51.0</ele><time>2026-04-04T09:43:06.7Z</time></trkpt><trkpt lat="44.1517867" lon="12.0712683"><ele>51.5</ele><time>2026-04-04T09:43:07.699Z</time></trkpt><trkpt lat="44.1515083" lon="12.0713533"><ele>52.0</ele><time>2026-04-04T09:43:08.699Z</time></trkpt><trkpt lat="44.1512283" lon="12.07144"><ele>52.0</ele><time>2026-04-04T09:43:09.699Z</time></trkpt><trkpt lat="44.1509433" lon="12.071515"><ele>52.0</ele><time>2026-04-04T09:43:10.699Z</time></trkpt><trkpt lat="44.1506667" lon="12.07159"><ele>51.0</ele><time>2026-04-04T09:43:11.7Z</time></trkpt><trkpt lat="44.1503833" lon="12.0716667"><ele>50.0</ele><time>2026-04-04T09:43:12.699Z</time></trkpt><trkpt lat="44.1501067" lon="12.0717467"><ele>50.0</ele><time>2026-04-04T09:43:13.7Z</time></trkpt><trkpt lat="44.1498367" lon="12.0718117"><ele>50.0</ele><time>2026-04-04T09:43:14.699Z</time></trkpt><trkpt lat="44.1495833" lon="12.0718633"><ele>50.0</ele><time>2026-04-04T09:43:15.7Z</time></trkpt><trkpt lat="44.1493267" lon="12.071895"><ele>50.0</ele><time>2026-04-04T09:43:16.699Z</time></trkpt><trkpt lat="44.1490783" lon="12.071905"><ele>49.5</ele><time>2026-04-04T09:43:17.699Z</time></trkpt><trkpt lat="44.14885" lon="12.0719"><ele>49.0</ele><time>2026-04-04T09:43:18.7Z</time></trkpt><trkpt lat="44.14862" lon="12.0718967"><ele>49.0</ele><time>2026-04-04T09:43:19.7Z</time></trkpt><trkpt lat="44.1483967" lon="12.07189"><ele>49.0</ele><time>2026-04-04T09:43:20.7Z</time></trkpt><trkpt lat="44.14818" lon="12.0718783"><ele>49.0</ele><time>2026-04-04T09:43:21.7Z</time></trkpt><trkpt lat="44.147975" lon="12.0718717"><ele>49.0</ele><time>2026-04-04T09:43:22.7Z</time></trkpt><trkpt lat="44.147785" lon="12.07186"><ele>49.0</ele><time>2026-04-04T09:43:23.699Z</time></trkpt><trkpt lat="44.147615" lon="12.0718483"><ele>49.0</ele><time>2026-04-04T09:43:24.699Z</time></trkpt><trkpt lat="44.1474567" lon="12.07183"><ele>48.75</ele><time>2026-04-04T09:43:25.699Z</time></trkpt><trkpt lat="44.1473083" lon="12.0718"><ele>48.5</ele><time>2026-04-04T09:43:26.699Z</time></trkpt><trkpt lat="44.1471717" lon="12.07175"><ele>48.25</ele><time>2026-04-04T09:43:27.699Z</time></trkpt><trkpt lat="44.1470517" lon="12.0716617"><ele>48.0</ele><time>2026-04-04T09:43:28.699Z</time></trkpt><trkpt lat="44.14695" lon="12.0715467"><ele>48.0</ele><time>2026-04-04T09:43:29.699Z</time></trkpt><trkpt lat="44.146875" lon="12.0714133"><ele>48.0</ele><time>2026-04-04T09:43:30.7Z</time></trkpt><trkpt lat="44.1468217" lon="12.0712533"><ele>48.0</ele><time>2026-04-04T09:43:31.699Z</time></trkpt><trkpt lat="44.1468" lon="12.0710567"><ele>48.0</ele><time>2026-04-04T09:43:32.7Z</time></trkpt><trkpt lat="44.146795" lon="12.0708417"><ele>48.25</ele><time>2026-04-04T09:43:33.7Z</time></trkpt><trkpt lat="44.1468083" lon="12.0706233"><ele>48.5</ele><time>2026-04-04T09:43:34.699Z</time></trkpt><trkpt lat="44.1468233" lon="12.0704167"><ele>48.75</ele><time>2026-04-04T09:43:35.699Z</time></trkpt><trkpt lat="44.1468333" lon="12.070225"><ele>49.0</ele><time>2026-04-04T09:43:36.7Z</time></trkpt><trkpt lat="44.14684" lon="12.070045"><ele>49.0</ele><time>2026-04-04T09:43:37.699Z</time></trkpt><trkpt lat="44.1468517" lon="12.0698767"><ele>49.0</ele><time>2026-04-04T09:43:38.699Z</time></trkpt><trkpt lat="44.1468617" lon="12.0697183"><ele>49.0</ele><time>2026-04-04T09:43:39.7Z</time></trkpt><trkpt lat="44.1468717" lon="12.069555"><ele>49.0</ele><time>2026-04-04T09:43:40.699Z</time></trkpt><trkpt lat="44.146885" lon="12.0693983"><ele>49.0</ele><time>2026-04-04T09:43:41.7Z</time></trkpt><trkpt lat="44.146895" lon="12.0692333"><ele>49.0</ele><time>2026-04-04T09:43:42.7Z</time></trkpt><trkpt lat="44.1469033" lon="12.0690667"><ele>49.0</ele><time>2026-04-04T09:43:43.7Z</time></trkpt><trkpt lat="44.14692" lon="12.06891"><ele>49.0</ele><time>2026-04-04T09:43:44.699Z</time></trkpt><trkpt lat="44.1469383" lon="12.068775"><ele>49.49999999999999</ele><time>2026-04-04T09:43:45.7Z</time></trkpt><trkpt lat="44.1469533" lon="12.0686467"><ele>50.0</ele><time>2026-04-04T09:43:46.699Z</time></trkpt><trkpt lat="44.1469733" lon="12.0685233"><ele>50.5</ele><time>2026-04-04T09:43:47.699Z</time></trkpt><trkpt lat="44.14699" lon="12.0684233"><ele>51.0</ele><time>2026-04-04T09:43:48.699Z</time></trkpt><trkpt lat="44.1470133" lon="12.0683383"><ele>51.49999999999999</ele><time>2026-04-04T09:43:49.699Z</time></trkpt><trkpt lat="44.1470433" lon="12.0682583"><ele>52.0</ele><time>2026-04-04T09:43:50.7Z</time></trkpt><trkpt lat="44.1471233" lon="12.068105"><ele>52.33333333333333</ele><time>2026-04-04T09:43:52.7Z</time></trkpt><trkpt lat="44.1471817" lon="12.06803"><ele>52.666666666666664</ele><time>2026-04-04T09:43:53.699Z</time></trkpt><trkpt lat="44.14723" lon="12.0679583"><ele>53.0</ele><time>2026-04-04T09:43:54.7Z</time></trkpt><trkpt lat="44.1472617" lon="12.0678717"><ele>53.33333333333333</ele><time>2026-04-04T09:43:55.699Z</time></trkpt><trkpt lat="44.1472783" lon="12.067765"><ele>53.666666666666664</ele><time>2026-04-04T09:43:56.7Z</time></trkpt><trkpt lat="44.14728" lon="12.0676433"><ele>54.0</ele><time>2026-04-04T09:43:57.7Z</time></trkpt><trkpt lat="44.1472867" lon="12.0674833"><ele>54.0</ele><time>2026-04-04T09:43:58.7Z</time></trkpt><trkpt lat="44.1473267" lon="12.06731"><ele>54.0</ele><time>2026-04-04T09:43:59.699Z</time></trkpt><trkpt lat="44.1473983" lon="12.067125"><ele>54.0</ele><time>2026-04-04T09:44:00.699Z</time></trkpt><trkpt lat="44.1474967" lon="12.0669233"><ele>54.0</ele><time>2026-04-04T09:44:01.7Z</time></trkpt><trkpt lat="44.1476067" lon="12.066735"><ele>54.0</ele><time>2026-04-04T09:44:02.699Z</time></trkpt><trkpt lat="44.1477167" lon="12.0665617"><ele>54.0</ele><time>2026-04-04T09:44:03.7Z</time></trkpt><trkpt lat="44.1478367" lon="12.0663817"><ele>53.66666666666667</ele><time>2026-04-04T09:44:04.699Z</time></trkpt><trkpt lat="44.1479683" lon="12.06619"><ele>53.333333333333336</ele><time>2026-04-04T09:44:05.699Z</time></trkpt><trkpt lat="44.148105" lon="12.065985"><ele>53.0</ele><time>2026-04-04T09:44:06.7Z</time></trkpt><trkpt lat="44.148255" lon="12.0657717"><ele>54.0</ele><time>2026-04-04T09:44:07.699Z</time></trkpt><trkpt lat="44.1484083" lon="12.065555"><ele>55.0</ele><time>2026-04-04T09:44:08.7Z</time></trkpt><trkpt lat="44.148565" lon="12.0653283"><ele>56.0</ele><time>2026-04-04T09:44:09.699Z</time></trkpt><trkpt lat="44.14873" lon="12.0650967"><ele>56.0</ele><time>2026-04-04T09:44:10.7Z</time></trkpt><trkpt lat="44.1488917" lon="12.0648783"><ele>56.0</ele><time>2026-04-04T09:44:11.699Z</time></trkpt><trkpt lat="44.1490617" lon="12.0646617"><ele>58.5</ele><time>2026-04-04T09:44:12.699Z</time></trkpt><trkpt lat="44.1492417" lon="12.06445"><ele>61.0</ele><time>2026-04-04T09:44:13.699Z</time></trkpt><trkpt lat="44.1494317" lon="12.064245"><ele>62.5</ele><time>2026-04-04T09:44:14.7Z</time></trkpt><trkpt lat="44.1496117" lon="12.0640517"><ele>64.0</ele><time>2026-04-04T09:44:15.699Z</time></trkpt><trkpt lat="44.1498" lon="12.0638683"><ele>65.0</ele><time>2026-04-04T09:44:16.699Z</time></trkpt><trkpt lat="44.1499683" lon="12.06369"><ele>66.0</ele><time>2026-04-04T09:44:17.7Z</time></trkpt><trkpt lat="44.150125" lon="12.0635"><ele>67.0</ele><time>2026-04-04T09:44:18.7Z</time></trkpt><trkpt lat="44.1502783" lon="12.06331"><ele>67.0</ele><time>2026-04-04T09:44:19.699Z</time></trkpt><trkpt lat="44.1503867" lon="12.0631"><ele>67.0</ele><time>2026-04-04T09:44:20.7Z</time></trkpt><trkpt lat="44.1504833" lon="12.0628667"><ele>67.0</ele><time>2026-04-04T09:44:21.699Z</time></trkpt><trkpt lat="44.1505633" lon="12.0626167"><ele>66.66666666666666</ele><time>2026-04-04T09:44:22.699Z</time></trkpt><trkpt lat="44.1506333" lon="12.0623783"><ele>66.33333333333333</ele><time>2026-04-04T09:44:23.699Z</time></trkpt><trkpt lat="44.1507117" lon="12.0621483"><ele>66.0</ele><time>2026-04-04T09:44:24.699Z</time></trkpt><trkpt lat="44.15079" lon="12.0619233"><ele>67.66666666666667</ele><time>2026-04-04T09:44:25.7Z</time></trkpt><trkpt lat="44.1508733" lon="12.0617117"><ele>69.33333333333334</ele><time>2026-04-04T09:44:26.699Z</time></trkpt><trkpt lat="44.15096" lon="12.06151"><ele>71.0</ele><time>2026-04-04T09:44:27.699Z</time></trkpt><trkpt lat="44.15105" lon="12.061315"><ele>71.0</ele><time>2026-04-04T09:44:28.699Z</time></trkpt><trkpt lat="44.1511317" lon="12.0611267"><ele>71.0</ele><time>2026-04-04T09:44:29.699Z</time></trkpt><trkpt lat="44.15122" lon="12.0609233"><ele>71.0</ele><time>2026-04-04T09:44:30.699Z</time></trkpt><trkpt lat="44.1513183" lon="12.0607083"><ele>69.66666666666667</ele><time>2026-04-04T09:44:31.699Z</time></trkpt><trkpt lat="44.1514167" lon="12.0604767"><ele>68.33333333333333</ele><time>2026-04-04T09:44:32.7Z</time></trkpt><trkpt lat="44.1515267" lon="12.060245"><ele>67.0</ele><time>2026-04-04T09:44:33.699Z</time></trkpt><trkpt lat="44.15163" lon="12.0600167"><ele>69.33333333333333</ele><time>2026-04-04T09:44:34.699Z</time></trkpt><trkpt lat="44.1517367" lon="12.0597933"><ele>71.66666666666667</ele><time>2026-04-04T09:44:35.699Z</time></trkpt><trkpt lat="44.151845" lon="12.0595733"><ele>74.0</ele><time>2026-04-04T09:44:36.699Z</time></trkpt><trkpt lat="44.15196" lon="12.0593683"><ele>74.0</ele><time>2026-04-04T09:44:37.699Z</time></trkpt><trkpt lat="44.15209" lon="12.05918"><ele>74.0</ele><time>2026-04-04T09:44:38.699Z</time></trkpt><trkpt lat="44.1522317" lon="12.0589983"><ele>74.0</ele><time>2026-04-04T09:44:39.7Z</time></trkpt><trkpt lat="44.15239" lon="12.058815"><ele>75.33333333333334</ele><time>2026-04-04T09:44:40.7Z</time></trkpt><trkpt lat="44.15256" lon="12.0586283"><ele>76.66666666666667</ele><time>2026-04-04T09:44:41.7Z</time></trkpt><trkpt lat="44.1527417" lon="12.058425"><ele>78.0</ele><time>2026-04-04T09:44:42.7Z</time></trkpt><trkpt lat="44.15293" lon="12.0582033"><ele>78.0</ele><time>2026-04-04T09:44:43.699Z</time></trkpt><trkpt lat="44.1531133" lon="12.0579833"><ele>78.0</ele><time>2026-04-04T09:44:44.7Z</time></trkpt><trkpt lat="44.1533033" lon="12.0577583"><ele>80.0</ele><time>2026-04-04T09:44:45.699Z</time></trkpt><trkpt lat="44.1534883" lon="12.057515"><ele>82.0</ele><time>2026-04-04T09:44:46.7Z</time></trkpt><trkpt lat="44.1536583" lon="12.0572383"><ele>82.0</ele><time>2026-04-04T09:44:47.7Z</time></trkpt><trkpt lat="44.153805" lon="12.0569467"><ele>82.0</ele><time>2026-04-04T09:44:48.7Z</time></trkpt><trkpt lat="44.15394" lon="12.056635"><ele>81.0</ele><time>2026-04-04T09:44:49.7Z</time></trkpt><trkpt lat="44.1540733" lon="12.0563317"><ele>80.0</ele><time>2026-04-04T09:44:50.699Z</time></trkpt><trkpt lat="44.15421" lon="12.0560583"><ele>80.0</ele><time>2026-04-04T09:44:51.699Z</time></trkpt><trkpt lat="44.1543617" lon="12.0558233"><ele>80.0</ele><time>2026-04-04T09:44:52.699Z</time></trkpt><trkpt lat="44.1545" lon="12.055645"><ele>80.0</ele><time>2026-04-04T09:44:53.699Z</time></trkpt><trkpt lat="44.1546367" lon="12.05551"><ele>80.33333333333334</ele><time>2026-04-04T09:44:54.7Z</time></trkpt><trkpt lat="44.1547733" lon="12.0553917"><ele>80.66666666666667</ele><time>2026-04-04T09:44:55.7Z</time></trkpt><trkpt lat="44.1549133" lon="12.0552833"><ele>81.0</ele><time>2026-04-04T09:44:56.699Z</time></trkpt><trkpt lat="44.1550567" lon="12.0551733"><ele>81.0</ele><time>2026-04-04T09:44:57.699Z</time></trkpt><trkpt lat="44.155195" lon="12.0550633"><ele>81.0</ele><time>2026-04-04T09:44:58.699Z</time></trkpt><trkpt lat="44.1553333" lon="12.0549617"><ele>81.0</ele><time>2026-04-04T09:44:59.7Z</time></trkpt><trkpt lat="44.1554833" lon="12.0548617"><ele>81.66666666666667</ele><time>2026-04-04T09:45:00.7Z</time></trkpt><trkpt lat="44.1556267" lon="12.0547617"><ele>82.33333333333334</ele><time>2026-04-04T09:45:01.7Z</time></trkpt><trkpt lat="44.1557817" lon="12.05466"><ele>83.0</ele><time>2026-04-04T09:45:02.699Z</time></trkpt><trkpt lat="44.15593" lon="12.0545433"><ele>83.0</ele><time>2026-04-04T09:45:03.699Z</time></trkpt><trkpt lat="44.1560717" lon="12.0544367"><ele>83.0</ele><time>2026-04-04T09:45:04.7Z</time></trkpt><trkpt lat="44.156215" lon="12.054345"><ele>83.0</ele><time>2026-04-04T09:45:05.7Z</time></trkpt><trkpt lat="44.15637" lon="12.0542683"><ele>83.0</ele><time>2026-04-04T09:45:06.699Z</time></trkpt><trkpt lat="44.1565317" lon="12.054205"><ele>83.0</ele><time>2026-04-04T09:45:07.699Z</time></trkpt><trkpt lat="44.1567167" lon="12.0541667"><ele>83.0</ele><time>2026-04-04T09:45:08.699Z</time></trkpt><trkpt lat="44.1569217" lon="12.0541333"><ele>82.0</ele><time>2026-04-04T09:45:09.699Z</time></trkpt><trkpt lat="44.157145" lon="12.0540983"><ele>81.0</ele><time>2026-04-04T09:45:10.699Z</time></trkpt><trkpt lat="44.1573817" lon="12.05406"><ele>80.5</ele><time>2026-04-04T09:45:11.699Z</time></trkpt><trkpt lat="44.15762" lon="12.0540233"><ele>80.0</ele><time>2026-04-04T09:45:12.699Z</time></trkpt><trkpt lat="44.1578617" lon="12.0539833"><ele>80.0</ele><time>2026-04-04T09:45:13.699Z</time></trkpt><trkpt lat="44.15811" lon="12.0539417"><ele>80.0</ele><time>2026-04-04T09:45:14.7Z</time></trkpt><trkpt lat="44.1583633" lon="12.0539033"><ele>78.5</ele><time>2026-04-04T09:45:15.699Z</time></trkpt><trkpt lat="44.1586183" lon="12.0538533"><ele>77.0</ele><time>2026-04-04T09:45:16.7Z</time></trkpt><trkpt lat="44.1588733" lon="12.0538133"><ele>76.0</ele><time>2026-04-04T09:45:17.699Z</time></trkpt><trkpt lat="44.1591233" lon="12.0537733"><ele>75.0</ele><time>2026-04-04T09:45:18.699Z</time></trkpt><trkpt lat="44.1593617" lon="12.0537333"><ele>75.0</ele><time>2026-04-04T09:45:19.699Z</time></trkpt><trkpt lat="44.159605" lon="12.0536817"><ele>75.0</ele><time>2026-04-04T09:45:20.699Z</time></trkpt><trkpt lat="44.1598433" lon="12.05364"><ele>74.5</ele><time>2026-04-04T09:45:21.699Z</time></trkpt><trkpt lat="44.160075" lon="12.0536033"><ele>74.0</ele><time>2026-04-04T09:45:22.7Z</time></trkpt><trkpt lat="44.1603133" lon="12.0535783"><ele>74.0</ele><time>2026-04-04T09:45:23.699Z</time></trkpt><trkpt lat="44.1605417" lon="12.0535717"><ele>74.0</ele><time>2026-04-04T09:45:24.7Z</time></trkpt><trkpt lat="44.160765" lon="12.0535983"><ele>73.5</ele><time>2026-04-04T09:45:25.699Z</time></trkpt><trkpt lat="44.1609883" lon="12.053645"><ele>73.0</ele><time>2026-04-04T09:45:26.7Z</time></trkpt><trkpt lat="44.1612183" lon="12.0537067"><ele>73.0</ele><time>2026-04-04T09:45:27.699Z</time></trkpt><trkpt lat="44.1614633" lon="12.0537833"><ele>73.0</ele><time>2026-04-04T09:45:28.7Z</time></trkpt><trkpt lat="44.161705" lon="12.0538533"><ele>72.0</ele><time>2026-04-04T09:45:29.699Z</time></trkpt><trkpt lat="44.1619583" lon="12.0539117"><ele>71.0</ele><time>2026-04-04T09:45:30.699Z</time></trkpt><trkpt lat="44.1622217" lon="12.05395"><ele>70.5</ele><time>2026-04-04T09:45:31.699Z</time></trkpt><trkpt lat="44.1624783" lon="12.0539817"><ele>70.0</ele><time>2026-04-04T09:45:32.699Z</time></trkpt><trkpt lat="44.1627283" lon="12.053995"><ele>70.0</ele><time>2026-04-04T09:45:33.699Z</time></trkpt><trkpt lat="44.1629683" lon="12.0540033"><ele>70.0</ele><time>2026-04-04T09:45:34.7Z</time></trkpt><trkpt lat="44.1631817" lon="12.054015"><ele>69.0</ele><time>2026-04-04T09:45:35.699Z</time></trkpt><trkpt lat="44.16338" lon="12.0540167"><ele>68.0</ele><time>2026-04-04T09:45:36.699Z</time></trkpt><trkpt lat="44.163575" lon="12.0539917"><ele>67.0</ele><time>2026-04-04T09:45:37.699Z</time></trkpt><trkpt lat="44.1637633" lon="12.053935"><ele>67.0</ele><time>2026-04-04T09:45:38.699Z</time></trkpt><trkpt lat="44.1639533" lon="12.0538367"><ele>67.0</ele><time>2026-04-04T09:45:39.7Z</time></trkpt><trkpt lat="44.1641233" lon="12.0537217"><ele>67.0</ele><time>2026-04-04T09:45:40.7Z</time></trkpt><trkpt lat="44.16428" lon="12.0535667"><ele>66.33333333333333</ele><time>2026-04-04T09:45:41.7Z</time></trkpt><trkpt lat="44.16443" lon="12.0533767"><ele>65.66666666666667</ele><time>2026-04-04T09:45:42.699Z</time></trkpt><trkpt lat="44.1645817" lon="12.05317"><ele>65.0</ele><time>2026-04-04T09:45:43.7Z</time></trkpt><trkpt lat="44.1647433" lon="12.05297"><ele>65.5</ele><time>2026-04-04T09:45:44.699Z</time></trkpt><trkpt lat="44.1649217" lon="12.0527567"><ele>66.0</ele><time>2026-04-04T09:45:45.699Z</time></trkpt><trkpt lat="44.165105" lon="12.052535"><ele>65.0</ele><time>2026-04-04T09:45:46.699Z</time></trkpt><trkpt lat="44.1652917" lon="12.05232"><ele>64.0</ele><time>2026-04-04T09:45:47.699Z</time></trkpt><trkpt lat="44.1654883" lon="12.0521067"><ele>64.0</ele><time>2026-04-04T09:45:48.699Z</time></trkpt><trkpt lat="44.1656917" lon="12.051905"><ele>64.0</ele><time>2026-04-04T09:45:49.699Z</time></trkpt><trkpt lat="44.1658983" lon="12.0517083"><ele>62.5</ele><time>2026-04-04T09:45:50.7Z</time></trkpt><trkpt lat="44.166105" lon="12.0515067"><ele>61.0</ele><time>2026-04-04T09:45:51.7Z</time></trkpt><trkpt lat="44.1663217" lon="12.0512983"><ele>61.0</ele><time>2026-04-04T09:45:52.699Z</time></trkpt><trkpt lat="44.16652" lon="12.051095"><ele>61.0</ele><time>2026-04-04T09:45:53.699Z</time></trkpt><trkpt lat="44.166725" lon="12.0508767"><ele>59.0</ele><time>2026-04-04T09:45:54.699Z</time></trkpt><trkpt lat="44.1669167" lon="12.0506383"><ele>57.0</ele><time>2026-04-04T09:45:55.699Z</time></trkpt><trkpt lat="44.1671033" lon="12.0503867"><ele>57.0</ele><time>2026-04-04T09:45:56.699Z</time></trkpt><trkpt lat="44.167295" lon="12.0501317"><ele>57.0</ele><time>2026-04-04T09:45:57.7Z</time></trkpt><trkpt lat="44.167485" lon="12.0498817"><ele>53.5</ele><time>2026-04-04T09:45:58.699Z</time></trkpt><trkpt lat="44.167675" lon="12.049635"><ele>50.0</ele><time>2026-04-04T09:45:59.699Z</time></trkpt><trkpt lat="44.1678617" lon="12.0494"><ele>50.0</ele><time>2026-04-04T09:46:00.699Z</time></trkpt><trkpt lat="44.1680483" lon="12.0491667"><ele>50.0</ele><time>2026-04-04T09:46:01.699Z</time></trkpt><trkpt lat="44.1682467" lon="12.0489483"><ele>49.0</ele><time>2026-04-04T09:46:02.699Z</time></trkpt><trkpt lat="44.1684483" lon="12.04876"><ele>48.0</ele><time>2026-04-04T09:46:03.7Z</time></trkpt><trkpt lat="44.1686608" lon="12.0485823"><ele>48.0</ele><time>2026-04-04T09:46:04.7Z</time></trkpt><trkpt lat="44.1688805" lon="12.0484179"><ele>48.0</ele><time>2026-04-04T09:46:05.7Z</time></trkpt><trkpt lat="44.1691125" lon="12.0482511"><ele>48.5</ele><time>2026-04-04T09:46:06.699Z</time></trkpt><trkpt lat="44.1693484" lon="12.0480807"><ele>49.0</ele><time>2026-04-04T09:46:07.7Z</time></trkpt><trkpt lat="44.1695827" lon="12.0479084"><ele>49.0</ele><time>2026-04-04T09:46:08.699Z</time></trkpt><trkpt lat="44.1698217" lon="12.0477223"><ele>49.0</ele><time>2026-04-04T09:46:09.699Z</time></trkpt><trkpt lat="44.1700644" lon="12.0475413"><ele>48.5</ele><time>2026-04-04T09:46:10.699Z</time></trkpt><trkpt lat="44.1703117" lon="12.0473695"><ele>48.0</ele><time>2026-04-04T09:46:11.699Z</time></trkpt><trkpt lat="44.1705603" lon="12.0471888"><ele>47.5</ele><time>2026-04-04T09:46:12.7Z</time></trkpt><trkpt lat="44.1708062" lon="12.0470016"><ele>47.0</ele><time>2026-04-04T09:46:13.7Z</time></trkpt><trkpt lat="44.171043" lon="12.0468152"><ele>47.0</ele><time>2026-04-04T09:46:14.7Z</time></trkpt><trkpt lat="44.1712834" lon="12.0466286"><ele>47.0</ele><time>2026-04-04T09:46:15.699Z</time></trkpt><trkpt lat="44.1715287" lon="12.046437"><ele>46.0</ele><time>2026-04-04T09:46:16.699Z</time></trkpt><trkpt lat="44.1717714" lon="12.0462429"><ele>45.0</ele><time>2026-04-04T09:46:17.699Z</time></trkpt><trkpt lat="44.172016" lon="12.0460518"><ele>45.0</ele><time>2026-04-04T09:46:18.699Z</time></trkpt><trkpt lat="44.1722634" lon="12.0458451"><ele>45.0</ele><time>2026-04-04T09:46:19.7Z</time></trkpt><trkpt lat="44.1725081" lon="12.045647"><ele>44.5</ele><time>2026-04-04T09:46:20.699Z</time></trkpt><trkpt lat="44.1727594" lon="12.0454541"><ele>44.0</ele><time>2026-04-04T09:46:21.699Z</time></trkpt><trkpt lat="44.1730088" lon="12.0452677"><ele>44.0</ele><time>2026-04-04T09:46:22.699Z</time></trkpt><trkpt lat="44.1732537" lon="12.0450787"><ele>44.0</ele><time>2026-04-04T09:46:23.7Z</time></trkpt><trkpt lat="44.1734945" lon="12.0448886"><ele>44.0</ele><time>2026-04-04T09:46:24.699Z</time></trkpt><trkpt lat="44.1737338" lon="12.0447025"><ele>44.0</ele><time>2026-04-04T09:46:25.699Z</time></trkpt><trkpt lat="44.1739651" lon="12.0445174"><ele>44.0</ele><time>2026-04-04T09:46:26.7Z</time></trkpt><trkpt lat="44.174184" lon="12.0443455"><ele>44.0</ele><time>2026-04-04T09:46:27.7Z</time></trkpt><trkpt lat="44.1743851" lon="12.0441876"><ele>44.0</ele><time>2026-04-04T09:46:28.699Z</time></trkpt><trkpt lat="44.1745579" lon="12.0440507"><ele>44.0</ele><time>2026-04-04T09:46:29.699Z</time></trkpt><trkpt lat="44.1746917" lon="12.043935"><ele>44.0</ele><time>2026-04-04T09:46:30.699Z</time></trkpt><trkpt lat="44.1748067" lon="12.0438517"><ele>44.0</ele><time>2026-04-04T09:46:31.7Z</time></trkpt><trkpt lat="44.17491" lon="12.0437733"><ele>44.0</ele><time>2026-04-04T09:46:32.7Z</time></trkpt><trkpt lat="44.175005" lon="12.04369"><ele>44.0</ele><time>2026-04-04T09:46:33.699Z</time></trkpt><trkpt lat="44.1751133" lon="12.0435983"><ele>44.0</ele><time>2026-04-04T09:46:34.699Z</time></trkpt><trkpt lat="44.1752383" lon="12.0434933"><ele>44.0</ele><time>2026-04-04T09:46:35.699Z</time></trkpt><trkpt lat="44.1753867" lon="12.04339"><ele>44.0</ele><time>2026-04-04T09:46:36.7Z</time></trkpt><trkpt lat="44.17554" lon="12.0432733"><ele>44.0</ele><time>2026-04-04T09:46:37.7Z</time></trkpt><trkpt lat="44.1757133" lon="12.0431417"><ele>44.33333333333333</ele><time>2026-04-04T09:46:38.7Z</time></trkpt><trkpt lat="44.1758983" lon="12.043005"><ele>44.666666666666664</ele><time>2026-04-04T09:46:39.699Z</time></trkpt><trkpt lat="44.1761" lon="12.0428717"><ele>45.0</ele><time>2026-04-04T09:46:40.699Z</time></trkpt><trkpt lat="44.17631" lon="12.0427333"><ele>44.0</ele><time>2026-04-04T09:46:41.699Z</time></trkpt><trkpt lat="44.176525" lon="12.0426033"><ele>43.0</ele><time>2026-04-04T09:46:42.699Z</time></trkpt><trkpt lat="44.1767517" lon="12.042495"><ele>43.5</ele><time>2026-04-04T09:46:43.699Z</time></trkpt><trkpt lat="44.1769817" lon="12.0423933"><ele>44.0</ele><time>2026-04-04T09:46:44.699Z</time></trkpt><trkpt lat="44.177205" lon="12.0422883"><ele>43.5</ele><time>2026-04-04T09:46:45.7Z</time></trkpt><trkpt lat="44.177425" lon="12.0422"><ele>43.0</ele><time>2026-04-04T09:46:46.699Z</time></trkpt><trkpt lat="44.1776517" lon="12.0421167"><ele>43.0</ele><time>2026-04-04T09:46:47.7Z</time></trkpt><trkpt lat="44.1778817" lon="12.0420283"><ele>43.0</ele><time>2026-04-04T09:46:48.7Z</time></trkpt><trkpt lat="44.17812" lon="12.0419417"><ele>43.0</ele><time>2026-04-04T09:46:49.7Z</time></trkpt><trkpt lat="44.17835" lon="12.04186"><ele>43.0</ele><time>2026-04-04T09:46:50.699Z</time></trkpt><trkpt lat="44.1785833" lon="12.0417833"><ele>43.0</ele><time>2026-04-04T09:46:51.699Z</time></trkpt><trkpt lat="44.1788167" lon="12.0416917"><ele>43.0</ele><time>2026-04-04T09:46:52.7Z</time></trkpt><trkpt lat="44.1790417" lon="12.0415933"><ele>43.0</ele><time>2026-04-04T09:46:53.7Z</time></trkpt><trkpt lat="44.1792517" lon="12.04151"><ele>43.0</ele><time>2026-04-04T09:46:54.699Z</time></trkpt><trkpt lat="44.1794533" lon="12.0414433"><ele>43.0</ele><time>2026-04-04T09:46:55.7Z</time></trkpt><trkpt lat="44.1796383" lon="12.041405"><ele>43.0</ele><time>2026-04-04T09:46:56.699Z</time></trkpt><trkpt lat="44.17979" lon="12.0414083"><ele>43.0</ele><time>2026-04-04T09:46:57.699Z</time></trkpt><trkpt lat="44.17993" lon="12.041375"><ele>43.0</ele><time>2026-04-04T09:46:58.7Z</time></trkpt><trkpt lat="44.1800433" lon="12.041315"><ele>43.0</ele><time>2026-04-04T09:46:59.7Z</time></trkpt><trkpt lat="44.1801133" lon="12.041235"><ele>42.8</ele><time>2026-04-04T09:47:00.7Z</time></trkpt><trkpt lat="44.1801917" lon="12.0411533"><ele>42.599999999999994</ele><time>2026-04-04T09:47:02.7Z</time></trkpt><trkpt lat="44.1803083" lon="12.0411183"><ele>42.400000000000006</ele><time>2026-04-04T09:47:04.699Z</time></trkpt><trkpt lat="44.18039" lon="12.04109"><ele>42.2</ele><time>2026-04-04T09:47:05.699Z</time></trkpt><trkpt lat="44.18045" lon="12.04102"><ele>42.0</ele><time>2026-04-04T09:47:06.7Z</time></trkpt><trkpt lat="44.1804867" lon="12.0409167"><ele>42.0</ele><time>2026-04-04T09:47:07.7Z</time></trkpt><trkpt lat="44.18048" lon="12.0408033"><ele>42.0</ele><time>2026-04-04T09:47:08.699Z</time></trkpt><trkpt lat="44.1804333" lon="12.0407017"><ele>42.0</ele><time>2026-04-04T09:47:09.7Z</time></trkpt><trkpt lat="44.1803483" lon="12.040635"><ele>42.0</ele><time>2026-04-04T09:47:10.699Z</time></trkpt><trkpt lat="44.18023" lon="12.0406033"><ele>42.0</ele><time>2026-04-04T09:47:11.699Z</time></trkpt><trkpt lat="44.180105" lon="12.04056"><ele>42.0</ele><time>2026-04-04T09:47:12.699Z</time></trkpt><trkpt lat="44.17997" lon="12.0404533"><ele>42.0</ele><time>2026-04-04T09:47:13.7Z</time></trkpt><trkpt lat="44.179825" lon="12.040325"><ele>42.0</ele><time>2026-04-04T09:47:14.7Z</time></trkpt><trkpt lat="44.1796733" lon="12.0401833"><ele>42.0</ele><time>2026-04-04T09:47:15.699Z</time></trkpt><trkpt lat="44.1795083" lon="12.0400383"><ele>42.0</ele><time>2026-04-04T09:47:16.699Z</time></trkpt><trkpt lat="44.179345" lon="12.0398917"><ele>42.0</ele><time>2026-04-04T09:47:17.699Z</time></trkpt><trkpt lat="44.1791667" lon="12.0397383"><ele>42.333333333333336</ele><time>2026-04-04T09:47:18.699Z</time></trkpt><trkpt lat="44.17898" lon="12.039595"><ele>42.66666666666667</ele><time>2026-04-04T09:47:19.7Z</time></trkpt><trkpt lat="44.1787767" lon="12.0394583"><ele>43.0</ele><time>2026-04-04T09:47:20.699Z</time></trkpt><trkpt lat="44.1785733" lon="12.039325"><ele>43.0</ele><time>2026-04-04T09:47:21.699Z</time></trkpt><trkpt lat="44.178355" lon="12.03919"><ele>43.0</ele><time>2026-04-04T09:47:22.699Z</time></trkpt><trkpt lat="44.1781267" lon="12.03906"><ele>43.0</ele><time>2026-04-04T09:47:23.699Z</time></trkpt><trkpt lat="44.1779017" lon="12.0389383"><ele>43.0</ele><time>2026-04-04T09:47:24.7Z</time></trkpt><trkpt lat="44.1776733" lon="12.0388233"><ele>43.0</ele><time>2026-04-04T09:47:25.699Z</time></trkpt><trkpt lat="44.177435" lon="12.0387"><ele>43.0</ele><time>2026-04-04T09:47:26.7Z</time></trkpt><trkpt lat="44.1772033" lon="12.0385767"><ele>44.0</ele><time>2026-04-04T09:47:27.699Z</time></trkpt><trkpt lat="44.176965" lon="12.0384517"><ele>45.0</ele><time>2026-04-04T09:47:28.699Z</time></trkpt><trkpt lat="44.1767333" lon="12.0383233"><ele>45.5</ele><time>2026-04-04T09:47:29.699Z</time></trkpt><trkpt lat="44.1765033" lon="12.038175"><ele>46.0</ele><time>2026-04-04T09:47:30.699Z</time></trkpt><trkpt lat="44.1762633" lon="12.0380283"><ele>46.0</ele><time>2026-04-04T09:47:31.699Z</time></trkpt><trkpt lat="44.176025" lon="12.0378833"><ele>46.0</ele><time>2026-04-04T09:47:32.7Z</time></trkpt><trkpt lat="44.1757817" lon="12.03773"><ele>45.5</ele><time>2026-04-04T09:47:33.699Z</time></trkpt><trkpt lat="44.1755567" lon="12.0375533"><ele>45.0</ele><time>2026-04-04T09:47:34.7Z</time></trkpt><trkpt lat="44.175325" lon="12.037365"><ele>45.0</ele><time>2026-04-04T09:47:35.699Z</time></trkpt><trkpt lat="44.1750767" lon="12.037185"><ele>45.0</ele><time>2026-04-04T09:47:36.699Z</time></trkpt><trkpt lat="44.1748283" lon="12.0369917"><ele>45.5</ele><time>2026-04-04T09:47:37.7Z</time></trkpt><trkpt lat="44.1745833" lon="12.0367983"><ele>46.0</ele><time>2026-04-04T09:47:38.7Z</time></trkpt><trkpt lat="44.1743433" lon="12.0365967"><ele>46.0</ele><time>2026-04-04T09:47:39.699Z</time></trkpt><trkpt lat="44.1741033" lon="12.0364"><ele>46.0</ele><time>2026-04-04T09:47:40.699Z</time></trkpt><trkpt lat="44.173885" lon="12.036205"><ele>46.5</ele><time>2026-04-04T09:47:41.7Z</time></trkpt><trkpt lat="44.1736783" lon="12.03603"><ele>47.0</ele><time>2026-04-04T09:47:42.699Z</time></trkpt><trkpt lat="44.1734683" lon="12.03585"><ele>47.0</ele><time>2026-04-04T09:47:43.7Z</time></trkpt><trkpt lat="44.1732617" lon="12.0356467"><ele>47.0</ele><time>2026-04-04T09:47:44.699Z</time></trkpt><trkpt lat="44.173055" lon="12.0354233"><ele>47.0</ele><time>2026-04-04T09:47:45.699Z</time></trkpt><trkpt lat="44.1728567" lon="12.0351767"><ele>47.0</ele><time>2026-04-04T09:47:46.699Z</time></trkpt><trkpt lat="44.1726717" lon="12.0348983"><ele>48.0</ele><time>2026-04-04T09:47:47.7Z</time></trkpt><trkpt lat="44.1724833" lon="12.034595"><ele>49.0</ele><time>2026-04-04T09:47:48.699Z</time></trkpt><trkpt lat="44.1723283" lon="12.0342767"><ele>49.0</ele><time>2026-04-04T09:47:49.699Z</time></trkpt><trkpt lat="44.1721983" lon="12.0339267"><ele>49.0</ele><time>2026-04-04T09:47:50.699Z</time></trkpt><trkpt lat="44.1720767" lon="12.03356"><ele>50.0</ele><time>2026-04-04T09:47:51.699Z</time></trkpt><trkpt lat="44.1719783" lon="12.033205"><ele>51.0</ele><time>2026-04-04T09:47:52.699Z</time></trkpt><trkpt lat="44.171905" lon="12.03286"><ele>51.0</ele><time>2026-04-04T09:47:53.699Z</time></trkpt><trkpt lat="44.171855" lon="12.0325467"><ele>51.0</ele><time>2026-04-04T09:47:54.7Z</time></trkpt><trkpt lat="44.1718217" lon="12.03227"><ele>51.0</ele><time>2026-04-04T09:47:55.699Z</time></trkpt><trkpt lat="44.1718017" lon="12.0320467"><ele>51.0</ele><time>2026-04-04T09:47:56.699Z</time></trkpt><trkpt lat="44.171815" lon="12.0318533"><ele>51.0</ele><time>2026-04-04T09:47:57.7Z</time></trkpt><trkpt lat="44.1718383" lon="12.0316867"><ele>51.0</ele><time>2026-04-04T09:47:58.699Z</time></trkpt><trkpt lat="44.1718517" lon="12.03153"><ele>51.0</ele><time>2026-04-04T09:47:59.7Z</time></trkpt><trkpt lat="44.171825" lon="12.0313883"><ele>51.0</ele><time>2026-04-04T09:48:00.7Z</time></trkpt><trkpt lat="44.1717533" lon="12.03124"><ele>51.0</ele><time>2026-04-04T09:48:01.7Z</time></trkpt><trkpt lat="44.171665" lon="12.031075"><ele>51.0</ele><time>2026-04-04T09:48:02.699Z</time></trkpt><trkpt lat="44.1716133" lon="12.0308617"><ele>51.0</ele><time>2026-04-04T09:48:03.7Z</time></trkpt><trkpt lat="44.171565" lon="12.0306183"><ele>51.66666666666667</ele><time>2026-04-04T09:48:04.7Z</time></trkpt><trkpt lat="44.1715233" lon="12.0303667"><ele>52.333333333333336</ele><time>2026-04-04T09:48:05.699Z</time></trkpt><trkpt lat="44.1714767" lon="12.030085"><ele>53.0</ele><time>2026-04-04T09:48:06.7Z</time></trkpt><trkpt lat="44.171425" lon="12.0297867"><ele>53.0</ele><time>2026-04-04T09:48:07.699Z</time></trkpt><trkpt lat="44.1713617" lon="12.0294733"><ele>53.0</ele><time>2026-04-04T09:48:08.7Z</time></trkpt><trkpt lat="44.1713017" lon="12.0291483"><ele>54.0</ele><time>2026-04-04T09:48:09.699Z</time></trkpt><trkpt lat="44.1712433" lon="12.0288217"><ele>55.0</ele><time>2026-04-04T09:48:10.7Z</time></trkpt><trkpt lat="44.1711917" lon="12.028485"><ele>55.5</ele><time>2026-04-04T09:48:11.699Z</time></trkpt><trkpt lat="44.1711483" lon="12.0281333"><ele>56.0</ele><time>2026-04-04T09:48:12.7Z</time></trkpt><trkpt lat="44.1710917" lon="12.0277683"><ele>56.0</ele><time>2026-04-04T09:48:13.7Z</time></trkpt><trkpt lat="44.1710433" lon="12.0274117"><ele>56.0</ele><time>2026-04-04T09:48:14.699Z</time></trkpt><trkpt lat="44.1709733" lon="12.0270633"><ele>56.0</ele><time>2026-04-04T09:48:15.699Z</time></trkpt><trkpt lat="44.1708817" lon="12.02673"><ele>56.0</ele><time>2026-04-04T09:48:16.699Z</time></trkpt><trkpt lat="44.170775" lon="12.0264017"><ele>56.0</ele><time>2026-04-04T09:48:17.699Z</time></trkpt><trkpt lat="44.1706517" lon="12.0260867"><ele>56.0</ele><time>2026-04-04T09:48:18.699Z</time></trkpt><trkpt lat="44.17052" lon="12.025795"><ele>56.0</ele><time>2026-04-04T09:48:19.7Z</time></trkpt><trkpt lat="44.170375" lon="12.02553"><ele>56.0</ele><time>2026-04-04T09:48:20.699Z</time></trkpt><trkpt lat="44.1702317" lon="12.0252783"><ele>56.0</ele><time>2026-04-04T09:48:21.699Z</time></trkpt><trkpt lat="44.1700867" lon="12.025055"><ele>56.0</ele><time>2026-04-04T09:48:22.699Z</time></trkpt><trkpt lat="44.16995" lon="12.0248717"><ele>56.0</ele><time>2026-04-04T09:48:23.7Z</time></trkpt><trkpt lat="44.1698267" lon="12.0247183"><ele>56.0</ele><time>2026-04-04T09:48:24.699Z</time></trkpt><trkpt lat="44.1697383" lon="12.0245717"><ele>56.0</ele><time>2026-04-04T09:48:25.7Z</time></trkpt><trkpt lat="44.1696817" lon="12.0244233"><ele>56.0</ele><time>2026-04-04T09:48:26.699Z</time></trkpt><trkpt lat="44.1696833" lon="12.0242783"><ele>56.0</ele><time>2026-04-04T09:48:27.699Z</time></trkpt><trkpt lat="44.16973" lon="12.0241317"><ele>56.0</ele><time>2026-04-04T09:48:28.7Z</time></trkpt><trkpt lat="44.1698167" lon="12.0239967"><ele>56.0</ele><time>2026-04-04T09:48:29.699Z</time></trkpt><trkpt lat="44.169945" lon="12.0238867"><ele>56.0</ele><time>2026-04-04T09:48:30.699Z</time></trkpt><trkpt lat="44.1700933" lon="12.02379"><ele>56.0</ele><time>2026-04-04T09:48:31.7Z</time></trkpt><trkpt lat="44.1702667" lon="12.02368"><ele>55.66666666666667</ele><time>2026-04-04T09:48:32.7Z</time></trkpt><trkpt lat="44.1704483" lon="12.0235567"><ele>55.33333333333333</ele><time>2026-04-04T09:48:33.699Z</time></trkpt><trkpt lat="44.1706367" lon="12.0234267"><ele>55.0</ele><time>2026-04-04T09:48:34.7Z</time></trkpt><trkpt lat="44.1708333" lon="12.0232867"><ele>54.0</ele><time>2026-04-04T09:48:35.7Z</time></trkpt><trkpt lat="44.1710233" lon="12.0231283"><ele>53.0</ele><time>2026-04-04T09:48:36.7Z</time></trkpt><trkpt lat="44.1712267" lon="12.022975"><ele>53.0</ele><time>2026-04-04T09:48:37.699Z</time></trkpt><trkpt lat="44.1714367" lon="12.0228083"><ele>53.0</ele><time>2026-04-04T09:48:38.699Z</time></trkpt><trkpt lat="44.17165" lon="12.0226483"><ele>53.0</ele><time>2026-04-04T09:48:39.7Z</time></trkpt><trkpt lat="44.1718517" lon="12.0225"><ele>53.0</ele><time>2026-04-04T09:48:40.699Z</time></trkpt><trkpt lat="44.1720433" lon="12.02236"><ele>53.0</ele><time>2026-04-04T09:48:41.699Z</time></trkpt><trkpt lat="44.1722133" lon="12.0222133"><ele>53.0</ele><time>2026-04-04T09:48:42.7Z</time></trkpt><trkpt lat="44.1723433" lon="12.0220383"><ele>53.0</ele><time>2026-04-04T09:48:43.699Z</time></trkpt><trkpt lat="44.172455" lon="12.0218483"><ele>53.0</ele><time>2026-04-04T09:48:44.699Z</time></trkpt><trkpt lat="44.1725383" lon="12.0216483"><ele>52.75</ele><time>2026-04-04T09:48:45.699Z</time></trkpt><trkpt lat="44.17259" lon="12.0214367"><ele>52.5</ele><time>2026-04-04T09:48:46.699Z</time></trkpt><trkpt lat="44.17263" lon="12.02125"><ele>52.25</ele><time>2026-04-04T09:48:47.699Z</time></trkpt><trkpt lat="44.1726717" lon="12.0211333"><ele>52.0</ele><time>2026-04-04T09:48:48.7Z</time></trkpt><trkpt lat="44.1727183" lon="12.02105"><ele>51.99999999999999</ele><time>2026-04-04T09:48:49.699Z</time></trkpt><trkpt lat="44.1727767" lon="12.02098"><ele>52.0</ele><time>2026-04-04T09:48:50.699Z</time></trkpt><trkpt lat="44.172855" lon="12.02092"><ele>52.0</ele><time>2026-04-04T09:48:51.7Z</time></trkpt><trkpt lat="44.172915" lon="12.020855"><ele>52.0</ele><time>2026-04-04T09:48:52.7Z</time></trkpt><trkpt lat="44.1729583" lon="12.020755"><ele>51.99999999999999</ele><time>2026-04-04T09:48:53.7Z</time></trkpt><trkpt lat="44.17296" lon="12.0206267"><ele>52.0</ele><time>2026-04-04T09:48:54.7Z</time></trkpt><trkpt lat="44.1729133" lon="12.0204917"><ele>52.0</ele><time>2026-04-04T09:48:55.7Z</time></trkpt><trkpt lat="44.1728533" lon="12.02033"><ele>52.0</ele><time>2026-04-04T09:48:56.699Z</time></trkpt><trkpt lat="44.1727817" lon="12.0201267"><ele>52.0</ele><time>2026-04-04T09:48:57.699Z</time></trkpt><trkpt lat="44.1727133" lon="12.0199"><ele>52.0</ele><time>2026-04-04T09:48:58.699Z</time></trkpt><trkpt lat="44.1726217" lon="12.0196683"><ele>52.0</ele><time>2026-04-04T09:48:59.7Z</time></trkpt><trkpt lat="44.1725017" lon="12.019455"><ele>52.0</ele><time>2026-04-04T09:49:00.7Z</time></trkpt><trkpt lat="44.1723683" lon="12.019245"><ele>52.0</ele><time>2026-04-04T09:49:01.7Z</time></trkpt><trkpt lat="44.17221" lon="12.0190483"><ele>52.0</ele><time>2026-04-04T09:49:02.699Z</time></trkpt><trkpt lat="44.172045" lon="12.018845"><ele>52.0</ele><time>2026-04-04T09:49:03.7Z</time></trkpt><trkpt lat="44.1718767" lon="12.0186367"><ele>52.0</ele><time>2026-04-04T09:49:04.699Z</time></trkpt><trkpt lat="44.171715" lon="12.0184167"><ele>52.0</ele><time>2026-04-04T09:49:05.699Z</time></trkpt><trkpt lat="44.17155" lon="12.0181983"><ele>52.5</ele><time>2026-04-04T09:49:06.699Z</time></trkpt><trkpt lat="44.171385" lon="12.017975"><ele>53.0</ele><time>2026-04-04T09:49:07.7Z</time></trkpt><trkpt lat="44.171215" lon="12.0177483"><ele>53.0</ele><time>2026-04-04T09:49:08.699Z</time></trkpt><trkpt lat="44.171045" lon="12.0175133"><ele>53.0</ele><time>2026-04-04T09:49:09.699Z</time></trkpt><trkpt lat="44.1708733" lon="12.0172717"><ele>52.5</ele><time>2026-04-04T09:49:10.699Z</time></trkpt><trkpt lat="44.1707" lon="12.0170267"><ele>52.0</ele><time>2026-04-04T09:49:11.7Z</time></trkpt><trkpt lat="44.1705217" lon="12.016785"><ele>52.0</ele><time>2026-04-04T09:49:12.699Z</time></trkpt><trkpt lat="44.1703367" lon="12.0165433"><ele>52.0</ele><time>2026-04-04T09:49:13.7Z</time></trkpt><trkpt lat="44.17015" lon="12.0162983"><ele>52.0</ele><time>2026-04-04T09:49:14.699Z</time></trkpt><trkpt lat="44.1699717" lon="12.0160433"><ele>52.0</ele><time>2026-04-04T09:49:15.7Z</time></trkpt><trkpt lat="44.16979" lon="12.0157983"><ele>52.5</ele><time>2026-04-04T09:49:16.7Z</time></trkpt><trkpt lat="44.1696133" lon="12.0155767"><ele>53.0</ele><time>2026-04-04T09:49:17.699Z</time></trkpt><trkpt lat="44.16945" lon="12.0153617"><ele>53.0</ele><time>2026-04-04T09:49:18.7Z</time></trkpt><trkpt lat="44.169295" lon="12.0151583"><ele>53.0</ele><time>2026-04-04T09:49:19.7Z</time></trkpt><trkpt lat="44.1691467" lon="12.014955"><ele>53.0</ele><time>2026-04-04T09:49:20.699Z</time></trkpt><trkpt lat="44.1689983" lon="12.0147383"><ele>54.5</ele><time>2026-04-04T09:49:21.699Z</time></trkpt><trkpt lat="44.1688433" lon="12.0145067"><ele>56.0</ele><time>2026-04-04T09:49:22.699Z</time></trkpt><trkpt lat="44.16868" lon="12.01426"><ele>55.0</ele><time>2026-04-04T09:49:23.699Z</time></trkpt><trkpt lat="44.1685083" lon="12.0139983"><ele>54.0</ele><time>2026-04-04T09:49:24.699Z</time></trkpt><trkpt lat="44.168335" lon="12.0137183"><ele>54.5</ele><time>2026-04-04T09:49:25.699Z</time></trkpt><trkpt lat="44.1681617" lon="12.0134283"><ele>55.0</ele><time>2026-04-04T09:49:26.7Z</time></trkpt><trkpt lat="44.1679833" lon="12.0131317"><ele>55.0</ele><time>2026-04-04T09:49:27.7Z</time></trkpt><trkpt lat="44.1678167" lon="12.0128417"><ele>55.0</ele><time>2026-04-04T09:49:28.699Z</time></trkpt><trkpt lat="44.1676333" lon="12.0125733"><ele>55.0</ele><time>2026-04-04T09:49:29.699Z</time></trkpt><trkpt lat="44.1674383" lon="12.0123283"><ele>55.0</ele><time>2026-04-04T09:49:30.699Z</time></trkpt><trkpt lat="44.167245" lon="12.0121117"><ele>55.0</ele><time>2026-04-04T09:49:31.7Z</time></trkpt><trkpt lat="44.1670617" lon="12.0119267"><ele>55.0</ele><time>2026-04-04T09:49:32.699Z</time></trkpt><trkpt lat="44.1668833" lon="12.0117567"><ele>55.0</ele><time>2026-04-04T09:49:33.699Z</time></trkpt><trkpt lat="44.1667033" lon="12.0116"><ele>54.666666666666664</ele><time>2026-04-04T09:49:34.7Z</time></trkpt><trkpt lat="44.166525" lon="12.01145"><ele>54.33333333333333</ele><time>2026-04-04T09:49:35.699Z</time></trkpt><trkpt lat="44.166335" lon="12.0113067"><ele>54.0</ele><time>2026-04-04T09:49:36.699Z</time></trkpt><trkpt lat="44.1661267" lon="12.01115"><ele>54.0</ele><time>2026-04-04T09:49:37.7Z</time></trkpt><trkpt lat="44.165915" lon="12.011"><ele>54.0</ele><time>2026-04-04T09:49:38.699Z</time></trkpt><trkpt lat="44.1657083" lon="12.0108267"><ele>55.5</ele><time>2026-04-04T09:49:39.699Z</time></trkpt><trkpt lat="44.1654883" lon="12.0106483"><ele>57.0</ele><time>2026-04-04T09:49:40.699Z</time></trkpt><trkpt lat="44.165255" lon="12.0104917"><ele>57.0</ele><time>2026-04-04T09:49:41.7Z</time></trkpt><trkpt lat="44.165025" lon="12.0103317"><ele>57.0</ele><time>2026-04-04T09:49:42.699Z</time></trkpt><trkpt lat="44.164815" lon="12.0101567"><ele>52.5</ele><time>2026-04-04T09:49:43.699Z</time></trkpt><trkpt lat="44.1646167" lon="12.009985"><ele>48.0</ele><time>2026-04-04T09:49:44.7Z</time></trkpt><trkpt lat="44.1644167" lon="12.0098233"><ele>48.0</ele><time>2026-04-04T09:49:45.7Z</time></trkpt><trkpt lat="44.1642" lon="12.0096733"><ele>48.0</ele><time>2026-04-04T09:49:46.7Z</time></trkpt><trkpt lat="44.1639833" lon="12.0095183"><ele>50.0</ele><time>2026-04-04T09:49:47.7Z</time></trkpt><trkpt lat="44.163775" lon="12.00936"><ele>52.0</ele><time>2026-04-04T09:49:48.7Z</time></trkpt><trkpt lat="44.1635683" lon="12.009215"><ele>53.5</ele><time>2026-04-04T09:49:49.7Z</time></trkpt><trkpt lat="44.1633683" lon="12.0090567"><ele>55.0</ele><time>2026-04-04T09:49:50.7Z</time></trkpt><trkpt lat="44.1631667" lon="12.0089017"><ele>55.0</ele><time>2026-04-04T09:49:51.699Z</time></trkpt><trkpt lat="44.16296" lon="12.00876"><ele>55.0</ele><time>2026-04-04T09:49:52.699Z</time></trkpt><trkpt lat="44.162765" lon="12.008615"><ele>55.0</ele><time>2026-04-04T09:49:53.7Z</time></trkpt><trkpt lat="44.16258" lon="12.0084717"><ele>55.0</ele><time>2026-04-04T09:49:54.699Z</time></trkpt><trkpt lat="44.162405" lon="12.00835"><ele>55.0</ele><time>2026-04-04T09:49:55.699Z</time></trkpt><trkpt lat="44.16225" lon="12.00824"><ele>55.666666666666664</ele><time>2026-04-04T09:49:56.699Z</time></trkpt><trkpt lat="44.16211" lon="12.00814"><ele>56.33333333333333</ele><time>2026-04-04T09:49:57.7Z</time></trkpt><trkpt lat="44.1619767" lon="12.0080417"><ele>57.0</ele><time>2026-04-04T09:49:58.699Z</time></trkpt><trkpt lat="44.1618483" lon="12.0079383"><ele>57.0</ele><time>2026-04-04T09:49:59.7Z</time></trkpt><trkpt lat="44.1617283" lon="12.0078483"><ele>57.0</ele><time>2026-04-04T09:50:00.699Z</time></trkpt><trkpt lat="44.1616183" lon="12.0077667"><ele>57.0</ele><time>2026-04-04T09:50:01.699Z</time></trkpt><trkpt lat="44.1615117" lon="12.0076767"><ele>57.0</ele><time>2026-04-04T09:50:02.7Z</time></trkpt><trkpt lat="44.1613917" lon="12.0075833"><ele>59.0</ele><time>2026-04-04T09:50:03.699Z</time></trkpt><trkpt lat="44.16126" lon="12.0074783"><ele>61.0</ele><time>2026-04-04T09:50:04.699Z</time></trkpt><trkpt lat="44.1611" lon="12.0073733"><ele>63.0</ele><time>2026-04-04T09:50:05.699Z</time></trkpt><trkpt lat="44.1609333" lon="12.0072467"><ele>63.0</ele><time>2026-04-04T09:50:06.699Z</time></trkpt><trkpt lat="44.16077" lon="12.007105"><ele>63.0</ele><time>2026-04-04T09:50:07.7Z</time></trkpt><trkpt lat="44.160615" lon="12.0069433"><ele>63.0</ele><time>2026-04-04T09:50:08.699Z</time></trkpt><trkpt lat="44.1604783" lon="12.0067633"><ele>64.33333333333333</ele><time>2026-04-04T09:50:09.7Z</time></trkpt><trkpt lat="44.1603533" lon="12.0065717"><ele>65.66666666666666</ele><time>2026-04-04T09:50:10.699Z</time></trkpt><trkpt lat="44.1602283" lon="12.0063667"><ele>67.0</ele><time>2026-04-04T09:50:11.699Z</time></trkpt><trkpt lat="44.1601067" lon="12.0061467"><ele>67.0</ele><time>2026-04-04T09:50:12.7Z</time></trkpt><trkpt lat="44.1599967" lon="12.00593"><ele>67.0</ele><time>2026-04-04T09:50:13.699Z</time></trkpt><trkpt lat="44.159865" lon="12.0057217"><ele>67.0</ele><time>2026-04-04T09:50:14.699Z</time></trkpt><trkpt lat="44.15976" lon="12.005495"><ele>67.33333333333333</ele><time>2026-04-04T09:50:15.699Z</time></trkpt><trkpt lat="44.159645" lon="12.0052633"><ele>67.66666666666667</ele><time>2026-04-04T09:50:16.7Z</time></trkpt><trkpt lat="44.15951" lon="12.005035"><ele>68.0</ele><time>2026-04-04T09:50:17.699Z</time></trkpt><trkpt lat="44.1593767" lon="12.0048017"><ele>68.33333333333334</ele><time>2026-04-04T09:50:18.699Z</time></trkpt><trkpt lat="44.15925" lon="12.0045767"><ele>68.66666666666667</ele><time>2026-04-04T09:50:19.699Z</time></trkpt><trkpt lat="44.1591217" lon="12.0043533"><ele>69.0</ele><time>2026-04-04T09:50:20.699Z</time></trkpt><trkpt lat="44.159" lon="12.0041433"><ele>68.0</ele><time>2026-04-04T09:50:21.699Z</time></trkpt><trkpt lat="44.1588817" lon="12.0039383"><ele>67.0</ele><time>2026-04-04T09:50:22.699Z</time></trkpt><trkpt lat="44.1587817" lon="12.0037417"><ele>66.0</ele><time>2026-04-04T09:50:23.699Z</time></trkpt><trkpt lat="44.1586717" lon="12.0035667"><ele>66.0</ele><time>2026-04-04T09:50:24.699Z</time></trkpt><trkpt lat="44.1585733" lon="12.0033833"><ele>66.0</ele><time>2026-04-04T09:50:25.7Z</time></trkpt><trkpt lat="44.158465" lon="12.0031933"><ele>66.0</ele><time>2026-04-04T09:50:26.699Z</time></trkpt><trkpt lat="44.1583617" lon="12.0029967"><ele>66.0</ele><time>2026-04-04T09:50:27.699Z</time></trkpt><trkpt lat="44.1582483" lon="12.0027867"><ele>66.0</ele><time>2026-04-04T09:50:28.7Z</time></trkpt><trkpt lat="44.1581317" lon="12.0025783"><ele>66.0</ele><time>2026-04-04T09:50:29.699Z</time></trkpt><trkpt lat="44.1580133" lon="12.0023667"><ele>67.0</ele><time>2026-04-04T09:50:30.7Z</time></trkpt><trkpt lat="44.1578933" lon="12.0021433"><ele>68.0</ele><time>2026-04-04T09:50:31.699Z</time></trkpt><trkpt lat="44.157775" lon="12.00192"><ele>69.0</ele><time>2026-04-04T09:50:32.699Z</time></trkpt><trkpt lat="44.1576583" lon="12.0016983"><ele>68.66666666666667</ele><time>2026-04-04T09:50:33.699Z</time></trkpt><trkpt lat="44.157535" lon="12.00149"><ele>68.33333333333334</ele><time>2026-04-04T09:50:34.7Z</time></trkpt><trkpt lat="44.1574117" lon="12.001275"><ele>68.0</ele><time>2026-04-04T09:50:35.7Z</time></trkpt><trkpt lat="44.1572883" lon="12.0010717"><ele>68.33333333333334</ele><time>2026-04-04T09:50:36.7Z</time></trkpt><trkpt lat="44.1571583" lon="12.0008767"><ele>68.66666666666667</ele><time>2026-04-04T09:50:37.699Z</time></trkpt><trkpt lat="44.1570283" lon="12.0006967"><ele>69.0</ele><time>2026-04-04T09:50:38.7Z</time></trkpt><trkpt lat="44.1568967" lon="12.00053"><ele>69.0</ele><time>2026-04-04T09:50:39.7Z</time></trkpt><trkpt lat="44.1567717" lon="12.0003717"><ele>69.0</ele><time>2026-04-04T09:50:40.699Z</time></trkpt><trkpt lat="44.1566517" lon="12.0002217"><ele>69.0</ele><time>2026-04-04T09:50:41.7Z</time></trkpt><trkpt lat="44.1565167" lon="12.0000783"><ele>69.66666666666667</ele><time>2026-04-04T09:50:42.699Z</time></trkpt><trkpt lat="44.1563833" lon="11.9999083"><ele>70.33333333333334</ele><time>2026-04-04T09:50:43.699Z</time></trkpt><trkpt lat="44.15625" lon="11.999715"><ele>71.0</ele><time>2026-04-04T09:50:44.699Z</time></trkpt><trkpt lat="44.1560883" lon="11.9995333"><ele>71.0</ele><time>2026-04-04T09:50:45.699Z</time></trkpt><trkpt lat="44.1559233" lon="11.9993383"><ele>71.0</ele><time>2026-04-04T09:50:46.7Z</time></trkpt><trkpt lat="44.1557583" lon="11.99913"><ele>71.0</ele><time>2026-04-04T09:50:47.7Z</time></trkpt><trkpt lat="44.155585" lon="11.9989233"><ele>71.0</ele><time>2026-04-04T09:50:48.699Z</time></trkpt><trkpt lat="44.1554" lon="11.998715"><ele>71.0</ele><time>2026-04-04T09:50:49.699Z</time></trkpt><trkpt lat="44.155225" lon="11.998495"><ele>72.0</ele><time>2026-04-04T09:50:50.7Z</time></trkpt><trkpt lat="44.15506" lon="11.99829"><ele>73.0</ele><time>2026-04-04T09:50:51.699Z</time></trkpt><trkpt lat="44.1549" lon="11.99809"><ele>74.0</ele><time>2026-04-04T09:50:52.7Z</time></trkpt><trkpt lat="44.1547483" lon="11.9979083"><ele>74.66666666666667</ele><time>2026-04-04T09:50:53.7Z</time></trkpt><trkpt lat="44.1546067" lon="11.9977367"><ele>75.33333333333333</ele><time>2026-04-04T09:50:54.7Z</time></trkpt><trkpt lat="44.154465" lon="11.9975667"><ele>76.0</ele><time>2026-04-04T09:50:55.699Z</time></trkpt><trkpt lat="44.1543367" lon="11.9973867"><ele>76.0</ele><time>2026-04-04T09:50:56.699Z</time></trkpt><trkpt lat="44.154195" lon="11.9972183"><ele>76.0</ele><time>2026-04-04T09:50:57.699Z</time></trkpt><trkpt lat="44.1540517" lon="11.9970567"><ele>76.0</ele><time>2026-04-04T09:50:58.699Z</time></trkpt><trkpt lat="44.1539067" lon="11.996885"><ele>76.0</ele><time>2026-04-04T09:50:59.699Z</time></trkpt><trkpt lat="44.1537683" lon="11.9967183"><ele>76.0</ele><time>2026-04-04T09:51:00.699Z</time></trkpt><trkpt lat="44.1536367" lon="11.99656"><ele>76.0</ele><time>2026-04-04T09:51:01.7Z</time></trkpt><trkpt lat="44.1535083" lon="11.9964217"><ele>76.0</ele><time>2026-04-04T09:51:02.699Z</time></trkpt><trkpt lat="44.15338" lon="11.996275"><ele>76.0</ele><time>2026-04-04T09:51:03.699Z</time></trkpt><trkpt lat="44.153235" lon="11.9961467"><ele>76.0</ele><time>2026-04-04T09:51:04.699Z</time></trkpt><trkpt lat="44.153085" lon="11.99603"><ele>76.66666666666666</ele><time>2026-04-04T09:51:05.7Z</time></trkpt><trkpt lat="44.152925" lon="11.9959267"><ele>77.33333333333333</ele><time>2026-04-04T09:51:06.7Z</time></trkpt><trkpt lat="44.1527433" lon="11.9958283"><ele>78.0</ele><time>2026-04-04T09:51:07.7Z</time></trkpt><trkpt lat="44.1525483" lon="11.99573"><ele>77.33333333333333</ele><time>2026-04-04T09:51:08.699Z</time></trkpt><trkpt lat="44.152345" lon="11.9956283"><ele>76.66666666666666</ele><time>2026-04-04T09:51:09.699Z</time></trkpt><trkpt lat="44.1521317" lon="11.99551"><ele>76.0</ele><time>2026-04-04T09:51:10.699Z</time></trkpt><trkpt lat="44.1519067" lon="11.99539"><ele>76.0</ele><time>2026-04-04T09:51:11.699Z</time></trkpt><trkpt lat="44.15168" lon="11.99526"><ele>76.0</ele><time>2026-04-04T09:51:12.699Z</time></trkpt><trkpt lat="44.151455" lon="11.9951133"><ele>77.0</ele><time>2026-04-04T09:51:13.7Z</time></trkpt><trkpt lat="44.1512317" lon="11.99495"><ele>78.0</ele><time>2026-04-04T09:51:14.699Z</time></trkpt><trkpt lat="44.1510233" lon="11.99475"><ele>78.0</ele><time>2026-04-04T09:51:15.699Z</time></trkpt><trkpt lat="44.1508267" lon="11.9945283"><ele>78.0</ele><time>2026-04-04T09:51:16.7Z</time></trkpt><trkpt lat="44.1506317" lon="11.9942767"><ele>77.0</ele><time>2026-04-04T09:51:17.699Z</time></trkpt><trkpt lat="44.1504583" lon="11.9939917"><ele>76.0</ele><time>2026-04-04T09:51:18.7Z</time></trkpt><trkpt lat="44.150305" lon="11.9936867"><ele>76.0</ele><time>2026-04-04T09:51:19.699Z</time></trkpt><trkpt lat="44.1501667" lon="11.9933667"><ele>76.0</ele><time>2026-04-04T09:51:20.7Z</time></trkpt><trkpt lat="44.1500267" lon="11.9930317"><ele>78.0</ele><time>2026-04-04T09:51:21.699Z</time></trkpt><trkpt lat="44.1498983" lon="11.992685"><ele>80.0</ele><time>2026-04-04T09:51:22.699Z</time></trkpt><trkpt lat="44.1497917" lon="11.9923283"><ele>80.0</ele><time>2026-04-04T09:51:23.699Z</time></trkpt><trkpt lat="44.14969" lon="11.9919533"><ele>80.0</ele><time>2026-04-04T09:51:24.699Z</time></trkpt><trkpt lat="44.1496" lon="11.9915717"><ele>80.5</ele><time>2026-04-04T09:51:25.699Z</time></trkpt><trkpt lat="44.1495133" lon="11.991195"><ele>81.0</ele><time>2026-04-04T09:51:26.699Z</time></trkpt><trkpt lat="44.1494183" lon="11.9908183"><ele>81.5</ele><time>2026-04-04T09:51:27.7Z</time></trkpt><trkpt lat="44.1493183" lon="11.9904517"><ele>82.0</ele><time>2026-04-04T09:51:28.699Z</time></trkpt><trkpt lat="44.149225" lon="11.99008"><ele>82.0</ele><time>2026-04-04T09:51:29.699Z</time></trkpt><trkpt lat="44.14913" lon="11.98971"><ele>82.0</ele><time>2026-04-04T09:51:30.699Z</time></trkpt><trkpt lat="44.14904" lon="11.98934"><ele>84.0</ele><time>2026-04-04T09:51:31.7Z</time></trkpt><trkpt lat="44.1489467" lon="11.9889667"><ele>86.0</ele><time>2026-04-04T09:51:32.699Z</time></trkpt><trkpt lat="44.1488467" lon="11.988595"><ele>86.0</ele><time>2026-04-04T09:51:33.699Z</time></trkpt><trkpt lat="44.14874" lon="11.9882167"><ele>86.0</ele><time>2026-04-04T09:51:34.699Z</time></trkpt><trkpt lat="44.1486183" lon="11.987855"><ele>86.5</ele><time>2026-04-04T09:51:35.699Z</time></trkpt><trkpt lat="44.1484767" lon="11.9875017"><ele>87.0</ele><time>2026-04-04T09:51:36.7Z</time></trkpt><trkpt lat="44.148325" lon="11.9871533"><ele>86.0</ele><time>2026-04-04T09:51:37.699Z</time></trkpt><trkpt lat="44.148145" lon="11.98683"><ele>85.0</ele><time>2026-04-04T09:51:38.699Z</time></trkpt><trkpt lat="44.14795" lon="11.9865183"><ele>87.5</ele><time>2026-04-04T09:51:39.699Z</time></trkpt><trkpt lat="44.1477517" lon="11.9862117"><ele>90.0</ele><time>2026-04-04T09:51:40.7Z</time></trkpt><trkpt lat="44.147555" lon="11.98592"><ele>90.5</ele><time>2026-04-04T09:51:41.699Z</time></trkpt><trkpt lat="44.1473417" lon="11.9856367"><ele>91.0</ele><time>2026-04-04T09:51:42.7Z</time></trkpt><trkpt lat="44.14712" lon="11.98538"><ele>91.0</ele><time>2026-04-04T09:51:43.699Z</time></trkpt><trkpt lat="44.1468833" lon="11.9851433"><ele>91.0</ele><time>2026-04-04T09:51:44.7Z</time></trkpt><trkpt lat="44.1466417" lon="11.9849167"><ele>91.5</ele><time>2026-04-04T09:51:45.7Z</time></trkpt><trkpt lat="44.1463883" lon="11.984705"><ele>92.0</ele><time>2026-04-04T09:51:46.7Z</time></trkpt><trkpt lat="44.1461267" lon="11.9845017"><ele>92.0</ele><time>2026-04-04T09:51:47.7Z</time></trkpt><trkpt lat="44.145865" lon="11.9842983"><ele>92.0</ele><time>2026-04-04T09:51:48.7Z</time></trkpt><trkpt lat="44.1456017" lon="11.9840933"><ele>94.0</ele><time>2026-04-04T09:51:49.7Z</time></trkpt><trkpt lat="44.1453383" lon="11.98388"><ele>96.0</ele><time>2026-04-04T09:51:50.7Z</time></trkpt><trkpt lat="44.1450717" lon="11.9836667"><ele>96.0</ele><time>2026-04-04T09:51:51.699Z</time></trkpt><trkpt lat="44.144805" lon="11.9834533"><ele>96.0</ele><time>2026-04-04T09:51:52.7Z</time></trkpt><trkpt lat="44.14454" lon="11.9832383"><ele>97.0</ele><time>2026-04-04T09:51:53.699Z</time></trkpt><trkpt lat="44.1442783" lon="11.983015"><ele>98.0</ele><time>2026-04-04T09:51:54.699Z</time></trkpt><trkpt lat="44.1440167" lon="11.982815"><ele>98.0</ele><time>2026-04-04T09:51:55.7Z</time></trkpt><trkpt lat="44.1437533" lon="11.9826267"><ele>98.0</ele><time>2026-04-04T09:51:56.699Z</time></trkpt><trkpt lat="44.14349" lon="11.9824483"><ele>98.0</ele><time>2026-04-04T09:51:57.699Z</time></trkpt><trkpt lat="44.1432183" lon="11.9822917"><ele>98.0</ele><time>2026-04-04T09:51:58.699Z</time></trkpt><trkpt lat="44.1429433" lon="11.982155"><ele>98.0</ele><time>2026-04-04T09:51:59.7Z</time></trkpt><trkpt lat="44.142655" lon="11.9820283"><ele>98.0</ele><time>2026-04-04T09:52:00.699Z</time></trkpt><trkpt lat="44.1423583" lon="11.9819267"><ele>96.5</ele><time>2026-04-04T09:52:01.699Z</time></trkpt><trkpt lat="44.1420583" lon="11.9818517"><ele>95.0</ele><time>2026-04-04T09:52:02.699Z</time></trkpt><trkpt lat="44.14175" lon="11.9818083"><ele>94.0</ele><time>2026-04-04T09:52:03.7Z</time></trkpt><trkpt lat="44.1414383" lon="11.9817733"><ele>93.0</ele><time>2026-04-04T09:52:04.7Z</time></trkpt><trkpt lat="44.1411183" lon="11.9817383"><ele>93.0</ele><time>2026-04-04T09:52:05.7Z</time></trkpt><trkpt lat="44.140805" lon="11.981715"><ele>93.0</ele><time>2026-04-04T09:52:06.699Z</time></trkpt><trkpt lat="44.1404833" lon="11.981705"><ele>94.0</ele><time>2026-04-04T09:52:07.699Z</time></trkpt><trkpt lat="44.1401867" lon="11.98168"><ele>95.0</ele><time>2026-04-04T09:52:08.699Z</time></trkpt><trkpt lat="44.139895" lon="11.98167"><ele>96.0</ele><time>2026-04-04T09:52:09.699Z</time></trkpt><trkpt lat="44.139625" lon="11.9816483"><ele>97.0</ele><time>2026-04-04T09:52:10.7Z</time></trkpt><trkpt lat="44.1393617" lon="11.98162"><ele>97.0</ele><time>2026-04-04T09:52:11.699Z</time></trkpt><trkpt lat="44.139095" lon="11.9815883"><ele>97.0</ele><time>2026-04-04T09:52:12.7Z</time></trkpt><trkpt lat="44.1388267" lon="11.9815417"><ele>96.0</ele><time>2026-04-04T09:52:13.699Z</time></trkpt><trkpt lat="44.13855" lon="11.9814883"><ele>95.0</ele><time>2026-04-04T09:52:14.699Z</time></trkpt><trkpt lat="44.1382817" lon="11.981415"><ele>94.0</ele><time>2026-04-04T09:52:15.7Z</time></trkpt><trkpt lat="44.1380117" lon="11.9813167"><ele>93.0</ele><time>2026-04-04T09:52:16.699Z</time></trkpt><trkpt lat="44.1377417" lon="11.9812017"><ele>93.0</ele><time>2026-04-04T09:52:17.7Z</time></trkpt><trkpt lat="44.137485" lon="11.98107"><ele>93.0</ele><time>2026-04-04T09:52:18.699Z</time></trkpt><trkpt lat="44.13724" lon="11.9809417"><ele>95.5</ele><time>2026-04-04T09:52:19.699Z</time></trkpt><trkpt lat="44.1369967" lon="11.980815"><ele>98.0</ele><time>2026-04-04T09:52:20.7Z</time></trkpt><trkpt lat="44.136765" lon="11.9806767"><ele>94.0</ele><time>2026-04-04T09:52:21.699Z</time></trkpt><trkpt lat="44.1365283" lon="11.9805283"><ele>90.0</ele><time>2026-04-04T09:52:22.699Z</time></trkpt><trkpt lat="44.1363167" lon="11.980355"><ele>90.0</ele><time>2026-04-04T09:52:23.699Z</time></trkpt><trkpt lat="44.13611" lon="11.980165"><ele>90.0</ele><time>2026-04-04T09:52:24.699Z</time></trkpt><trkpt lat="44.1359067" lon="11.9799783"><ele>90.0</ele><time>2026-04-04T09:52:25.699Z</time></trkpt><trkpt lat="44.1357017" lon="11.9797983"><ele>90.0</ele><time>2026-04-04T09:52:26.7Z</time></trkpt><trkpt lat="44.1355067" lon="11.9796067"><ele>90.0</ele><time>2026-04-04T09:52:27.699Z</time></trkpt><trkpt lat="44.1353183" lon="11.979405"><ele>90.0</ele><time>2026-04-04T09:52:28.7Z</time></trkpt><trkpt lat="44.13512" lon="11.9791883"><ele>89.0</ele><time>2026-04-04T09:52:29.699Z</time></trkpt><trkpt lat="44.134945" lon="11.9789333"><ele>88.0</ele><time>2026-04-04T09:52:30.7Z</time></trkpt><trkpt lat="44.1347567" lon="11.9786633"><ele>88.0</ele><time>2026-04-04T09:52:31.699Z</time></trkpt><trkpt lat="44.1345617" lon="11.9784"><ele>88.0</ele><time>2026-04-04T09:52:32.699Z</time></trkpt><trkpt lat="44.134365" lon="11.97814"><ele>86.5</ele><time>2026-04-04T09:52:33.7Z</time></trkpt><trkpt lat="44.134155" lon="11.9778933"><ele>85.0</ele><time>2026-04-04T09:52:34.699Z</time></trkpt><trkpt lat="44.1339367" lon="11.9776717"><ele>91.0</ele><time>2026-04-04T09:52:35.699Z</time></trkpt><trkpt lat="44.133705" lon="11.9774817"><ele>97.0</ele><time>2026-04-04T09:52:36.7Z</time></trkpt><trkpt lat="44.133465" lon="11.9773283"><ele>95.5</ele><time>2026-04-04T09:52:37.699Z</time></trkpt><trkpt lat="44.133215" lon="11.9772167"><ele>94.0</ele><time>2026-04-04T09:52:38.7Z</time></trkpt><trkpt lat="44.13297" lon="11.9771017"><ele>94.0</ele><time>2026-04-04T09:52:39.699Z</time></trkpt><trkpt lat="44.1327183" lon="11.9769883"><ele>94.0</ele><time>2026-04-04T09:52:40.7Z</time></trkpt><trkpt lat="44.132465" lon="11.9768667"><ele>92.5</ele><time>2026-04-04T09:52:41.7Z</time></trkpt><trkpt lat="44.132215" lon="11.976745"><ele>91.0</ele><time>2026-04-04T09:52:42.699Z</time></trkpt><trkpt lat="44.1319583" lon="11.9766217"><ele>94.5</ele><time>2026-04-04T09:52:43.699Z</time></trkpt><trkpt lat="44.13169" lon="11.9765083"><ele>98.0</ele><time>2026-04-04T09:52:44.699Z</time></trkpt><trkpt lat="44.1314267" lon="11.9763933"><ele>98.0</ele><time>2026-04-04T09:52:45.7Z</time></trkpt><trkpt lat="44.1311617" lon="11.9762633"><ele>98.0</ele><time>2026-04-04T09:52:46.7Z</time></trkpt><trkpt lat="44.130895" lon="11.9761317"><ele>99.0</ele><time>2026-04-04T09:52:47.7Z</time></trkpt><trkpt lat="44.13065" lon="11.9759817"><ele>100.0</ele><time>2026-04-04T09:52:48.699Z</time></trkpt><trkpt lat="44.130415" lon="11.975815"><ele>100.0</ele><time>2026-04-04T09:52:49.7Z</time></trkpt><trkpt lat="44.1301983" lon="11.97566"><ele>100.0</ele><time>2026-04-04T09:52:50.7Z</time></trkpt><trkpt lat="44.1299783" lon="11.975555"><ele>99.5</ele><time>2026-04-04T09:52:51.699Z</time></trkpt><trkpt lat="44.1297482" lon="11.9754954"><ele>99.0</ele><time>2026-04-04T09:52:52.699Z</time></trkpt><trkpt lat="44.1295172" lon="11.9754868"><ele>99.0</ele><time>2026-04-04T09:52:53.7Z</time></trkpt><trkpt lat="44.1292686" lon="11.9755215"><ele>99.0</ele><time>2026-04-04T09:52:54.699Z</time></trkpt><trkpt lat="44.1290081" lon="11.9755568"><ele>98.5</ele><time>2026-04-04T09:52:55.699Z</time></trkpt><trkpt lat="44.1287321" lon="11.9755673"><ele>98.0</ele><time>2026-04-04T09:52:56.699Z</time></trkpt><trkpt lat="44.1284559" lon="11.9755524"><ele>96.5</ele><time>2026-04-04T09:52:57.699Z</time></trkpt><trkpt lat="44.1281815" lon="11.9755092"><ele>95.0</ele><time>2026-04-04T09:52:58.699Z</time></trkpt><trkpt lat="44.1279107" lon="11.9754507"><ele>95.0</ele><time>2026-04-04T09:52:59.7Z</time></trkpt><trkpt lat="44.1276379" lon="11.9753822"><ele>95.0</ele><time>2026-04-04T09:53:00.697Z</time></trkpt><trkpt lat="44.1273628" lon="11.9753119"><ele>94.5</ele><time>2026-04-04T09:53:01.7Z</time></trkpt><trkpt lat="44.1270905" lon="11.9752418"><ele>94.0</ele><time>2026-04-04T09:53:02.7Z</time></trkpt><trkpt lat="44.1268191" lon="11.9751755"><ele>95.5</ele><time>2026-04-04T09:53:03.7Z</time></trkpt><trkpt lat="44.1265491" lon="11.9751241"><ele>97.0</ele><time>2026-04-04T09:53:04.699Z</time></trkpt><trkpt lat="44.1263061" lon="11.9750667"><ele>101.0</ele><time>2026-04-04T09:53:05.7Z</time></trkpt><trkpt lat="44.1260757" lon="11.9750072"><ele>105.0</ele><time>2026-04-04T09:53:06.7Z</time></trkpt><trkpt lat="44.1258539" lon="11.9749422"><ele>105.66666666666666</ele><time>2026-04-04T09:53:07.699Z</time></trkpt><trkpt lat="44.1256478" lon="11.9748792"><ele>106.33333333333333</ele><time>2026-04-04T09:53:08.699Z</time></trkpt><trkpt lat="44.1254562" lon="11.9748249"><ele>107.0</ele><time>2026-04-04T09:53:09.699Z</time></trkpt><trkpt lat="44.1252738" lon="11.9747804"><ele>107.0</ele><time>2026-04-04T09:53:10.699Z</time></trkpt><trkpt lat="44.1251033" lon="11.9747468"><ele>107.0</ele><time>2026-04-04T09:53:11.699Z</time></trkpt><trkpt lat="44.1249371" lon="11.974707"><ele>107.0</ele><time>2026-04-04T09:53:12.699Z</time></trkpt><trkpt lat="44.124775" lon="11.9746668"><ele>107.75</ele><time>2026-04-04T09:53:13.7Z</time></trkpt><trkpt lat="44.1246258" lon="11.9746171"><ele>108.5</ele><time>2026-04-04T09:53:14.699Z</time></trkpt><trkpt lat="44.1244885" lon="11.974569"><ele>109.25</ele><time>2026-04-04T09:53:15.699Z</time></trkpt><trkpt lat="44.1243611" lon="11.9745277"><ele>110.0</ele><time>2026-04-04T09:53:16.699Z</time></trkpt><trkpt lat="44.1242408" lon="11.9744953"><ele>110.0</ele><time>2026-04-04T09:53:17.699Z</time></trkpt><trkpt lat="44.1241187" lon="11.9744746"><ele>110.0</ele><time>2026-04-04T09:53:18.699Z</time></trkpt><trkpt lat="44.1239975" lon="11.9744673"><ele>110.0</ele><time>2026-04-04T09:53:19.699Z</time></trkpt><trkpt lat="44.1238642" lon="11.9744652"><ele>110.0</ele><time>2026-04-04T09:53:20.699Z</time></trkpt><trkpt lat="44.1237154" lon="11.9744671"><ele>107.66666666666666</ele><time>2026-04-04T09:53:21.7Z</time></trkpt><trkpt lat="44.123555" lon="11.9744808"><ele>105.33333333333334</ele><time>2026-04-04T09:53:22.699Z</time></trkpt><trkpt lat="44.1233918" lon="11.9745032"><ele>103.0</ele><time>2026-04-04T09:53:23.699Z</time></trkpt><trkpt lat="44.1232301" lon="11.9745252"><ele>103.0</ele><time>2026-04-04T09:53:24.699Z</time></trkpt><trkpt lat="44.1230783" lon="11.9745367"><ele>103.0</ele><time>2026-04-04T09:53:25.7Z</time></trkpt><trkpt lat="44.1229167" lon="11.97454"><ele>103.0</ele><time>2026-04-04T09:53:26.7Z</time></trkpt><trkpt lat="44.1227417" lon="11.9745317"><ele>103.0</ele><time>2026-04-04T09:53:27.699Z</time></trkpt><trkpt lat="44.12255" lon="11.97449"><ele>103.0</ele><time>2026-04-04T09:53:28.7Z</time></trkpt><trkpt lat="44.1223467" lon="11.974425"><ele>103.0</ele><time>2026-04-04T09:53:29.7Z</time></trkpt><trkpt lat="44.1221317" lon="11.9743533"><ele>103.33333333333334</ele><time>2026-04-04T09:53:30.699Z</time></trkpt><trkpt lat="44.121915" lon="11.9743"><ele>103.66666666666666</ele><time>2026-04-04T09:53:31.699Z</time></trkpt><trkpt lat="44.121695" lon="11.9742667"><ele>104.0</ele><time>2026-04-04T09:53:32.699Z</time></trkpt><trkpt lat="44.1214683" lon="11.9742433"><ele>104.33333333333333</ele><time>2026-04-04T09:53:33.699Z</time></trkpt><trkpt lat="44.121245" lon="11.9742333"><ele>104.66666666666666</ele><time>2026-04-04T09:53:34.699Z</time></trkpt><trkpt lat="44.12103" lon="11.9742433"><ele>105.0</ele><time>2026-04-04T09:53:35.7Z</time></trkpt><trkpt lat="44.1208283" lon="11.97427"><ele>105.0</ele><time>2026-04-04T09:53:36.699Z</time></trkpt><trkpt lat="44.1206383" lon="11.9743267"><ele>105.0</ele><time>2026-04-04T09:53:37.7Z</time></trkpt><trkpt lat="44.12047" lon="11.9744233"><ele>105.0</ele><time>2026-04-04T09:53:38.699Z</time></trkpt><trkpt lat="44.1203067" lon="11.9745517"><ele>105.0</ele><time>2026-04-04T09:53:39.699Z</time></trkpt><trkpt lat="44.120145" lon="11.9747"><ele>105.0</ele><time>2026-04-04T09:53:40.7Z</time></trkpt><trkpt lat="44.11999" lon="11.9748917"><ele>105.0</ele><time>2026-04-04T09:53:41.699Z</time></trkpt><trkpt lat="44.1198233" lon="11.9751067"><ele>107.0</ele><time>2026-04-04T09:53:42.699Z</time></trkpt><trkpt lat="44.1196733" lon="11.97532"><ele>109.0</ele><time>2026-04-04T09:53:43.7Z</time></trkpt><trkpt lat="44.119525" lon="11.975535"><ele>111.0</ele><time>2026-04-04T09:53:44.699Z</time></trkpt><trkpt lat="44.119395" lon="11.97579"><ele>108.66666666666666</ele><time>2026-04-04T09:53:45.699Z</time></trkpt><trkpt lat="44.1193133" lon="11.976025"><ele>106.33333333333333</ele><time>2026-04-04T09:53:46.699Z</time></trkpt><trkpt lat="44.1192283" lon="11.9762483"><ele>104.0</ele><time>2026-04-04T09:53:47.699Z</time></trkpt><trkpt lat="44.1191267" lon="11.976415"><ele>105.33333333333333</ele><time>2026-04-04T09:53:48.699Z</time></trkpt><trkpt lat="44.119" lon="11.976515"><ele>106.66666666666666</ele><time>2026-04-04T09:53:49.7Z</time></trkpt><trkpt lat="44.118845" lon="11.9765683"><ele>108.0</ele><time>2026-04-04T09:53:50.7Z</time></trkpt><trkpt lat="44.1186833" lon="11.97655"><ele>108.0</ele><time>2026-04-04T09:53:51.699Z</time></trkpt><trkpt lat="44.1184967" lon="11.9765017"><ele>108.0</ele><time>2026-04-04T09:53:52.699Z</time></trkpt><trkpt lat="44.1183017" lon="11.9764467"><ele>108.0</ele><time>2026-04-04T09:53:53.699Z</time></trkpt><trkpt lat="44.118105" lon="11.9763833"><ele>107.66666666666666</ele><time>2026-04-04T09:53:54.699Z</time></trkpt><trkpt lat="44.117905" lon="11.9763167"><ele>107.33333333333333</ele><time>2026-04-04T09:53:55.699Z</time></trkpt><trkpt lat="44.117695" lon="11.9762417"><ele>107.0</ele><time>2026-04-04T09:53:56.7Z</time></trkpt><trkpt lat="44.1174833" lon="11.97617"><ele>105.5</ele><time>2026-04-04T09:53:57.7Z</time></trkpt><trkpt lat="44.11725" lon="11.9761117"><ele>104.0</ele><time>2026-04-04T09:53:58.699Z</time></trkpt><trkpt lat="44.1170183" lon="11.976045"><ele>104.0</ele><time>2026-04-04T09:53:59.699Z</time></trkpt><trkpt lat="44.1167983" lon="11.9759833"><ele>104.0</ele><time>2026-04-04T09:54:00.699Z</time></trkpt><trkpt lat="44.1165733" lon="11.9759467"><ele>104.0</ele><time>2026-04-04T09:54:01.699Z</time></trkpt><trkpt lat="44.11635" lon="11.9759417"><ele>104.0</ele><time>2026-04-04T09:54:02.699Z</time></trkpt><trkpt lat="44.11613" lon="11.9759833"><ele>104.0</ele><time>2026-04-04T09:54:03.7Z</time></trkpt><trkpt lat="44.11592" lon="11.97608"><ele>109.0</ele><time>2026-04-04T09:54:04.7Z</time></trkpt><trkpt lat="44.1157317" lon="11.9762233"><ele>114.0</ele><time>2026-04-04T09:54:05.699Z</time></trkpt><trkpt lat="44.11555" lon="11.9763967"><ele>119.0</ele><time>2026-04-04T09:54:06.699Z</time></trkpt><trkpt lat="44.1153933" lon="11.9766217"><ele>119.0</ele><time>2026-04-04T09:54:07.699Z</time></trkpt><trkpt lat="44.1152617" lon="11.9768717"><ele>119.0</ele><time>2026-04-04T09:54:08.699Z</time></trkpt><trkpt lat="44.1151567" lon="11.977155"><ele>119.0</ele><time>2026-04-04T09:54:09.7Z</time></trkpt><trkpt lat="44.1150867" lon="11.977455"><ele>119.0</ele><time>2026-04-04T09:54:10.7Z</time></trkpt><trkpt lat="44.11505" lon="11.97777"><ele>119.0</ele><time>2026-04-04T09:54:11.699Z</time></trkpt><trkpt lat="44.1150433" lon="11.978065"><ele>119.0</ele><time>2026-04-04T09:54:12.699Z</time></trkpt><trkpt lat="44.11503" lon="11.9783333"><ele>119.0</ele><time>2026-04-04T09:54:13.7Z</time></trkpt><trkpt lat="44.1150017" lon="11.9785983"><ele>118.66666666666666</ele><time>2026-04-04T09:54:14.7Z</time></trkpt><trkpt lat="44.1149267" lon="11.9788383"><ele>118.33333333333334</ele><time>2026-04-04T09:54:15.699Z</time></trkpt><trkpt lat="44.1148133" lon="11.979045"><ele>118.0</ele><time>2026-04-04T09:54:16.699Z</time></trkpt><trkpt lat="44.1146517" lon="11.979205"><ele>116.33333333333334</ele><time>2026-04-04T09:54:17.7Z</time></trkpt><trkpt lat="44.1144617" lon="11.9793167"><ele>114.66666666666666</ele><time>2026-04-04T09:54:18.7Z</time></trkpt><trkpt lat="44.1142583" lon="11.9793917"><ele>113.0</ele><time>2026-04-04T09:54:19.7Z</time></trkpt><trkpt lat="44.1140483" lon="11.979395"><ele>113.0</ele><time>2026-04-04T09:54:20.7Z</time></trkpt><trkpt lat="44.11384" lon="11.97935"><ele>113.0</ele><time>2026-04-04T09:54:21.699Z</time></trkpt><trkpt lat="44.1136383" lon="11.97928"><ele>113.0</ele><time>2026-04-04T09:54:22.699Z</time></trkpt><trkpt lat="44.113425" lon="11.9792133"><ele>114.5</ele><time>2026-04-04T09:54:23.7Z</time></trkpt><trkpt lat="44.113205" lon="11.9791467"><ele>116.0</ele><time>2026-04-04T09:54:24.7Z</time></trkpt><trkpt lat="44.1129867" lon="11.9790683"><ele>116.0</ele><time>2026-04-04T09:54:25.7Z</time></trkpt><trkpt lat="44.1127733" lon="11.9789933"><ele>116.0</ele><time>2026-04-04T09:54:26.7Z</time></trkpt><trkpt lat="44.1125767" lon="11.9789183"><ele>116.0</ele><time>2026-04-04T09:54:27.7Z</time></trkpt><trkpt lat="44.1123717" lon="11.9788667"><ele>115.33333333333333</ele><time>2026-04-04T09:54:28.699Z</time></trkpt><trkpt lat="44.1121683" lon="11.9788517"><ele>114.66666666666666</ele><time>2026-04-04T09:54:29.7Z</time></trkpt><trkpt lat="44.1119583" lon="11.97886"><ele>114.0</ele><time>2026-04-04T09:54:30.699Z</time></trkpt><trkpt lat="44.11174" lon="11.9788833"><ele>115.0</ele><time>2026-04-04T09:54:31.699Z</time></trkpt><trkpt lat="44.1115217" lon="11.9789183"><ele>116.0</ele><time>2026-04-04T09:54:32.7Z</time></trkpt><trkpt lat="44.1113233" lon="11.9789633"><ele>117.0</ele><time>2026-04-04T09:54:33.699Z</time></trkpt><trkpt lat="44.1111283" lon="11.97903"><ele>117.0</ele><time>2026-04-04T09:54:34.7Z</time></trkpt><trkpt lat="44.1109533" lon="11.979145"><ele>117.0</ele><time>2026-04-04T09:54:35.699Z</time></trkpt><trkpt lat="44.1107933" lon="11.9792967"><ele>117.0</ele><time>2026-04-04T09:54:36.699Z</time></trkpt><trkpt lat="44.1106567" lon="11.979465"><ele>118.66666666666666</ele><time>2026-04-04T09:54:37.7Z</time></trkpt><trkpt lat="44.110535" lon="11.97963"><ele>120.33333333333333</ele><time>2026-04-04T09:54:38.699Z</time></trkpt><trkpt lat="44.110425" lon="11.979805"><ele>122.0</ele><time>2026-04-04T09:54:39.699Z</time></trkpt><trkpt lat="44.1103333" lon="11.9799733"><ele>121.6</ele><time>2026-04-04T09:54:40.699Z</time></trkpt><trkpt lat="44.1102633" lon="11.9801"><ele>121.19999999999999</ele><time>2026-04-04T09:54:41.7Z</time></trkpt><trkpt lat="44.1102017" lon="11.9802"><ele>120.8</ele><time>2026-04-04T09:54:42.699Z</time></trkpt><trkpt lat="44.1101417" lon="11.9802867"><ele>120.4</ele><time>2026-04-04T09:54:43.699Z</time></trkpt><trkpt lat="44.1100833" lon="11.9803633"><ele>120.0</ele><time>2026-04-04T09:54:44.7Z</time></trkpt><trkpt lat="44.1100283" lon="11.980445"><ele>120.0</ele><time>2026-04-04T09:54:45.699Z</time></trkpt><trkpt lat="44.10996" lon="11.98052"><ele>120.0</ele><time>2026-04-04T09:54:46.699Z</time></trkpt><trkpt lat="44.1098833" lon="11.9805983"><ele>120.0</ele><time>2026-04-04T09:54:47.699Z</time></trkpt><trkpt lat="44.1097867" lon="11.98067"><ele>120.0</ele><time>2026-04-04T09:54:48.699Z</time></trkpt><trkpt lat="44.1096767" lon="11.9807233"><ele>120.0</ele><time>2026-04-04T09:54:49.7Z</time></trkpt><trkpt lat="44.1095367" lon="11.98076"><ele>121.5</ele><time>2026-04-04T09:54:50.699Z</time></trkpt><trkpt lat="44.1094" lon="11.9807967"><ele>123.0</ele><time>2026-04-04T09:54:51.699Z</time></trkpt><trkpt lat="44.10929" lon="11.9808083"><ele>124.5</ele><time>2026-04-04T09:54:52.699Z</time></trkpt><trkpt lat="44.109185" lon="11.98082"><ele>126.0</ele><time>2026-04-04T09:54:53.699Z</time></trkpt><trkpt lat="44.1090617" lon="11.9808533"><ele>126.0</ele><time>2026-04-04T09:54:54.7Z</time></trkpt><trkpt lat="44.1089267" lon="11.9809017"><ele>126.0</ele><time>2026-04-04T09:54:55.7Z</time></trkpt><trkpt lat="44.1088" lon="11.980955"><ele>126.0</ele><time>2026-04-04T09:54:56.7Z</time></trkpt><trkpt lat="44.108665" lon="11.9809933"><ele>126.0</ele><time>2026-04-04T09:54:57.699Z</time></trkpt><trkpt lat="44.10854" lon="11.9810217"><ele>126.0</ele><time>2026-04-04T09:54:58.7Z</time></trkpt><trkpt lat="44.1084233" lon="11.9810517"><ele>126.0</ele><time>2026-04-04T09:54:59.699Z</time></trkpt><trkpt lat="44.1083067" lon="11.9810767"><ele>126.0</ele><time>2026-04-04T09:55:00.699Z</time></trkpt><trkpt lat="44.1081983" lon="11.981105"><ele>126.0</ele><time>2026-04-04T09:55:01.699Z</time></trkpt><trkpt lat="44.1080983" lon="11.9811233"><ele>126.0</ele><time>2026-04-04T09:55:02.699Z</time></trkpt><trkpt lat="44.1080033" lon="11.98113"><ele>126.4</ele><time>2026-04-04T09:55:03.699Z</time></trkpt><trkpt lat="44.1079133" lon="11.9811567"><ele>126.8</ele><time>2026-04-04T09:55:04.699Z</time></trkpt><trkpt lat="44.1078133" lon="11.9811767"><ele>127.20000000000002</ele><time>2026-04-04T09:55:05.7Z</time></trkpt><trkpt lat="44.1077217" lon="11.9812017"><ele>127.60000000000001</ele><time>2026-04-04T09:55:06.699Z</time></trkpt><trkpt lat="44.1076217" lon="11.9812233"><ele>128.0</ele><time>2026-04-04T09:55:07.699Z</time></trkpt><trkpt lat="44.107525" lon="11.9812417"><ele>127.99999999999999</ele><time>2026-04-04T09:55:08.7Z</time></trkpt><trkpt lat="44.107425" lon="11.9812683"><ele>128.0</ele><time>2026-04-04T09:55:09.7Z</time></trkpt><trkpt lat="44.1073333" lon="11.9812983"><ele>128.0</ele><time>2026-04-04T09:55:10.699Z</time></trkpt><trkpt lat="44.1072517" lon="11.9813217"><ele>128.0</ele><time>2026-04-04T09:55:11.7Z</time></trkpt><trkpt lat="44.1071867" lon="11.9813333"><ele>127.99999999999999</ele><time>2026-04-04T09:55:12.7Z</time></trkpt><trkpt lat="44.1071217" lon="11.981345"><ele>128.0</ele><time>2026-04-04T09:55:13.7Z</time></trkpt><trkpt lat="44.1070483" lon="11.98137"><ele>128.16666666666666</ele><time>2026-04-04T09:55:14.699Z</time></trkpt><trkpt lat="44.10697" lon="11.981395"><ele>128.33333333333331</ele><time>2026-04-04T09:55:15.7Z</time></trkpt><trkpt lat="44.1068867" lon="11.981415"><ele>128.5</ele><time>2026-04-04T09:55:16.699Z</time></trkpt><trkpt lat="44.1068133" lon="11.9814367"><ele>128.66666666666666</ele><time>2026-04-04T09:55:17.699Z</time></trkpt><trkpt lat="44.1067333" lon="11.98146"><ele>128.83333333333334</ele><time>2026-04-04T09:55:18.699Z</time></trkpt><trkpt lat="44.1066467" lon="11.9814933"><ele>129.0</ele><time>2026-04-04T09:55:19.699Z</time></trkpt><trkpt lat="44.1065433" lon="11.9815417"><ele>129.0</ele><time>2026-04-04T09:55:20.7Z</time></trkpt><trkpt lat="44.1064317" lon="11.9815633"><ele>129.0</ele><time>2026-04-04T09:55:21.7Z</time></trkpt><trkpt lat="44.1063183" lon="11.9815867"><ele>129.0</ele><time>2026-04-04T09:55:22.699Z</time></trkpt><trkpt lat="44.1062033" lon="11.9816017"><ele>129.0</ele><time>2026-04-04T09:55:23.699Z</time></trkpt><trkpt lat="44.1061017" lon="11.9816083"><ele>129.0</ele><time>2026-04-04T09:55:24.7Z</time></trkpt><trkpt lat="44.1060083" lon="11.9816033"><ele>129.0</ele><time>2026-04-04T09:55:25.699Z</time></trkpt><trkpt lat="44.1059317" lon="11.9816117"><ele>129.0</ele><time>2026-04-04T09:55:26.699Z</time></trkpt><trkpt lat="44.1058633" lon="11.9816233"><ele>129.0</ele><time>2026-04-04T09:55:27.699Z</time></trkpt><trkpt lat="44.10579" lon="11.9816283"><ele>129.0</ele><time>2026-04-04T09:55:28.7Z</time></trkpt><trkpt lat="44.1057217" lon="11.9816433"><ele>129.0</ele><time>2026-04-04T09:55:29.699Z</time></trkpt><trkpt lat="44.1056567" lon="11.9816483"><ele>129.0</ele><time>2026-04-04T09:55:30.699Z</time></trkpt><trkpt lat="44.1055367" lon="11.9816533"><ele>129.0</ele><time>2026-04-04T09:55:32.699Z</time></trkpt><trkpt lat="44.1054717" lon="11.9816533"><ele>129.0</ele><time>2026-04-04T09:55:33.699Z</time></trkpt><trkpt lat="44.1054067" lon="11.981645"><ele>129.0</ele><time>2026-04-04T09:55:34.7Z</time></trkpt><trkpt lat="44.1053417" lon="11.9816467"><ele>129.0</ele><time>2026-04-04T09:55:35.699Z</time></trkpt><trkpt lat="44.1052783" lon="11.981645"><ele>129.0</ele><time>2026-04-04T09:55:36.7Z</time></trkpt><trkpt lat="44.10515" lon="11.9816467"><ele>129.0</ele><time>2026-04-04T09:55:38.7Z</time></trkpt><trkpt lat="44.1050217" lon="11.981645"><ele>129.4</ele><time>2026-04-04T09:55:40.699Z</time></trkpt><trkpt lat="44.104885" lon="11.9816317"><ele>129.8</ele><time>2026-04-04T09:55:42.7Z</time></trkpt><trkpt lat="44.104795" lon="11.9816183"><ele>130.2</ele><time>2026-04-04T09:55:43.7Z</time></trkpt><trkpt lat="44.1047017" lon="11.9816067"><ele>130.6</ele><time>2026-04-04T09:55:44.7Z</time></trkpt><trkpt lat="44.1045967" lon="11.9815983"><ele>131.0</ele><time>2026-04-04T09:55:45.699Z</time></trkpt><trkpt lat="44.104465" lon="11.9816"><ele>131.0</ele><time>2026-04-04T09:55:46.699Z</time></trkpt><trkpt lat="44.1043233" lon="11.981595"><ele>131.0</ele><time>2026-04-04T09:55:47.7Z</time></trkpt><trkpt lat="44.1041717" lon="11.9815883"><ele>131.0</ele><time>2026-04-04T09:55:48.7Z</time></trkpt><trkpt lat="44.1040167" lon="11.9815867"><ele>131.0</ele><time>2026-04-04T09:55:49.7Z</time></trkpt><trkpt lat="44.1038617" lon="11.981575"><ele>131.25</ele><time>2026-04-04T09:55:50.699Z</time></trkpt><trkpt lat="44.1037133" lon="11.9815683"><ele>131.5</ele><time>2026-04-04T09:55:51.7Z</time></trkpt><trkpt lat="44.10357" lon="11.9815633"><ele>131.75</ele><time>2026-04-04T09:55:52.7Z</time></trkpt><trkpt lat="44.1034267" lon="11.9815567"><ele>132.0</ele><time>2026-04-04T09:55:53.7Z</time></trkpt><trkpt lat="44.103285" lon="11.9815617"><ele>132.0</ele><time>2026-04-04T09:55:54.7Z</time></trkpt><trkpt lat="44.1031433" lon="11.9815767"><ele>132.0</ele><time>2026-04-04T09:55:55.699Z</time></trkpt><trkpt lat="44.1030167" lon="11.98157"><ele>132.0</ele><time>2026-04-04T09:55:56.699Z</time></trkpt><trkpt lat="44.1028933" lon="11.9815767"><ele>132.0</ele><time>2026-04-04T09:55:57.7Z</time></trkpt><trkpt lat="44.102775" lon="11.9815683"><ele>132.0</ele><time>2026-04-04T09:55:58.7Z</time></trkpt><trkpt lat="44.1026517" lon="11.981555"><ele>132.0</ele><time>2026-04-04T09:55:59.699Z</time></trkpt><trkpt lat="44.1025367" lon="11.9815467"><ele>132.0</ele><time>2026-04-04T09:56:00.7Z</time></trkpt><trkpt lat="44.10243" lon="11.9815383"><ele>132.0</ele><time>2026-04-04T09:56:01.699Z</time></trkpt><trkpt lat="44.10231" lon="11.98152"><ele>133.0</ele><time>2026-04-04T09:56:02.7Z</time></trkpt><trkpt lat="44.1021767" lon="11.9815017"><ele>134.0</ele><time>2026-04-04T09:56:03.7Z</time></trkpt><trkpt lat="44.1020533" lon="11.9814717"><ele>135.0</ele><time>2026-04-04T09:56:04.7Z</time></trkpt><trkpt lat="44.1019417" lon="11.9814367"><ele>136.0</ele><time>2026-04-04T09:56:05.699Z</time></trkpt><trkpt lat="44.1018417" lon="11.981405"><ele>136.0</ele><time>2026-04-04T09:56:06.699Z</time></trkpt><trkpt lat="44.101735" lon="11.981385"><ele>136.0</ele><time>2026-04-04T09:56:07.699Z</time></trkpt><trkpt lat="44.10162" lon="11.9813567"><ele>136.0</ele><time>2026-04-04T09:56:08.699Z</time></trkpt><trkpt lat="44.101495" lon="11.9813217"><ele>136.0</ele><time>2026-04-04T09:56:09.7Z</time></trkpt><trkpt lat="44.1013467" lon="11.9812767"><ele>136.66666666666669</ele><time>2026-04-04T09:56:10.699Z</time></trkpt><trkpt lat="44.1012017" lon="11.98123"><ele>137.33333333333334</ele><time>2026-04-04T09:56:11.699Z</time></trkpt><trkpt lat="44.1010367" lon="11.9811833"><ele>138.0</ele><time>2026-04-04T09:56:12.699Z</time></trkpt><trkpt lat="44.100865" lon="11.98113"><ele>137.66666666666666</ele><time>2026-04-04T09:56:13.7Z</time></trkpt><trkpt lat="44.1006883" lon="11.9810667"><ele>137.33333333333331</ele><time>2026-04-04T09:56:14.699Z</time></trkpt><trkpt lat="44.1005083" lon="11.981025"><ele>137.0</ele><time>2026-04-04T09:56:15.699Z</time></trkpt><trkpt lat="44.1003217" lon="11.981015"><ele>137.0</ele><time>2026-04-04T09:56:16.699Z</time></trkpt><trkpt lat="44.1001217" lon="11.9810267"><ele>137.0</ele><time>2026-04-04T09:56:17.699Z</time></trkpt><trkpt lat="44.0999083" lon="11.9810517"><ele>137.0</ele><time>2026-04-04T09:56:18.7Z</time></trkpt><trkpt lat="44.0996917" lon="11.9810767"><ele>138.66666666666666</ele><time>2026-04-04T09:56:19.699Z</time></trkpt><trkpt lat="44.0994717" lon="11.9811133"><ele>140.33333333333334</ele><time>2026-04-04T09:56:20.699Z</time></trkpt><trkpt lat="44.0992533" lon="11.981155"><ele>142.0</ele><time>2026-04-04T09:56:21.699Z</time></trkpt><trkpt lat="44.0990317" lon="11.981195"><ele>142.0</ele><time>2026-04-04T09:56:22.699Z</time></trkpt><trkpt lat="44.0988167" lon="11.9812433"><ele>142.0</ele><time>2026-04-04T09:56:23.7Z</time></trkpt><trkpt lat="44.09862" lon="11.98128"><ele>142.0</ele><time>2026-04-04T09:56:24.7Z</time></trkpt><trkpt lat="44.0984233" lon="11.981325"><ele>142.33333333333334</ele><time>2026-04-04T09:56:25.699Z</time></trkpt><trkpt lat="44.0982367" lon="11.98137"><ele>142.66666666666666</ele><time>2026-04-04T09:56:26.699Z</time></trkpt><trkpt lat="44.0980683" lon="11.9814067"><ele>143.0</ele><time>2026-04-04T09:56:27.7Z</time></trkpt><trkpt lat="44.0979033" lon="11.981435"><ele>143.0</ele><time>2026-04-04T09:56:28.7Z</time></trkpt><trkpt lat="44.0977267" lon="11.9814467"><ele>143.0</ele><time>2026-04-04T09:56:29.699Z</time></trkpt><trkpt lat="44.0975383" lon="11.98146"><ele>143.0</ele><time>2026-04-04T09:56:30.699Z</time></trkpt><trkpt lat="44.0973483" lon="11.98146"><ele>143.66666666666666</ele><time>2026-04-04T09:56:31.7Z</time></trkpt><trkpt lat="44.0971483" lon="11.9814567"><ele>144.33333333333334</ele><time>2026-04-04T09:56:32.699Z</time></trkpt><trkpt lat="44.0969433" lon="11.9814367"><ele>145.0</ele><time>2026-04-04T09:56:33.699Z</time></trkpt><trkpt lat="44.0967433" lon="11.9813883"><ele>145.33333333333334</ele><time>2026-04-04T09:56:34.699Z</time></trkpt><trkpt lat="44.09654" lon="11.9813133"><ele>145.66666666666666</ele><time>2026-04-04T09:56:35.699Z</time></trkpt><trkpt lat="44.0963367" lon="11.9812067"><ele>146.0</ele><time>2026-04-04T09:56:36.699Z</time></trkpt><trkpt lat="44.0961467" lon="11.98108"><ele>146.0</ele><time>2026-04-04T09:56:37.699Z</time></trkpt><trkpt lat="44.0959467" lon="11.98095"><ele>146.0</ele><time>2026-04-04T09:56:38.7Z</time></trkpt><trkpt lat="44.09576" lon="11.9808133"><ele>146.0</ele><time>2026-04-04T09:56:39.699Z</time></trkpt><trkpt lat="44.0955717" lon="11.980675"><ele>146.66666666666666</ele><time>2026-04-04T09:56:40.699Z</time></trkpt><trkpt lat="44.095385" lon="11.980535"><ele>147.33333333333334</ele><time>2026-04-04T09:56:41.7Z</time></trkpt><trkpt lat="44.09522" lon="11.9804017"><ele>148.0</ele><time>2026-04-04T09:56:42.7Z</time></trkpt><trkpt lat="44.09504" lon="11.9802783"><ele>148.0</ele><time>2026-04-04T09:56:43.699Z</time></trkpt><trkpt lat="44.0948533" lon="11.9801517"><ele>148.0</ele><time>2026-04-04T09:56:44.699Z</time></trkpt><trkpt lat="44.0946717" lon="11.9800167"><ele>148.0</ele><time>2026-04-04T09:56:45.699Z</time></trkpt><trkpt lat="44.0944917" lon="11.9798683"><ele>148.0</ele><time>2026-04-04T09:56:46.7Z</time></trkpt><trkpt lat="44.09431" lon="11.979725"><ele>148.0</ele><time>2026-04-04T09:56:47.7Z</time></trkpt><trkpt lat="44.0941383" lon="11.9796017"><ele>148.0</ele><time>2026-04-04T09:56:48.7Z</time></trkpt><trkpt lat="44.093955" lon="11.97949"><ele>148.0</ele><time>2026-04-04T09:56:49.699Z</time></trkpt><trkpt lat="44.09376" lon="11.979425"><ele>148.0</ele><time>2026-04-04T09:56:50.7Z</time></trkpt><trkpt lat="44.0935533" lon="11.9794133"><ele>148.0</ele><time>2026-04-04T09:56:51.699Z</time></trkpt><trkpt lat="44.09334" lon="11.9794583"><ele>150.5</ele><time>2026-04-04T09:56:52.7Z</time></trkpt><trkpt lat="44.09312" lon="11.9795367"><ele>153.0</ele><time>2026-04-04T09:56:53.699Z</time></trkpt><trkpt lat="44.0928867" lon="11.97962"><ele>153.0</ele><time>2026-04-04T09:56:54.7Z</time></trkpt><trkpt lat="44.0926467" lon="11.97969"><ele>153.0</ele><time>2026-04-04T09:56:55.7Z</time></trkpt><trkpt lat="44.0924117" lon="11.9797567"><ele>153.0</ele><time>2026-04-04T09:56:56.699Z</time></trkpt><trkpt lat="44.09218" lon="11.9798233"><ele>153.0</ele><time>2026-04-04T09:56:57.7Z</time></trkpt><trkpt lat="44.0919467" lon="11.979895"><ele>153.0</ele><time>2026-04-04T09:56:58.699Z</time></trkpt><trkpt lat="44.0917267" lon="11.9799633"><ele>153.0</ele><time>2026-04-04T09:56:59.699Z</time></trkpt><trkpt lat="44.0915033" lon="11.9800317"><ele>150.33333333333334</ele><time>2026-04-04T09:57:00.7Z</time></trkpt><trkpt lat="44.0912817" lon="11.9800883"><ele>147.66666666666669</ele><time>2026-04-04T09:57:01.7Z</time></trkpt><trkpt lat="44.091065" lon="11.9801183"><ele>145.0</ele><time>2026-04-04T09:57:02.699Z</time></trkpt><trkpt lat="44.0908417" lon="11.980115"><ele>144.66666666666669</ele><time>2026-04-04T09:57:03.7Z</time></trkpt><trkpt lat="44.09062" lon="11.980085"><ele>144.33333333333334</ele><time>2026-04-04T09:57:04.7Z</time></trkpt><trkpt lat="44.0904233" lon="11.9800167"><ele>144.0</ele><time>2026-04-04T09:57:05.699Z</time></trkpt><trkpt lat="44.0902267" lon="11.979925"><ele>145.33333333333334</ele><time>2026-04-04T09:57:06.699Z</time></trkpt><trkpt lat="44.090025" lon="11.9798317"><ele>146.66666666666669</ele><time>2026-04-04T09:57:07.699Z</time></trkpt><trkpt lat="44.0898383" lon="11.9797417"><ele>148.0</ele><time>2026-04-04T09:57:08.699Z</time></trkpt><trkpt lat="44.0896583" lon="11.9796533"><ele>148.0</ele><time>2026-04-04T09:57:09.7Z</time></trkpt><trkpt lat="44.089485" lon="11.979575"><ele>148.0</ele><time>2026-04-04T09:57:10.699Z</time></trkpt><trkpt lat="44.0893167" lon="11.979495"><ele>148.0</ele><time>2026-04-04T09:57:11.699Z</time></trkpt><trkpt lat="44.0891533" lon="11.9793983"><ele>148.0</ele><time>2026-04-04T09:57:12.699Z</time></trkpt><trkpt lat="44.0889683" lon="11.9793017"><ele>148.0</ele><time>2026-04-04T09:57:13.7Z</time></trkpt><trkpt lat="44.0887783" lon="11.9791867"><ele>148.0</ele><time>2026-04-04T09:57:14.7Z</time></trkpt><trkpt lat="44.0885733" lon="11.979075"><ele>149.66666666666669</ele><time>2026-04-04T09:57:15.699Z</time></trkpt><trkpt lat="44.0883717" lon="11.9789517"><ele>151.33333333333334</ele><time>2026-04-04T09:57:16.699Z</time></trkpt><trkpt lat="44.0881733" lon="11.9788217"><ele>153.0</ele><time>2026-04-04T09:57:17.699Z</time></trkpt><trkpt lat="44.0879583" lon="11.9786867"><ele>153.0</ele><time>2026-04-04T09:57:18.7Z</time></trkpt><trkpt lat="44.0877483" lon="11.978545"><ele>153.0</ele><time>2026-04-04T09:57:19.699Z</time></trkpt><trkpt lat="44.087535" lon="11.97841"><ele>153.5</ele><time>2026-04-04T09:57:20.699Z</time></trkpt><trkpt lat="44.08732" lon="11.97828"><ele>154.0</ele><time>2026-04-04T09:57:21.699Z</time></trkpt><trkpt lat="44.0871033" lon="11.9781517"><ele>154.0</ele><time>2026-04-04T09:57:22.699Z</time></trkpt><trkpt lat="44.086895" lon="11.97802"><ele>154.0</ele><time>2026-04-04T09:57:23.699Z</time></trkpt><trkpt lat="44.0867" lon="11.977905"><ele>154.0</ele><time>2026-04-04T09:57:24.699Z</time></trkpt><trkpt lat="44.0865133" lon="11.97779"><ele>153.0</ele><time>2026-04-04T09:57:25.7Z</time></trkpt><trkpt lat="44.0863417" lon="11.9776583"><ele>152.0</ele><time>2026-04-04T09:57:26.7Z</time></trkpt><trkpt lat="44.0861833" lon="11.977495"><ele>151.0</ele><time>2026-04-04T09:57:27.7Z</time></trkpt><trkpt lat="44.086045" lon="11.9772983"><ele>151.0</ele><time>2026-04-04T09:57:28.7Z</time></trkpt><trkpt lat="44.0859583" lon="11.9770717"><ele>151.0</ele><time>2026-04-04T09:57:29.699Z</time></trkpt><trkpt lat="44.085915" lon="11.9768"><ele>151.0</ele><time>2026-04-04T09:57:30.7Z</time></trkpt><trkpt lat="44.0858783" lon="11.9765067"><ele>151.33333333333334</ele><time>2026-04-04T09:57:31.7Z</time></trkpt><trkpt lat="44.085845" lon="11.97624"><ele>151.66666666666666</ele><time>2026-04-04T09:57:32.699Z</time></trkpt><trkpt lat="44.085795" lon="11.9760167"><ele>152.0</ele><time>2026-04-04T09:57:33.7Z</time></trkpt><trkpt lat="44.0857233" lon="11.9758217"><ele>152.0</ele><time>2026-04-04T09:57:34.699Z</time></trkpt><trkpt lat="44.0855933" lon="11.9756667"><ele>152.0</ele><time>2026-04-04T09:57:35.699Z</time></trkpt><trkpt lat="44.0854433" lon="11.9755633"><ele>152.0</ele><time>2026-04-04T09:57:36.699Z</time></trkpt><trkpt lat="44.085265" lon="11.9755083"><ele>152.0</ele><time>2026-04-04T09:57:37.699Z</time></trkpt><trkpt lat="44.08506" lon="11.9755017"><ele>152.0</ele><time>2026-04-04T09:57:38.7Z</time></trkpt><trkpt lat="44.084845" lon="11.9755667"><ele>152.0</ele><time>2026-04-04T09:57:39.7Z</time></trkpt><trkpt lat="44.0846383" lon="11.9756467"><ele>152.5</ele><time>2026-04-04T09:57:40.7Z</time></trkpt><trkpt lat="44.0844133" lon="11.975735"><ele>153.0</ele><time>2026-04-04T09:57:41.7Z</time></trkpt><trkpt lat="44.0841933" lon="11.9758183"><ele>152.0</ele><time>2026-04-04T09:57:42.7Z</time></trkpt><trkpt lat="44.0839633" lon="11.97588"><ele>151.0</ele><time>2026-04-04T09:57:43.7Z</time></trkpt><trkpt lat="44.0837317" lon="11.9759333"><ele>151.0</ele><time>2026-04-04T09:57:44.7Z</time></trkpt><trkpt lat="44.0834883" lon="11.9759433"><ele>151.0</ele><time>2026-04-04T09:57:45.699Z</time></trkpt><trkpt lat="44.08324" lon="11.9759217"><ele>152.0</ele><time>2026-04-04T09:57:46.699Z</time></trkpt><trkpt lat="44.083005" lon="11.9758783"><ele>153.0</ele><time>2026-04-04T09:57:47.699Z</time></trkpt><trkpt lat="44.0827667" lon="11.975805"><ele>154.5</ele><time>2026-04-04T09:57:48.7Z</time></trkpt><trkpt lat="44.08254" lon="11.9757133"><ele>156.0</ele><time>2026-04-04T09:57:49.7Z</time></trkpt><trkpt lat="44.0823133" lon="11.975615"><ele>157.0</ele><time>2026-04-04T09:57:50.699Z</time></trkpt><trkpt lat="44.0820867" lon="11.97551"><ele>158.0</ele><time>2026-04-04T09:57:51.7Z</time></trkpt><trkpt lat="44.0818517" lon="11.9754133"><ele>158.0</ele><time>2026-04-04T09:57:52.7Z</time></trkpt><trkpt lat="44.08162" lon="11.9753117"><ele>158.0</ele><time>2026-04-04T09:57:53.699Z</time></trkpt><trkpt lat="44.0813833" lon="11.975205"><ele>159.5</ele><time>2026-04-04T09:57:54.7Z</time></trkpt><trkpt lat="44.081155" lon="11.9750967"><ele>161.0</ele><time>2026-04-04T09:57:55.699Z</time></trkpt><trkpt lat="44.0809167" lon="11.97499"><ele>161.5</ele><time>2026-04-04T09:57:56.699Z</time></trkpt><trkpt lat="44.0806817" lon="11.9748783"><ele>162.0</ele><time>2026-04-04T09:57:57.699Z</time></trkpt><trkpt lat="44.0804417" lon="11.974755"><ele>162.0</ele><time>2026-04-04T09:57:58.7Z</time></trkpt><trkpt lat="44.0802067" lon="11.974625"><ele>162.0</ele><time>2026-04-04T09:57:59.7Z</time></trkpt><trkpt lat="44.0799733" lon="11.97449"><ele>161.0</ele><time>2026-04-04T09:58:00.7Z</time></trkpt><trkpt lat="44.079745" lon="11.974355"><ele>160.0</ele><time>2026-04-04T09:58:01.7Z</time></trkpt><trkpt lat="44.0795167" lon="11.97422"><ele>162.5</ele><time>2026-04-04T09:58:02.699Z</time></trkpt><trkpt lat="44.0792933" lon="11.9740833"><ele>165.0</ele><time>2026-04-04T09:58:03.699Z</time></trkpt><trkpt lat="44.0790783" lon="11.9739467"><ele>165.0</ele><time>2026-04-04T09:58:04.699Z</time></trkpt><trkpt lat="44.0788633" lon="11.973825"><ele>165.0</ele><time>2026-04-04T09:58:05.699Z</time></trkpt><trkpt lat="44.0786417" lon="11.9737117"><ele>165.0</ele><time>2026-04-04T09:58:06.699Z</time></trkpt><trkpt lat="44.0784133" lon="11.973605"><ele>165.0</ele><time>2026-04-04T09:58:07.7Z</time></trkpt><trkpt lat="44.07819" lon="11.9734817"><ele>163.5</ele><time>2026-04-04T09:58:08.7Z</time></trkpt><trkpt lat="44.0779633" lon="11.9733583"><ele>162.0</ele><time>2026-04-04T09:58:09.7Z</time></trkpt><trkpt lat="44.0777333" lon="11.9732533"><ele>164.5</ele><time>2026-04-04T09:58:10.699Z</time></trkpt><trkpt lat="44.0774883" lon="11.97319"><ele>167.0</ele><time>2026-04-04T09:58:11.699Z</time></trkpt><trkpt lat="44.07724" lon="11.9731633"><ele>167.0</ele><time>2026-04-04T09:58:12.699Z</time></trkpt><trkpt lat="44.0769867" lon="11.97318"><ele>167.0</ele><time>2026-04-04T09:58:13.699Z</time></trkpt><trkpt lat="44.0767333" lon="11.9732017"><ele>167.5</ele><time>2026-04-04T09:58:14.699Z</time></trkpt><trkpt lat="44.076495" lon="11.9732083"><ele>168.0</ele><time>2026-04-04T09:58:15.7Z</time></trkpt><trkpt lat="44.076245" lon="11.9732333"><ele>168.0</ele><time>2026-04-04T09:58:16.7Z</time></trkpt><trkpt lat="44.075995" lon="11.97326"><ele>168.0</ele><time>2026-04-04T09:58:17.7Z</time></trkpt><trkpt lat="44.0757667" lon="11.973295"><ele>170.66666666666666</ele><time>2026-04-04T09:58:18.699Z</time></trkpt><trkpt lat="44.0755483" lon="11.9733267"><ele>173.33333333333331</ele><time>2026-04-04T09:58:19.699Z</time></trkpt><trkpt lat="44.0753417" lon="11.97334"><ele>176.0</ele><time>2026-04-04T09:58:20.699Z</time></trkpt><trkpt lat="44.0751333" lon="11.9733367"><ele>175.66666666666666</ele><time>2026-04-04T09:58:21.699Z</time></trkpt><trkpt lat="44.0749317" lon="11.9733183"><ele>175.33333333333334</ele><time>2026-04-04T09:58:22.7Z</time></trkpt><trkpt lat="44.07473" lon="11.97327"><ele>175.0</ele><time>2026-04-04T09:58:23.699Z</time></trkpt><trkpt lat="44.07453" lon="11.97322"><ele>175.0</ele><time>2026-04-04T09:58:24.699Z</time></trkpt><trkpt lat="44.0743367" lon="11.973175"><ele>175.0</ele><time>2026-04-04T09:58:25.699Z</time></trkpt><trkpt lat="44.07413" lon="11.9731233"><ele>175.0</ele><time>2026-04-04T09:58:26.699Z</time></trkpt><trkpt lat="44.0739183" lon="11.9730583"><ele>174.0</ele><time>2026-04-04T09:58:27.699Z</time></trkpt><trkpt lat="44.0737117" lon="11.9729783"><ele>173.0</ele><time>2026-04-04T09:58:28.7Z</time></trkpt><trkpt lat="44.073505" lon="11.9729117"><ele>172.0</ele><time>2026-04-04T09:58:29.699Z</time></trkpt><trkpt lat="44.0733017" lon="11.972855"><ele>169.66666666666669</ele><time>2026-04-04T09:58:30.699Z</time></trkpt><trkpt lat="44.0731033" lon="11.9727933"><ele>167.33333333333334</ele><time>2026-04-04T09:58:31.699Z</time></trkpt><trkpt lat="44.07292" lon="11.972745"><ele>165.0</ele><time>2026-04-04T09:58:32.699Z</time></trkpt><trkpt lat="44.0727533" lon="11.9727117"><ele>165.0</ele><time>2026-04-04T09:58:33.7Z</time></trkpt><trkpt lat="44.0726067" lon="11.9726767"><ele>165.0</ele><time>2026-04-04T09:58:34.7Z</time></trkpt><trkpt lat="44.072475" lon="11.97264"><ele>165.0</ele><time>2026-04-04T09:58:35.7Z</time></trkpt><trkpt lat="44.072355" lon="11.97261"><ele>165.0</ele><time>2026-04-04T09:58:36.7Z</time></trkpt><trkpt lat="44.0722367" lon="11.9725833"><ele>165.0</ele><time>2026-04-04T09:58:37.699Z</time></trkpt><trkpt lat="44.0721133" lon="11.97255"><ele>165.0</ele><time>2026-04-04T09:58:38.699Z</time></trkpt><trkpt lat="44.072" lon="11.9725183"><ele>165.0</ele><time>2026-04-04T09:58:39.7Z</time></trkpt><trkpt lat="44.071885" lon="11.9724883"><ele>165.0</ele><time>2026-04-04T09:58:40.699Z</time></trkpt><trkpt lat="44.0717567" lon="11.9724617"><ele>165.5</ele><time>2026-04-04T09:58:41.699Z</time></trkpt><trkpt lat="44.0716133" lon="11.9724367"><ele>166.0</ele><time>2026-04-04T09:58:42.7Z</time></trkpt><trkpt lat="44.0714667" lon="11.9724083"><ele>166.5</ele><time>2026-04-04T09:58:43.699Z</time></trkpt><trkpt lat="44.07132" lon="11.972375"><ele>167.0</ele><time>2026-04-04T09:58:44.7Z</time></trkpt><trkpt lat="44.071175" lon="11.97233"><ele>167.33333333333331</ele><time>2026-04-04T09:58:45.7Z</time></trkpt><trkpt lat="44.0710167" lon="11.9722917"><ele>167.66666666666666</ele><time>2026-04-04T09:58:46.7Z</time></trkpt><trkpt lat="44.07086" lon="11.9722517"><ele>168.0</ele><time>2026-04-04T09:58:47.699Z</time></trkpt><trkpt lat="44.0706867" lon="11.97221"><ele>168.33333333333334</ele><time>2026-04-04T09:58:48.699Z</time></trkpt><trkpt lat="44.070525" lon="11.9721733"><ele>168.66666666666669</ele><time>2026-04-04T09:58:49.7Z</time></trkpt><trkpt lat="44.07037" lon="11.9721333"><ele>169.0</ele><time>2026-04-04T09:58:50.7Z</time></trkpt><trkpt lat="44.070225" lon="11.9720917"><ele>169.0</ele><time>2026-04-04T09:58:51.699Z</time></trkpt><trkpt lat="44.0700717" lon="11.9720567"><ele>169.0</ele><time>2026-04-04T09:58:52.7Z</time></trkpt><trkpt lat="44.0699" lon="11.9720217"><ele>169.0</ele><time>2026-04-04T09:58:53.699Z</time></trkpt><trkpt lat="44.06973" lon="11.971975"><ele>172.33333333333334</ele><time>2026-04-04T09:58:54.699Z</time></trkpt><trkpt lat="44.06955" lon="11.9719283"><ele>175.66666666666666</ele><time>2026-04-04T09:58:55.699Z</time></trkpt><trkpt lat="44.0693617" lon="11.9718817"><ele>179.0</ele><time>2026-04-04T09:58:56.7Z</time></trkpt><trkpt lat="44.0691767" lon="11.971815"><ele>181.0</ele><time>2026-04-04T09:58:57.699Z</time></trkpt><trkpt lat="44.068995" lon="11.9717233"><ele>183.0</ele><time>2026-04-04T09:58:58.7Z</time></trkpt><trkpt lat="44.0688133" lon="11.971585"><ele>185.0</ele><time>2026-04-04T09:58:59.699Z</time></trkpt><trkpt lat="44.06865" lon="11.971425"><ele>185.0</ele><time>2026-04-04T09:59:00.7Z</time></trkpt><trkpt lat="44.0684767" lon="11.9712583"><ele>185.0</ele><time>2026-04-04T09:59:01.7Z</time></trkpt><trkpt lat="44.06829" lon="11.9711167"><ele>185.0</ele><time>2026-04-04T09:59:02.7Z</time></trkpt><trkpt lat="44.0680917" lon="11.9709933"><ele>186.0</ele><time>2026-04-04T09:59:03.7Z</time></trkpt><trkpt lat="44.0678783" lon="11.97088"><ele>187.0</ele><time>2026-04-04T09:59:04.699Z</time></trkpt><trkpt lat="44.067665" lon="11.9707733"><ele>187.0</ele><time>2026-04-04T09:59:05.7Z</time></trkpt><trkpt lat="44.0674517" lon="11.97067"><ele>187.0</ele><time>2026-04-04T09:59:06.699Z</time></trkpt><trkpt lat="44.067245" lon="11.9705617"><ele>187.0</ele><time>2026-04-04T09:59:07.699Z</time></trkpt><trkpt lat="44.0670383" lon="11.9704567"><ele>191.0</ele><time>2026-04-04T09:59:08.699Z</time></trkpt><trkpt lat="44.06683" lon="11.9703667"><ele>195.0</ele><time>2026-04-04T09:59:09.699Z</time></trkpt><trkpt lat="44.0666483" lon="11.97025"><ele>199.0</ele><time>2026-04-04T09:59:10.7Z</time></trkpt><trkpt lat="44.0664817" lon="11.9701017"><ele>198.0</ele><time>2026-04-04T09:59:11.7Z</time></trkpt><trkpt lat="44.066335" lon="11.969915"><ele>197.0</ele><time>2026-04-04T09:59:12.699Z</time></trkpt><trkpt lat="44.06622" lon="11.96968"><ele>196.0</ele><time>2026-04-04T09:59:13.7Z</time></trkpt><trkpt lat="44.06613" lon="11.969405"><ele>193.66666666666666</ele><time>2026-04-04T09:59:14.699Z</time></trkpt><trkpt lat="44.066045" lon="11.96912"><ele>191.33333333333331</ele><time>2026-04-04T09:59:15.7Z</time></trkpt><trkpt lat="44.0659533" lon="11.968835"><ele>189.0</ele><time>2026-04-04T09:59:16.699Z</time></trkpt><trkpt lat="44.0658567" lon="11.968535"><ele>186.5</ele><time>2026-04-04T09:59:17.699Z</time></trkpt><trkpt lat="44.0657583" lon="11.9682383"><ele>184.0</ele><time>2026-04-04T09:59:18.699Z</time></trkpt><trkpt lat="44.065675" lon="11.9679417"><ele>184.0</ele><time>2026-04-04T09:59:19.699Z</time></trkpt><trkpt lat="44.06559" lon="11.9676683"><ele>184.0</ele><time>2026-04-04T09:59:20.699Z</time></trkpt><trkpt lat="44.0655317" lon="11.967395"><ele>184.0</ele><time>2026-04-04T09:59:21.7Z</time></trkpt><trkpt lat="44.0654817" lon="11.9671417"><ele>182.75</ele><time>2026-04-04T09:59:22.699Z</time></trkpt><trkpt lat="44.065435" lon="11.9669333"><ele>181.5</ele><time>2026-04-04T09:59:23.699Z</time></trkpt><trkpt lat="44.065375" lon="11.9667517"><ele>180.25</ele><time>2026-04-04T09:59:24.7Z</time></trkpt><trkpt lat="44.065285" lon="11.9666317"><ele>179.0</ele><time>2026-04-04T09:59:25.7Z</time></trkpt><trkpt lat="44.0651583" lon="11.9665817"><ele>179.0</ele><time>2026-04-04T09:59:26.699Z</time></trkpt><trkpt lat="44.0650017" lon="11.9665583"><ele>179.0</ele><time>2026-04-04T09:59:27.699Z</time></trkpt><trkpt lat="44.0648183" lon="11.96653"><ele>179.0</ele><time>2026-04-04T09:59:28.7Z</time></trkpt><trkpt lat="44.0646283" lon="11.966475"><ele>179.0</ele><time>2026-04-04T09:59:29.699Z</time></trkpt><trkpt lat="44.0644217" lon="11.9664283"><ele>179.0</ele><time>2026-04-04T09:59:30.7Z</time></trkpt><trkpt lat="44.06423" lon="11.9663817"><ele>179.0</ele><time>2026-04-04T09:59:31.7Z</time></trkpt><trkpt lat="44.0640517" lon="11.96635"><ele>180.0</ele><time>2026-04-04T09:59:32.699Z</time></trkpt><trkpt lat="44.0638933" lon="11.96631"><ele>181.0</ele><time>2026-04-04T09:59:33.699Z</time></trkpt><trkpt lat="44.0637533" lon="11.9662383"><ele>182.0</ele><time>2026-04-04T09:59:34.7Z</time></trkpt><trkpt lat="44.0636233" lon="11.9661333"><ele>182.0</ele><time>2026-04-04T09:59:35.699Z</time></trkpt><trkpt lat="44.063505" lon="11.9659967"><ele>182.0</ele><time>2026-04-04T09:59:36.699Z</time></trkpt><trkpt lat="44.0634217" lon="11.9658533"><ele>182.0</ele><time>2026-04-04T09:59:37.699Z</time></trkpt><trkpt lat="44.0633983" lon="11.96569"><ele>182.0</ele><time>2026-04-04T09:59:38.7Z</time></trkpt><trkpt lat="44.0634317" lon="11.9655317"><ele>183.0</ele><time>2026-04-04T09:59:39.699Z</time></trkpt><trkpt lat="44.06351" lon="11.9653917"><ele>184.0</ele><time>2026-04-04T09:59:40.7Z</time></trkpt><trkpt lat="44.0636233" lon="11.9653"><ele>185.0</ele><time>2026-04-04T09:59:41.699Z</time></trkpt><trkpt lat="44.06376" lon="11.965285"><ele>186.0</ele><time>2026-04-04T09:59:42.7Z</time></trkpt><trkpt lat="44.0639183" lon="11.9653283"><ele>186.0</ele><time>2026-04-04T09:59:43.699Z</time></trkpt><trkpt lat="44.0640317" lon="11.9654367"><ele>186.0</ele><time>2026-04-04T09:59:44.699Z</time></trkpt><trkpt lat="44.0641183" lon="11.96552"><ele>186.0</ele><time>2026-04-04T09:59:45.7Z</time></trkpt><trkpt lat="44.0642267" lon="11.9655217"><ele>186.0</ele><time>2026-04-04T09:59:46.699Z</time></trkpt><trkpt lat="44.06432" lon="11.9654533"><ele>186.25</ele><time>2026-04-04T09:59:47.699Z</time></trkpt><trkpt lat="44.0643867" lon="11.96533"><ele>186.5</ele><time>2026-04-04T09:59:48.699Z</time></trkpt><trkpt lat="44.0643983" lon="11.9651617"><ele>186.75</ele><time>2026-04-04T09:59:49.7Z</time></trkpt><trkpt lat="44.06435" lon="11.9649817"><ele>187.0</ele><time>2026-04-04T09:59:50.699Z</time></trkpt><trkpt lat="44.0642767" lon="11.9647817"><ele>188.66666666666669</ele><time>2026-04-04T09:59:51.699Z</time></trkpt><trkpt lat="44.0641867" lon="11.964575"><ele>190.33333333333334</ele><time>2026-04-04T09:59:52.7Z</time></trkpt><trkpt lat="44.0640983" lon="11.9643567"><ele>192.0</ele><time>2026-04-04T09:59:53.7Z</time></trkpt><trkpt lat="44.063995" lon="11.96413"><ele>194.33333333333331</ele><time>2026-04-04T09:59:54.699Z</time></trkpt><trkpt lat="44.06388" lon="11.963895"><ele>196.66666666666666</ele><time>2026-04-04T09:59:55.7Z</time></trkpt><trkpt lat="44.0637683" lon="11.9636483"><ele>199.0</ele><time>2026-04-04T09:59:56.699Z</time></trkpt><trkpt lat="44.06364" lon="11.9634033"><ele>197.66666666666666</ele><time>2026-04-04T09:59:57.7Z</time></trkpt><trkpt lat="44.063485" lon="11.9631767"><ele>196.33333333333331</ele><time>2026-04-04T09:59:58.7Z</time></trkpt><trkpt lat="44.063315" lon="11.9629767"><ele>195.0</ele><time>2026-04-04T09:59:59.699Z</time></trkpt><trkpt lat="44.06316" lon="11.9627917"><ele>195.0</ele><time>2026-04-04T10:00:00.699Z</time></trkpt><trkpt lat="44.0630017" lon="11.962615"><ele>195.0</ele><time>2026-04-04T10:00:01.699Z</time></trkpt><trkpt lat="44.0628717" lon="11.9624333"><ele>195.0</ele><time>2026-04-04T10:00:02.699Z</time></trkpt><trkpt lat="44.0627783" lon="11.962255"><ele>198.33333333333331</ele><time>2026-04-04T10:00:03.7Z</time></trkpt><trkpt lat="44.0627167" lon="11.9620383"><ele>201.66666666666666</ele><time>2026-04-04T10:00:04.699Z</time></trkpt><trkpt lat="44.0627067" lon="11.96182"><ele>205.0</ele><time>2026-04-04T10:00:05.699Z</time></trkpt><trkpt lat="44.06275" lon="11.96162"><ele>205.33333333333331</ele><time>2026-04-04T10:00:06.699Z</time></trkpt><trkpt lat="44.0628433" lon="11.9614383"><ele>205.66666666666669</ele><time>2026-04-04T10:00:07.699Z</time></trkpt><trkpt lat="44.06295" lon="11.96126"><ele>206.0</ele><time>2026-04-04T10:00:08.699Z</time></trkpt><trkpt lat="44.0630117" lon="11.96106"><ele>205.33333333333334</ele><time>2026-04-04T10:00:09.699Z</time></trkpt><trkpt lat="44.0630217" lon="11.96085"><ele>204.66666666666669</ele><time>2026-04-04T10:00:10.7Z</time></trkpt><trkpt lat="44.062985" lon="11.9606067"><ele>204.0</ele><time>2026-04-04T10:00:11.7Z</time></trkpt><trkpt lat="44.0629033" lon="11.960365"><ele>204.0</ele><time>2026-04-04T10:00:12.7Z</time></trkpt><trkpt lat="44.06281" lon="11.9601194"><ele>204.0</ele><time>2026-04-04T10:00:13.7Z</time></trkpt><trkpt lat="44.0627266" lon="11.9598514"><ele>204.0</ele><time>2026-04-04T10:00:14.699Z</time></trkpt><trkpt lat="44.0626364" lon="11.9595712"><ele>202.0</ele><time>2026-04-04T10:00:15.7Z</time></trkpt><trkpt lat="44.0625498" lon="11.9592812"><ele>200.0</ele><time>2026-04-04T10:00:16.699Z</time></trkpt><trkpt lat="44.0624667" lon="11.9590044"><ele>198.0</ele><time>2026-04-04T10:00:17.7Z</time></trkpt><trkpt lat="44.0623456" lon="11.9587559"><ele>198.0</ele><time>2026-04-04T10:00:18.699Z</time></trkpt><trkpt lat="44.0621909" lon="11.9585377"><ele>198.0</ele><time>2026-04-04T10:00:19.7Z</time></trkpt><trkpt lat="44.0620126" lon="11.9583271"><ele>201.5</ele><time>2026-04-04T10:00:20.699Z</time></trkpt><trkpt lat="44.0618357" lon="11.9580876"><ele>205.0</ele><time>2026-04-04T10:00:21.699Z</time></trkpt><trkpt lat="44.0616653" lon="11.9578276"><ele>200.5</ele><time>2026-04-04T10:00:22.7Z</time></trkpt><trkpt lat="44.0614975" lon="11.9575539"><ele>196.0</ele><time>2026-04-04T10:00:23.7Z</time></trkpt><trkpt lat="44.061326" lon="11.9572637"><ele>196.0</ele><time>2026-04-04T10:00:24.699Z</time></trkpt><trkpt lat="44.0611652" lon="11.9569659"><ele>196.0</ele><time>2026-04-04T10:00:25.7Z</time></trkpt><trkpt lat="44.0609853" lon="11.9566824"><ele>194.5</ele><time>2026-04-04T10:00:26.699Z</time></trkpt><trkpt lat="44.0607833" lon="11.9564215"><ele>193.0</ele><time>2026-04-04T10:00:27.699Z</time></trkpt><trkpt lat="44.0605638" lon="11.9561927"><ele>193.0</ele><time>2026-04-04T10:00:28.699Z</time></trkpt><trkpt lat="44.0603486" lon="11.9559948"><ele>193.0</ele><time>2026-04-04T10:00:29.699Z</time></trkpt><trkpt lat="44.0601444" lon="11.9558105"><ele>192.66666666666666</ele><time>2026-04-04T10:00:30.7Z</time></trkpt><trkpt lat="44.0599648" lon="11.9556399"><ele>192.33333333333331</ele><time>2026-04-04T10:00:31.7Z</time></trkpt><trkpt lat="44.0598036" lon="11.9554886"><ele>192.0</ele><time>2026-04-04T10:00:32.699Z</time></trkpt><trkpt lat="44.0596793" lon="11.9553205"><ele>192.0</ele><time>2026-04-04T10:00:33.7Z</time></trkpt><trkpt lat="44.0595796" lon="11.9551325"><ele>192.0</ele><time>2026-04-04T10:00:34.7Z</time></trkpt><trkpt lat="44.0595132" lon="11.9549146"><ele>192.0</ele><time>2026-04-04T10:00:35.7Z</time></trkpt><trkpt lat="44.0594861" lon="11.9546544"><ele>193.0</ele><time>2026-04-04T10:00:36.699Z</time></trkpt><trkpt lat="44.0594818" lon="11.9543648"><ele>194.0</ele><time>2026-04-04T10:00:37.699Z</time></trkpt><trkpt lat="44.0594658" lon="11.9540615"><ele>195.0</ele><time>2026-04-04T10:00:38.699Z</time></trkpt><trkpt lat="44.0594234" lon="11.9537556"><ele>196.0</ele><time>2026-04-04T10:00:39.699Z</time></trkpt><trkpt lat="44.0593473" lon="11.9534533"><ele>197.0</ele><time>2026-04-04T10:00:40.699Z</time></trkpt><trkpt lat="44.0592562" lon="11.9531587"><ele>198.0</ele><time>2026-04-04T10:00:41.699Z</time></trkpt><trkpt lat="44.0591513" lon="11.9528835"><ele>199.0</ele><time>2026-04-04T10:00:42.699Z</time></trkpt><trkpt lat="44.0590138" lon="11.9526534"><ele>200.0</ele><time>2026-04-04T10:00:43.699Z</time></trkpt><trkpt lat="44.0588394" lon="11.9524624"><ele>200.0</ele><time>2026-04-04T10:00:44.7Z</time></trkpt><trkpt lat="44.058634" lon="11.9522938"><ele>200.0</ele><time>2026-04-04T10:00:45.7Z</time></trkpt><trkpt lat="44.0584398" lon="11.9521122"><ele>199.33333333333334</ele><time>2026-04-04T10:00:46.7Z</time></trkpt><trkpt lat="44.0582645" lon="11.9519374"><ele>198.66666666666669</ele><time>2026-04-04T10:00:47.699Z</time></trkpt><trkpt lat="44.0581151" lon="11.9517775"><ele>198.0</ele><time>2026-04-04T10:00:48.699Z</time></trkpt><trkpt lat="44.0579976" lon="11.9516176"><ele>198.0</ele><time>2026-04-04T10:00:49.7Z</time></trkpt><trkpt lat="44.0578923" lon="11.9514436"><ele>198.0</ele><time>2026-04-04T10:00:50.699Z</time></trkpt><trkpt lat="44.0578173" lon="11.9512182"><ele>198.0</ele><time>2026-04-04T10:00:51.7Z</time></trkpt><trkpt lat="44.0577823" lon="11.9509505"><ele>198.33333333333331</ele><time>2026-04-04T10:00:52.699Z</time></trkpt><trkpt lat="44.0577551" lon="11.9506699"><ele>198.66666666666666</ele><time>2026-04-04T10:00:53.7Z</time></trkpt><trkpt lat="44.057727" lon="11.9503917"><ele>199.0</ele><time>2026-04-04T10:00:54.7Z</time></trkpt><trkpt lat="44.0576862" lon="11.9501188"><ele>199.33333333333331</ele><time>2026-04-04T10:00:55.699Z</time></trkpt><trkpt lat="44.0576415" lon="11.9498509"><ele>199.66666666666669</ele><time>2026-04-04T10:00:56.7Z</time></trkpt><trkpt lat="44.0575996" lon="11.9495929"><ele>200.0</ele><time>2026-04-04T10:00:57.699Z</time></trkpt><trkpt lat="44.0575524" lon="11.9493482"><ele>201.0</ele><time>2026-04-04T10:00:58.699Z</time></trkpt><trkpt lat="44.0575108" lon="11.9491133"><ele>202.0</ele><time>2026-04-04T10:00:59.7Z</time></trkpt><trkpt lat="44.0574746" lon="11.9488835"><ele>203.0</ele><time>2026-04-04T10:01:00.699Z</time></trkpt><trkpt lat="44.0574401" lon="11.9486691"><ele>201.33333333333334</ele><time>2026-04-04T10:01:01.7Z</time></trkpt><trkpt lat="44.0574193" lon="11.9484502"><ele>199.66666666666669</ele><time>2026-04-04T10:01:02.7Z</time></trkpt><trkpt lat="44.0574283" lon="11.9482383"><ele>198.0</ele><time>2026-04-04T10:01:03.699Z</time></trkpt><trkpt lat="44.0574395" lon="11.948029"><ele>198.0</ele><time>2026-04-04T10:01:04.699Z</time></trkpt><trkpt lat="44.0574493" lon="11.9478266"><ele>198.0</ele><time>2026-04-04T10:01:05.699Z</time></trkpt><trkpt lat="44.0574541" lon="11.9476354"><ele>198.0</ele><time>2026-04-04T10:01:06.7Z</time></trkpt><trkpt lat="44.0574625" lon="11.947454"><ele>198.0</ele><time>2026-04-04T10:01:07.699Z</time></trkpt><trkpt lat="44.0574694" lon="11.9472615"><ele>199.0</ele><time>2026-04-04T10:01:08.699Z</time></trkpt><trkpt lat="44.0574739" lon="11.9470481"><ele>200.0</ele><time>2026-04-04T10:01:09.7Z</time></trkpt><trkpt lat="44.0574675" lon="11.9468293"><ele>201.0</ele><time>2026-04-04T10:01:10.7Z</time></trkpt><trkpt lat="44.0574667" lon="11.9465944"><ele>201.66666666666669</ele><time>2026-04-04T10:01:11.699Z</time></trkpt><trkpt lat="44.0574728" lon="11.946343"><ele>202.33333333333334</ele><time>2026-04-04T10:01:12.7Z</time></trkpt><trkpt lat="44.0574773" lon="11.9460742"><ele>203.0</ele><time>2026-04-04T10:01:13.699Z</time></trkpt><trkpt lat="44.0574788" lon="11.9457978"><ele>204.0</ele><time>2026-04-04T10:01:14.7Z</time></trkpt><trkpt lat="44.057488" lon="11.9455228"><ele>205.0</ele><time>2026-04-04T10:01:15.699Z</time></trkpt><trkpt lat="44.0574869" lon="11.94527"><ele>206.0</ele><time>2026-04-04T10:01:16.699Z</time></trkpt><trkpt lat="44.0574647" lon="11.9450434"><ele>204.0</ele><time>2026-04-04T10:01:17.699Z</time></trkpt><trkpt lat="44.0574146" lon="11.9448419"><ele>202.0</ele><time>2026-04-04T10:01:18.699Z</time></trkpt><trkpt lat="44.0573251" lon="11.9446583"><ele>200.0</ele><time>2026-04-04T10:01:19.7Z</time></trkpt><trkpt lat="44.0572063" lon="11.9444933"><ele>200.0</ele><time>2026-04-04T10:01:20.7Z</time></trkpt><trkpt lat="44.0570943" lon="11.9443213"><ele>200.0</ele><time>2026-04-04T10:01:21.699Z</time></trkpt><trkpt lat="44.0569967" lon="11.9441419"><ele>200.0</ele><time>2026-04-04T10:01:22.7Z</time></trkpt><trkpt lat="44.0569265" lon="11.9439278"><ele>200.66666666666669</ele><time>2026-04-04T10:01:23.699Z</time></trkpt><trkpt lat="44.0568913" lon="11.9436863"><ele>201.33333333333331</ele><time>2026-04-04T10:01:24.699Z</time></trkpt><trkpt lat="44.0568762" lon="11.9434269"><ele>202.0</ele><time>2026-04-04T10:01:25.7Z</time></trkpt><trkpt lat="44.0568607" lon="11.9431638"><ele>202.0</ele><time>2026-04-04T10:01:26.699Z</time></trkpt><trkpt lat="44.056856" lon="11.9428954"><ele>202.0</ele><time>2026-04-04T10:01:27.699Z</time></trkpt><trkpt lat="44.056876" lon="11.9426333"><ele>202.0</ele><time>2026-04-04T10:01:28.7Z</time></trkpt><trkpt lat="44.0569321" lon="11.9423938"><ele>202.33333333333331</ele><time>2026-04-04T10:01:29.699Z</time></trkpt><trkpt lat="44.0570185" lon="11.9421837"><ele>202.66666666666669</ele><time>2026-04-04T10:01:30.7Z</time></trkpt><trkpt lat="44.0571154" lon="11.9420079"><ele>203.0</ele><time>2026-04-04T10:01:31.699Z</time></trkpt><trkpt lat="44.0572127" lon="11.941832"><ele>203.33333333333334</ele><time>2026-04-04T10:01:32.7Z</time></trkpt><trkpt lat="44.0573152" lon="11.9416495"><ele>203.66666666666669</ele><time>2026-04-04T10:01:33.7Z</time></trkpt><trkpt lat="44.0574345" lon="11.9414578"><ele>204.0</ele><time>2026-04-04T10:01:34.7Z</time></trkpt><trkpt lat="44.0575653" lon="11.9412611"><ele>205.66666666666669</ele><time>2026-04-04T10:01:35.699Z</time></trkpt><trkpt lat="44.0576915" lon="11.9410529"><ele>207.33333333333334</ele><time>2026-04-04T10:01:36.699Z</time></trkpt><trkpt lat="44.0578066" lon="11.9408417"><ele>209.0</ele><time>2026-04-04T10:01:37.699Z</time></trkpt><trkpt lat="44.0578857" lon="11.9406116"><ele>209.0</ele><time>2026-04-04T10:01:38.699Z</time></trkpt><trkpt lat="44.057939" lon="11.9403649"><ele>209.0</ele><time>2026-04-04T10:01:39.7Z</time></trkpt><trkpt lat="44.0579728" lon="11.9401008"><ele>209.0</ele><time>2026-04-04T10:01:40.7Z</time></trkpt><trkpt lat="44.0579954" lon="11.9398347"><ele>208.66666666666669</ele><time>2026-04-04T10:01:41.699Z</time></trkpt><trkpt lat="44.0580156" lon="11.9395729"><ele>208.33333333333331</ele><time>2026-04-04T10:01:42.699Z</time></trkpt><trkpt lat="44.058041" lon="11.9393118"><ele>208.0</ele><time>2026-04-04T10:01:43.7Z</time></trkpt><trkpt lat="44.0580706" lon="11.9390469"><ele>207.66666666666666</ele><time>2026-04-04T10:01:44.699Z</time></trkpt><trkpt lat="44.0580979" lon="11.9387739"><ele>207.33333333333331</ele><time>2026-04-04T10:01:45.699Z</time></trkpt><trkpt lat="44.0581272" lon="11.9385046"><ele>207.0</ele><time>2026-04-04T10:01:46.699Z</time></trkpt><trkpt lat="44.0581585" lon="11.938229"><ele>206.0</ele><time>2026-04-04T10:01:47.699Z</time></trkpt><trkpt lat="44.0581912" lon="11.9379454"><ele>205.0</ele><time>2026-04-04T10:01:48.699Z</time></trkpt><trkpt lat="44.058203" lon="11.9376598"><ele>204.0</ele><time>2026-04-04T10:01:49.699Z</time></trkpt><trkpt lat="44.0581936" lon="11.9373802"><ele>204.0</ele><time>2026-04-04T10:01:50.699Z</time></trkpt><trkpt lat="44.0581692" lon="11.9370841"><ele>204.0</ele><time>2026-04-04T10:01:51.7Z</time></trkpt><trkpt lat="44.0581247" lon="11.9367771"><ele>204.0</ele><time>2026-04-04T10:01:52.7Z</time></trkpt><trkpt lat="44.0580566" lon="11.9364626"><ele>205.5</ele><time>2026-04-04T10:01:53.699Z</time></trkpt><trkpt lat="44.0579782" lon="11.9361435"><ele>207.0</ele><time>2026-04-04T10:01:54.7Z</time></trkpt><trkpt lat="44.0579032" lon="11.9358256"><ele>208.5</ele><time>2026-04-04T10:01:55.699Z</time></trkpt><trkpt lat="44.0578225" lon="11.9355092"><ele>210.0</ele><time>2026-04-04T10:01:56.7Z</time></trkpt><trkpt lat="44.0577485" lon="11.9351992"><ele>211.0</ele><time>2026-04-04T10:01:57.699Z</time></trkpt><trkpt lat="44.0576834" lon="11.9349122"><ele>212.0</ele><time>2026-04-04T10:01:58.699Z</time></trkpt><trkpt lat="44.0576519" lon="11.9346385"><ele>213.0</ele><time>2026-04-04T10:01:59.699Z</time></trkpt><trkpt lat="44.0576546" lon="11.9343629"><ele>213.33333333333331</ele><time>2026-04-04T10:02:00.7Z</time></trkpt><trkpt lat="44.0577" lon="11.9340787"><ele>213.66666666666666</ele><time>2026-04-04T10:02:01.699Z</time></trkpt><trkpt lat="44.0577679" lon="11.9337851"><ele>214.0</ele><time>2026-04-04T10:02:02.699Z</time></trkpt><trkpt lat="44.0578343" lon="11.9334959"><ele>214.66666666666666</ele><time>2026-04-04T10:02:03.7Z</time></trkpt><trkpt lat="44.0578929" lon="11.9332113"><ele>215.33333333333331</ele><time>2026-04-04T10:02:04.699Z</time></trkpt><trkpt lat="44.0579236" lon="11.9329162"><ele>216.0</ele><time>2026-04-04T10:02:05.7Z</time></trkpt><trkpt lat="44.0579245" lon="11.9325991"><ele>215.5</ele><time>2026-04-04T10:02:06.7Z</time></trkpt><trkpt lat="44.0579041" lon="11.9322795"><ele>215.0</ele><time>2026-04-04T10:02:07.699Z</time></trkpt><trkpt lat="44.0578526" lon="11.931958"><ele>217.5</ele><time>2026-04-04T10:02:08.699Z</time></trkpt><trkpt lat="44.0577693" lon="11.9316475"><ele>220.0</ele><time>2026-04-04T10:02:09.7Z</time></trkpt><trkpt lat="44.0576456" lon="11.9313644"><ele>220.0</ele><time>2026-04-04T10:02:10.699Z</time></trkpt><trkpt lat="44.0574979" lon="11.9311025"><ele>220.0</ele><time>2026-04-04T10:02:11.699Z</time></trkpt><trkpt lat="44.0573448" lon="11.9308596"><ele>218.66666666666666</ele><time>2026-04-04T10:02:12.7Z</time></trkpt><trkpt lat="44.057195" lon="11.9306284"><ele>217.33333333333331</ele><time>2026-04-04T10:02:13.699Z</time></trkpt><trkpt lat="44.0570637" lon="11.9304081"><ele>216.0</ele><time>2026-04-04T10:02:14.7Z</time></trkpt><trkpt lat="44.0569498" lon="11.9301858"><ele>218.33333333333331</ele><time>2026-04-04T10:02:15.699Z</time></trkpt><trkpt lat="44.0568437" lon="11.9299575"><ele>220.66666666666666</ele><time>2026-04-04T10:02:16.7Z</time></trkpt><trkpt lat="44.0567621" lon="11.9297255"><ele>223.0</ele><time>2026-04-04T10:02:17.699Z</time></trkpt><trkpt lat="44.0567159" lon="11.9294939"><ele>223.0</ele><time>2026-04-04T10:02:18.7Z</time></trkpt><trkpt lat="44.0566982" lon="11.9292642"><ele>223.0</ele><time>2026-04-04T10:02:19.699Z</time></trkpt><trkpt lat="44.0567061" lon="11.9290129"><ele>223.0</ele><time>2026-04-04T10:02:20.7Z</time></trkpt><trkpt lat="44.0567471" lon="11.9287442"><ele>223.0</ele><time>2026-04-04T10:02:21.7Z</time></trkpt><trkpt lat="44.0567974" lon="11.9284678"><ele>223.0</ele><time>2026-04-04T10:02:22.699Z</time></trkpt><trkpt lat="44.0568664" lon="11.9281744"><ele>223.0</ele><time>2026-04-04T10:02:23.699Z</time></trkpt><trkpt lat="44.0569462" lon="11.9278686"><ele>223.0</ele><time>2026-04-04T10:02:24.699Z</time></trkpt><trkpt lat="44.057022" lon="11.9275727"><ele>223.0</ele><time>2026-04-04T10:02:25.699Z</time></trkpt><trkpt lat="44.057085" lon="11.9272937"><ele>223.0</ele><time>2026-04-04T10:02:26.7Z</time></trkpt><trkpt lat="44.0571385" lon="11.9270323"><ele>222.33333333333331</ele><time>2026-04-04T10:02:27.699Z</time></trkpt><trkpt lat="44.0571684" lon="11.9267951"><ele>221.66666666666669</ele><time>2026-04-04T10:02:28.699Z</time></trkpt><trkpt lat="44.0571701" lon="11.9265713"><ele>221.0</ele><time>2026-04-04T10:02:29.699Z</time></trkpt><trkpt lat="44.0571194" lon="11.926355"><ele>220.33333333333334</ele><time>2026-04-04T10:02:30.7Z</time></trkpt><trkpt lat="44.0570254" lon="11.9261483"><ele>219.66666666666669</ele><time>2026-04-04T10:02:31.699Z</time></trkpt><trkpt lat="44.0569103" lon="11.9259178"><ele>219.0</ele><time>2026-04-04T10:02:32.7Z</time></trkpt><trkpt lat="44.0567786" lon="11.9256794"><ele>218.0</ele><time>2026-04-04T10:02:33.699Z</time></trkpt><trkpt lat="44.056633" lon="11.9254419"><ele>217.0</ele><time>2026-04-04T10:02:34.699Z</time></trkpt><trkpt lat="44.0564731" lon="11.9251893"><ele>219.0</ele><time>2026-04-04T10:02:35.7Z</time></trkpt><trkpt lat="44.0563174" lon="11.9249324"><ele>221.0</ele><time>2026-04-04T10:02:36.699Z</time></trkpt><trkpt lat="44.0561605" lon="11.9246582"><ele>221.0</ele><time>2026-04-04T10:02:37.699Z</time></trkpt><trkpt lat="44.0560122" lon="11.924365"><ele>221.0</ele><time>2026-04-04T10:02:38.7Z</time></trkpt><trkpt lat="44.0558797" lon="11.9240546"><ele>220.0</ele><time>2026-04-04T10:02:39.699Z</time></trkpt><trkpt lat="44.0557584" lon="11.9237284"><ele>219.0</ele><time>2026-04-04T10:02:40.699Z</time></trkpt><trkpt lat="44.0556563" lon="11.9233843"><ele>219.0</ele><time>2026-04-04T10:02:41.699Z</time></trkpt><trkpt lat="44.0555764" lon="11.9230344"><ele>219.0</ele><time>2026-04-04T10:02:42.699Z</time></trkpt><trkpt lat="44.0555029" lon="11.9226643"><ele>219.5</ele><time>2026-04-04T10:02:43.699Z</time></trkpt><trkpt lat="44.0554349" lon="11.9222884"><ele>220.0</ele><time>2026-04-04T10:02:44.7Z</time></trkpt><trkpt lat="44.0553725" lon="11.9219206"><ele>221.0</ele><time>2026-04-04T10:02:45.699Z</time></trkpt><trkpt lat="44.0553195" lon="11.9215746"><ele>222.0</ele><time>2026-04-04T10:02:46.699Z</time></trkpt><trkpt lat="44.0552706" lon="11.92126"><ele>222.0</ele><time>2026-04-04T10:02:47.7Z</time></trkpt><trkpt lat="44.055218" lon="11.9209892"><ele>222.0</ele><time>2026-04-04T10:02:48.699Z</time></trkpt><trkpt lat="44.0551414" lon="11.9207494"><ele>222.0</ele><time>2026-04-04T10:02:49.7Z</time></trkpt><trkpt lat="44.0550179" lon="11.920533"><ele>222.33333333333331</ele><time>2026-04-04T10:02:50.7Z</time></trkpt><trkpt lat="44.0548752" lon="11.9203204"><ele>222.66666666666666</ele><time>2026-04-04T10:02:51.699Z</time></trkpt><trkpt lat="44.0547241" lon="11.920093"><ele>223.0</ele><time>2026-04-04T10:02:52.7Z</time></trkpt><trkpt lat="44.0545772" lon="11.9198516"><ele>223.0</ele><time>2026-04-04T10:02:53.7Z</time></trkpt><trkpt lat="44.0544331" lon="11.9195943"><ele>223.0</ele><time>2026-04-04T10:02:54.7Z</time></trkpt><trkpt lat="44.0542903" lon="11.9193426"><ele>224.0</ele><time>2026-04-04T10:02:55.7Z</time></trkpt><trkpt lat="44.0541239" lon="11.9191183"><ele>225.0</ele><time>2026-04-04T10:02:56.699Z</time></trkpt><trkpt lat="44.0539499" lon="11.9189404"><ele>226.0</ele><time>2026-04-04T10:02:57.699Z</time></trkpt><trkpt lat="44.0537809" lon="11.9187926"><ele>226.0</ele><time>2026-04-04T10:02:58.7Z</time></trkpt><trkpt lat="44.0536297" lon="11.9186611"><ele>226.0</ele><time>2026-04-04T10:02:59.7Z</time></trkpt><trkpt lat="44.0534932" lon="11.9185334"><ele>226.0</ele><time>2026-04-04T10:03:00.699Z</time></trkpt><trkpt lat="44.0533783" lon="11.9183967"><ele>227.33333333333331</ele><time>2026-04-04T10:03:01.7Z</time></trkpt><trkpt lat="44.05327" lon="11.918245"><ele>228.66666666666669</ele><time>2026-04-04T10:03:02.699Z</time></trkpt><trkpt lat="44.05317" lon="11.9180767"><ele>230.0</ele><time>2026-04-04T10:03:03.699Z</time></trkpt><trkpt lat="44.0530633" lon="11.917885"><ele>230.0</ele><time>2026-04-04T10:03:04.699Z</time></trkpt><trkpt lat="44.05295" lon="11.9176817"><ele>230.0</ele><time>2026-04-04T10:03:05.699Z</time></trkpt><trkpt lat="44.0528433" lon="11.91744"><ele>230.0</ele><time>2026-04-04T10:03:06.699Z</time></trkpt><trkpt lat="44.0527467" lon="11.9171683"><ele>231.5</ele><time>2026-04-04T10:03:07.699Z</time></trkpt><trkpt lat="44.052635" lon="11.9169067"><ele>233.0</ele><time>2026-04-04T10:03:08.699Z</time></trkpt><trkpt lat="44.0525" lon="11.9166317"><ele>229.5</ele><time>2026-04-04T10:03:09.699Z</time></trkpt><trkpt lat="44.0523667" lon="11.91635"><ele>226.0</ele><time>2026-04-04T10:03:10.7Z</time></trkpt><trkpt lat="44.0522333" lon="11.9160517"><ele>229.0</ele><time>2026-04-04T10:03:11.699Z</time></trkpt><trkpt lat="44.0520917" lon="11.91575"><ele>232.0</ele><time>2026-04-04T10:03:12.7Z</time></trkpt><trkpt lat="44.0519617" lon="11.9154583"><ele>232.0</ele><time>2026-04-04T10:03:13.699Z</time></trkpt><trkpt lat="44.0518317" lon="11.9151617"><ele>232.0</ele><time>2026-04-04T10:03:14.7Z</time></trkpt><trkpt lat="44.0517117" lon="11.9148367"><ele>230.5</ele><time>2026-04-04T10:03:15.7Z</time></trkpt><trkpt lat="44.0516033" lon="11.9145117"><ele>229.0</ele><time>2026-04-04T10:03:16.7Z</time></trkpt><trkpt lat="44.0515233" lon="11.9142"><ele>229.0</ele><time>2026-04-04T10:03:17.699Z</time></trkpt><trkpt lat="44.0514533" lon="11.9138983"><ele>229.0</ele><time>2026-04-04T10:03:18.699Z</time></trkpt><trkpt lat="44.05135" lon="11.9136133"><ele>234.5</ele><time>2026-04-04T10:03:19.699Z</time></trkpt><trkpt lat="44.0512067" lon="11.9133433"><ele>240.0</ele><time>2026-04-04T10:03:20.7Z</time></trkpt><trkpt lat="44.051025" lon="11.91311"><ele>240.0</ele><time>2026-04-04T10:03:21.7Z</time></trkpt><trkpt lat="44.0508283" lon="11.9128967"><ele>240.0</ele><time>2026-04-04T10:03:22.699Z</time></trkpt><trkpt lat="44.0506217" lon="11.9126833"><ele>239.5</ele><time>2026-04-04T10:03:23.699Z</time></trkpt><trkpt lat="44.0504183" lon="11.9124533"><ele>239.0</ele><time>2026-04-04T10:03:24.699Z</time></trkpt><trkpt lat="44.0502" lon="11.91222"><ele>239.0</ele><time>2026-04-04T10:03:25.7Z</time></trkpt><trkpt lat="44.0499917" lon="11.91199"><ele>239.0</ele><time>2026-04-04T10:03:26.699Z</time></trkpt><trkpt lat="44.0497817" lon="11.9117817"><ele>240.0</ele><time>2026-04-04T10:03:27.699Z</time></trkpt><trkpt lat="44.049605" lon="11.911585"><ele>241.0</ele><time>2026-04-04T10:03:28.7Z</time></trkpt><trkpt lat="44.0494383" lon="11.9114067"><ele>242.0</ele><time>2026-04-04T10:03:29.7Z</time></trkpt><trkpt lat="44.0492733" lon="11.9112417"><ele>242.0</ele><time>2026-04-04T10:03:30.699Z</time></trkpt><trkpt lat="44.04914" lon="11.9110633"><ele>242.0</ele><time>2026-04-04T10:03:31.7Z</time></trkpt><trkpt lat="44.0490533" lon="11.9108667"><ele>242.0</ele><time>2026-04-04T10:03:32.699Z</time></trkpt><trkpt lat="44.0490033" lon="11.9106267"><ele>241.33333333333334</ele><time>2026-04-04T10:03:33.699Z</time></trkpt><trkpt lat="44.048995" lon="11.91036"><ele>240.66666666666669</ele><time>2026-04-04T10:03:34.699Z</time></trkpt><trkpt lat="44.0489583" lon="11.9100883"><ele>240.0</ele><time>2026-04-04T10:03:35.699Z</time></trkpt><trkpt lat="44.0488767" lon="11.909825"><ele>240.0</ele><time>2026-04-04T10:03:36.699Z</time></trkpt><trkpt lat="44.0487767" lon="11.9095617"><ele>240.0</ele><time>2026-04-04T10:03:37.7Z</time></trkpt><trkpt lat="44.04866" lon="11.9093"><ele>240.0</ele><time>2026-04-04T10:03:38.699Z</time></trkpt><trkpt lat="44.0485283" lon="11.9090517"><ele>241.0</ele><time>2026-04-04T10:03:39.7Z</time></trkpt><trkpt lat="44.0483933" lon="11.9088317"><ele>242.0</ele><time>2026-04-04T10:03:40.699Z</time></trkpt><trkpt lat="44.0482167" lon="11.9086517"><ele>243.0</ele><time>2026-04-04T10:03:41.699Z</time></trkpt><trkpt lat="44.0480233" lon="11.9084883"><ele>250.0</ele><time>2026-04-04T10:03:42.699Z</time></trkpt><trkpt lat="44.0478167" lon="11.90832"><ele>257.0</ele><time>2026-04-04T10:03:43.7Z</time></trkpt><trkpt lat="44.0476267" lon="11.908125"><ele>254.33333333333334</ele><time>2026-04-04T10:03:44.7Z</time></trkpt><trkpt lat="44.0474583" lon="11.907915"><ele>251.66666666666669</ele><time>2026-04-04T10:03:45.7Z</time></trkpt><trkpt lat="44.0473017" lon="11.9077333"><ele>249.0</ele><time>2026-04-04T10:03:46.699Z</time></trkpt><trkpt lat="44.0471467" lon="11.9075917"><ele>252.0</ele><time>2026-04-04T10:03:47.699Z</time></trkpt><trkpt lat="44.0469867" lon="11.9075017"><ele>255.0</ele><time>2026-04-04T10:03:48.699Z</time></trkpt><trkpt lat="44.0468233" lon="11.907455"><ele>258.0</ele><time>2026-04-04T10:03:49.699Z</time></trkpt><trkpt lat="44.0466617" lon="11.9073717"><ele>253.0</ele><time>2026-04-04T10:03:50.699Z</time></trkpt><trkpt lat="44.0465117" lon="11.90721"><ele>248.0</ele><time>2026-04-04T10:03:51.699Z</time></trkpt><trkpt lat="44.0463683" lon="11.9070167"><ele>243.0</ele><time>2026-04-04T10:03:52.699Z</time></trkpt><trkpt lat="44.04623" lon="11.906805"><ele>245.33333333333331</ele><time>2026-04-04T10:03:53.699Z</time></trkpt><trkpt lat="44.0460717" lon="11.9066217"><ele>247.66666666666666</ele><time>2026-04-04T10:03:54.699Z</time></trkpt><trkpt lat="44.0458967" lon="11.9064867"><ele>250.0</ele><time>2026-04-04T10:03:55.7Z</time></trkpt><trkpt lat="44.04573" lon="11.9063633"><ele>250.0</ele><time>2026-04-04T10:03:56.699Z</time></trkpt><trkpt lat="44.0455667" lon="11.9062333"><ele>250.0</ele><time>2026-04-04T10:03:57.699Z</time></trkpt><trkpt lat="44.045405" lon="11.9061317"><ele>250.0</ele><time>2026-04-04T10:03:58.699Z</time></trkpt><trkpt lat="44.0452367" lon="11.9060683"><ele>250.0</ele><time>2026-04-04T10:03:59.699Z</time></trkpt><trkpt lat="44.0450667" lon="11.90602"><ele>250.0</ele><time>2026-04-04T10:04:00.7Z</time></trkpt><trkpt lat="44.0448917" lon="11.905925"><ele>250.0</ele><time>2026-04-04T10:04:01.699Z</time></trkpt><trkpt lat="44.04472" lon="11.905775"><ele>250.66666666666666</ele><time>2026-04-04T10:04:02.7Z</time></trkpt><trkpt lat="44.0445433" lon="11.90562"><ele>251.33333333333331</ele><time>2026-04-04T10:04:03.7Z</time></trkpt><trkpt lat="44.0443533" lon="11.9054567"><ele>252.0</ele><time>2026-04-04T10:04:04.699Z</time></trkpt><trkpt lat="44.0441633" lon="11.90531"><ele>250.66666666666669</ele><time>2026-04-04T10:04:05.699Z</time></trkpt><trkpt lat="44.0439933" lon="11.9051683"><ele>249.33333333333334</ele><time>2026-04-04T10:04:06.699Z</time></trkpt><trkpt lat="44.0438567" lon="11.905015"><ele>248.0</ele><time>2026-04-04T10:04:07.699Z</time></trkpt><trkpt lat="44.0437683" lon="11.9048567"><ele>248.0</ele><time>2026-04-04T10:04:08.699Z</time></trkpt><trkpt lat="44.0437333" lon="11.90468"><ele>248.0</ele><time>2026-04-04T10:04:09.7Z</time></trkpt><trkpt lat="44.0437467" lon="11.9045017"><ele>248.0</ele><time>2026-04-04T10:04:10.699Z</time></trkpt><trkpt lat="44.0437967" lon="11.9043133"><ele>248.0</ele><time>2026-04-04T10:04:11.699Z</time></trkpt><trkpt lat="44.0438283" lon="11.9041117"><ele>249.0</ele><time>2026-04-04T10:04:12.699Z</time></trkpt><trkpt lat="44.043815" lon="11.9038933"><ele>250.0</ele><time>2026-04-04T10:04:13.699Z</time></trkpt><trkpt lat="44.0437383" lon="11.9036733"><ele>251.0</ele><time>2026-04-04T10:04:14.699Z</time></trkpt><trkpt lat="44.0436283" lon="11.9034683"><ele>253.33333333333334</ele><time>2026-04-04T10:04:15.699Z</time></trkpt><trkpt lat="44.0435417" lon="11.903225"><ele>255.66666666666669</ele><time>2026-04-04T10:04:16.7Z</time></trkpt><trkpt lat="44.0434683" lon="11.9029867"><ele>258.0</ele><time>2026-04-04T10:04:17.699Z</time></trkpt><trkpt lat="44.0434267" lon="11.9027667"><ele>257.0</ele><time>2026-04-04T10:04:18.7Z</time></trkpt><trkpt lat="44.0434183" lon="11.902555"><ele>256.0</ele><time>2026-04-04T10:04:19.7Z</time></trkpt><trkpt lat="44.0433617" lon="11.9023817"><ele>255.0</ele><time>2026-04-04T10:04:20.699Z</time></trkpt><trkpt lat="44.04327" lon="11.90225"><ele>254.0</ele><time>2026-04-04T10:04:21.699Z</time></trkpt><trkpt lat="44.0431217" lon="11.9021683"><ele>254.0</ele><time>2026-04-04T10:04:22.7Z</time></trkpt><trkpt lat="44.0429583" lon="11.9021283"><ele>254.0</ele><time>2026-04-04T10:04:23.699Z</time></trkpt><trkpt lat="44.0428033" lon="11.9021633"><ele>254.0</ele><time>2026-04-04T10:04:24.7Z</time></trkpt><trkpt lat="44.0426517" lon="11.902205"><ele>254.0</ele><time>2026-04-04T10:04:25.7Z</time></trkpt><trkpt lat="44.0425" lon="11.9021917"><ele>254.0</ele><time>2026-04-04T10:04:26.699Z</time></trkpt><trkpt lat="44.0423533" lon="11.9021033"><ele>254.0</ele><time>2026-04-04T10:04:27.699Z</time></trkpt><trkpt lat="44.0421967" lon="11.901945"><ele>254.33333333333334</ele><time>2026-04-04T10:04:28.699Z</time></trkpt><trkpt lat="44.0420367" lon="11.9017617"><ele>254.66666666666669</ele><time>2026-04-04T10:04:29.699Z</time></trkpt><trkpt lat="44.0418617" lon="11.9015783"><ele>255.0</ele><time>2026-04-04T10:04:30.7Z</time></trkpt><trkpt lat="44.041685" lon="11.90142"><ele>253.0</ele><time>2026-04-04T10:04:31.699Z</time></trkpt><trkpt lat="44.04152" lon="11.901295"><ele>251.0</ele><time>2026-04-04T10:04:32.7Z</time></trkpt><trkpt lat="44.0413467" lon="11.9011983"><ele>249.0</ele><time>2026-04-04T10:04:33.7Z</time></trkpt><trkpt lat="44.041185" lon="11.9011217"><ele>249.0</ele><time>2026-04-04T10:04:34.699Z</time></trkpt><trkpt lat="44.04103" lon="11.9010233"><ele>249.0</ele><time>2026-04-04T10:04:35.699Z</time></trkpt><trkpt lat="44.0408767" lon="11.90091"><ele>249.0</ele><time>2026-04-04T10:04:36.699Z</time></trkpt><trkpt lat="44.040725" lon="11.9007483"><ele>248.66666666666669</ele><time>2026-04-04T10:04:37.7Z</time></trkpt><trkpt lat="44.0405717" lon="11.900555"><ele>248.33333333333334</ele><time>2026-04-04T10:04:38.699Z</time></trkpt><trkpt lat="44.0404217" lon="11.90034"><ele>248.0</ele><time>2026-04-04T10:04:39.699Z</time></trkpt><trkpt lat="44.0402517" lon="11.900115"><ele>248.5</ele><time>2026-04-04T10:04:40.699Z</time></trkpt><trkpt lat="44.040075" lon="11.8999117"><ele>249.0</ele><time>2026-04-04T10:04:41.7Z</time></trkpt><trkpt lat="44.0398617" lon="11.8997633"><ele>249.0</ele><time>2026-04-04T10:04:42.699Z</time></trkpt><trkpt lat="44.0396233" lon="11.8996867"><ele>249.0</ele><time>2026-04-04T10:04:43.7Z</time></trkpt><trkpt lat="44.0394017" lon="11.8996133"><ele>249.0</ele><time>2026-04-04T10:04:44.7Z</time></trkpt><trkpt lat="44.03918" lon="11.8995"><ele>249.0</ele><time>2026-04-04T10:04:45.7Z</time></trkpt><trkpt lat="44.03898" lon="11.8993"><ele>252.0</ele><time>2026-04-04T10:04:46.7Z</time></trkpt><trkpt lat="44.0387933" lon="11.8990883"><ele>255.0</ele><time>2026-04-04T10:04:47.699Z</time></trkpt><trkpt lat="44.0385967" lon="11.8988833"><ele>255.0</ele><time>2026-04-04T10:04:48.7Z</time></trkpt><trkpt lat="44.0383667" lon="11.8987183"><ele>255.0</ele><time>2026-04-04T10:04:49.7Z</time></trkpt><trkpt lat="44.038125" lon="11.8985683"><ele>256.0</ele><time>2026-04-04T10:04:50.7Z</time></trkpt><trkpt lat="44.0378833" lon="11.8984083"><ele>257.0</ele><time>2026-04-04T10:04:51.7Z</time></trkpt><trkpt lat="44.0376467" lon="11.8982483"><ele>254.0</ele><time>2026-04-04T10:04:52.699Z</time></trkpt><trkpt lat="44.0374133" lon="11.8980917"><ele>251.0</ele><time>2026-04-04T10:04:53.7Z</time></trkpt><trkpt lat="44.0371883" lon="11.8979383"><ele>251.0</ele><time>2026-04-04T10:04:54.699Z</time></trkpt><trkpt lat="44.036975" lon="11.8978083"><ele>251.0</ele><time>2026-04-04T10:04:55.699Z</time></trkpt><trkpt lat="44.036765" lon="11.8976783"><ele>254.5</ele><time>2026-04-04T10:04:56.7Z</time></trkpt><trkpt lat="44.0365633" lon="11.89753"><ele>258.0</ele><time>2026-04-04T10:04:57.699Z</time></trkpt><trkpt lat="44.0363683" lon="11.8973767"><ele>258.0</ele><time>2026-04-04T10:04:58.699Z</time></trkpt><trkpt lat="44.0361767" lon="11.89723"><ele>258.0</ele><time>2026-04-04T10:04:59.699Z</time></trkpt><trkpt lat="44.0359817" lon="11.8970683"><ele>258.0</ele><time>2026-04-04T10:05:00.699Z</time></trkpt><trkpt lat="44.035795" lon="11.8968617"><ele>257.0</ele><time>2026-04-04T10:05:01.699Z</time></trkpt><trkpt lat="44.0356467" lon="11.8966317"><ele>256.0</ele><time>2026-04-04T10:05:02.699Z</time></trkpt><trkpt lat="44.0355217" lon="11.8964183"><ele>255.0</ele><time>2026-04-04T10:05:03.7Z</time></trkpt><trkpt lat="44.0353867" lon="11.8962283"><ele>255.0</ele><time>2026-04-04T10:05:04.7Z</time></trkpt><trkpt lat="44.0352417" lon="11.8960717"><ele>255.0</ele><time>2026-04-04T10:05:05.699Z</time></trkpt><trkpt lat="44.0350483" lon="11.8959683"><ele>255.0</ele><time>2026-04-04T10:05:06.7Z</time></trkpt><trkpt lat="44.0348533" lon="11.8958583"><ele>256.5</ele><time>2026-04-04T10:05:07.699Z</time></trkpt><trkpt lat="44.03464" lon="11.8957333"><ele>258.0</ele><time>2026-04-04T10:05:08.699Z</time></trkpt><trkpt lat="44.034425" lon="11.8956183"><ele>258.0</ele><time>2026-04-04T10:05:09.7Z</time></trkpt><trkpt lat="44.0342" lon="11.8954933"><ele>258.0</ele><time>2026-04-04T10:05:10.699Z</time></trkpt><trkpt lat="44.0339667" lon="11.895355"><ele>256.0</ele><time>2026-04-04T10:05:11.699Z</time></trkpt><trkpt lat="44.03373" lon="11.895215"><ele>254.0</ele><time>2026-04-04T10:05:12.7Z</time></trkpt><trkpt lat="44.033495" lon="11.8950783"><ele>257.0</ele><time>2026-04-04T10:05:13.699Z</time></trkpt><trkpt lat="44.0332667" lon="11.894935"><ele>260.0</ele><time>2026-04-04T10:05:14.699Z</time></trkpt><trkpt lat="44.033055" lon="11.8948033"><ele>260.0</ele><time>2026-04-04T10:05:15.7Z</time></trkpt><trkpt lat="44.03284" lon="11.894695"><ele>260.0</ele><time>2026-04-04T10:05:16.699Z</time></trkpt><trkpt lat="44.0326283" lon="11.8946333"><ele>260.0</ele><time>2026-04-04T10:05:17.699Z</time></trkpt><trkpt lat="44.0324017" lon="11.89462"><ele>259.0</ele><time>2026-04-04T10:05:18.699Z</time></trkpt><trkpt lat="44.03218" lon="11.8946483"><ele>258.0</ele><time>2026-04-04T10:05:19.699Z</time></trkpt><trkpt lat="44.0319517" lon="11.89465"><ele>258.0</ele><time>2026-04-04T10:05:20.699Z</time></trkpt><trkpt lat="44.0317267" lon="11.8946183"><ele>258.0</ele><time>2026-04-04T10:05:21.699Z</time></trkpt><trkpt lat="44.03151" lon="11.8945183"><ele>257.5</ele><time>2026-04-04T10:05:22.699Z</time></trkpt><trkpt lat="44.0313133" lon="11.8943617"><ele>257.0</ele><time>2026-04-04T10:05:23.699Z</time></trkpt><trkpt lat="44.0311167" lon="11.8941683"><ele>259.0</ele><time>2026-04-04T10:05:24.699Z</time></trkpt><trkpt lat="44.03091" lon="11.8939833"><ele>261.0</ele><time>2026-04-04T10:05:25.7Z</time></trkpt><trkpt lat="44.0306783" lon="11.8938267"><ele>261.0</ele><time>2026-04-04T10:05:26.699Z</time></trkpt><trkpt lat="44.0304383" lon="11.89373"><ele>261.0</ele><time>2026-04-04T10:05:27.699Z</time></trkpt><trkpt lat="44.0301783" lon="11.893675"><ele>260.0</ele><time>2026-04-04T10:05:28.699Z</time></trkpt><trkpt lat="44.0299117" lon="11.8936633"><ele>259.0</ele><time>2026-04-04T10:05:29.699Z</time></trkpt><trkpt lat="44.0296517" lon="11.8936767"><ele>259.0</ele><time>2026-04-04T10:05:30.699Z</time></trkpt><trkpt lat="44.029415" lon="11.893725"><ele>259.0</ele><time>2026-04-04T10:05:31.699Z</time></trkpt><trkpt lat="44.0291933" lon="11.8937933"><ele>258.66666666666663</ele><time>2026-04-04T10:05:32.7Z</time></trkpt><trkpt lat="44.02899" lon="11.8938683"><ele>258.3333333333333</ele><time>2026-04-04T10:05:33.699Z</time></trkpt><trkpt lat="44.028795" lon="11.8938583"><ele>258.0</ele><time>2026-04-04T10:05:34.7Z</time></trkpt><trkpt lat="44.028605" lon="11.893775"><ele>258.0</ele><time>2026-04-04T10:05:35.7Z</time></trkpt><trkpt lat="44.02842" lon="11.8936317"><ele>258.0</ele><time>2026-04-04T10:05:36.699Z</time></trkpt><trkpt lat="44.0282367" lon="11.893475"><ele>258.0</ele><time>2026-04-04T10:05:37.699Z</time></trkpt><trkpt lat="44.0280283" lon="11.8933467"><ele>262.5</ele><time>2026-04-04T10:05:38.699Z</time></trkpt><trkpt lat="44.0278017" lon="11.8932533"><ele>267.0</ele><time>2026-04-04T10:05:39.7Z</time></trkpt><trkpt lat="44.0275617" lon="11.8931617"><ele>265.0</ele><time>2026-04-04T10:05:40.699Z</time></trkpt><trkpt lat="44.027325" lon="11.893045"><ele>263.0</ele><time>2026-04-04T10:05:41.7Z</time></trkpt><trkpt lat="44.02708" lon="11.89294"><ele>263.0</ele><time>2026-04-04T10:05:42.7Z</time></trkpt><trkpt lat="44.0268433" lon="11.8928317"><ele>263.0</ele><time>2026-04-04T10:05:43.7Z</time></trkpt><trkpt lat="44.0266117" lon="11.892715"><ele>266.5</ele><time>2026-04-04T10:05:44.7Z</time></trkpt><trkpt lat="44.0263833" lon="11.8925517"><ele>270.0</ele><time>2026-04-04T10:05:45.699Z</time></trkpt><trkpt lat="44.0261583" lon="11.8923583"><ele>270.0</ele><time>2026-04-04T10:05:46.7Z</time></trkpt><trkpt lat="44.0259333" lon="11.8921683"><ele>270.0</ele><time>2026-04-04T10:05:47.7Z</time></trkpt><trkpt lat="44.0257033" lon="11.8919817"><ele>270.5</ele><time>2026-04-04T10:05:48.7Z</time></trkpt><trkpt lat="44.025475" lon="11.891795"><ele>271.0</ele><time>2026-04-04T10:05:49.699Z</time></trkpt><trkpt lat="44.025255" lon="11.8916217"><ele>271.0</ele><time>2026-04-04T10:05:50.699Z</time></trkpt><trkpt lat="44.0250681" lon="11.8914495"><ele>271.0</ele><time>2026-04-04T10:05:51.7Z</time></trkpt><trkpt lat="44.02491" lon="11.8912823"><ele>271.0</ele><time>2026-04-04T10:05:52.7Z</time></trkpt><trkpt lat="44.0247735" lon="11.8910963"><ele>269.66666666666663</ele><time>2026-04-04T10:05:53.7Z</time></trkpt><trkpt lat="44.0246663" lon="11.8908744"><ele>268.3333333333333</ele><time>2026-04-04T10:05:54.699Z</time></trkpt><trkpt lat="44.0246" lon="11.890612"><ele>267.0</ele><time>2026-04-04T10:05:55.699Z</time></trkpt><trkpt lat="44.0245408" lon="11.8903321"><ele>268.5</ele><time>2026-04-04T10:05:56.7Z</time></trkpt><trkpt lat="44.0244782" lon="11.8900248"><ele>270.0</ele><time>2026-04-04T10:05:57.699Z</time></trkpt><trkpt lat="44.0244093" lon="11.8897046"><ele>270.0</ele><time>2026-04-04T10:05:58.699Z</time></trkpt><trkpt lat="44.0243339" lon="11.8893736"><ele>270.0</ele><time>2026-04-04T10:05:59.699Z</time></trkpt><trkpt lat="44.0242508" lon="11.889037"><ele>271.5</ele><time>2026-04-04T10:06:00.699Z</time></trkpt><trkpt lat="44.0241644" lon="11.8886916"><ele>273.0</ele><time>2026-04-04T10:06:01.699Z</time></trkpt><trkpt lat="44.0240821" lon="11.8883502"><ele>270.0</ele><time>2026-04-04T10:06:02.7Z</time></trkpt><trkpt lat="44.0240067" lon="11.8880165"><ele>267.0</ele><time>2026-04-04T10:06:03.699Z</time></trkpt><trkpt lat="44.0239233" lon="11.8876948"><ele>269.0</ele><time>2026-04-04T10:06:04.699Z</time></trkpt><trkpt lat="44.0238195" lon="11.8873754"><ele>271.0</ele><time>2026-04-04T10:06:05.699Z</time></trkpt><trkpt lat="44.0237034" lon="11.8870597"><ele>276.0</ele><time>2026-04-04T10:06:06.699Z</time></trkpt><trkpt lat="44.0235837" lon="11.8867466"><ele>281.0</ele><time>2026-04-04T10:06:07.7Z</time></trkpt><trkpt lat="44.023475" lon="11.8864243"><ele>281.0</ele><time>2026-04-04T10:06:08.699Z</time></trkpt><trkpt lat="44.0233853" lon="11.8860975"><ele>281.0</ele><time>2026-04-04T10:06:09.7Z</time></trkpt><trkpt lat="44.0233189" lon="11.8857709"><ele>275.5</ele><time>2026-04-04T10:06:10.699Z</time></trkpt><trkpt lat="44.023285" lon="11.8854453"><ele>270.0</ele><time>2026-04-04T10:06:11.699Z</time></trkpt><trkpt lat="44.0232762" lon="11.8850911"><ele>270.0</ele><time>2026-04-04T10:06:12.7Z</time></trkpt><trkpt lat="44.0232747" lon="11.884727"><ele>270.0</ele><time>2026-04-04T10:06:13.7Z</time></trkpt><trkpt lat="44.0232817" lon="11.8843588"><ele>272.0</ele><time>2026-04-04T10:06:14.699Z</time></trkpt><trkpt lat="44.0232856" lon="11.8839724"><ele>274.0</ele><time>2026-04-04T10:06:15.7Z</time></trkpt><trkpt lat="44.0232782" lon="11.8835832"><ele>275.0</ele><time>2026-04-04T10:06:16.7Z</time></trkpt><trkpt lat="44.0232711" lon="11.883196"><ele>276.0</ele><time>2026-04-04T10:06:17.699Z</time></trkpt><trkpt lat="44.0232749" lon="11.8828165"><ele>275.5</ele><time>2026-04-04T10:06:18.7Z</time></trkpt><trkpt lat="44.0232796" lon="11.8824588"><ele>275.0</ele><time>2026-04-04T10:06:19.7Z</time></trkpt><trkpt lat="44.0232841" lon="11.882119"><ele>275.0</ele><time>2026-04-04T10:06:20.699Z</time></trkpt><trkpt lat="44.0232886" lon="11.8817956"><ele>275.0</ele><time>2026-04-04T10:06:21.699Z</time></trkpt><trkpt lat="44.0232709" lon="11.881482"><ele>275.33333333333337</ele><time>2026-04-04T10:06:22.7Z</time></trkpt><trkpt lat="44.0231987" lon="11.8811958"><ele>275.6666666666667</ele><time>2026-04-04T10:06:23.7Z</time></trkpt><trkpt lat="44.0230683" lon="11.880945"><ele>276.0</ele><time>2026-04-04T10:06:24.699Z</time></trkpt><trkpt lat="44.0229367" lon="11.8807"><ele>278.5</ele><time>2026-04-04T10:06:25.699Z</time></trkpt><trkpt lat="44.022815" lon="11.880435"><ele>281.0</ele><time>2026-04-04T10:06:26.699Z</time></trkpt><trkpt lat="44.022685" lon="11.8801767"><ele>280.33333333333337</ele><time>2026-04-04T10:06:27.7Z</time></trkpt><trkpt lat="44.0225683" lon="11.8799267"><ele>279.6666666666667</ele><time>2026-04-04T10:06:28.7Z</time></trkpt><trkpt lat="44.02247" lon="11.8796983"><ele>279.0</ele><time>2026-04-04T10:06:29.699Z</time></trkpt><trkpt lat="44.0223867" lon="11.8794483"><ele>278.6666666666667</ele><time>2026-04-04T10:06:30.7Z</time></trkpt><trkpt lat="44.0223233" lon="11.8791717"><ele>278.33333333333337</ele><time>2026-04-04T10:06:31.699Z</time></trkpt><trkpt lat="44.0222467" lon="11.8788917"><ele>278.0</ele><time>2026-04-04T10:06:32.7Z</time></trkpt><trkpt lat="44.0221467" lon="11.8786067"><ele>281.5</ele><time>2026-04-04T10:06:33.699Z</time></trkpt><trkpt lat="44.0220167" lon="11.8783467"><ele>285.0</ele><time>2026-04-04T10:06:34.7Z</time></trkpt><trkpt lat="44.0218767" lon="11.8780717"><ele>285.0</ele><time>2026-04-04T10:06:35.7Z</time></trkpt><trkpt lat="44.0217183" lon="11.8778117"><ele>285.0</ele><time>2026-04-04T10:06:36.7Z</time></trkpt><trkpt lat="44.0215433" lon="11.8775667"><ele>284.3333333333333</ele><time>2026-04-04T10:06:37.7Z</time></trkpt><trkpt lat="44.0213783" lon="11.8773333"><ele>283.66666666666663</ele><time>2026-04-04T10:06:38.699Z</time></trkpt><trkpt lat="44.0212417" lon="11.8771333"><ele>283.0</ele><time>2026-04-04T10:06:39.699Z</time></trkpt><trkpt lat="44.0211433" lon="11.8769767"><ele>283.0</ele><time>2026-04-04T10:06:40.7Z</time></trkpt><trkpt lat="44.0210867" lon="11.876855"><ele>283.0</ele><time>2026-04-04T10:06:41.699Z</time></trkpt><trkpt lat="44.0210833" lon="11.87672"><ele>283.0</ele><time>2026-04-04T10:06:42.699Z</time></trkpt><trkpt lat="44.021125" lon="11.87656"><ele>283.0</ele><time>2026-04-04T10:06:43.699Z</time></trkpt><trkpt lat="44.0211817" lon="11.87638"><ele>285.66666666666663</ele><time>2026-04-04T10:06:44.7Z</time></trkpt><trkpt lat="44.021245" lon="11.8761717"><ele>288.3333333333333</ele><time>2026-04-04T10:06:45.7Z</time></trkpt><trkpt lat="44.0213017" lon="11.8759583"><ele>291.0</ele><time>2026-04-04T10:06:46.699Z</time></trkpt><trkpt lat="44.0213533" lon="11.8757283"><ele>291.0</ele><time>2026-04-04T10:06:47.699Z</time></trkpt><trkpt lat="44.0214" lon="11.87547"><ele>291.0</ele><time>2026-04-04T10:06:48.699Z</time></trkpt><trkpt lat="44.0214467" lon="11.8752017"><ele>291.0</ele><time>2026-04-04T10:06:49.699Z</time></trkpt><trkpt lat="44.021485" lon="11.8749233"><ele>292.3333333333333</ele><time>2026-04-04T10:06:50.7Z</time></trkpt><trkpt lat="44.0215083" lon="11.8746417"><ele>293.66666666666663</ele><time>2026-04-04T10:06:51.699Z</time></trkpt><trkpt lat="44.021515" lon="11.874375"><ele>295.0</ele><time>2026-04-04T10:06:52.699Z</time></trkpt><trkpt lat="44.02148" lon="11.874105"><ele>297.0</ele><time>2026-04-04T10:06:53.699Z</time></trkpt><trkpt lat="44.0214033" lon="11.873835"><ele>299.0</ele><time>2026-04-04T10:06:54.699Z</time></trkpt><trkpt lat="44.0213" lon="11.87358"><ele>301.0</ele><time>2026-04-04T10:06:55.699Z</time></trkpt><trkpt lat="44.0211967" lon="11.8733317"><ele>304.66666666666663</ele><time>2026-04-04T10:06:56.699Z</time></trkpt><trkpt lat="44.0211083" lon="11.8731"><ele>308.3333333333333</ele><time>2026-04-04T10:06:57.7Z</time></trkpt><trkpt lat="44.0210417" lon="11.87288"><ele>312.0</ele><time>2026-04-04T10:06:58.699Z</time></trkpt><trkpt lat="44.0209933" lon="11.8726967"><ele>313.0</ele><time>2026-04-04T10:06:59.7Z</time></trkpt><trkpt lat="44.0209783" lon="11.8725283"><ele>314.0</ele><time>2026-04-04T10:07:00.699Z</time></trkpt><trkpt lat="44.020985" lon="11.8723833"><ele>315.0</ele><time>2026-04-04T10:07:01.699Z</time></trkpt><trkpt lat="44.0210167" lon="11.8722767"><ele>316.0</ele><time>2026-04-04T10:07:02.699Z</time></trkpt><trkpt lat="44.0210417" lon="11.8721767"><ele>317.0</ele><time>2026-04-04T10:07:03.699Z</time></trkpt><trkpt lat="44.0210483" lon="11.8720683"><ele>317.0</ele><time>2026-04-04T10:07:04.699Z</time></trkpt><trkpt lat="44.0210317" lon="11.871945"><ele>317.0</ele><time>2026-04-04T10:07:05.699Z</time></trkpt><trkpt lat="44.021" lon="11.8718383"><ele>317.0</ele><time>2026-04-04T10:07:06.699Z</time></trkpt><trkpt lat="44.020945" lon="11.8717417"><ele>317.0</ele><time>2026-04-04T10:07:07.699Z</time></trkpt><trkpt lat="44.02087" lon="11.8716617"><ele>317.0</ele><time>2026-04-04T10:07:08.7Z</time></trkpt><trkpt lat="44.02078" lon="11.8715867"><ele>313.2</ele><time>2026-04-04T10:07:09.699Z</time></trkpt><trkpt lat="44.0207017" lon="11.871505"><ele>309.4</ele><time>2026-04-04T10:07:10.7Z</time></trkpt><trkpt lat="44.0206433" lon="11.8714017"><ele>305.6</ele><time>2026-04-04T10:07:11.699Z</time></trkpt><trkpt lat="44.020595" lon="11.8712917"><ele>301.8</ele><time>2026-04-04T10:07:12.699Z</time></trkpt><trkpt lat="44.02057" lon="11.8711517"><ele>298.0</ele><time>2026-04-04T10:07:13.699Z</time></trkpt><trkpt lat="44.0205683" lon="11.87098"><ele>299.0</ele><time>2026-04-04T10:07:14.699Z</time></trkpt><trkpt lat="44.0205883" lon="11.870745"><ele>300.0</ele><time>2026-04-04T10:07:15.698Z</time></trkpt><trkpt lat="44.0206033" lon="11.8704883"><ele>301.0</ele><time>2026-04-04T10:07:16.698Z</time></trkpt><trkpt lat="44.0206033" lon="11.8702167"><ele>302.66666666666663</ele><time>2026-04-04T10:07:17.698Z</time></trkpt><trkpt lat="44.0205717" lon="11.8699333"><ele>304.3333333333333</ele><time>2026-04-04T10:07:18.699Z</time></trkpt><trkpt lat="44.0205067" lon="11.8696683"><ele>306.0</ele><time>2026-04-04T10:07:19.698Z</time></trkpt><trkpt lat="44.02041" lon="11.869415"><ele>307.6666666666667</ele><time>2026-04-04T10:07:20.698Z</time></trkpt><trkpt lat="44.020305" lon="11.86918"><ele>309.33333333333337</ele><time>2026-04-04T10:07:21.699Z</time></trkpt><trkpt lat="44.02021" lon="11.8689633"><ele>311.0</ele><time>2026-04-04T10:07:22.699Z</time></trkpt><trkpt lat="44.0201417" lon="11.8687433"><ele>311.0</ele><time>2026-04-04T10:07:23.698Z</time></trkpt><trkpt lat="44.0201117" lon="11.8685167"><ele>311.0</ele><time>2026-04-04T10:07:24.698Z</time></trkpt><trkpt lat="44.020095" lon="11.86826"><ele>311.0</ele><time>2026-04-04T10:07:25.698Z</time></trkpt><trkpt lat="44.02009" lon="11.8680017"><ele>311.0</ele><time>2026-04-04T10:07:26.698Z</time></trkpt><trkpt lat="44.0200817" lon="11.8677133"><ele>311.0</ele><time>2026-04-04T10:07:27.698Z</time></trkpt><trkpt lat="44.020045" lon="11.8674017"><ele>311.0</ele><time>2026-04-04T10:07:28.698Z</time></trkpt><trkpt lat="44.0199867" lon="11.867085"><ele>301.0</ele><time>2026-04-04T10:07:29.698Z</time></trkpt><trkpt lat="44.0199117" lon="11.8667683"><ele>291.0</ele><time>2026-04-04T10:07:30.699Z</time></trkpt><trkpt lat="44.0198583" lon="11.8664367"><ele>291.0</ele><time>2026-04-04T10:07:31.699Z</time></trkpt><trkpt lat="44.0198083" lon="11.8661017"><ele>291.0</ele><time>2026-04-04T10:07:32.699Z</time></trkpt><trkpt lat="44.0197517" lon="11.865785"><ele>293.0</ele><time>2026-04-04T10:07:33.699Z</time></trkpt><trkpt lat="44.0196733" lon="11.8654783"><ele>295.0</ele><time>2026-04-04T10:07:34.699Z</time></trkpt><trkpt lat="44.0196083" lon="11.865155"><ele>297.0</ele><time>2026-04-04T10:07:35.699Z</time></trkpt><trkpt lat="44.019555" lon="11.8648483"><ele>299.0</ele><time>2026-04-04T10:07:36.699Z</time></trkpt><trkpt lat="44.0195183" lon="11.8645417"><ele>300.5</ele><time>2026-04-04T10:07:37.699Z</time></trkpt><trkpt lat="44.019505" lon="11.8642267"><ele>302.0</ele><time>2026-04-04T10:07:38.699Z</time></trkpt><trkpt lat="44.01953" lon="11.86388"><ele>302.0</ele><time>2026-04-04T10:07:39.698Z</time></trkpt><trkpt lat="44.01957" lon="11.8635433"><ele>302.0</ele><time>2026-04-04T10:07:40.698Z</time></trkpt><trkpt lat="44.0196283" lon="11.86322"><ele>301.0</ele><time>2026-04-04T10:07:41.699Z</time></trkpt><trkpt lat="44.0196817" lon="11.8628867"><ele>300.0</ele><time>2026-04-04T10:07:42.699Z</time></trkpt><trkpt lat="44.0197483" lon="11.8625567"><ele>298.5</ele><time>2026-04-04T10:07:43.699Z</time></trkpt><trkpt lat="44.019845" lon="11.8622317"><ele>297.0</ele><time>2026-04-04T10:07:44.698Z</time></trkpt><trkpt lat="44.0199533" lon="11.861925"><ele>301.0</ele><time>2026-04-04T10:07:45.699Z</time></trkpt><trkpt lat="44.0200533" lon="11.8616167"><ele>305.0</ele><time>2026-04-04T10:07:46.698Z</time></trkpt><trkpt lat="44.0201233" lon="11.86132"><ele>305.0</ele><time>2026-04-04T10:07:47.698Z</time></trkpt><trkpt lat="44.020215" lon="11.8610517"><ele>305.0</ele><time>2026-04-04T10:07:48.698Z</time></trkpt><trkpt lat="44.0203317" lon="11.8607983"><ele>305.0</ele><time>2026-04-04T10:07:49.698Z</time></trkpt><trkpt lat="44.020475" lon="11.8605583"><ele>303.0</ele><time>2026-04-04T10:07:50.699Z</time></trkpt><trkpt lat="44.0206333" lon="11.8603183"><ele>301.0</ele><time>2026-04-04T10:07:51.698Z</time></trkpt><trkpt lat="44.0207883" lon="11.86008"><ele>303.66666666666663</ele><time>2026-04-04T10:07:52.698Z</time></trkpt><trkpt lat="44.0209317" lon="11.8598483"><ele>306.3333333333333</ele><time>2026-04-04T10:07:53.698Z</time></trkpt><trkpt lat="44.021055" lon="11.8596267"><ele>309.0</ele><time>2026-04-04T10:07:54.699Z</time></trkpt><trkpt lat="44.0211617" lon="11.8593733"><ele>307.0</ele><time>2026-04-04T10:07:55.699Z</time></trkpt><trkpt lat="44.0212317" lon="11.85913"><ele>305.0</ele><time>2026-04-04T10:07:56.699Z</time></trkpt><trkpt lat="44.0212533" lon="11.85886"><ele>303.0</ele><time>2026-04-04T10:07:57.699Z</time></trkpt><trkpt lat="44.021235" lon="11.8585917"><ele>302.3333333333333</ele><time>2026-04-04T10:07:58.699Z</time></trkpt><trkpt lat="44.0211517" lon="11.858315"><ele>301.66666666666663</ele><time>2026-04-04T10:07:59.699Z</time></trkpt><trkpt lat="44.0210433" lon="11.8580433"><ele>301.0</ele><time>2026-04-04T10:08:00.698Z</time></trkpt><trkpt lat="44.020915" lon="11.8577667"><ele>301.0</ele><time>2026-04-04T10:08:01.698Z</time></trkpt><trkpt lat="44.0207983" lon="11.8574817"><ele>301.0</ele><time>2026-04-04T10:08:02.698Z</time></trkpt><trkpt lat="44.0207" lon="11.8572033"><ele>301.0</ele><time>2026-04-04T10:08:03.698Z</time></trkpt><trkpt lat="44.0206417" lon="11.8569117"><ele>301.0</ele><time>2026-04-04T10:08:04.699Z</time></trkpt><trkpt lat="44.02063" lon="11.8566183"><ele>301.0</ele><time>2026-04-04T10:08:05.699Z</time></trkpt><trkpt lat="44.0206317" lon="11.856295"><ele>301.5</ele><time>2026-04-04T10:08:06.698Z</time></trkpt><trkpt lat="44.02066" lon="11.8559733"><ele>302.0</ele><time>2026-04-04T10:08:07.698Z</time></trkpt><trkpt lat="44.0206767" lon="11.8556433"><ele>303.5</ele><time>2026-04-04T10:08:08.698Z</time></trkpt><trkpt lat="44.0206733" lon="11.8553033"><ele>305.0</ele><time>2026-04-04T10:08:09.699Z</time></trkpt><trkpt lat="44.0206483" lon="11.8549683"><ele>305.0</ele><time>2026-04-04T10:08:10.698Z</time></trkpt><trkpt lat="44.0206067" lon="11.8546183"><ele>305.0</ele><time>2026-04-04T10:08:11.699Z</time></trkpt><trkpt lat="44.02055" lon="11.8542833"><ele>306.0</ele><time>2026-04-04T10:08:12.699Z</time></trkpt><trkpt lat="44.02049" lon="11.853955"><ele>307.0</ele><time>2026-04-04T10:08:13.698Z</time></trkpt><trkpt lat="44.020435" lon="11.85365"><ele>307.66666666666663</ele><time>2026-04-04T10:08:14.698Z</time></trkpt><trkpt lat="44.0203917" lon="11.8533717"><ele>308.3333333333333</ele><time>2026-04-04T10:08:15.699Z</time></trkpt><trkpt lat="44.0203917" lon="11.8531167"><ele>309.0</ele><time>2026-04-04T10:08:16.698Z</time></trkpt><trkpt lat="44.0204267" lon="11.85287"><ele>309.0</ele><time>2026-04-04T10:08:17.698Z</time></trkpt><trkpt lat="44.0205183" lon="11.8526367"><ele>309.0</ele><time>2026-04-04T10:08:18.699Z</time></trkpt><trkpt lat="44.0206433" lon="11.8524233"><ele>309.0</ele><time>2026-04-04T10:08:19.699Z</time></trkpt><trkpt lat="44.0207917" lon="11.8522133"><ele>310.0</ele><time>2026-04-04T10:08:20.698Z</time></trkpt><trkpt lat="44.020935" lon="11.85199"><ele>311.0</ele><time>2026-04-04T10:08:21.699Z</time></trkpt><trkpt lat="44.02106" lon="11.8517567"><ele>312.0</ele><time>2026-04-04T10:08:22.698Z</time></trkpt><trkpt lat="44.02115" lon="11.8514967"><ele>312.0</ele><time>2026-04-04T10:08:23.698Z</time></trkpt><trkpt lat="44.0211983" lon="11.8512167"><ele>312.0</ele><time>2026-04-04T10:08:24.698Z</time></trkpt><trkpt lat="44.0212333" lon="11.8509117"><ele>312.0</ele><time>2026-04-04T10:08:25.699Z</time></trkpt><trkpt lat="44.0212617" lon="11.8506333"><ele>312.0</ele><time>2026-04-04T10:08:26.699Z</time></trkpt><trkpt lat="44.021285" lon="11.85037"><ele>312.0</ele><time>2026-04-04T10:08:27.699Z</time></trkpt><trkpt lat="44.0212933" lon="11.8500883"><ele>312.0</ele><time>2026-04-04T10:08:28.698Z</time></trkpt><trkpt lat="44.0213" lon="11.8498217"><ele>312.0</ele><time>2026-04-04T10:08:29.698Z</time></trkpt><trkpt lat="44.0212883" lon="11.8495733"><ele>312.0</ele><time>2026-04-04T10:08:30.698Z</time></trkpt><trkpt lat="44.021265" lon="11.8493433"><ele>312.0</ele><time>2026-04-04T10:08:31.698Z</time></trkpt><trkpt lat="44.0212283" lon="11.8491417"><ele>313.0</ele><time>2026-04-04T10:08:32.699Z</time></trkpt><trkpt lat="44.021185" lon="11.8489667"><ele>314.0</ele><time>2026-04-04T10:08:33.699Z</time></trkpt><trkpt lat="44.021115" lon="11.8488183"><ele>315.0</ele><time>2026-04-04T10:08:34.699Z</time></trkpt><trkpt lat="44.0210283" lon="11.8486517"><ele>316.0</ele><time>2026-04-04T10:08:35.698Z</time></trkpt><trkpt lat="44.02092" lon="11.848465"><ele>316.0</ele><time>2026-04-04T10:08:36.698Z</time></trkpt><trkpt lat="44.0208067" lon="11.8482583"><ele>316.0</ele><time>2026-04-04T10:08:37.698Z</time></trkpt><trkpt lat="44.0206883" lon="11.848035"><ele>316.0</ele><time>2026-04-04T10:08:38.699Z</time></trkpt><trkpt lat="44.0205617" lon="11.847805"><ele>317.3333333333333</ele><time>2026-04-04T10:08:39.698Z</time></trkpt><trkpt lat="44.0204383" lon="11.8475617"><ele>318.6666666666667</ele><time>2026-04-04T10:08:40.699Z</time></trkpt><trkpt lat="44.0203117" lon="11.8473233"><ele>320.0</ele><time>2026-04-04T10:08:41.699Z</time></trkpt><trkpt lat="44.0201717" lon="11.8470733"><ele>320.0</ele><time>2026-04-04T10:08:42.698Z</time></trkpt><trkpt lat="44.02003" lon="11.84683"><ele>320.0</ele><time>2026-04-04T10:08:43.698Z</time></trkpt><trkpt lat="44.0198933" lon="11.8465867"><ele>320.0</ele><time>2026-04-04T10:08:44.698Z</time></trkpt><trkpt lat="44.0197567" lon="11.8463783"><ele>319.0</ele><time>2026-04-04T10:08:45.699Z</time></trkpt><trkpt lat="44.019605" lon="11.8462183"><ele>318.0</ele><time>2026-04-04T10:08:46.698Z</time></trkpt><trkpt lat="44.019425" lon="11.8461133"><ele>317.0</ele><time>2026-04-04T10:08:47.698Z</time></trkpt><trkpt lat="44.0192233" lon="11.846045"><ele>320.0</ele><time>2026-04-04T10:08:48.699Z</time></trkpt><trkpt lat="44.0190217" lon="11.8459833"><ele>323.0</ele><time>2026-04-04T10:08:49.699Z</time></trkpt><trkpt lat="44.0188317" lon="11.8458917"><ele>326.0</ele><time>2026-04-04T10:08:50.698Z</time></trkpt><trkpt lat="44.0186567" lon="11.8457467"><ele>326.0</ele><time>2026-04-04T10:08:51.698Z</time></trkpt><trkpt lat="44.0185117" lon="11.84557"><ele>326.0</ele><time>2026-04-04T10:08:52.698Z</time></trkpt><trkpt lat="44.0184017" lon="11.8453817"><ele>326.0</ele><time>2026-04-04T10:08:53.698Z</time></trkpt><trkpt lat="44.018325" lon="11.84514"><ele>326.6666666666667</ele><time>2026-04-04T10:08:54.698Z</time></trkpt><trkpt lat="44.0183017" lon="11.8448833"><ele>327.3333333333333</ele><time>2026-04-04T10:08:55.698Z</time></trkpt><trkpt lat="44.0183167" lon="11.844585"><ele>328.0</ele><time>2026-04-04T10:08:56.698Z</time></trkpt><trkpt lat="44.0183483" lon="11.8442833"><ele>328.0</ele><time>2026-04-04T10:08:57.699Z</time></trkpt><trkpt lat="44.0183917" lon="11.8439717"><ele>328.0</ele><time>2026-04-04T10:08:58.698Z</time></trkpt><trkpt lat="44.0184183" lon="11.8436567"><ele>328.66666666666663</ele><time>2026-04-04T10:08:59.699Z</time></trkpt><trkpt lat="44.0184383" lon="11.843365"><ele>329.3333333333333</ele><time>2026-04-04T10:09:00.699Z</time></trkpt><trkpt lat="44.0184683" lon="11.843085"><ele>330.0</ele><time>2026-04-04T10:09:01.698Z</time></trkpt><trkpt lat="44.018465" lon="11.8428183"><ele>330.0</ele><time>2026-04-04T10:09:02.698Z</time></trkpt><trkpt lat="44.018425" lon="11.8425633"><ele>330.0</ele><time>2026-04-04T10:09:03.699Z</time></trkpt><trkpt lat="44.0183467" lon="11.8423133"><ele>330.0</ele><time>2026-04-04T10:09:04.698Z</time></trkpt><trkpt lat="44.0182233" lon="11.8420833"><ele>330.3333333333333</ele><time>2026-04-04T10:09:05.699Z</time></trkpt><trkpt lat="44.0180883" lon="11.84186"><ele>330.66666666666663</ele><time>2026-04-04T10:09:06.698Z</time></trkpt><trkpt lat="44.01795" lon="11.8416267"><ele>331.0</ele><time>2026-04-04T10:09:07.699Z</time></trkpt><trkpt lat="44.0178133" lon="11.8413917"><ele>331.0</ele><time>2026-04-04T10:09:08.699Z</time></trkpt><trkpt lat="44.0176783" lon="11.8411633"><ele>331.0</ele><time>2026-04-04T10:09:09.698Z</time></trkpt><trkpt lat="44.0175367" lon="11.8409633"><ele>331.0</ele><time>2026-04-04T10:09:10.699Z</time></trkpt><trkpt lat="44.0173683" lon="11.8407833"><ele>332.0</ele><time>2026-04-04T10:09:11.699Z</time></trkpt><trkpt lat="44.01718" lon="11.8406317"><ele>333.0</ele><time>2026-04-04T10:09:12.699Z</time></trkpt><trkpt lat="44.01699" lon="11.8404717"><ele>334.0</ele><time>2026-04-04T10:09:13.698Z</time></trkpt><trkpt lat="44.0168167" lon="11.84027"><ele>335.3333333333333</ele><time>2026-04-04T10:09:14.699Z</time></trkpt><trkpt lat="44.0166817" lon="11.8400233"><ele>336.6666666666667</ele><time>2026-04-04T10:09:15.698Z</time></trkpt><trkpt lat="44.0165917" lon="11.8397433"><ele>338.0</ele><time>2026-04-04T10:09:16.699Z</time></trkpt><trkpt lat="44.0165333" lon="11.8394517"><ele>335.5</ele><time>2026-04-04T10:09:17.699Z</time></trkpt><trkpt lat="44.0165133" lon="11.8391317"><ele>333.0</ele><time>2026-04-04T10:09:18.699Z</time></trkpt><trkpt lat="44.016495" lon="11.8388"><ele>333.0</ele><time>2026-04-04T10:09:19.698Z</time></trkpt><trkpt lat="44.0164867" lon="11.8384767"><ele>333.0</ele><time>2026-04-04T10:09:20.698Z</time></trkpt><trkpt lat="44.016495" lon="11.83818"><ele>333.0</ele><time>2026-04-04T10:09:21.699Z</time></trkpt><trkpt lat="44.0165233" lon="11.837885"><ele>332.6666666666667</ele><time>2026-04-04T10:09:22.698Z</time></trkpt><trkpt lat="44.0165617" lon="11.8375783"><ele>332.33333333333337</ele><time>2026-04-04T10:09:23.698Z</time></trkpt><trkpt lat="44.016625" lon="11.8372817"><ele>332.0</ele><time>2026-04-04T10:09:24.699Z</time></trkpt><trkpt lat="44.01671" lon="11.8369917"><ele>337.0</ele><time>2026-04-04T10:09:25.698Z</time></trkpt><trkpt lat="44.0167833" lon="11.8367067"><ele>342.0</ele><time>2026-04-04T10:09:26.699Z</time></trkpt><trkpt lat="44.0168233" lon="11.8364367"><ele>347.0</ele><time>2026-04-04T10:09:27.698Z</time></trkpt><trkpt lat="44.0168233" lon="11.8361833"><ele>347.0</ele><time>2026-04-04T10:09:28.698Z</time></trkpt><trkpt lat="44.0168033" lon="11.83593"><ele>347.0</ele><time>2026-04-04T10:09:29.698Z</time></trkpt><trkpt lat="44.0167383" lon="11.8356917"><ele>347.0</ele><time>2026-04-04T10:09:30.698Z</time></trkpt><trkpt lat="44.01662" lon="11.835495"><ele>346.6666666666667</ele><time>2026-04-04T10:09:31.698Z</time></trkpt><trkpt lat="44.0164733" lon="11.83533"><ele>346.3333333333333</ele><time>2026-04-04T10:09:32.699Z</time></trkpt><trkpt lat="44.0163167" lon="11.8352083"><ele>346.0</ele><time>2026-04-04T10:09:33.698Z</time></trkpt><trkpt lat="44.016165" lon="11.8351317"><ele>346.0</ele><time>2026-04-04T10:09:34.698Z</time></trkpt><trkpt lat="44.016025" lon="11.8350583"><ele>346.0</ele><time>2026-04-04T10:09:35.698Z</time></trkpt><trkpt lat="44.0158917" lon="11.8349767"><ele>346.0</ele><time>2026-04-04T10:09:36.699Z</time></trkpt><trkpt lat="44.0157783" lon="11.8348867"><ele>346.0</ele><time>2026-04-04T10:09:37.698Z</time></trkpt><trkpt lat="44.01566" lon="11.8347783"><ele>346.3333333333333</ele><time>2026-04-04T10:09:38.698Z</time></trkpt><trkpt lat="44.0155517" lon="11.8346417"><ele>346.6666666666667</ele><time>2026-04-04T10:09:39.698Z</time></trkpt><trkpt lat="44.0154533" lon="11.8344767"><ele>347.0</ele><time>2026-04-04T10:09:40.698Z</time></trkpt><trkpt lat="44.0153533" lon="11.83427"><ele>347.0</ele><time>2026-04-04T10:09:41.698Z</time></trkpt><trkpt lat="44.0152633" lon="11.834045"><ele>347.0</ele><time>2026-04-04T10:09:42.698Z</time></trkpt><trkpt lat="44.015185" lon="11.8337933"><ele>347.0</ele><time>2026-04-04T10:09:43.698Z</time></trkpt><trkpt lat="44.0151017" lon="11.8335267"><ele>349.0</ele><time>2026-04-04T10:09:44.698Z</time></trkpt><trkpt lat="44.015045" lon="11.8332467"><ele>351.0</ele><time>2026-04-04T10:09:45.698Z</time></trkpt><trkpt lat="44.0149983" lon="11.8329667"><ele>353.0</ele><time>2026-04-04T10:09:46.698Z</time></trkpt><trkpt lat="44.0149617" lon="11.8326583"><ele>346.0</ele><time>2026-04-04T10:09:47.699Z</time></trkpt><trkpt lat="44.0149333" lon="11.8323383"><ele>339.0</ele><time>2026-04-04T10:09:48.698Z</time></trkpt><trkpt lat="44.0149117" lon="11.832005"><ele>340.5</ele><time>2026-04-04T10:09:49.698Z</time></trkpt><trkpt lat="44.0148833" lon="11.8316667"><ele>342.0</ele><time>2026-04-04T10:09:50.698Z</time></trkpt><trkpt lat="44.0148433" lon="11.8313417"><ele>342.0</ele><time>2026-04-04T10:09:51.699Z</time></trkpt><trkpt lat="44.0148" lon="11.8310317"><ele>342.0</ele><time>2026-04-04T10:09:52.699Z</time></trkpt><trkpt lat="44.0147617" lon="11.830755"><ele>342.0</ele><time>2026-04-04T10:09:53.698Z</time></trkpt><trkpt lat="44.0147117" lon="11.83051"><ele>343.0</ele><time>2026-04-04T10:09:54.698Z</time></trkpt><trkpt lat="44.0146033" lon="11.830295"><ele>344.0</ele><time>2026-04-04T10:09:55.699Z</time></trkpt><trkpt lat="44.014465" lon="11.830105"><ele>345.0</ele><time>2026-04-04T10:09:56.699Z</time></trkpt><trkpt lat="44.014305" lon="11.82994"><ele>348.0</ele><time>2026-04-04T10:09:57.698Z</time></trkpt><trkpt lat="44.014125" lon="11.8298067"><ele>351.0</ele><time>2026-04-04T10:09:58.698Z</time></trkpt><trkpt lat="44.0139" lon="11.8297117"><ele>354.0</ele><time>2026-04-04T10:09:59.698Z</time></trkpt><trkpt lat="44.0137" lon="11.8296133"><ele>354.0</ele><time>2026-04-04T10:10:00.698Z</time></trkpt><trkpt lat="44.0134633" lon="11.829555"><ele>354.0</ele><time>2026-04-04T10:10:01.698Z</time></trkpt><trkpt lat="44.0132133" lon="11.8295483"><ele>353.0</ele><time>2026-04-04T10:10:02.698Z</time></trkpt><trkpt lat="44.0129833" lon="11.82956"><ele>352.0</ele><time>2026-04-04T10:10:03.698Z</time></trkpt><trkpt lat="44.0127667" lon="11.829575"><ele>351.0</ele><time>2026-04-04T10:10:04.699Z</time></trkpt><trkpt lat="44.01258" lon="11.829555"><ele>350.6666666666667</ele><time>2026-04-04T10:10:05.698Z</time></trkpt><trkpt lat="44.0124267" lon="11.8295217"><ele>350.33333333333337</ele><time>2026-04-04T10:10:06.699Z</time></trkpt><trkpt lat="44.01228" lon="11.8294333"><ele>350.0</ele><time>2026-04-04T10:10:07.699Z</time></trkpt><trkpt lat="44.012155" lon="11.8292867"><ele>350.0</ele><time>2026-04-04T10:10:08.698Z</time></trkpt><trkpt lat="44.012055" lon="11.8290867"><ele>350.0</ele><time>2026-04-04T10:10:09.698Z</time></trkpt><trkpt lat="44.0119733" lon="11.828855"><ele>350.0</ele><time>2026-04-04T10:10:10.698Z</time></trkpt><trkpt lat="44.01189" lon="11.8285917"><ele>349.0</ele><time>2026-04-04T10:10:11.698Z</time></trkpt><trkpt lat="44.0118033" lon="11.828325"><ele>348.0</ele><time>2026-04-04T10:10:12.699Z</time></trkpt><trkpt lat="44.01172" lon="11.8280383"><ele>347.0</ele><time>2026-04-04T10:10:13.698Z</time></trkpt><trkpt lat="44.0116283" lon="11.82774"><ele>349.5</ele><time>2026-04-04T10:10:14.699Z</time></trkpt><trkpt lat="44.011525" lon="11.8274417"><ele>352.0</ele><time>2026-04-04T10:10:15.698Z</time></trkpt><trkpt lat="44.0114217" lon="11.8271317"><ele>352.0</ele><time>2026-04-04T10:10:16.698Z</time></trkpt><trkpt lat="44.0113217" lon="11.826825"><ele>352.0</ele><time>2026-04-04T10:10:17.698Z</time></trkpt><trkpt lat="44.011195" lon="11.8265067"><ele>356.5</ele><time>2026-04-04T10:10:18.699Z</time></trkpt><trkpt lat="44.0110633" lon="11.8262017"><ele>361.0</ele><time>2026-04-04T10:10:19.699Z</time></trkpt><trkpt lat="44.0109083" lon="11.8259017"><ele>359.5</ele><time>2026-04-04T10:10:20.699Z</time></trkpt><trkpt lat="44.0107367" lon="11.825615"><ele>358.0</ele><time>2026-04-04T10:10:21.698Z</time></trkpt><trkpt lat="44.0105767" lon="11.8253217"><ele>363.5</ele><time>2026-04-04T10:10:22.699Z</time></trkpt><trkpt lat="44.0104067" lon="11.8250317"><ele>369.0</ele><time>2026-04-04T10:10:23.698Z</time></trkpt><trkpt lat="44.0102217" lon="11.824755"><ele>369.0</ele><time>2026-04-04T10:10:24.699Z</time></trkpt><trkpt lat="44.010015" lon="11.824505"><ele>369.0</ele><time>2026-04-04T10:10:25.699Z</time></trkpt><trkpt lat="44.009825" lon="11.8242667"><ele>368.0</ele><time>2026-04-04T10:10:26.699Z</time></trkpt><trkpt lat="44.009625" lon="11.8240367"><ele>367.0</ele><time>2026-04-04T10:10:27.699Z</time></trkpt><trkpt lat="44.0094317" lon="11.823845"><ele>367.0</ele><time>2026-04-04T10:10:28.698Z</time></trkpt><trkpt lat="44.0092383" lon="11.8236833"><ele>367.0</ele><time>2026-04-04T10:10:29.698Z</time></trkpt><trkpt lat="44.0090617" lon="11.8235517"><ele>367.0</ele><time>2026-04-04T10:10:30.698Z</time></trkpt><trkpt lat="44.0088933" lon="11.8234167"><ele>367.0</ele><time>2026-04-04T10:10:31.699Z</time></trkpt><trkpt lat="44.0087267" lon="11.823255"><ele>367.0</ele><time>2026-04-04T10:10:32.699Z</time></trkpt><trkpt lat="44.0085833" lon="11.8230367"><ele>367.0</ele><time>2026-04-04T10:10:33.698Z</time></trkpt><trkpt lat="44.008425" lon="11.8228167"><ele>367.5</ele><time>2026-04-04T10:10:34.699Z</time></trkpt><trkpt lat="44.008235" lon="11.8226367"><ele>368.0</ele><time>2026-04-04T10:10:35.699Z</time></trkpt><trkpt lat="44.0080283" lon="11.8225167"><ele>368.0</ele><time>2026-04-04T10:10:36.699Z</time></trkpt><trkpt lat="44.0077967" lon="11.8224567"><ele>368.0</ele><time>2026-04-04T10:10:37.699Z</time></trkpt><trkpt lat="44.0076217" lon="11.8223367"><ele>368.0</ele><time>2026-04-04T10:10:38.699Z</time></trkpt><trkpt lat="44.0074983" lon="11.822175"><ele>367.6666666666667</ele><time>2026-04-04T10:10:39.698Z</time></trkpt><trkpt lat="44.0074167" lon="11.8219717"><ele>367.3333333333333</ele><time>2026-04-04T10:10:40.699Z</time></trkpt><trkpt lat="44.00738" lon="11.8217333"><ele>367.0</ele><time>2026-04-04T10:10:41.699Z</time></trkpt><trkpt lat="44.007325" lon="11.8215367"><ele>367.0</ele><time>2026-04-04T10:10:42.698Z</time></trkpt><trkpt lat="44.0072067" lon="11.82139"><ele>367.0</ele><time>2026-04-04T10:10:43.698Z</time></trkpt><trkpt lat="44.0070483" lon="11.821275"><ele>367.0</ele><time>2026-04-04T10:10:44.699Z</time></trkpt><trkpt lat="44.00687" lon="11.8211517"><ele>367.0</ele><time>2026-04-04T10:10:45.698Z</time></trkpt><trkpt lat="44.006685" lon="11.8210067"><ele>367.0</ele><time>2026-04-04T10:10:46.698Z</time></trkpt><trkpt lat="44.006495" lon="11.820865"><ele>367.0</ele><time>2026-04-04T10:10:47.698Z</time></trkpt><trkpt lat="44.006295" lon="11.82073"><ele>367.0</ele><time>2026-04-04T10:10:48.699Z</time></trkpt><trkpt lat="44.0061017" lon="11.8205933"><ele>367.0</ele><time>2026-04-04T10:10:49.698Z</time></trkpt><trkpt lat="44.0059233" lon="11.8204683"><ele>367.0</ele><time>2026-04-04T10:10:50.698Z</time></trkpt><trkpt lat="44.0057567" lon="11.8203583"><ele>367.0</ele><time>2026-04-04T10:10:51.699Z</time></trkpt><trkpt lat="44.00562" lon="11.8202283"><ele>367.0</ele><time>2026-04-04T10:10:52.698Z</time></trkpt><trkpt lat="44.005515" lon="11.820005"><ele>367.0</ele><time>2026-04-04T10:10:53.699Z</time></trkpt><trkpt lat="44.0054117" lon="11.81981"><ele>367.0</ele><time>2026-04-04T10:10:54.699Z</time></trkpt><trkpt lat="44.005335" lon="11.8195517"><ele>367.0</ele><time>2026-04-04T10:10:55.698Z</time></trkpt><trkpt lat="44.005265" lon="11.8192667"><ele>367.0</ele><time>2026-04-04T10:10:56.699Z</time></trkpt><trkpt lat="44.0051733" lon="11.818995"><ele>367.0</ele><time>2026-04-04T10:10:57.699Z</time></trkpt><trkpt lat="44.0050533" lon="11.8187533"><ele>367.0</ele><time>2026-04-04T10:10:58.699Z</time></trkpt><trkpt lat="44.0048983" lon="11.818515"><ele>367.0</ele><time>2026-04-04T10:10:59.698Z</time></trkpt><trkpt lat="44.0047417" lon="11.81831"><ele>369.66666666666663</ele><time>2026-04-04T10:11:00.698Z</time></trkpt><trkpt lat="44.00458" lon="11.8181617"><ele>372.3333333333333</ele><time>2026-04-04T10:11:01.699Z</time></trkpt><trkpt lat="44.0044167" lon="11.81805"><ele>375.0</ele><time>2026-04-04T10:11:02.699Z</time></trkpt><trkpt lat="44.0042367" lon="11.8179633"><ele>376.0</ele><time>2026-04-04T10:11:03.698Z</time></trkpt><trkpt lat="44.00404" lon="11.81791"><ele>377.0</ele><time>2026-04-04T10:11:04.698Z</time></trkpt><trkpt lat="44.003865" lon="11.8178583"><ele>378.0</ele><time>2026-04-04T10:11:05.698Z</time></trkpt><trkpt lat="44.003705" lon="11.8177917"><ele>378.0</ele><time>2026-04-04T10:11:06.699Z</time></trkpt><trkpt lat="44.0035567" lon="11.8176783"><ele>378.0</ele><time>2026-04-04T10:11:07.698Z</time></trkpt><trkpt lat="44.0034917" lon="11.8175117"><ele>378.0</ele><time>2026-04-04T10:11:08.698Z</time></trkpt><trkpt lat="44.0034533" lon="11.8173167"><ele>378.6666666666667</ele><time>2026-04-04T10:11:09.698Z</time></trkpt><trkpt lat="44.0034417" lon="11.817115"><ele>379.33333333333337</ele><time>2026-04-04T10:11:10.698Z</time></trkpt><trkpt lat="44.0034233" lon="11.8168967"><ele>380.0</ele><time>2026-04-04T10:11:11.698Z</time></trkpt><trkpt lat="44.0034217" lon="11.8166667"><ele>377.6666666666667</ele><time>2026-04-04T10:11:12.698Z</time></trkpt><trkpt lat="44.00338" lon="11.81646"><ele>375.3333333333333</ele><time>2026-04-04T10:11:13.698Z</time></trkpt><trkpt lat="44.0033" lon="11.8162633"><ele>373.0</ele><time>2026-04-04T10:11:14.699Z</time></trkpt><trkpt lat="44.0031433" lon="11.8160933"><ele>380.0</ele><time>2026-04-04T10:11:15.699Z</time></trkpt><trkpt lat="44.002975" lon="11.8159433"><ele>387.0</ele><time>2026-04-04T10:11:16.699Z</time></trkpt><trkpt lat="44.00281" lon="11.8158267"><ele>394.0</ele><time>2026-04-04T10:11:17.698Z</time></trkpt><trkpt lat="44.00264" lon="11.8157283"><ele>388.33333333333337</ele><time>2026-04-04T10:11:18.699Z</time></trkpt><trkpt lat="44.0024783" lon="11.8156333"><ele>382.6666666666667</ele><time>2026-04-04T10:11:19.698Z</time></trkpt><trkpt lat="44.0023567" lon="11.8154967"><ele>377.0</ele><time>2026-04-04T10:11:20.698Z</time></trkpt><trkpt lat="44.002285" lon="11.81534"><ele>377.0</ele><time>2026-04-04T10:11:21.699Z</time></trkpt><trkpt lat="44.0022367" lon="11.815155"><ele>377.0</ele><time>2026-04-04T10:11:22.699Z</time></trkpt><trkpt lat="44.0022167" lon="11.814935"><ele>377.0</ele><time>2026-04-04T10:11:23.699Z</time></trkpt><trkpt lat="44.0022" lon="11.8146983"><ele>379.0</ele><time>2026-04-04T10:11:24.698Z</time></trkpt><trkpt lat="44.0021617" lon="11.8144433"><ele>381.0</ele><time>2026-04-04T10:11:25.698Z</time></trkpt><trkpt lat="44.0021167" lon="11.8141767"><ele>383.0</ele><time>2026-04-04T10:11:26.698Z</time></trkpt><trkpt lat="44.0020667" lon="11.813885"><ele>386.0</ele><time>2026-04-04T10:11:27.699Z</time></trkpt><trkpt lat="44.00201" lon="11.8135983"><ele>389.0</ele><time>2026-04-04T10:11:28.698Z</time></trkpt><trkpt lat="44.0019517" lon="11.81331"><ele>392.0</ele><time>2026-04-04T10:11:29.698Z</time></trkpt><trkpt lat="44.0018933" lon="11.8130433"><ele>392.3333333333333</ele><time>2026-04-04T10:11:30.698Z</time></trkpt><trkpt lat="44.0018383" lon="11.8128217"><ele>392.66666666666663</ele><time>2026-04-04T10:11:31.699Z</time></trkpt><trkpt lat="44.0017267" lon="11.8126583"><ele>393.0</ele><time>2026-04-04T10:11:32.699Z</time></trkpt><trkpt lat="44.0016017" lon="11.812535"><ele>393.0</ele><time>2026-04-04T10:11:33.699Z</time></trkpt><trkpt lat="44.0014467" lon="11.8124667"><ele>393.0</ele><time>2026-04-04T10:11:34.699Z</time></trkpt><trkpt lat="44.0013067" lon="11.8123817"><ele>393.0</ele><time>2026-04-04T10:11:35.699Z</time></trkpt><trkpt lat="44.00119" lon="11.8122633"><ele>393.0</ele><time>2026-04-04T10:11:36.699Z</time></trkpt><trkpt lat="44.0010933" lon="11.8121283"><ele>393.0</ele><time>2026-04-04T10:11:37.698Z</time></trkpt><trkpt lat="44.0010283" lon="11.81195"><ele>393.0</ele><time>2026-04-04T10:11:38.699Z</time></trkpt><trkpt lat="44.0009867" lon="11.8117217"><ele>391.66666666666663</ele><time>2026-04-04T10:11:39.698Z</time></trkpt><trkpt lat="44.00094" lon="11.8114833"><ele>390.3333333333333</ele><time>2026-04-04T10:11:40.698Z</time></trkpt><trkpt lat="44.00089" lon="11.8112233"><ele>389.0</ele><time>2026-04-04T10:11:41.699Z</time></trkpt><trkpt lat="44.0008233" lon="11.8109783"><ele>389.0</ele><time>2026-04-04T10:11:42.698Z</time></trkpt><trkpt lat="44.0007317" lon="11.81078"><ele>389.0</ele><time>2026-04-04T10:11:43.699Z</time></trkpt><trkpt lat="44.0006117" lon="11.8106317"><ele>389.0</ele><time>2026-04-04T10:11:44.698Z</time></trkpt><trkpt lat="44.0004167" lon="11.8105517"><ele>389.0</ele><time>2026-04-04T10:11:45.699Z</time></trkpt><trkpt lat="44.0002283" lon="11.8104833"><ele>389.0</ele><time>2026-04-04T10:11:46.698Z</time></trkpt><trkpt lat="44.0000367" lon="11.81041"><ele>389.0</ele><time>2026-04-04T10:11:47.698Z</time></trkpt><trkpt lat="43.999865" lon="11.8103067"><ele>389.0</ele><time>2026-04-04T10:11:48.698Z</time></trkpt><trkpt lat="43.9996817" lon="11.8101733"><ele>389.0</ele><time>2026-04-04T10:11:49.698Z</time></trkpt><trkpt lat="43.999525" lon="11.8100067"><ele>389.0</ele><time>2026-04-04T10:11:50.698Z</time></trkpt><trkpt lat="43.9993983" lon="11.8097867"><ele>397.0</ele><time>2026-04-04T10:11:51.698Z</time></trkpt><trkpt lat="43.9992817" lon="11.80952"><ele>405.0</ele><time>2026-04-04T10:11:52.699Z</time></trkpt><trkpt lat="43.9991683" lon="11.809235"><ele>401.5</ele><time>2026-04-04T10:11:53.698Z</time></trkpt><trkpt lat="43.9990683" lon="11.8089483"><ele>398.0</ele><time>2026-04-04T10:11:54.699Z</time></trkpt><trkpt lat="43.9989633" lon="11.8086667"><ele>401.66666666666663</ele><time>2026-04-04T10:11:55.698Z</time></trkpt><trkpt lat="43.998835" lon="11.8084267"><ele>405.33333333333337</ele><time>2026-04-04T10:11:56.698Z</time></trkpt><trkpt lat="43.9987083" lon="11.8082033"><ele>409.0</ele><time>2026-04-04T10:11:57.698Z</time></trkpt><trkpt lat="43.998595" lon="11.8079817"><ele>409.0</ele><time>2026-04-04T10:11:58.698Z</time></trkpt><trkpt lat="43.9985" lon="11.8077517"><ele>409.0</ele><time>2026-04-04T10:11:59.698Z</time></trkpt><trkpt lat="43.99845" lon="11.8075117"><ele>409.0</ele><time>2026-04-04T10:12:00.698Z</time></trkpt><trkpt lat="43.9984133" lon="11.807255"><ele>407.6666666666667</ele><time>2026-04-04T10:12:01.698Z</time></trkpt><trkpt lat="43.9983833" lon="11.8070167"><ele>406.33333333333337</ele><time>2026-04-04T10:12:02.698Z</time></trkpt><trkpt lat="43.9983117" lon="11.8068133"><ele>405.0</ele><time>2026-04-04T10:12:03.698Z</time></trkpt><trkpt lat="43.9981767" lon="11.8066533"><ele>405.0</ele><time>2026-04-04T10:12:04.698Z</time></trkpt><trkpt lat="43.998005" lon="11.8065067"><ele>405.0</ele><time>2026-04-04T10:12:05.699Z</time></trkpt><trkpt lat="43.9978267" lon="11.8063667"><ele>405.0</ele><time>2026-04-04T10:12:06.699Z</time></trkpt><trkpt lat="43.9976917" lon="11.8061833"><ele>403.33333333333337</ele><time>2026-04-04T10:12:07.698Z</time></trkpt><trkpt lat="43.997555" lon="11.80599"><ele>401.6666666666667</ele><time>2026-04-04T10:12:08.698Z</time></trkpt><trkpt lat="43.9974467" lon="11.8057383"><ele>400.0</ele><time>2026-04-04T10:12:09.699Z</time></trkpt><trkpt lat="43.99735" lon="11.805455"><ele>400.0</ele><time>2026-04-04T10:12:10.699Z</time></trkpt><trkpt lat="43.9972517" lon="11.8051717"><ele>400.0</ele><time>2026-04-04T10:12:11.698Z</time></trkpt><trkpt lat="43.99714" lon="11.8048767"><ele>404.0</ele><time>2026-04-04T10:12:12.698Z</time></trkpt><trkpt lat="43.9970183" lon="11.80457"><ele>408.0</ele><time>2026-04-04T10:12:13.699Z</time></trkpt><trkpt lat="43.9968883" lon="11.8042833"><ele>411.0</ele><time>2026-04-04T10:12:14.698Z</time></trkpt><trkpt lat="43.9967383" lon="11.8040083"><ele>414.0</ele><time>2026-04-04T10:12:15.699Z</time></trkpt><trkpt lat="43.9965833" lon="11.803735"><ele>413.0</ele><time>2026-04-04T10:12:16.699Z</time></trkpt><trkpt lat="43.9964333" lon="11.80348"><ele>412.0</ele><time>2026-04-04T10:12:17.699Z</time></trkpt><trkpt lat="43.9962917" lon="11.803235"><ele>412.0</ele><time>2026-04-04T10:12:18.698Z</time></trkpt><trkpt lat="43.9961767" lon="11.8030133"><ele>412.0</ele><time>2026-04-04T10:12:19.699Z</time></trkpt><trkpt lat="43.9960783" lon="11.80277"><ele>412.0</ele><time>2026-04-04T10:12:20.698Z</time></trkpt><trkpt lat="43.9959767" lon="11.802525"><ele>410.0</ele><time>2026-04-04T10:12:21.699Z</time></trkpt><trkpt lat="43.9958733" lon="11.8022717"><ele>408.0</ele><time>2026-04-04T10:12:22.699Z</time></trkpt><trkpt lat="43.99575" lon="11.8020333"><ele>406.0</ele><time>2026-04-04T10:12:23.699Z</time></trkpt><trkpt lat="43.995615" lon="11.8017983"><ele>411.0</ele><time>2026-04-04T10:12:24.699Z</time></trkpt><trkpt lat="43.9954817" lon="11.8015567"><ele>416.0</ele><time>2026-04-04T10:12:25.698Z</time></trkpt><trkpt lat="43.9953467" lon="11.80133"><ele>421.0</ele><time>2026-04-04T10:12:26.699Z</time></trkpt><trkpt lat="43.9952283" lon="11.8011267"><ele>421.0</ele><time>2026-04-04T10:12:27.698Z</time></trkpt><trkpt lat="43.99508" lon="11.8009517"><ele>421.0</ele><time>2026-04-04T10:12:28.698Z</time></trkpt><trkpt lat="43.9948933" lon="11.8008183"><ele>421.0</ele><time>2026-04-04T10:12:29.698Z</time></trkpt><trkpt lat="43.9947" lon="11.8007117"><ele>421.0</ele><time>2026-04-04T10:12:30.698Z</time></trkpt><trkpt lat="43.99454" lon="11.8005817"><ele>421.0</ele><time>2026-04-04T10:12:31.698Z</time></trkpt><trkpt lat="43.9944233" lon="11.8003883"><ele>421.0</ele><time>2026-04-04T10:12:32.698Z</time></trkpt><trkpt lat="43.9943133" lon="11.8001617"><ele>422.33333333333337</ele><time>2026-04-04T10:12:33.698Z</time></trkpt><trkpt lat="43.9942083" lon="11.7999217"><ele>423.66666666666663</ele><time>2026-04-04T10:12:34.699Z</time></trkpt><trkpt lat="43.9941217" lon="11.7996883"><ele>425.0</ele><time>2026-04-04T10:12:35.699Z</time></trkpt><trkpt lat="43.994055" lon="11.7994617"><ele>428.66666666666663</ele><time>2026-04-04T10:12:36.699Z</time></trkpt><trkpt lat="43.994005" lon="11.7992183"><ele>432.33333333333337</ele><time>2026-04-04T10:12:37.698Z</time></trkpt><trkpt lat="43.9939667" lon="11.7989483"><ele>436.0</ele><time>2026-04-04T10:12:38.698Z</time></trkpt><trkpt lat="43.9939317" lon="11.7986683"><ele>437.6666666666667</ele><time>2026-04-04T10:12:39.698Z</time></trkpt><trkpt lat="43.9939017" lon="11.7984017"><ele>439.33333333333337</ele><time>2026-04-04T10:12:40.698Z</time></trkpt><trkpt lat="43.9938767" lon="11.7981367"><ele>441.0</ele><time>2026-04-04T10:12:41.699Z</time></trkpt><trkpt lat="43.9938167" lon="11.7979"><ele>441.0</ele><time>2026-04-04T10:12:42.698Z</time></trkpt><trkpt lat="43.99371" lon="11.79771"><ele>441.0</ele><time>2026-04-04T10:12:43.698Z</time></trkpt><trkpt lat="43.9935417" lon="11.7975783"><ele>441.0</ele><time>2026-04-04T10:12:44.698Z</time></trkpt><trkpt lat="43.9933667" lon="11.7974883"><ele>437.33333333333337</ele><time>2026-04-04T10:12:45.699Z</time></trkpt><trkpt lat="43.9932117" lon="11.7973617"><ele>433.6666666666667</ele><time>2026-04-04T10:12:46.699Z</time></trkpt><trkpt lat="43.993075" lon="11.7971833"><ele>430.0</ele><time>2026-04-04T10:12:47.699Z</time></trkpt><trkpt lat="43.992965" lon="11.7969783"><ele>434.33333333333337</ele><time>2026-04-04T10:12:48.699Z</time></trkpt><trkpt lat="43.9928633" lon="11.796745"><ele>438.66666666666663</ele><time>2026-04-04T10:12:49.699Z</time></trkpt><trkpt lat="43.9927917" lon="11.7964817"><ele>443.0</ele><time>2026-04-04T10:12:50.698Z</time></trkpt><trkpt lat="43.9927283" lon="11.7962067"><ele>447.0</ele><time>2026-04-04T10:12:51.698Z</time></trkpt><trkpt lat="43.9926967" lon="11.795965"><ele>451.0</ele><time>2026-04-04T10:12:52.698Z</time></trkpt><trkpt lat="43.99267" lon="11.7957283"><ele>455.0</ele><time>2026-04-04T10:12:53.698Z</time></trkpt><trkpt lat="43.9926233" lon="11.7955233"><ele>455.0</ele><time>2026-04-04T10:12:54.699Z</time></trkpt><trkpt lat="43.9925483" lon="11.7953483"><ele>455.0</ele><time>2026-04-04T10:12:55.698Z</time></trkpt><trkpt lat="43.9924133" lon="11.795215"><ele>455.0</ele><time>2026-04-04T10:12:56.699Z</time></trkpt><trkpt lat="43.99226" lon="11.7951017"><ele>451.66666666666663</ele><time>2026-04-04T10:12:57.698Z</time></trkpt><trkpt lat="43.992095" lon="11.7949817"><ele>448.33333333333337</ele><time>2026-04-04T10:12:58.699Z</time></trkpt><trkpt lat="43.9919133" lon="11.794855"><ele>445.0</ele><time>2026-04-04T10:12:59.699Z</time></trkpt><trkpt lat="43.9917367" lon="11.7947167"><ele>446.0</ele><time>2026-04-04T10:13:00.698Z</time></trkpt><trkpt lat="43.9915533" lon="11.7945783"><ele>447.0</ele><time>2026-04-04T10:13:01.699Z</time></trkpt><trkpt lat="43.9913933" lon="11.79442"><ele>448.0</ele><time>2026-04-04T10:13:02.698Z</time></trkpt><trkpt lat="43.9912483" lon="11.794245"><ele>448.0</ele><time>2026-04-04T10:13:03.699Z</time></trkpt><trkpt lat="43.9911317" lon="11.7940483"><ele>448.0</ele><time>2026-04-04T10:13:04.699Z</time></trkpt><trkpt lat="43.9910583" lon="11.7938483"><ele>448.0</ele><time>2026-04-04T10:13:05.699Z</time></trkpt><trkpt lat="43.9909717" lon="11.79369"><ele>448.0</ele><time>2026-04-04T10:13:06.699Z</time></trkpt><trkpt lat="43.9908533" lon="11.7935917"><ele>448.0</ele><time>2026-04-04T10:13:07.698Z</time></trkpt><trkpt lat="43.990705" lon="11.79359"><ele>448.0</ele><time>2026-04-04T10:13:08.698Z</time></trkpt><trkpt lat="43.9905467" lon="11.7936433"><ele>448.0</ele><time>2026-04-04T10:13:09.698Z</time></trkpt><trkpt lat="43.9904117" lon="11.7936917"><ele>439.0</ele><time>2026-04-04T10:13:10.699Z</time></trkpt><trkpt lat="43.99027" lon="11.7937"><ele>430.0</ele><time>2026-04-04T10:13:11.699Z</time></trkpt><trkpt lat="43.990125" lon="11.7936367"><ele>421.0</ele><time>2026-04-04T10:13:12.698Z</time></trkpt><trkpt lat="43.9899933" lon="11.7935133"><ele>425.33333333333337</ele><time>2026-04-04T10:13:13.698Z</time></trkpt><trkpt lat="43.989875" lon="11.7933633"><ele>429.66666666666663</ele><time>2026-04-04T10:13:14.698Z</time></trkpt><trkpt lat="43.9897383" lon="11.7932233"><ele>434.0</ele><time>2026-04-04T10:13:15.698Z</time></trkpt><trkpt lat="43.9895783" lon="11.7931417"><ele>434.0</ele><time>2026-04-04T10:13:16.699Z</time></trkpt><trkpt lat="43.9893983" lon="11.7931117"><ele>434.0</ele><time>2026-04-04T10:13:17.699Z</time></trkpt><trkpt lat="43.9892317" lon="11.7930633"><ele>434.0</ele><time>2026-04-04T10:13:18.698Z</time></trkpt><trkpt lat="43.98907" lon="11.7929583"><ele>434.3333333333333</ele><time>2026-04-04T10:13:19.698Z</time></trkpt><trkpt lat="43.9889283" lon="11.7928083"><ele>434.66666666666663</ele><time>2026-04-04T10:13:20.698Z</time></trkpt><trkpt lat="43.988805" lon="11.7926"><ele>435.0</ele><time>2026-04-04T10:13:21.698Z</time></trkpt><trkpt lat="43.988675" lon="11.792395"><ele>435.0</ele><time>2026-04-04T10:13:22.698Z</time></trkpt><trkpt lat="43.9885367" lon="11.7921733"><ele>435.0</ele><time>2026-04-04T10:13:23.699Z</time></trkpt><trkpt lat="43.9884067" lon="11.7919417"><ele>435.0</ele><time>2026-04-04T10:13:24.699Z</time></trkpt><trkpt lat="43.9882567" lon="11.7917333"><ele>434.5</ele><time>2026-04-04T10:13:25.698Z</time></trkpt><trkpt lat="43.9880783" lon="11.79152"><ele>434.0</ele><time>2026-04-04T10:13:26.698Z</time></trkpt><trkpt lat="43.9878783" lon="11.791345"><ele>434.0</ele><time>2026-04-04T10:13:27.698Z</time></trkpt><trkpt lat="43.9876883" lon="11.7912033"><ele>434.0</ele><time>2026-04-04T10:13:28.698Z</time></trkpt><trkpt lat="43.9875183" lon="11.7910517"><ele>434.0</ele><time>2026-04-04T10:13:29.699Z</time></trkpt><trkpt lat="43.9873783" lon="11.7909"><ele>433.75</ele><time>2026-04-04T10:13:30.699Z</time></trkpt><trkpt lat="43.9872717" lon="11.7907417"><ele>433.5</ele><time>2026-04-04T10:13:31.699Z</time></trkpt><trkpt lat="43.9872067" lon="11.79056"><ele>433.25</ele><time>2026-04-04T10:13:32.698Z</time></trkpt><trkpt lat="43.98717" lon="11.790375"><ele>433.0</ele><time>2026-04-04T10:13:33.699Z</time></trkpt><trkpt lat="43.9871333" lon="11.79016"><ele>433.0</ele><time>2026-04-04T10:13:34.698Z</time></trkpt><trkpt lat="43.9871167" lon="11.789905"><ele>433.0</ele><time>2026-04-04T10:13:35.698Z</time></trkpt><trkpt lat="43.9870883" lon="11.789655"><ele>433.0</ele><time>2026-04-04T10:13:36.699Z</time></trkpt><trkpt lat="43.98707" lon="11.7893867"><ele>434.6666666666667</ele><time>2026-04-04T10:13:37.698Z</time></trkpt><trkpt lat="43.9870417" lon="11.7891217"><ele>436.33333333333337</ele><time>2026-04-04T10:13:38.699Z</time></trkpt><trkpt lat="43.9870217" lon="11.7888633"><ele>438.0</ele><time>2026-04-04T10:13:39.699Z</time></trkpt><trkpt lat="43.9869917" lon="11.7886017"><ele>441.33333333333337</ele><time>2026-04-04T10:13:40.698Z</time></trkpt><trkpt lat="43.9869517" lon="11.7883317"><ele>444.6666666666667</ele><time>2026-04-04T10:13:41.698Z</time></trkpt><trkpt lat="43.9869167" lon="11.78807"><ele>448.0</ele><time>2026-04-04T10:13:42.699Z</time></trkpt><trkpt lat="43.9868767" lon="11.7878267"><ele>456.33333333333337</ele><time>2026-04-04T10:13:43.699Z</time></trkpt><trkpt lat="43.98683" lon="11.7876"><ele>464.66666666666663</ele><time>2026-04-04T10:13:44.698Z</time></trkpt><trkpt lat="43.986765" lon="11.787375"><ele>473.0</ele><time>2026-04-04T10:13:45.699Z</time></trkpt><trkpt lat="43.9866817" lon="11.7871517"><ele>463.66666666666663</ele><time>2026-04-04T10:13:46.699Z</time></trkpt><trkpt lat="43.9865733" lon="11.7869267"><ele>454.33333333333337</ele><time>2026-04-04T10:13:47.698Z</time></trkpt><trkpt lat="43.9864483" lon="11.7867"><ele>445.0</ele><time>2026-04-04T10:13:48.698Z</time></trkpt><trkpt lat="43.986315" lon="11.7864717"><ele>445.0</ele><time>2026-04-04T10:13:49.698Z</time></trkpt><trkpt lat="43.9861683" lon="11.7862617"><ele>445.0</ele><time>2026-04-04T10:13:50.698Z</time></trkpt><trkpt lat="43.986" lon="11.7860867"><ele>445.0</ele><time>2026-04-04T10:13:51.699Z</time></trkpt><trkpt lat="43.98582" lon="11.7859383"><ele>442.0</ele><time>2026-04-04T10:13:52.699Z</time></trkpt><trkpt lat="43.9856417" lon="11.7857567"><ele>439.0</ele><time>2026-04-04T10:13:53.698Z</time></trkpt><trkpt lat="43.9854483" lon="11.785615"><ele>436.0</ele><time>2026-04-04T10:13:54.698Z</time></trkpt><trkpt lat="43.9852583" lon="11.7854967"><ele>436.0</ele><time>2026-04-04T10:13:55.698Z</time></trkpt><trkpt lat="43.9850667" lon="11.7854217"><ele>436.0</ele><time>2026-04-04T10:13:56.698Z</time></trkpt><trkpt lat="43.984855" lon="11.785385"><ele>436.0</ele><time>2026-04-04T10:13:57.699Z</time></trkpt><trkpt lat="43.98464" lon="11.7854"><ele>432.33333333333337</ele><time>2026-04-04T10:13:58.699Z</time></trkpt><trkpt lat="43.9844383" lon="11.7853983"><ele>428.66666666666663</ele><time>2026-04-04T10:13:59.698Z</time></trkpt><trkpt lat="43.9842467" lon="11.7854033"><ele>425.0</ele><time>2026-04-04T10:14:00.698Z</time></trkpt><trkpt lat="43.984075" lon="11.7854117"><ele>424.66666666666663</ele><time>2026-04-04T10:14:01.698Z</time></trkpt><trkpt lat="43.9838917" lon="11.7854083"><ele>424.33333333333337</ele><time>2026-04-04T10:14:02.699Z</time></trkpt><trkpt lat="43.983705" lon="11.785395"><ele>424.0</ele><time>2026-04-04T10:14:03.698Z</time></trkpt><trkpt lat="43.9835167" lon="11.78536"><ele>424.33333333333337</ele><time>2026-04-04T10:14:04.698Z</time></trkpt><trkpt lat="43.9833267" lon="11.7852917"><ele>424.66666666666663</ele><time>2026-04-04T10:14:05.699Z</time></trkpt><trkpt lat="43.9831267" lon="11.7851933"><ele>425.0</ele><time>2026-04-04T10:14:06.699Z</time></trkpt><trkpt lat="43.9829467" lon="11.78507"><ele>429.3333333333333</ele><time>2026-04-04T10:14:07.698Z</time></trkpt><trkpt lat="43.9827567" lon="11.7849467"><ele>433.66666666666663</ele><time>2026-04-04T10:14:08.698Z</time></trkpt><trkpt lat="43.9825633" lon="11.7848117"><ele>438.0</ele><time>2026-04-04T10:14:09.699Z</time></trkpt><trkpt lat="43.982365" lon="11.7846833"><ele>438.0</ele><time>2026-04-04T10:14:10.698Z</time></trkpt><trkpt lat="43.982175" lon="11.784555"><ele>438.0</ele><time>2026-04-04T10:14:11.699Z</time></trkpt><trkpt lat="43.9819867" lon="11.7844183"><ele>438.0</ele><time>2026-04-04T10:14:12.698Z</time></trkpt><trkpt lat="43.9817967" lon="11.784275"><ele>439.66666666666663</ele><time>2026-04-04T10:14:13.698Z</time></trkpt><trkpt lat="43.98161" lon="11.7841367"><ele>441.3333333333333</ele><time>2026-04-04T10:14:14.698Z</time></trkpt><trkpt lat="43.9814183" lon="11.784005"><ele>443.0</ele><time>2026-04-04T10:14:15.699Z</time></trkpt><trkpt lat="43.9812417" lon="11.7838617"><ele>443.0</ele><time>2026-04-04T10:14:16.698Z</time></trkpt><trkpt lat="43.9810617" lon="11.7837467"><ele>443.0</ele><time>2026-04-04T10:14:17.699Z</time></trkpt><trkpt lat="43.98089" lon="11.7836183"><ele>443.0</ele><time>2026-04-04T10:14:18.698Z</time></trkpt><trkpt lat="43.980715" lon="11.7834917"><ele>448.3333333333333</ele><time>2026-04-04T10:14:19.698Z</time></trkpt><trkpt lat="43.980545" lon="11.7833833"><ele>453.66666666666663</ele><time>2026-04-04T10:14:20.699Z</time></trkpt><trkpt lat="43.9803767" lon="11.7832683"><ele>459.0</ele><time>2026-04-04T10:14:21.698Z</time></trkpt><trkpt lat="43.980225" lon="11.7831267"><ele>459.0</ele><time>2026-04-04T10:14:22.699Z</time></trkpt><trkpt lat="43.980095" lon="11.7829617"><ele>459.0</ele><time>2026-04-04T10:14:23.699Z</time></trkpt><trkpt lat="43.9799917" lon="11.7827583"><ele>459.0</ele><time>2026-04-04T10:14:24.698Z</time></trkpt><trkpt lat="43.9799083" lon="11.78255"><ele>455.33333333333337</ele><time>2026-04-04T10:14:25.699Z</time></trkpt><trkpt lat="43.979865" lon="11.782335"><ele>451.6666666666667</ele><time>2026-04-04T10:14:26.699Z</time></trkpt><trkpt lat="43.979855" lon="11.78211"><ele>448.0</ele><time>2026-04-04T10:14:27.698Z</time></trkpt><trkpt lat="43.979875" lon="11.78189"><ele>448.0</ele><time>2026-04-04T10:14:28.699Z</time></trkpt><trkpt lat="43.9799367" lon="11.7816917"><ele>448.0</ele><time>2026-04-04T10:14:29.698Z</time></trkpt><trkpt lat="43.9800167" lon="11.7815017"><ele>448.0</ele><time>2026-04-04T10:14:30.698Z</time></trkpt><trkpt lat="43.9801017" lon="11.781295"><ele>457.33333333333337</ele><time>2026-04-04T10:14:31.698Z</time></trkpt><trkpt lat="43.9801617" lon="11.78109"><ele>466.66666666666663</ele><time>2026-04-04T10:14:32.698Z</time></trkpt><trkpt lat="43.9801733" lon="11.78089"><ele>476.0</ele><time>2026-04-04T10:14:33.699Z</time></trkpt><trkpt lat="43.9801467" lon="11.78068"><ele>479.3333333333333</ele><time>2026-04-04T10:14:34.698Z</time></trkpt><trkpt lat="43.980095" lon="11.780455"><ele>482.66666666666663</ele><time>2026-04-04T10:14:35.699Z</time></trkpt><trkpt lat="43.9800183" lon="11.78022"><ele>486.0</ele><time>2026-04-04T10:14:36.699Z</time></trkpt><trkpt lat="43.9799317" lon="11.77998"><ele>474.66666666666663</ele><time>2026-04-04T10:14:37.699Z</time></trkpt><trkpt lat="43.9798233" lon="11.7797617"><ele>463.3333333333333</ele><time>2026-04-04T10:14:38.698Z</time></trkpt><trkpt lat="43.9797067" lon="11.779565"><ele>452.0</ele><time>2026-04-04T10:14:39.699Z</time></trkpt><trkpt lat="43.9795817" lon="11.7793933"><ele>451.66666666666663</ele><time>2026-04-04T10:14:40.699Z</time></trkpt><trkpt lat="43.9793783" lon="11.7792833"><ele>451.33333333333337</ele><time>2026-04-04T10:14:41.699Z</time></trkpt><trkpt lat="43.9792033" lon="11.7791583"><ele>451.0</ele><time>2026-04-04T10:14:42.698Z</time></trkpt><trkpt lat="43.9790417" lon="11.779035"><ele>451.0</ele><time>2026-04-04T10:14:43.699Z</time></trkpt><trkpt lat="43.9788967" lon="11.7789317"><ele>451.0</ele><time>2026-04-04T10:14:44.698Z</time></trkpt><trkpt lat="43.9787633" lon="11.77884"><ele>451.0</ele><time>2026-04-04T10:14:45.699Z</time></trkpt><trkpt lat="43.9786517" lon="11.7787483"><ele>451.0</ele><time>2026-04-04T10:14:46.699Z</time></trkpt><trkpt lat="43.9785733" lon="11.778625"><ele>454.5</ele><time>2026-04-04T10:14:47.698Z</time></trkpt><trkpt lat="43.97852" lon="11.778475"><ele>458.0</ele><time>2026-04-04T10:14:48.698Z</time></trkpt><trkpt lat="43.9784817" lon="11.7783083"><ele>461.5</ele><time>2026-04-04T10:14:49.699Z</time></trkpt><trkpt lat="43.9784567" lon="11.7781083"><ele>465.0</ele><time>2026-04-04T10:14:50.698Z</time></trkpt><trkpt lat="43.9784367" lon="11.7778833"><ele>469.0</ele><time>2026-04-04T10:14:51.698Z</time></trkpt><trkpt lat="43.978415" lon="11.7776483"><ele>473.0</ele><time>2026-04-04T10:14:52.699Z</time></trkpt><trkpt lat="43.9783933" lon="11.777425"><ele>477.0</ele><time>2026-04-04T10:14:53.698Z</time></trkpt><trkpt lat="43.978365" lon="11.7771817"><ele>472.0</ele><time>2026-04-04T10:14:54.699Z</time></trkpt><trkpt lat="43.9783467" lon="11.7769233"><ele>467.0</ele><time>2026-04-04T10:14:55.698Z</time></trkpt><trkpt lat="43.9783233" lon="11.7766483"><ele>462.0</ele><time>2026-04-04T10:14:56.698Z</time></trkpt><trkpt lat="43.97829" lon="11.7763817"><ele>462.0</ele><time>2026-04-04T10:14:57.698Z</time></trkpt><trkpt lat="43.9782567" lon="11.7761133"><ele>462.0</ele><time>2026-04-04T10:14:58.698Z</time></trkpt><trkpt lat="43.978165" lon="11.7758817"><ele>462.0</ele><time>2026-04-04T10:14:59.699Z</time></trkpt><trkpt lat="43.9780367" lon="11.77567"><ele>470.33333333333337</ele><time>2026-04-04T10:15:00.699Z</time></trkpt><trkpt lat="43.9778867" lon="11.7754883"><ele>478.6666666666667</ele><time>2026-04-04T10:15:01.698Z</time></trkpt><trkpt lat="43.9777283" lon="11.7753217"><ele>487.0</ele><time>2026-04-04T10:15:02.698Z</time></trkpt><trkpt lat="43.9775767" lon="11.7751917"><ele>491.0</ele><time>2026-04-04T10:15:03.698Z</time></trkpt><trkpt lat="43.9774233" lon="11.7751017"><ele>495.0</ele><time>2026-04-04T10:15:04.699Z</time></trkpt><trkpt lat="43.977265" lon="11.77503"><ele>499.0</ele><time>2026-04-04T10:15:05.699Z</time></trkpt><trkpt lat="43.9770967" lon="11.7749883"><ele>499.0</ele><time>2026-04-04T10:15:06.699Z</time></trkpt><trkpt lat="43.9769133" lon="11.77496"><ele>499.0</ele><time>2026-04-04T10:15:07.698Z</time></trkpt><trkpt lat="43.97672" lon="11.774935"><ele>499.0</ele><time>2026-04-04T10:15:08.698Z</time></trkpt><trkpt lat="43.9765183" lon="11.77494"><ele>493.33333333333337</ele><time>2026-04-04T10:15:09.699Z</time></trkpt><trkpt lat="43.97632" lon="11.7749733"><ele>487.66666666666663</ele><time>2026-04-04T10:15:10.698Z</time></trkpt><trkpt lat="43.976135" lon="11.7750417"><ele>482.0</ele><time>2026-04-04T10:15:11.699Z</time></trkpt><trkpt lat="43.9759867" lon="11.7751583"><ele>481.5</ele><time>2026-04-04T10:15:12.698Z</time></trkpt><trkpt lat="43.9758633" lon="11.7752117"><ele>481.0</ele><time>2026-04-04T10:15:13.698Z</time></trkpt><trkpt lat="43.9757433" lon="11.7752117"><ele>480.5</ele><time>2026-04-04T10:15:14.698Z</time></trkpt><trkpt lat="43.9756233" lon="11.775135"><ele>480.0</ele><time>2026-04-04T10:15:15.698Z</time></trkpt><trkpt lat="43.97551" lon="11.775015"><ele>480.0</ele><time>2026-04-04T10:15:16.699Z</time></trkpt><trkpt lat="43.9753967" lon="11.7749017"><ele>480.0</ele><time>2026-04-04T10:15:17.698Z</time></trkpt><trkpt lat="43.9753167" lon="11.774705"><ele>480.0</ele><time>2026-04-04T10:15:18.699Z</time></trkpt><trkpt lat="43.97526" lon="11.7745217"><ele>480.0</ele><time>2026-04-04T10:15:19.698Z</time></trkpt><trkpt lat="43.9752367" lon="11.7743433"><ele>485.66666666666663</ele><time>2026-04-04T10:15:20.699Z</time></trkpt><trkpt lat="43.9752717" lon="11.7741217"><ele>491.3333333333333</ele><time>2026-04-04T10:15:21.698Z</time></trkpt><trkpt lat="43.9752983" lon="11.7738983"><ele>497.0</ele><time>2026-04-04T10:15:22.699Z</time></trkpt><trkpt lat="43.9752667" lon="11.7736717"><ele>498.66666666666663</ele><time>2026-04-04T10:15:23.698Z</time></trkpt><trkpt lat="43.9752183" lon="11.7734517"><ele>500.33333333333337</ele><time>2026-04-04T10:15:24.698Z</time></trkpt><trkpt lat="43.975185" lon="11.7732517"><ele>502.0</ele><time>2026-04-04T10:15:25.698Z</time></trkpt><trkpt lat="43.9751633" lon="11.7730267"><ele>502.0</ele><time>2026-04-04T10:15:26.698Z</time></trkpt><trkpt lat="43.9751783" lon="11.7728233"><ele>502.0</ele><time>2026-04-04T10:15:27.699Z</time></trkpt><trkpt lat="43.975225" lon="11.77258"><ele>502.0</ele><time>2026-04-04T10:15:28.698Z</time></trkpt><trkpt lat="43.9753167" lon="11.772335"><ele>501.0</ele><time>2026-04-04T10:15:29.699Z</time></trkpt><trkpt lat="43.97542" lon="11.7721033"><ele>500.0</ele><time>2026-04-04T10:15:30.698Z</time></trkpt><trkpt lat="43.9755283" lon="11.7718717"><ele>499.0</ele><time>2026-04-04T10:15:31.698Z</time></trkpt><trkpt lat="43.9756217" lon="11.77167"><ele>499.75</ele><time>2026-04-04T10:15:32.698Z</time></trkpt><trkpt lat="43.9757167" lon="11.77151"><ele>500.5</ele><time>2026-04-04T10:15:33.699Z</time></trkpt><trkpt lat="43.97578" lon="11.771345"><ele>501.25</ele><time>2026-04-04T10:15:34.698Z</time></trkpt><trkpt lat="43.9758083" lon="11.771155"><ele>502.0</ele><time>2026-04-04T10:15:35.699Z</time></trkpt><trkpt lat="43.97578" lon="11.770955"><ele>502.0</ele><time>2026-04-04T10:15:36.699Z</time></trkpt><trkpt lat="43.9757217" lon="11.7707417"><ele>502.0</ele><time>2026-04-04T10:15:37.698Z</time></trkpt><trkpt lat="43.97566" lon="11.770515"><ele>502.0</ele><time>2026-04-04T10:15:38.699Z</time></trkpt><trkpt lat="43.9756133" lon="11.7702733"><ele>508.33333333333337</ele><time>2026-04-04T10:15:39.699Z</time></trkpt><trkpt lat="43.9755783" lon="11.7700183"><ele>514.6666666666666</ele><time>2026-04-04T10:15:40.698Z</time></trkpt><trkpt lat="43.9754883" lon="11.7697717"><ele>521.0</ele><time>2026-04-04T10:15:41.698Z</time></trkpt><trkpt lat="43.975395" lon="11.7695117"><ele>515.6666666666666</ele><time>2026-04-04T10:15:42.699Z</time></trkpt><trkpt lat="43.9752767" lon="11.7692733"><ele>510.33333333333337</ele><time>2026-04-04T10:15:43.699Z</time></trkpt><trkpt lat="43.9751583" lon="11.769035"><ele>505.0</ele><time>2026-04-04T10:15:44.699Z</time></trkpt><trkpt lat="43.9749817" lon="11.76881"><ele>505.0</ele><time>2026-04-04T10:15:45.698Z</time></trkpt><trkpt lat="43.97479" lon="11.7685833"><ele>505.0</ele><time>2026-04-04T10:15:46.699Z</time></trkpt><trkpt lat="43.9746167" lon="11.7683867"><ele>515.0</ele><time>2026-04-04T10:15:47.699Z</time></trkpt><trkpt lat="43.974415" lon="11.7682317"><ele>525.0</ele><time>2026-04-04T10:15:48.698Z</time></trkpt><trkpt lat="43.9742867" lon="11.7680667"><ele>535.0</ele><time>2026-04-04T10:15:49.698Z</time></trkpt><trkpt lat="43.97422" lon="11.767895"><ele>528.75</ele><time>2026-04-04T10:15:50.699Z</time></trkpt><trkpt lat="43.9741817" lon="11.7677017"><ele>522.5</ele><time>2026-04-04T10:15:51.699Z</time></trkpt><trkpt lat="43.97417" lon="11.7675017"><ele>516.25</ele><time>2026-04-04T10:15:52.699Z</time></trkpt><trkpt lat="43.9741667" lon="11.7673233"><ele>510.0</ele><time>2026-04-04T10:15:53.699Z</time></trkpt><trkpt lat="43.97415" lon="11.7671817"><ele>510.0</ele><time>2026-04-04T10:15:54.698Z</time></trkpt><trkpt lat="43.9741167" lon="11.7670783"><ele>510.0</ele><time>2026-04-04T10:15:55.698Z</time></trkpt><trkpt lat="43.9740433" lon="11.767025"><ele>510.0</ele><time>2026-04-04T10:15:56.698Z</time></trkpt><trkpt lat="43.9739317" lon="11.76704"><ele>510.0</ele><time>2026-04-04T10:15:57.698Z</time></trkpt><trkpt lat="43.9738333" lon="11.7670717"><ele>510.0</ele><time>2026-04-04T10:15:58.699Z</time></trkpt><trkpt lat="43.9737333" lon="11.7671217"><ele>510.0</ele><time>2026-04-04T10:15:59.699Z</time></trkpt><trkpt lat="43.97362" lon="11.7671"><ele>510.0</ele><time>2026-04-04T10:16:00.699Z</time></trkpt><trkpt lat="43.9735017" lon="11.7670517"><ele>510.0</ele><time>2026-04-04T10:16:01.698Z</time></trkpt><trkpt lat="43.9733667" lon="11.7669783"><ele>510.0</ele><time>2026-04-04T10:16:02.699Z</time></trkpt><trkpt lat="43.9732083" lon="11.7668867"><ele>513.6666666666666</ele><time>2026-04-04T10:16:03.698Z</time></trkpt><trkpt lat="43.9730283" lon="11.766795"><ele>517.3333333333333</ele><time>2026-04-04T10:16:04.699Z</time></trkpt><trkpt lat="43.9728467" lon="11.7667067"><ele>521.0</ele><time>2026-04-04T10:16:05.699Z</time></trkpt><trkpt lat="43.97268" lon="11.7666217"><ele>521.0</ele><time>2026-04-04T10:16:06.698Z</time></trkpt><trkpt lat="43.972545" lon="11.7665283"><ele>521.0</ele><time>2026-04-04T10:16:07.698Z</time></trkpt><trkpt lat="43.9724417" lon="11.7664167"><ele>521.0</ele><time>2026-04-04T10:16:08.698Z</time></trkpt><trkpt lat="43.9723817" lon="11.7662583"><ele>521.0</ele><time>2026-04-04T10:16:09.698Z</time></trkpt><trkpt lat="43.9723583" lon="11.7660417"><ele>521.0</ele><time>2026-04-04T10:16:10.698Z</time></trkpt><trkpt lat="43.9723383" lon="11.76583"><ele>521.0</ele><time>2026-04-04T10:16:11.698Z</time></trkpt><trkpt lat="43.9723183" lon="11.7656167"><ele>521.0</ele><time>2026-04-04T10:16:12.699Z</time></trkpt><trkpt lat="43.9722733" lon="11.7654683"><ele>521.0</ele><time>2026-04-04T10:16:13.698Z</time></trkpt><trkpt lat="43.972195" lon="11.76539"><ele>521.0</ele><time>2026-04-04T10:16:14.698Z</time></trkpt><trkpt lat="43.9720933" lon="11.7653833"><ele>521.0</ele><time>2026-04-04T10:16:15.699Z</time></trkpt><trkpt lat="43.972" lon="11.7654283"><ele>521.0</ele><time>2026-04-04T10:16:16.698Z</time></trkpt><trkpt lat="43.97191" lon="11.76552"><ele>521.0</ele><time>2026-04-04T10:16:17.699Z</time></trkpt><trkpt lat="43.9718483" lon="11.7656633"><ele>521.0</ele><time>2026-04-04T10:16:18.699Z</time></trkpt><trkpt lat="43.97181" lon="11.7658933"><ele>518.4</ele><time>2026-04-04T10:16:19.698Z</time></trkpt><trkpt lat="43.9717733" lon="11.7660733"><ele>515.8</ele><time>2026-04-04T10:16:20.699Z</time></trkpt><trkpt lat="43.971725" lon="11.766175"><ele>513.1999999999999</ele><time>2026-04-04T10:16:21.698Z</time></trkpt><trkpt lat="43.9716583" lon="11.7662083"><ele>510.59999999999997</ele><time>2026-04-04T10:16:22.698Z</time></trkpt><trkpt lat="43.97157" lon="11.7661233"><ele>508.0</ele><time>2026-04-04T10:16:23.699Z</time></trkpt><trkpt lat="43.9714683" lon="11.7659967"><ele>508.0</ele><time>2026-04-04T10:16:24.699Z</time></trkpt><trkpt lat="43.97136" lon="11.7658517"><ele>508.0</ele><time>2026-04-04T10:16:25.698Z</time></trkpt><trkpt lat="43.9712317" lon="11.7656917"><ele>508.0</ele><time>2026-04-04T10:16:26.699Z</time></trkpt><trkpt lat="43.9710833" lon="11.7655633"><ele>508.0</ele><time>2026-04-04T10:16:27.698Z</time></trkpt><trkpt lat="43.9709117" lon="11.7654483"><ele>508.0</ele><time>2026-04-04T10:16:28.698Z</time></trkpt><trkpt lat="43.9707267" lon="11.76534"><ele>508.0</ele><time>2026-04-04T10:16:29.699Z</time></trkpt><trkpt lat="43.970545" lon="11.7652433"><ele>515.25</ele><time>2026-04-04T10:16:30.698Z</time></trkpt><trkpt lat="43.9703867" lon="11.7651533"><ele>522.5</ele><time>2026-04-04T10:16:31.698Z</time></trkpt><trkpt lat="43.9702383" lon="11.7650867"><ele>529.75</ele><time>2026-04-04T10:16:32.698Z</time></trkpt><trkpt lat="43.9701667" lon="11.765005"><ele>537.0</ele><time>2026-04-04T10:16:33.698Z</time></trkpt><trkpt lat="43.9701517" lon="11.76488"><ele>537.0</ele><time>2026-04-04T10:16:34.698Z</time></trkpt><trkpt lat="43.9701683" lon="11.7646983"><ele>537.0</ele><time>2026-04-04T10:16:35.699Z</time></trkpt><trkpt lat="43.9702017" lon="11.7644817"><ele>537.0</ele><time>2026-04-04T10:16:36.698Z</time></trkpt><trkpt lat="43.9702417" lon="11.76425"><ele>543.0</ele><time>2026-04-04T10:16:37.698Z</time></trkpt><trkpt lat="43.9702617" lon="11.7639917"><ele>549.0</ele><time>2026-04-04T10:16:38.698Z</time></trkpt><trkpt lat="43.9702583" lon="11.7637333"><ele>555.0</ele><time>2026-04-04T10:16:39.698Z</time></trkpt><trkpt lat="43.9702283" lon="11.7634717"><ele>558.3333333333334</ele><time>2026-04-04T10:16:40.698Z</time></trkpt><trkpt lat="43.9701533" lon="11.763235"><ele>561.6666666666667</ele><time>2026-04-04T10:16:41.699Z</time></trkpt><trkpt lat="43.970055" lon="11.7630083"><ele>565.0</ele><time>2026-04-04T10:16:42.699Z</time></trkpt><trkpt lat="43.9698983" lon="11.762795"><ele>552.6666666666667</ele><time>2026-04-04T10:16:43.698Z</time></trkpt><trkpt lat="43.9697517" lon="11.762575"><ele>540.3333333333334</ele><time>2026-04-04T10:16:44.699Z</time></trkpt><trkpt lat="43.9696283" lon="11.7623567"><ele>528.0</ele><time>2026-04-04T10:16:45.698Z</time></trkpt><trkpt lat="43.9695317" lon="11.7621783"><ele>528.0</ele><time>2026-04-04T10:16:46.699Z</time></trkpt><trkpt lat="43.9694133" lon="11.7620533"><ele>528.0</ele><time>2026-04-04T10:16:47.699Z</time></trkpt><trkpt lat="43.9692733" lon="11.7619833"><ele>528.0</ele><time>2026-04-04T10:16:48.699Z</time></trkpt><trkpt lat="43.96913" lon="11.76195"><ele>528.0</ele><time>2026-04-04T10:16:49.698Z</time></trkpt><trkpt lat="43.969" lon="11.7618833"><ele>527.3333333333334</ele><time>2026-04-04T10:16:50.699Z</time></trkpt><trkpt lat="43.9688633" lon="11.7617667"><ele>526.6666666666667</ele><time>2026-04-04T10:16:51.699Z</time></trkpt><trkpt lat="43.9687233" lon="11.7616117"><ele>526.0</ele><time>2026-04-04T10:16:52.698Z</time></trkpt><trkpt lat="43.968595" lon="11.761415"><ele>526.0</ele><time>2026-04-04T10:16:53.699Z</time></trkpt><trkpt lat="43.9684733" lon="11.761215"><ele>526.0</ele><time>2026-04-04T10:16:54.699Z</time></trkpt><trkpt lat="43.968315" lon="11.761035"><ele>526.0</ele><time>2026-04-04T10:16:55.698Z</time></trkpt><trkpt lat="43.9681383" lon="11.760865"><ele>522.3333333333334</ele><time>2026-04-04T10:16:56.698Z</time></trkpt><trkpt lat="43.9679517" lon="11.7607067"><ele>518.6666666666666</ele><time>2026-04-04T10:16:57.699Z</time></trkpt><trkpt lat="43.96778" lon="11.7605533"><ele>515.0</ele><time>2026-04-04T10:16:58.698Z</time></trkpt><trkpt lat="43.9676083" lon="11.7604017"><ele>511.66666666666663</ele><time>2026-04-04T10:16:59.698Z</time></trkpt><trkpt lat="43.9674517" lon="11.7602483"><ele>508.33333333333337</ele><time>2026-04-04T10:17:00.698Z</time></trkpt><trkpt lat="43.9673067" lon="11.76012"><ele>505.0</ele><time>2026-04-04T10:17:01.698Z</time></trkpt><trkpt lat="43.9671767" lon="11.7600183"><ele>510.5</ele><time>2026-04-04T10:17:02.698Z</time></trkpt><trkpt lat="43.9670333" lon="11.7599883"><ele>516.0</ele><time>2026-04-04T10:17:03.698Z</time></trkpt><trkpt lat="43.9669033" lon="11.76001"><ele>521.5</ele><time>2026-04-04T10:17:04.699Z</time></trkpt><trkpt lat="43.9667867" lon="11.7599933"><ele>527.0</ele><time>2026-04-04T10:17:05.698Z</time></trkpt><trkpt lat="43.9667083" lon="11.7598867"><ele>528.75</ele><time>2026-04-04T10:17:06.699Z</time></trkpt><trkpt lat="43.9666233" lon="11.7597433"><ele>530.5</ele><time>2026-04-04T10:17:07.698Z</time></trkpt><trkpt lat="43.966535" lon="11.7595783"><ele>532.25</ele><time>2026-04-04T10:17:08.698Z</time></trkpt><trkpt lat="43.9664533" lon="11.7594067"><ele>534.0</ele><time>2026-04-04T10:17:09.699Z</time></trkpt><trkpt lat="43.966325" lon="11.75932"><ele>534.0</ele><time>2026-04-04T10:17:10.699Z</time></trkpt><trkpt lat="43.96618" lon="11.7593033"><ele>534.0</ele><time>2026-04-04T10:17:11.698Z</time></trkpt><trkpt lat="43.966025" lon="11.7593233"><ele>534.0</ele><time>2026-04-04T10:17:12.698Z</time></trkpt><trkpt lat="43.96588" lon="11.7593633"><ele>534.0</ele><time>2026-04-04T10:17:13.699Z</time></trkpt><trkpt lat="43.9657233" lon="11.7593517"><ele>532.25</ele><time>2026-04-04T10:17:14.699Z</time></trkpt><trkpt lat="43.9655817" lon="11.7593"><ele>530.5</ele><time>2026-04-04T10:17:15.698Z</time></trkpt><trkpt lat="43.965445" lon="11.759245"><ele>528.75</ele><time>2026-04-04T10:17:16.698Z</time></trkpt><trkpt lat="43.965305" lon="11.7592233"><ele>527.0</ele><time>2026-04-04T10:17:17.699Z</time></trkpt><trkpt lat="43.9651433" lon="11.7592117"><ele>525.3333333333333</ele><time>2026-04-04T10:17:18.698Z</time></trkpt><trkpt lat="43.9649783" lon="11.7591583"><ele>523.6666666666666</ele><time>2026-04-04T10:17:19.699Z</time></trkpt><trkpt lat="43.9648017" lon="11.7590983"><ele>522.0</ele><time>2026-04-04T10:17:20.698Z</time></trkpt><trkpt lat="43.9646167" lon="11.7590667"><ele>522.0</ele><time>2026-04-04T10:17:21.698Z</time></trkpt><trkpt lat="43.9644333" lon="11.7590733"><ele>522.0</ele><time>2026-04-04T10:17:22.699Z</time></trkpt><trkpt lat="43.9642567" lon="11.7590833"><ele>522.0</ele><time>2026-04-04T10:17:23.699Z</time></trkpt><trkpt lat="43.9640917" lon="11.7591383"><ele>522.5</ele><time>2026-04-04T10:17:24.698Z</time></trkpt><trkpt lat="43.9639467" lon="11.7591233"><ele>523.0</ele><time>2026-04-04T10:17:25.698Z</time></trkpt><trkpt lat="43.9638317" lon="11.7590683"><ele>523.5</ele><time>2026-04-04T10:17:26.699Z</time></trkpt><trkpt lat="43.9637533" lon="11.758935"><ele>524.0</ele><time>2026-04-04T10:17:27.698Z</time></trkpt><trkpt lat="43.9637067" lon="11.7587483"><ele>532.0</ele><time>2026-04-04T10:17:28.699Z</time></trkpt><trkpt lat="43.963675" lon="11.7585033"><ele>540.0</ele><time>2026-04-04T10:17:29.698Z</time></trkpt><trkpt lat="43.9636417" lon="11.7582633"><ele>548.0</ele><time>2026-04-04T10:17:30.699Z</time></trkpt><trkpt lat="43.9636067" lon="11.7580283"><ele>548.0</ele><time>2026-04-04T10:17:31.698Z</time></trkpt><trkpt lat="43.9635833" lon="11.7578183"><ele>548.0</ele><time>2026-04-04T10:17:32.698Z</time></trkpt><trkpt lat="43.9635267" lon="11.7576283"><ele>548.0</ele><time>2026-04-04T10:17:33.699Z</time></trkpt><trkpt lat="43.9634383" lon="11.757445"><ele>547.3333333333333</ele><time>2026-04-04T10:17:34.698Z</time></trkpt><trkpt lat="43.963335" lon="11.7572367"><ele>546.6666666666666</ele><time>2026-04-04T10:17:35.699Z</time></trkpt><trkpt lat="43.9632183" lon="11.757015"><ele>546.0</ele><time>2026-04-04T10:17:36.698Z</time></trkpt><trkpt lat="43.9630983" lon="11.7567883"><ele>546.0</ele><time>2026-04-04T10:17:37.699Z</time></trkpt><trkpt lat="43.96298" lon="11.75656"><ele>546.0</ele><time>2026-04-04T10:17:38.699Z</time></trkpt><trkpt lat="43.9628583" lon="11.7563533"><ele>546.0</ele><time>2026-04-04T10:17:39.698Z</time></trkpt><trkpt lat="43.96274" lon="11.756175"><ele>545.6666666666666</ele><time>2026-04-04T10:17:40.699Z</time></trkpt><trkpt lat="43.9626167" lon="11.7560333"><ele>545.3333333333333</ele><time>2026-04-04T10:17:41.699Z</time></trkpt><trkpt lat="43.9624783" lon="11.7559383"><ele>545.0</ele><time>2026-04-04T10:17:42.699Z</time></trkpt><trkpt lat="43.962325" lon="11.7558667"><ele>545.0</ele><time>2026-04-04T10:17:43.699Z</time></trkpt><trkpt lat="43.96217" lon="11.755785"><ele>545.0</ele><time>2026-04-04T10:17:44.698Z</time></trkpt><trkpt lat="43.962025" lon="11.75569"><ele>545.0</ele><time>2026-04-04T10:17:45.699Z</time></trkpt><trkpt lat="43.9618817" lon="11.7555633"><ele>545.0</ele><time>2026-04-04T10:17:46.698Z</time></trkpt><trkpt lat="43.96176" lon="11.7553817"><ele>545.0</ele><time>2026-04-04T10:17:47.698Z</time></trkpt><trkpt lat="43.9616267" lon="11.755195"><ele>545.0</ele><time>2026-04-04T10:17:48.698Z</time></trkpt><trkpt lat="43.9614867" lon="11.7549933"><ele>542.0</ele><time>2026-04-04T10:17:49.699Z</time></trkpt><trkpt lat="43.961355" lon="11.7547767"><ele>539.0</ele><time>2026-04-04T10:17:50.698Z</time></trkpt><trkpt lat="43.9612417" lon="11.75454"><ele>536.0</ele><time>2026-04-04T10:17:51.698Z</time></trkpt><trkpt lat="43.9611267" lon="11.754295"><ele>537.0</ele><time>2026-04-04T10:17:52.699Z</time></trkpt><trkpt lat="43.9610267" lon="11.754055"><ele>538.0</ele><time>2026-04-04T10:17:53.699Z</time></trkpt><trkpt lat="43.9609183" lon="11.753845"><ele>539.0</ele><time>2026-04-04T10:17:54.698Z</time></trkpt><trkpt lat="43.96079" lon="11.7536567"><ele>549.0</ele><time>2026-04-04T10:17:55.698Z</time></trkpt><trkpt lat="43.9606333" lon="11.7534917"><ele>559.0</ele><time>2026-04-04T10:17:56.698Z</time></trkpt><trkpt lat="43.9604683" lon="11.7533617"><ele>569.0</ele><time>2026-04-04T10:17:57.698Z</time></trkpt><trkpt lat="43.9602783" lon="11.7532733"><ele>569.0</ele><time>2026-04-04T10:17:58.698Z</time></trkpt><trkpt lat="43.960135" lon="11.7531683"><ele>569.0</ele><time>2026-04-04T10:17:59.698Z</time></trkpt><trkpt lat="43.960015" lon="11.75304"><ele>569.0</ele><time>2026-04-04T10:18:00.699Z</time></trkpt><trkpt lat="43.9599183" lon="11.7528883"><ele>567.0</ele><time>2026-04-04T10:18:01.698Z</time></trkpt><trkpt lat="43.9598617" lon="11.75271"><ele>565.0</ele><time>2026-04-04T10:18:02.699Z</time></trkpt><trkpt lat="43.9598167" lon="11.7525817"><ele>563.0</ele><time>2026-04-04T10:18:03.698Z</time></trkpt><trkpt lat="43.959745" lon="11.7525017"><ele>561.0</ele><time>2026-04-04T10:18:04.698Z</time></trkpt><trkpt lat="43.9596767" lon="11.7524583"><ele>559.0</ele><time>2026-04-04T10:18:05.698Z</time></trkpt><trkpt lat="43.9595583" lon="11.752475"><ele>559.0</ele><time>2026-04-04T10:18:06.698Z</time></trkpt><trkpt lat="43.9594133" lon="11.7524983"><ele>559.0</ele><time>2026-04-04T10:18:07.698Z</time></trkpt><trkpt lat="43.9592733" lon="11.7525"><ele>559.0</ele><time>2026-04-04T10:18:08.698Z</time></trkpt><trkpt lat="43.9591267" lon="11.75247"><ele>559.0</ele><time>2026-04-04T10:18:09.699Z</time></trkpt><trkpt lat="43.9589767" lon="11.752375"><ele>556.0</ele><time>2026-04-04T10:18:10.698Z</time></trkpt><trkpt lat="43.9588717" lon="11.7522233"><ele>553.0</ele><time>2026-04-04T10:18:11.698Z</time></trkpt><trkpt lat="43.9588033" lon="11.7520417"><ele>550.0</ele><time>2026-04-04T10:18:12.699Z</time></trkpt><trkpt lat="43.9587583" lon="11.7518217"><ele>560.6666666666667</ele><time>2026-04-04T10:18:13.698Z</time></trkpt><trkpt lat="43.9587183" lon="11.7515883"><ele>571.3333333333334</ele><time>2026-04-04T10:18:14.698Z</time></trkpt><trkpt lat="43.9586583" lon="11.7513567"><ele>582.0</ele><time>2026-04-04T10:18:15.699Z</time></trkpt><trkpt lat="43.958585" lon="11.7511333"><ele>587.75</ele><time>2026-04-04T10:18:16.699Z</time></trkpt><trkpt lat="43.9585183" lon="11.7509333"><ele>593.5</ele><time>2026-04-04T10:18:17.698Z</time></trkpt><trkpt lat="43.9584767" lon="11.7507633"><ele>599.25</ele><time>2026-04-04T10:18:18.699Z</time></trkpt><trkpt lat="43.9584767" lon="11.7506033"><ele>605.0</ele><time>2026-04-04T10:18:19.698Z</time></trkpt><trkpt lat="43.9585217" lon="11.750445"><ele>605.0</ele><time>2026-04-04T10:18:20.699Z</time></trkpt><trkpt lat="43.9585517" lon="11.750295"><ele>605.0</ele><time>2026-04-04T10:18:21.698Z</time></trkpt><trkpt lat="43.9585183" lon="11.750155"><ele>605.0</ele><time>2026-04-04T10:18:22.698Z</time></trkpt><trkpt lat="43.9584217" lon="11.7500683"><ele>605.0</ele><time>2026-04-04T10:18:23.699Z</time></trkpt><trkpt lat="43.9583117" lon="11.7500033"><ele>598.6666666666666</ele><time>2026-04-04T10:18:24.698Z</time></trkpt><trkpt lat="43.9581683" lon="11.7499483"><ele>592.3333333333334</ele><time>2026-04-04T10:18:25.698Z</time></trkpt><trkpt lat="43.9579983" lon="11.74988"><ele>586.0</ele><time>2026-04-04T10:18:26.698Z</time></trkpt><trkpt lat="43.9578167" lon="11.7498"><ele>586.0</ele><time>2026-04-04T10:18:27.698Z</time></trkpt><trkpt lat="43.95762" lon="11.74975"><ele>586.0</ele><time>2026-04-04T10:18:28.698Z</time></trkpt><trkpt lat="43.95747" lon="11.7497367"><ele>586.0</ele><time>2026-04-04T10:18:29.698Z</time></trkpt><trkpt lat="43.9573333" lon="11.7497683"><ele>577.75</ele><time>2026-04-04T10:18:30.699Z</time></trkpt><trkpt lat="43.9571917" lon="11.749775"><ele>569.5</ele><time>2026-04-04T10:18:31.698Z</time></trkpt><trkpt lat="43.9570533" lon="11.7497083"><ele>561.25</ele><time>2026-04-04T10:18:32.699Z</time></trkpt><trkpt lat="43.9569167" lon="11.74959"><ele>553.0</ele><time>2026-04-04T10:18:33.698Z</time></trkpt><trkpt lat="43.956795" lon="11.7494517"><ele>553.0</ele><time>2026-04-04T10:18:34.698Z</time></trkpt><trkpt lat="43.9567083" lon="11.7493"><ele>553.0</ele><time>2026-04-04T10:18:35.698Z</time></trkpt><trkpt lat="43.9566483" lon="11.7491267"><ele>553.0</ele><time>2026-04-04T10:18:36.698Z</time></trkpt><trkpt lat="43.95661" lon="11.7489083"><ele>553.0</ele><time>2026-04-04T10:18:37.699Z</time></trkpt><trkpt lat="43.9565917" lon="11.7486667"><ele>559.6666666666667</ele><time>2026-04-04T10:18:38.699Z</time></trkpt><trkpt lat="43.9565417" lon="11.74846"><ele>566.3333333333334</ele><time>2026-04-04T10:18:39.698Z</time></trkpt><trkpt lat="43.9564383" lon="11.7482783"><ele>573.0</ele><time>2026-04-04T10:18:40.698Z</time></trkpt><trkpt lat="43.9562883" lon="11.74815"><ele>573.0</ele><time>2026-04-04T10:18:41.698Z</time></trkpt><trkpt lat="43.9561183" lon="11.7480483"><ele>573.0</ele><time>2026-04-04T10:18:42.699Z</time></trkpt><trkpt lat="43.9559483" lon="11.74794"><ele>573.0</ele><time>2026-04-04T10:18:43.699Z</time></trkpt><trkpt lat="43.9557583" lon="11.747865"><ele>565.0</ele><time>2026-04-04T10:18:44.699Z</time></trkpt><trkpt lat="43.95555" lon="11.7478383"><ele>557.0</ele><time>2026-04-04T10:18:45.699Z</time></trkpt><trkpt lat="43.9553433" lon="11.7478383"><ele>549.0</ele><time>2026-04-04T10:18:46.699Z</time></trkpt><trkpt lat="43.9551283" lon="11.7478633"><ele>549.0</ele><time>2026-04-04T10:18:47.699Z</time></trkpt><trkpt lat="43.95492" lon="11.747915"><ele>549.0</ele><time>2026-04-04T10:18:48.699Z</time></trkpt><trkpt lat="43.9547367" lon="11.7479867"><ele>549.0</ele><time>2026-04-04T10:18:49.698Z</time></trkpt><trkpt lat="43.9545483" lon="11.7480267"><ele>549.0</ele><time>2026-04-04T10:18:50.698Z</time></trkpt><trkpt lat="43.9543617" lon="11.74803"><ele>549.0</ele><time>2026-04-04T10:18:51.698Z</time></trkpt><trkpt lat="43.9541867" lon="11.7480083"><ele>549.0</ele><time>2026-04-04T10:18:52.698Z</time></trkpt><trkpt lat="43.9540233" lon="11.7479533"><ele>551.6666666666666</ele><time>2026-04-04T10:18:53.699Z</time></trkpt><trkpt lat="43.9538533" lon="11.7478917"><ele>554.3333333333333</ele><time>2026-04-04T10:18:54.699Z</time></trkpt><trkpt lat="43.95367" lon="11.747805"><ele>557.0</ele><time>2026-04-04T10:18:55.698Z</time></trkpt><trkpt lat="43.9535" lon="11.7477133"><ele>560.6666666666666</ele><time>2026-04-04T10:18:56.698Z</time></trkpt><trkpt lat="43.953335" lon="11.7476217"><ele>564.3333333333334</ele><time>2026-04-04T10:18:57.698Z</time></trkpt><trkpt lat="43.953175" lon="11.7475483"><ele>568.0</ele><time>2026-04-04T10:18:58.699Z</time></trkpt><trkpt lat="43.953025" lon="11.747475"><ele>568.0</ele><time>2026-04-04T10:18:59.699Z</time></trkpt><trkpt lat="43.9529317" lon="11.74739"><ele>568.0</ele><time>2026-04-04T10:19:00.697Z</time></trkpt><trkpt lat="43.95286" lon="11.747295"><ele>568.0</ele><time>2026-04-04T10:19:01.697Z</time></trkpt><trkpt lat="43.9528183" lon="11.7472083"><ele>568.0</ele><time>2026-04-04T10:19:02.698Z</time></trkpt><trkpt lat="43.9526883" lon="11.7471133"><ele>568.0</ele><time>2026-04-04T10:19:04.697Z</time></trkpt><trkpt lat="43.9525733" lon="11.7470783"><ele>562.75</ele><time>2026-04-04T10:19:05.697Z</time></trkpt><trkpt lat="43.952435" lon="11.747045"><ele>557.5</ele><time>2026-04-04T10:19:06.698Z</time></trkpt><trkpt lat="43.95229" lon="11.7470133"><ele>552.25</ele><time>2026-04-04T10:19:07.698Z</time></trkpt><trkpt lat="43.952145" lon="11.74698"><ele>547.0</ele><time>2026-04-04T10:19:08.697Z</time></trkpt><trkpt lat="43.9520017" lon="11.7469483"><ele>549.0</ele><time>2026-04-04T10:19:09.697Z</time></trkpt><trkpt lat="43.9518567" lon="11.7468567"><ele>551.0</ele><time>2026-04-04T10:19:10.698Z</time></trkpt><trkpt lat="43.951725" lon="11.74673"><ele>553.0</ele><time>2026-04-04T10:19:11.697Z</time></trkpt><trkpt lat="43.9516083" lon="11.7465767"><ele>553.0</ele><time>2026-04-04T10:19:12.698Z</time></trkpt><trkpt lat="43.9515067" lon="11.7464083"><ele>553.0</ele><time>2026-04-04T10:19:13.698Z</time></trkpt><trkpt lat="43.9513883" lon="11.7462533"><ele>553.0</ele><time>2026-04-04T10:19:14.698Z</time></trkpt><trkpt lat="43.9512733" lon="11.7461167"><ele>554.0</ele><time>2026-04-04T10:19:15.698Z</time></trkpt><trkpt lat="43.9511483" lon="11.7460117"><ele>555.0</ele><time>2026-04-04T10:19:16.698Z</time></trkpt><trkpt lat="43.95101" lon="11.7459583"><ele>556.0</ele><time>2026-04-04T10:19:17.697Z</time></trkpt><trkpt lat="43.9508567" lon="11.745975"><ele>557.0</ele><time>2026-04-04T10:19:18.698Z</time></trkpt><trkpt lat="43.9507267" lon="11.7460667"><ele>558.75</ele><time>2026-04-04T10:19:19.697Z</time></trkpt><trkpt lat="43.9506117" lon="11.7461867"><ele>560.5</ele><time>2026-04-04T10:19:20.698Z</time></trkpt><trkpt lat="43.9505083" lon="11.7463483"><ele>562.25</ele><time>2026-04-04T10:19:21.698Z</time></trkpt><trkpt lat="43.9504333" lon="11.74652"><ele>564.0</ele><time>2026-04-04T10:19:22.698Z</time></trkpt><trkpt lat="43.9503783" lon="11.7466933"><ele>564.0</ele><time>2026-04-04T10:19:23.697Z</time></trkpt><trkpt lat="43.9503233" lon="11.746815"><ele>564.0</ele><time>2026-04-04T10:19:24.697Z</time></trkpt><trkpt lat="43.950275" lon="11.7469017"><ele>564.0</ele><time>2026-04-04T10:19:25.697Z</time></trkpt><trkpt lat="43.95019" lon="11.74695"><ele>564.0</ele><time>2026-04-04T10:19:26.698Z</time></trkpt><trkpt lat="43.9500783" lon="11.7469783"><ele>564.0</ele><time>2026-04-04T10:19:27.698Z</time></trkpt><trkpt lat="43.9499433" lon="11.747"><ele>564.75</ele><time>2026-04-04T10:19:28.698Z</time></trkpt><trkpt lat="43.949805" lon="11.7470283"><ele>565.5</ele><time>2026-04-04T10:19:29.697Z</time></trkpt><trkpt lat="43.949665" lon="11.7470533"><ele>566.25</ele><time>2026-04-04T10:19:30.697Z</time></trkpt><trkpt lat="43.9495517" lon="11.7470567"><ele>567.0</ele><time>2026-04-04T10:19:31.697Z</time></trkpt><trkpt lat="43.9494533" lon="11.7470317"><ele>567.0</ele><time>2026-04-04T10:19:32.698Z</time></trkpt><trkpt lat="43.94937" lon="11.7469683"><ele>567.0</ele><time>2026-04-04T10:19:33.698Z</time></trkpt><trkpt lat="43.9492883" lon="11.7468917"><ele>567.0</ele><time>2026-04-04T10:19:34.697Z</time></trkpt><trkpt lat="43.9492033" lon="11.7468433"><ele>567.0</ele><time>2026-04-04T10:19:35.697Z</time></trkpt><trkpt lat="43.9490817" lon="11.7468467"><ele>567.0</ele><time>2026-04-04T10:19:36.697Z</time></trkpt><trkpt lat="43.948955" lon="11.7468967"><ele>567.6666666666666</ele><time>2026-04-04T10:19:37.697Z</time></trkpt><trkpt lat="43.948845" lon="11.7470133"><ele>568.3333333333333</ele><time>2026-04-04T10:19:38.698Z</time></trkpt><trkpt lat="43.94874" lon="11.747155"><ele>569.0</ele><time>2026-04-04T10:19:39.697Z</time></trkpt><trkpt lat="43.9486167" lon="11.74731"><ele>569.0</ele><time>2026-04-04T10:19:40.698Z</time></trkpt><trkpt lat="43.9485033" lon="11.7474667"><ele>569.0</ele><time>2026-04-04T10:19:41.698Z</time></trkpt><trkpt lat="43.9484083" lon="11.7476233"><ele>569.0</ele><time>2026-04-04T10:19:42.697Z</time></trkpt><trkpt lat="43.948325" lon="11.7477567"><ele>569.0</ele><time>2026-04-04T10:19:43.697Z</time></trkpt><trkpt lat="43.94825" lon="11.74785"><ele>572.25</ele><time>2026-04-04T10:19:44.698Z</time></trkpt><trkpt lat="43.9481583" lon="11.74787"><ele>575.5</ele><time>2026-04-04T10:19:45.698Z</time></trkpt><trkpt lat="43.9480883" lon="11.7478133"><ele>578.75</ele><time>2026-04-04T10:19:46.698Z</time></trkpt><trkpt lat="43.947965" lon="11.7477"><ele>582.0</ele><time>2026-04-04T10:19:47.697Z</time></trkpt><trkpt lat="43.9478467" lon="11.7475767"><ele>582.75</ele><time>2026-04-04T10:19:48.697Z</time></trkpt><trkpt lat="43.9477267" lon="11.74746"><ele>583.5</ele><time>2026-04-04T10:19:49.698Z</time></trkpt><trkpt lat="43.9476133" lon="11.747365"><ele>584.25</ele><time>2026-04-04T10:19:50.697Z</time></trkpt><trkpt lat="43.9475017" lon="11.7473017"><ele>585.0</ele><time>2026-04-04T10:19:51.698Z</time></trkpt><trkpt lat="43.9473817" lon="11.7472733"><ele>585.25</ele><time>2026-04-04T10:19:52.697Z</time></trkpt><trkpt lat="43.9472467" lon="11.7472867"><ele>585.5</ele><time>2026-04-04T10:19:53.698Z</time></trkpt><trkpt lat="43.94711" lon="11.7473317"><ele>585.75</ele><time>2026-04-04T10:19:54.698Z</time></trkpt><trkpt lat="43.9469633" lon="11.7474217"><ele>586.0</ele><time>2026-04-04T10:19:55.697Z</time></trkpt><trkpt lat="43.9468267" lon="11.747545"><ele>587.0</ele><time>2026-04-04T10:19:56.698Z</time></trkpt><trkpt lat="43.94668" lon="11.747685"><ele>588.0</ele><time>2026-04-04T10:19:57.697Z</time></trkpt><trkpt lat="43.94654" lon="11.7478117"><ele>589.0</ele><time>2026-04-04T10:19:58.698Z</time></trkpt><trkpt lat="43.9464033" lon="11.7479067"><ele>590.0</ele><time>2026-04-04T10:19:59.698Z</time></trkpt><trkpt lat="43.9462783" lon="11.7479667"><ele>591.0</ele><time>2026-04-04T10:20:00.698Z</time></trkpt><trkpt lat="43.946155" lon="11.7479817"><ele>592.0</ele><time>2026-04-04T10:20:01.697Z</time></trkpt><trkpt lat="43.94605" lon="11.74797"><ele>593.0</ele><time>2026-04-04T10:20:02.698Z</time></trkpt><trkpt lat="43.9459467" lon="11.74793"><ele>592.5</ele><time>2026-04-04T10:20:03.698Z</time></trkpt><trkpt lat="43.9458517" lon="11.7478333"><ele>592.0</ele><time>2026-04-04T10:20:04.697Z</time></trkpt><trkpt lat="43.9457633" lon="11.747665"><ele>591.5</ele><time>2026-04-04T10:20:05.697Z</time></trkpt><trkpt lat="43.9456867" lon="11.7474567"><ele>591.0</ele><time>2026-04-04T10:20:06.697Z</time></trkpt><trkpt lat="43.9455967" lon="11.7472717"><ele>591.0</ele><time>2026-04-04T10:20:07.697Z</time></trkpt><trkpt lat="43.9455017" lon="11.747105"><ele>591.0</ele><time>2026-04-04T10:20:08.697Z</time></trkpt><trkpt lat="43.945415" lon="11.7470133"><ele>591.0</ele><time>2026-04-04T10:20:09.697Z</time></trkpt><trkpt lat="43.94533" lon="11.7469917"><ele>591.0</ele><time>2026-04-04T10:20:10.698Z</time></trkpt><trkpt lat="43.9452267" lon="11.74701"><ele>591.0</ele><time>2026-04-04T10:20:11.698Z</time></trkpt><trkpt lat="43.9451417" lon="11.7470717"><ele>591.0</ele><time>2026-04-04T10:20:12.697Z</time></trkpt><trkpt lat="43.9450717" lon="11.7472417"><ele>591.0</ele><time>2026-04-04T10:20:13.698Z</time></trkpt><trkpt lat="43.94499" lon="11.747425"><ele>591.0</ele><time>2026-04-04T10:20:14.697Z</time></trkpt><trkpt lat="43.944905" lon="11.74758"><ele>590.5</ele><time>2026-04-04T10:20:15.698Z</time></trkpt><trkpt lat="43.9448" lon="11.74773"><ele>590.0</ele><time>2026-04-04T10:20:16.697Z</time></trkpt><trkpt lat="43.94471" lon="11.7478833"><ele>589.5</ele><time>2026-04-04T10:20:17.697Z</time></trkpt><trkpt lat="43.9446233" lon="11.7480217"><ele>589.0</ele><time>2026-04-04T10:20:18.698Z</time></trkpt><trkpt lat="43.944545" lon="11.748125"><ele>589.0</ele><time>2026-04-04T10:20:19.698Z</time></trkpt><trkpt lat="43.9444683" lon="11.748185"><ele>589.0</ele><time>2026-04-04T10:20:20.698Z</time></trkpt><trkpt lat="43.94439" lon="11.7481733"><ele>589.0</ele><time>2026-04-04T10:20:21.698Z</time></trkpt><trkpt lat="43.9443033" lon="11.7481283"><ele>589.0</ele><time>2026-04-04T10:20:22.698Z</time></trkpt><trkpt lat="43.944215" lon="11.7480117"><ele>589.0</ele><time>2026-04-04T10:20:23.698Z</time></trkpt><trkpt lat="43.944135" lon="11.747865"><ele>591.6666666666667</ele><time>2026-04-04T10:20:24.697Z</time></trkpt><trkpt lat="43.944035" lon="11.7476883"><ele>594.3333333333334</ele><time>2026-04-04T10:20:25.698Z</time></trkpt><trkpt lat="43.9439317" lon="11.7475217"><ele>597.0</ele><time>2026-04-04T10:20:26.698Z</time></trkpt><trkpt lat="43.9438217" lon="11.747335"><ele>597.0</ele><time>2026-04-04T10:20:27.698Z</time></trkpt><trkpt lat="43.9437167" lon="11.747175"><ele>597.0</ele><time>2026-04-04T10:20:28.697Z</time></trkpt><trkpt lat="43.943635" lon="11.74703"><ele>597.0</ele><time>2026-04-04T10:20:29.697Z</time></trkpt><trkpt lat="43.9435383" lon="11.746925"><ele>597.0</ele><time>2026-04-04T10:20:30.697Z</time></trkpt><trkpt lat="43.943445" lon="11.7468817"><ele>596.6</ele><time>2026-04-04T10:20:31.697Z</time></trkpt><trkpt lat="43.943345" lon="11.74688"><ele>596.2</ele><time>2026-04-04T10:20:32.697Z</time></trkpt><trkpt lat="43.943255" lon="11.74693"><ele>595.8</ele><time>2026-04-04T10:20:33.697Z</time></trkpt><trkpt lat="43.9431617" lon="11.7470133"><ele>595.4</ele><time>2026-04-04T10:20:34.697Z</time></trkpt><trkpt lat="43.9430733" lon="11.747135"><ele>595.0</ele><time>2026-04-04T10:20:35.697Z</time></trkpt><trkpt lat="43.9430183" lon="11.7473"><ele>595.0</ele><time>2026-04-04T10:20:36.697Z</time></trkpt><trkpt lat="43.9429683" lon="11.7474633"><ele>595.0</ele><time>2026-04-04T10:20:37.698Z</time></trkpt><trkpt lat="43.9429317" lon="11.747635"><ele>595.0</ele><time>2026-04-04T10:20:38.698Z</time></trkpt><trkpt lat="43.9429" lon="11.7478083"><ele>595.0</ele><time>2026-04-04T10:20:39.697Z</time></trkpt><trkpt lat="43.9428633" lon="11.7479667"><ele>595.8333333333334</ele><time>2026-04-04T10:20:40.698Z</time></trkpt><trkpt lat="43.94283" lon="11.7481083"><ele>596.6666666666667</ele><time>2026-04-04T10:20:41.697Z</time></trkpt><trkpt lat="43.9427983" lon="11.74823"><ele>597.5</ele><time>2026-04-04T10:20:42.698Z</time></trkpt><trkpt lat="43.9427583" lon="11.7483283"><ele>598.3333333333334</ele><time>2026-04-04T10:20:43.697Z</time></trkpt><trkpt lat="43.9427017" lon="11.7483867"><ele>599.1666666666666</ele><time>2026-04-04T10:20:44.698Z</time></trkpt><trkpt lat="43.9426217" lon="11.7484067"><ele>600.0</ele><time>2026-04-04T10:20:45.697Z</time></trkpt><trkpt lat="43.9424683" lon="11.7483467"><ele>601.3333333333334</ele><time>2026-04-04T10:20:46.698Z</time></trkpt><trkpt lat="43.942315" lon="11.74829"><ele>602.6666666666667</ele><time>2026-04-04T10:20:47.698Z</time></trkpt><trkpt lat="43.9421417" lon="11.7482583"><ele>604.0</ele><time>2026-04-04T10:20:48.697Z</time></trkpt><trkpt lat="43.9419717" lon="11.7482567"><ele>604.0</ele><time>2026-04-04T10:20:49.697Z</time></trkpt><trkpt lat="43.9418" lon="11.7483017"><ele>604.0</ele><time>2026-04-04T10:20:50.697Z</time></trkpt><trkpt lat="43.9416183" lon="11.7483633"><ele>604.0</ele><time>2026-04-04T10:20:51.697Z</time></trkpt><trkpt lat="43.9414267" lon="11.748465"><ele>605.6666666666667</ele><time>2026-04-04T10:20:52.698Z</time></trkpt><trkpt lat="43.9412333" lon="11.748575"><ele>607.3333333333334</ele><time>2026-04-04T10:20:53.698Z</time></trkpt><trkpt lat="43.9410417" lon="11.7487067"><ele>609.0</ele><time>2026-04-04T10:20:54.697Z</time></trkpt><trkpt lat="43.940875" lon="11.748815"><ele>609.0</ele><time>2026-04-04T10:20:55.698Z</time></trkpt><trkpt lat="43.9407183" lon="11.748895"><ele>609.0</ele><time>2026-04-04T10:20:56.698Z</time></trkpt><trkpt lat="43.9405783" lon="11.7489533"><ele>609.0</ele><time>2026-04-04T10:20:57.697Z</time></trkpt><trkpt lat="43.9404283" lon="11.7489917"><ele>609.0</ele><time>2026-04-04T10:20:58.697Z</time></trkpt><trkpt lat="43.9402583" lon="11.7490033"><ele>609.0</ele><time>2026-04-04T10:20:59.697Z</time></trkpt><trkpt lat="43.9400717" lon="11.749"><ele>609.0</ele><time>2026-04-04T10:21:00.697Z</time></trkpt><trkpt lat="43.9399167" lon="11.7489583"><ele>610.0</ele><time>2026-04-04T10:21:01.698Z</time></trkpt><trkpt lat="43.93975" lon="11.7489317"><ele>611.0</ele><time>2026-04-04T10:21:02.697Z</time></trkpt><trkpt lat="43.9396033" lon="11.7488667"><ele>612.0</ele><time>2026-04-04T10:21:03.698Z</time></trkpt><trkpt lat="43.9394683" lon="11.7487683"><ele>612.0</ele><time>2026-04-04T10:21:04.697Z</time></trkpt><trkpt lat="43.9393433" lon="11.7486733"><ele>612.0</ele><time>2026-04-04T10:21:05.698Z</time></trkpt><trkpt lat="43.9392267" lon="11.7486433"><ele>612.0</ele><time>2026-04-04T10:21:06.697Z</time></trkpt><trkpt lat="43.9391117" lon="11.748665"><ele>612.0</ele><time>2026-04-04T10:21:07.697Z</time></trkpt><trkpt lat="43.93899" lon="11.7487333"><ele>611.6666666666666</ele><time>2026-04-04T10:21:08.698Z</time></trkpt><trkpt lat="43.9388817" lon="11.74888"><ele>611.3333333333333</ele><time>2026-04-04T10:21:09.697Z</time></trkpt><trkpt lat="43.9387717" lon="11.7490333"><ele>611.0</ele><time>2026-04-04T10:21:10.697Z</time></trkpt><trkpt lat="43.93866" lon="11.74918"><ele>611.0</ele><time>2026-04-04T10:21:11.697Z</time></trkpt><trkpt lat="43.938565" lon="11.749335"><ele>611.0</ele><time>2026-04-04T10:21:12.698Z</time></trkpt><trkpt lat="43.9384583" lon="11.7494483"><ele>611.0</ele><time>2026-04-04T10:21:13.697Z</time></trkpt><trkpt lat="43.938355" lon="11.7495117"><ele>611.0</ele><time>2026-04-04T10:21:14.697Z</time></trkpt><trkpt lat="43.9382333" lon="11.7495417"><ele>611.0</ele><time>2026-04-04T10:21:15.698Z</time></trkpt><trkpt lat="43.938115" lon="11.7495283"><ele>611.0</ele><time>2026-04-04T10:21:16.697Z</time></trkpt><trkpt lat="43.9379883" lon="11.7494967"><ele>611.0</ele><time>2026-04-04T10:21:17.698Z</time></trkpt><trkpt lat="43.9378717" lon="11.7494617"><ele>611.0</ele><time>2026-04-04T10:21:18.698Z</time></trkpt><trkpt lat="43.9377483" lon="11.74944"><ele>611.0</ele><time>2026-04-04T10:21:19.697Z</time></trkpt><trkpt lat="43.93761" lon="11.7494433"><ele>611.0</ele><time>2026-04-04T10:21:20.698Z</time></trkpt><trkpt lat="43.9374683" lon="11.7494583"><ele>611.0</ele><time>2026-04-04T10:21:21.697Z</time></trkpt><trkpt lat="43.9373467" lon="11.7494883"><ele>611.0</ele><time>2026-04-04T10:21:22.698Z</time></trkpt><trkpt lat="43.9372567" lon="11.7495133"><ele>610.1666666666666</ele><time>2026-04-04T10:21:23.697Z</time></trkpt><trkpt lat="43.93718" lon="11.749545"><ele>609.3333333333333</ele><time>2026-04-04T10:21:24.697Z</time></trkpt><trkpt lat="43.937115" lon="11.749575"><ele>608.5</ele><time>2026-04-04T10:21:25.698Z</time></trkpt><trkpt lat="43.9369833" lon="11.7496067"><ele>607.6666666666666</ele><time>2026-04-04T10:21:27.698Z</time></trkpt><trkpt lat="43.9369117" lon="11.7496517"><ele>606.8333333333334</ele><time>2026-04-04T10:21:28.698Z</time></trkpt><trkpt lat="43.93685" lon="11.7497"><ele>606.0</ele><time>2026-04-04T10:21:29.698Z</time></trkpt><trkpt lat="43.93677" lon="11.7497767"><ele>606.0</ele><time>2026-04-04T10:21:31.698Z</time></trkpt><trkpt lat="43.9367317" lon="11.7499"><ele>606.0</ele><time>2026-04-04T10:21:38.697Z</time></trkpt><trkpt lat="43.9367017" lon="11.7500383"><ele>606.0</ele><time>2026-04-04T10:21:40.697Z</time></trkpt><trkpt lat="43.9366833" lon="11.750135"><ele>606.0</ele><time>2026-04-04T10:21:41.697Z</time></trkpt><trkpt lat="43.936655" lon="11.7502517"><ele>606.0</ele><time>2026-04-04T10:21:42.698Z</time></trkpt><trkpt lat="43.9366233" lon="11.7503883"><ele>608.75</ele><time>2026-04-04T10:21:43.698Z</time></trkpt><trkpt lat="43.9365867" lon="11.750535"><ele>611.5</ele><time>2026-04-04T10:21:44.698Z</time></trkpt><trkpt lat="43.93655" lon="11.7507017"><ele>614.25</ele><time>2026-04-04T10:21:45.697Z</time></trkpt><trkpt lat="43.9365083" lon="11.7508633"><ele>617.0</ele><time>2026-04-04T10:21:46.697Z</time></trkpt><trkpt lat="43.9364583" lon="11.751035"><ele>621.25</ele><time>2026-04-04T10:21:47.698Z</time></trkpt><trkpt lat="43.9363817" lon="11.7511983"><ele>625.5</ele><time>2026-04-04T10:21:48.697Z</time></trkpt><trkpt lat="43.9363033" lon="11.7513467"><ele>629.75</ele><time>2026-04-04T10:21:49.697Z</time></trkpt><trkpt lat="43.936215" lon="11.7514833"><ele>634.0</ele><time>2026-04-04T10:21:50.697Z</time></trkpt><trkpt lat="43.9361067" lon="11.75161"><ele>634.0</ele><time>2026-04-04T10:21:51.697Z</time></trkpt><trkpt lat="43.93598" lon="11.7517083"><ele>634.0</ele><time>2026-04-04T10:21:52.698Z</time></trkpt><trkpt lat="43.935855" lon="11.7517833"><ele>634.0</ele><time>2026-04-04T10:21:53.697Z</time></trkpt><trkpt lat="43.935715" lon="11.75185"><ele>634.0</ele><time>2026-04-04T10:21:54.698Z</time></trkpt><trkpt lat="43.935575" lon="11.751895"><ele>635.2</ele><time>2026-04-04T10:21:55.698Z</time></trkpt><trkpt lat="43.9354467" lon="11.7519383"><ele>636.4</ele><time>2026-04-04T10:21:56.697Z</time></trkpt><trkpt lat="43.93533" lon="11.751975"><ele>637.6</ele><time>2026-04-04T10:21:57.698Z</time></trkpt><trkpt lat="43.935265" lon="11.7520183"><ele>638.8</ele><time>2026-04-04T10:21:58.697Z</time></trkpt><trkpt lat="43.9352267" lon="11.75209"><ele>640.0</ele><time>2026-04-04T10:21:59.697Z</time></trkpt><trkpt lat="43.93521" lon="11.7521883"><ele>640.0</ele><time>2026-04-04T10:22:00.698Z</time></trkpt><trkpt lat="43.9352133" lon="11.7522983"><ele>640.0</ele><time>2026-04-04T10:22:01.697Z</time></trkpt><trkpt lat="43.9352417" lon="11.7523983"><ele>640.0</ele><time>2026-04-04T10:22:02.697Z</time></trkpt><trkpt lat="43.9352817" lon="11.7524733"><ele>640.0</ele><time>2026-04-04T10:22:03.697Z</time></trkpt><trkpt lat="43.9353667" lon="11.7524817"><ele>640.0</ele><time>2026-04-04T10:22:04.698Z</time></trkpt><trkpt lat="43.9354583" lon="11.7524633"><ele>640.0</ele><time>2026-04-04T10:22:05.697Z</time></trkpt><trkpt lat="43.9355967" lon="11.752365"><ele>640.0</ele><time>2026-04-04T10:22:06.698Z</time></trkpt><trkpt lat="43.9357383" lon="11.7522633"><ele>640.0</ele><time>2026-04-04T10:22:07.697Z</time></trkpt><trkpt lat="43.93588" lon="11.7521733"><ele>640.0</ele><time>2026-04-04T10:22:08.698Z</time></trkpt><trkpt lat="43.9360317" lon="11.752085"><ele>638.0</ele><time>2026-04-04T10:22:09.698Z</time></trkpt><trkpt lat="43.936185" lon="11.75201"><ele>636.0</ele><time>2026-04-04T10:22:10.698Z</time></trkpt><trkpt lat="43.9363317" lon="11.75193"><ele>634.0</ele><time>2026-04-04T10:22:11.697Z</time></trkpt><trkpt lat="43.936485" lon="11.7518583"><ele>634.0</ele><time>2026-04-04T10:22:12.697Z</time></trkpt><trkpt lat="43.9366467" lon="11.751785"><ele>634.0</ele><time>2026-04-04T10:22:13.697Z</time></trkpt><trkpt lat="43.9367983" lon="11.7517067"><ele>634.0</ele><time>2026-04-04T10:22:14.698Z</time></trkpt><trkpt lat="43.936935" lon="11.7516333"><ele>637.4</ele><time>2026-04-04T10:22:15.698Z</time></trkpt><trkpt lat="43.9370617" lon="11.75156"><ele>640.8</ele><time>2026-04-04T10:22:16.697Z</time></trkpt><trkpt lat="43.937175" lon="11.75149"><ele>644.1999999999999</ele><time>2026-04-04T10:22:17.698Z</time></trkpt><trkpt lat="43.937275" lon="11.7514633"><ele>647.5999999999999</ele><time>2026-04-04T10:22:18.697Z</time></trkpt><trkpt lat="43.9373583" lon="11.7514817"><ele>651.0</ele><time>2026-04-04T10:22:19.698Z</time></trkpt><trkpt lat="43.9374167" lon="11.7515417"><ele>651.0</ele><time>2026-04-04T10:22:20.697Z</time></trkpt><trkpt lat="43.937425" lon="11.75165"><ele>651.0</ele><time>2026-04-04T10:22:21.697Z</time></trkpt><trkpt lat="43.9374317" lon="11.7517517"><ele>651.0</ele><time>2026-04-04T10:22:22.697Z</time></trkpt><trkpt lat="43.9373683" lon="11.7518783"><ele>651.0</ele><time>2026-04-04T10:22:23.697Z</time></trkpt><trkpt lat="43.9372883" lon="11.7519983"><ele>651.0</ele><time>2026-04-04T10:22:24.698Z</time></trkpt><trkpt lat="43.9371783" lon="11.75211"><ele>656.3333333333334</ele><time>2026-04-04T10:22:25.697Z</time></trkpt><trkpt lat="43.937045" lon="11.75223"><ele>661.6666666666667</ele><time>2026-04-04T10:22:26.697Z</time></trkpt><trkpt lat="43.9369133" lon="11.7523517"><ele>667.0</ele><time>2026-04-04T10:22:27.698Z</time></trkpt><trkpt lat="43.9367783" lon="11.7524667"><ele>666.0</ele><time>2026-04-04T10:22:28.697Z</time></trkpt><trkpt lat="43.9366467" lon="11.7525933"><ele>665.0</ele><time>2026-04-04T10:22:29.697Z</time></trkpt><trkpt lat="43.9365117" lon="11.7527217"><ele>664.0</ele><time>2026-04-04T10:22:30.697Z</time></trkpt><trkpt lat="43.9363867" lon="11.7528183"><ele>664.0</ele><time>2026-04-04T10:22:31.697Z</time></trkpt><trkpt lat="43.936265" lon="11.75289"><ele>664.0</ele><time>2026-04-04T10:22:32.698Z</time></trkpt><trkpt lat="43.9361517" lon="11.7529467"><ele>664.0</ele><time>2026-04-04T10:22:33.698Z</time></trkpt><trkpt lat="43.9360383" lon="11.7529833"><ele>664.0</ele><time>2026-04-04T10:22:34.697Z</time></trkpt><trkpt lat="43.9359667" lon="11.7530217"><ele>664.0</ele><time>2026-04-04T10:22:35.698Z</time></trkpt><trkpt lat="43.9359" lon="11.7530867"><ele>664.2</ele><time>2026-04-04T10:22:36.697Z</time></trkpt><trkpt lat="43.93586" lon="11.7531983"><ele>664.4000000000001</ele><time>2026-04-04T10:22:37.697Z</time></trkpt><trkpt lat="43.935835" lon="11.753345"><ele>664.6</ele><time>2026-04-04T10:22:38.697Z</time></trkpt><trkpt lat="43.935805" lon="11.753485"><ele>664.8</ele><time>2026-04-04T10:22:39.698Z</time></trkpt><trkpt lat="43.9357367" lon="11.7536183"><ele>665.0</ele><time>2026-04-04T10:22:40.697Z</time></trkpt><trkpt lat="43.935645" lon="11.7537517"><ele>665.0</ele><time>2026-04-04T10:22:41.697Z</time></trkpt><trkpt lat="43.935525" lon="11.7538783"><ele>665.0</ele><time>2026-04-04T10:22:42.697Z</time></trkpt><trkpt lat="43.9354033" lon="11.7540017"><ele>665.0</ele><time>2026-04-04T10:22:43.698Z</time></trkpt><trkpt lat="43.9353183" lon="11.754105"><ele>665.0</ele><time>2026-04-04T10:22:44.698Z</time></trkpt><trkpt lat="43.9352517" lon="11.754175"><ele>665.0</ele><time>2026-04-04T10:22:45.698Z</time></trkpt><trkpt lat="43.9351867" lon="11.7542367"><ele>665.0</ele><time>2026-04-04T10:22:46.697Z</time></trkpt><trkpt lat="43.9351167" lon="11.7543117"><ele>665.0</ele><time>2026-04-04T10:22:47.698Z</time></trkpt><trkpt lat="43.9350367" lon="11.7544033"><ele>665.0</ele><time>2026-04-04T10:22:48.698Z</time></trkpt><trkpt lat="43.934955" lon="11.754495"><ele>665.0</ele><time>2026-04-04T10:22:49.698Z</time></trkpt><trkpt lat="43.9348633" lon="11.7545733"><ele>669.25</ele><time>2026-04-04T10:22:50.698Z</time></trkpt><trkpt lat="43.9347583" lon="11.754615"><ele>673.5</ele><time>2026-04-04T10:22:51.698Z</time></trkpt><trkpt lat="43.934645" lon="11.7546217"><ele>677.75</ele><time>2026-04-04T10:22:52.697Z</time></trkpt><trkpt lat="43.9345233" lon="11.75459"><ele>682.0</ele><time>2026-04-04T10:22:53.697Z</time></trkpt><trkpt lat="43.9344033" lon="11.7545433"><ele>682.0</ele><time>2026-04-04T10:22:54.697Z</time></trkpt><trkpt lat="43.9342933" lon="11.7544917"><ele>682.0</ele><time>2026-04-04T10:22:55.697Z</time></trkpt><trkpt lat="43.934185" lon="11.7544633"><ele>682.0</ele><time>2026-04-04T10:22:56.698Z</time></trkpt><trkpt lat="43.9340783" lon="11.7544483"><ele>682.0</ele><time>2026-04-04T10:22:57.697Z</time></trkpt><trkpt lat="43.9339717" lon="11.7544517"><ele>682.0</ele><time>2026-04-04T10:22:58.698Z</time></trkpt><trkpt lat="43.9338567" lon="11.7544633"><ele>682.4000000000001</ele><time>2026-04-04T10:22:59.697Z</time></trkpt><trkpt lat="43.93375" lon="11.75448"><ele>682.8000000000001</ele><time>2026-04-04T10:23:00.698Z</time></trkpt><trkpt lat="43.9336383" lon="11.754485"><ele>683.2</ele><time>2026-04-04T10:23:01.698Z</time></trkpt><trkpt lat="43.933535" lon="11.7544817"><ele>683.6</ele><time>2026-04-04T10:23:02.698Z</time></trkpt><trkpt lat="43.933425" lon="11.7544617"><ele>684.0</ele><time>2026-04-04T10:23:03.697Z</time></trkpt><trkpt lat="43.9333167" lon="11.7544283"><ele>684.0</ele><time>2026-04-04T10:23:04.697Z</time></trkpt><trkpt lat="43.933215" lon="11.7543933"><ele>684.0</ele><time>2026-04-04T10:23:05.698Z</time></trkpt><trkpt lat="43.933135" lon="11.7543667"><ele>684.0</ele><time>2026-04-04T10:23:06.698Z</time></trkpt><trkpt lat="43.9330433" lon="11.754355"><ele>684.0</ele><time>2026-04-04T10:23:07.697Z</time></trkpt><trkpt lat="43.9329567" lon="11.75438"><ele>684.0</ele><time>2026-04-04T10:23:08.698Z</time></trkpt><trkpt lat="43.9328783" lon="11.75444"><ele>684.0</ele><time>2026-04-04T10:23:09.698Z</time></trkpt><trkpt lat="43.9328067" lon="11.7545183"><ele>684.0</ele><time>2026-04-04T10:23:10.697Z</time></trkpt><trkpt lat="43.9327317" lon="11.75461"><ele>684.0</ele><time>2026-04-04T10:23:11.697Z</time></trkpt><trkpt lat="43.93266" lon="11.7547"><ele>684.0</ele><time>2026-04-04T10:23:12.698Z</time></trkpt><trkpt lat="43.9325867" lon="11.75479"><ele>684.0</ele><time>2026-04-04T10:23:13.698Z</time></trkpt><trkpt lat="43.9325067" lon="11.75488"><ele>683.0</ele><time>2026-04-04T10:23:14.698Z</time></trkpt><trkpt lat="43.932425" lon="11.7549683"><ele>682.0</ele><time>2026-04-04T10:23:15.697Z</time></trkpt><trkpt lat="43.9323567" lon="11.7550733"><ele>681.0</ele><time>2026-04-04T10:23:16.697Z</time></trkpt><trkpt lat="43.9323017" lon="11.7551933"><ele>680.0</ele><time>2026-04-04T10:23:17.698Z</time></trkpt><trkpt lat="43.9322583" lon="11.7553383"><ele>679.0</ele><time>2026-04-04T10:23:18.697Z</time></trkpt><trkpt lat="43.932235" lon="11.7555"><ele>683.5</ele><time>2026-04-04T10:23:19.698Z</time></trkpt><trkpt lat="43.9322067" lon="11.7556567"><ele>688.0</ele><time>2026-04-04T10:23:20.698Z</time></trkpt><trkpt lat="43.932175" lon="11.755815"><ele>692.5</ele><time>2026-04-04T10:23:21.697Z</time></trkpt><trkpt lat="43.9321467" lon="11.75598"><ele>697.0</ele><time>2026-04-04T10:23:22.697Z</time></trkpt><trkpt lat="43.93212" lon="11.7561517"><ele>699.25</ele><time>2026-04-04T10:23:23.697Z</time></trkpt><trkpt lat="43.9320883" lon="11.7563167"><ele>701.5</ele><time>2026-04-04T10:23:24.697Z</time></trkpt><trkpt lat="43.9320633" lon="11.7564867"><ele>703.75</ele><time>2026-04-04T10:23:25.697Z</time></trkpt><trkpt lat="43.9320383" lon="11.7566367"><ele>706.0</ele><time>2026-04-04T10:23:26.697Z</time></trkpt><trkpt lat="43.9320133" lon="11.7567917"><ele>708.5</ele><time>2026-04-04T10:23:27.698Z</time></trkpt><trkpt lat="43.9319983" lon="11.7569417"><ele>711.0</ele><time>2026-04-04T10:23:28.697Z</time></trkpt><trkpt lat="43.931995" lon="11.7570933"><ele>713.5</ele><time>2026-04-04T10:23:29.697Z</time></trkpt><trkpt lat="43.93197" lon="11.7572633"><ele>716.0</ele><time>2026-04-04T10:23:30.698Z</time></trkpt><trkpt lat="43.9319367" lon="11.75744"><ele>716.0</ele><time>2026-04-04T10:23:31.697Z</time></trkpt><trkpt lat="43.9319033" lon="11.7576167"><ele>716.0</ele><time>2026-04-04T10:23:32.698Z</time></trkpt><trkpt lat="43.93187" lon="11.7578"><ele>716.0</ele><time>2026-04-04T10:23:33.697Z</time></trkpt><trkpt lat="43.9318333" lon="11.7579817"><ele>716.0</ele><time>2026-04-04T10:23:34.697Z</time></trkpt><trkpt lat="43.9318" lon="11.7581717"><ele>715.75</ele><time>2026-04-04T10:23:35.698Z</time></trkpt><trkpt lat="43.9317517" lon="11.758345"><ele>715.5</ele><time>2026-04-04T10:23:36.698Z</time></trkpt><trkpt lat="43.9317067" lon="11.758525"><ele>715.25</ele><time>2026-04-04T10:23:37.697Z</time></trkpt><trkpt lat="43.9316533" lon="11.7586967"><ele>715.0</ele><time>2026-04-04T10:23:38.697Z</time></trkpt><trkpt lat="43.9316117" lon="11.7588683"><ele>715.0</ele><time>2026-04-04T10:23:39.698Z</time></trkpt><trkpt lat="43.9315767" lon="11.759025"><ele>715.0</ele><time>2026-04-04T10:23:40.697Z</time></trkpt><trkpt lat="43.9315317" lon="11.7592"><ele>715.0</ele><time>2026-04-04T10:23:41.697Z</time></trkpt><trkpt lat="43.931485" lon="11.759355"><ele>715.0</ele><time>2026-04-04T10:23:42.697Z</time></trkpt><trkpt lat="43.93144" lon="11.75949"><ele>716.6</ele><time>2026-04-04T10:23:43.698Z</time></trkpt><trkpt lat="43.9313983" lon="11.7596117"><ele>718.2</ele><time>2026-04-04T10:23:44.697Z</time></trkpt><trkpt lat="43.9313633" lon="11.759745"><ele>719.8</ele><time>2026-04-04T10:23:45.698Z</time></trkpt><trkpt lat="43.9313417" lon="11.7598833"><ele>721.4</ele><time>2026-04-04T10:23:46.698Z</time></trkpt><trkpt lat="43.9313517" lon="11.760025"><ele>723.0</ele><time>2026-04-04T10:23:47.697Z</time></trkpt><trkpt lat="43.9313717" lon="11.7601867"><ele>725.5999999999999</ele><time>2026-04-04T10:23:48.698Z</time></trkpt><trkpt lat="43.9313983" lon="11.76035"><ele>728.1999999999999</ele><time>2026-04-04T10:23:49.698Z</time></trkpt><trkpt lat="43.931425" lon="11.7604883"><ele>730.8</ele><time>2026-04-04T10:23:50.697Z</time></trkpt><trkpt lat="43.931415" lon="11.76061"><ele>733.4</ele><time>2026-04-04T10:23:51.698Z</time></trkpt><trkpt lat="43.931395" lon="11.7607217"><ele>736.0</ele><time>2026-04-04T10:23:52.698Z</time></trkpt><trkpt lat="43.93136" lon="11.7608133"><ele>736.0</ele><time>2026-04-04T10:23:53.697Z</time></trkpt><trkpt lat="43.9313017" lon="11.7608967"><ele>736.0</ele><time>2026-04-04T10:23:54.697Z</time></trkpt><trkpt lat="43.931215" lon="11.7609783"><ele>736.0</ele><time>2026-04-04T10:23:55.697Z</time></trkpt><trkpt lat="43.93115" lon="11.76109"><ele>736.0</ele><time>2026-04-04T10:23:56.698Z</time></trkpt><trkpt lat="43.9310967" lon="11.7612117"><ele>736.0</ele><time>2026-04-04T10:23:57.698Z</time></trkpt><trkpt lat="43.931065" lon="11.7613383"><ele>739.4</ele><time>2026-04-04T10:23:58.697Z</time></trkpt><trkpt lat="43.9310433" lon="11.7614733"><ele>742.8</ele><time>2026-04-04T10:23:59.697Z</time></trkpt><trkpt lat="43.9310267" lon="11.7616133"><ele>746.1999999999999</ele><time>2026-04-04T10:24:00.698Z</time></trkpt><trkpt lat="43.931005" lon="11.7617517"><ele>749.5999999999999</ele><time>2026-04-04T10:24:01.697Z</time></trkpt><trkpt lat="43.9309883" lon="11.7618867"><ele>753.0</ele><time>2026-04-04T10:24:02.697Z</time></trkpt><trkpt lat="43.9309733" lon="11.76201"><ele>754.6666666666666</ele><time>2026-04-04T10:24:03.697Z</time></trkpt><trkpt lat="43.93095" lon="11.7621067"><ele>756.3333333333334</ele><time>2026-04-04T10:24:04.698Z</time></trkpt><trkpt lat="43.9309333" lon="11.7622017"><ele>758.0</ele><time>2026-04-04T10:24:05.698Z</time></trkpt><trkpt lat="43.930925" lon="11.7623133"><ele>759.6666666666667</ele><time>2026-04-04T10:24:06.698Z</time></trkpt><trkpt lat="43.9309033" lon="11.762425"><ele>761.3333333333334</ele><time>2026-04-04T10:24:07.698Z</time></trkpt><trkpt lat="43.9308883" lon="11.7625467"><ele>763.0</ele><time>2026-04-04T10:24:08.697Z</time></trkpt><trkpt lat="43.93087" lon="11.762675"><ele>758.8</ele><time>2026-04-04T10:24:09.698Z</time></trkpt><trkpt lat="43.9308517" lon="11.7628117"><ele>754.5999999999999</ele><time>2026-04-04T10:24:10.697Z</time></trkpt><trkpt lat="43.9308367" lon="11.7629583"><ele>750.4000000000001</ele><time>2026-04-04T10:24:11.697Z</time></trkpt><trkpt lat="43.930825" lon="11.763095"><ele>746.2</ele><time>2026-04-04T10:24:12.697Z</time></trkpt><trkpt lat="43.9308167" lon="11.763225"><ele>742.0</ele><time>2026-04-04T10:24:13.697Z</time></trkpt><trkpt lat="43.9308067" lon="11.7633433"><ele>742.0</ele><time>2026-04-04T10:24:14.698Z</time></trkpt><trkpt lat="43.9307917" lon="11.7634583"><ele>742.0</ele><time>2026-04-04T10:24:15.697Z</time></trkpt><trkpt lat="43.9307617" lon="11.7635817"><ele>742.0</ele><time>2026-04-04T10:24:16.697Z</time></trkpt><trkpt lat="43.9307217" lon="11.7637067"><ele>742.0</ele><time>2026-04-04T10:24:17.697Z</time></trkpt><trkpt lat="43.93069" lon="11.7638367"><ele>742.0</ele><time>2026-04-04T10:24:18.697Z</time></trkpt><trkpt lat="43.9306633" lon="11.7639767"><ele>743.75</ele><time>2026-04-04T10:24:19.697Z</time></trkpt><trkpt lat="43.9306567" lon="11.7641267"><ele>745.5</ele><time>2026-04-04T10:24:20.697Z</time></trkpt><trkpt lat="43.93065" lon="11.7642967"><ele>747.25</ele><time>2026-04-04T10:24:21.697Z</time></trkpt><trkpt lat="43.93066" lon="11.7644733"><ele>749.0</ele><time>2026-04-04T10:24:22.697Z</time></trkpt><trkpt lat="43.9306633" lon="11.7646533"><ele>750.0</ele><time>2026-04-04T10:24:23.697Z</time></trkpt><trkpt lat="43.930655" lon="11.76484"><ele>751.0</ele><time>2026-04-04T10:24:24.698Z</time></trkpt><trkpt lat="43.930635" lon="11.765035"><ele>752.0</ele><time>2026-04-04T10:24:25.697Z</time></trkpt><trkpt lat="43.9305917" lon="11.7652167"><ele>753.0</ele><time>2026-04-04T10:24:26.698Z</time></trkpt><trkpt lat="43.9305417" lon="11.7654033"><ele>754.75</ele><time>2026-04-04T10:24:27.698Z</time></trkpt><trkpt lat="43.930485" lon="11.7655833"><ele>756.5</ele><time>2026-04-04T10:24:28.697Z</time></trkpt><trkpt lat="43.930425" lon="11.765765"><ele>758.25</ele><time>2026-04-04T10:24:29.697Z</time></trkpt><trkpt lat="43.930365" lon="11.765945"><ele>760.0</ele><time>2026-04-04T10:24:30.697Z</time></trkpt><trkpt lat="43.9303167" lon="11.76612"><ele>760.2</ele><time>2026-04-04T10:24:31.698Z</time></trkpt><trkpt lat="43.9302733" lon="11.7662667"><ele>760.4</ele><time>2026-04-04T10:24:32.697Z</time></trkpt><trkpt lat="43.9302483" lon="11.766395"><ele>760.5999999999999</ele><time>2026-04-04T10:24:33.698Z</time></trkpt><trkpt lat="43.930255" lon="11.7665133"><ele>760.8</ele><time>2026-04-04T10:24:34.697Z</time></trkpt><trkpt lat="43.93029" lon="11.7666267"><ele>761.0</ele><time>2026-04-04T10:24:35.697Z</time></trkpt><trkpt lat="43.93037" lon="11.766725"><ele>761.0</ele><time>2026-04-04T10:24:36.698Z</time></trkpt><trkpt lat="43.930465" lon="11.766815"><ele>761.0</ele><time>2026-04-04T10:24:37.697Z</time></trkpt><trkpt lat="43.93057" lon="11.7669067"><ele>761.0</ele><time>2026-04-04T10:24:38.698Z</time></trkpt><trkpt lat="43.9306633" lon="11.76701"><ele>761.0</ele><time>2026-04-04T10:24:39.697Z</time></trkpt><trkpt lat="43.9307333" lon="11.7671367"><ele>763.4</ele><time>2026-04-04T10:24:40.697Z</time></trkpt><trkpt lat="43.9308017" lon="11.7672667"><ele>765.8</ele><time>2026-04-04T10:24:41.698Z</time></trkpt><trkpt lat="43.9308667" lon="11.7674133"><ele>768.1999999999999</ele><time>2026-04-04T10:24:42.697Z</time></trkpt><trkpt lat="43.930915" lon="11.7675483"><ele>770.5999999999999</ele><time>2026-04-04T10:24:43.697Z</time></trkpt><trkpt lat="43.9309583" lon="11.7676733"><ele>773.0</ele><time>2026-04-04T10:24:44.697Z</time></trkpt><trkpt lat="43.9309883" lon="11.7678133"><ele>773.0</ele><time>2026-04-04T10:24:45.697Z</time></trkpt><trkpt lat="43.9310333" lon="11.7679533"><ele>773.0</ele><time>2026-04-04T10:24:46.697Z</time></trkpt><trkpt lat="43.93107" lon="11.7681083"><ele>773.0</ele><time>2026-04-04T10:24:47.697Z</time></trkpt><trkpt lat="43.9311117" lon="11.7682633"><ele>773.0</ele><time>2026-04-04T10:24:48.697Z</time></trkpt><trkpt lat="43.9311433" lon="11.7684117"><ele>769.2</ele><time>2026-04-04T10:24:49.698Z</time></trkpt><trkpt lat="43.9311667" lon="11.7685483"><ele>765.4</ele><time>2026-04-04T10:24:50.698Z</time></trkpt><trkpt lat="43.931185" lon="11.7686817"><ele>761.6</ele><time>2026-04-04T10:24:51.698Z</time></trkpt><trkpt lat="43.9312117" lon="11.768815"><ele>757.8000000000001</ele><time>2026-04-04T10:24:52.697Z</time></trkpt><trkpt lat="43.93126" lon="11.7689417"><ele>754.0</ele><time>2026-04-04T10:24:53.698Z</time></trkpt><trkpt lat="43.9313267" lon="11.7690533"><ele>754.0</ele><time>2026-04-04T10:24:54.698Z</time></trkpt><trkpt lat="43.9314167" lon="11.7691533"><ele>754.0</ele><time>2026-04-04T10:24:55.698Z</time></trkpt><trkpt lat="43.9315167" lon="11.76924"><ele>754.0</ele><time>2026-04-04T10:24:56.697Z</time></trkpt><trkpt lat="43.9316417" lon="11.7693067"><ele>754.0</ele><time>2026-04-04T10:24:57.698Z</time></trkpt><trkpt lat="43.931765" lon="11.7693483"><ele>755.2</ele><time>2026-04-04T10:24:58.697Z</time></trkpt><trkpt lat="43.9318717" lon="11.76939"><ele>756.4000000000001</ele><time>2026-04-04T10:24:59.697Z</time></trkpt><trkpt lat="43.9319633" lon="11.7694333"><ele>757.6</ele><time>2026-04-04T10:25:00.698Z</time></trkpt><trkpt lat="43.9320433" lon="11.76949"><ele>758.8</ele><time>2026-04-04T10:25:01.698Z</time></trkpt><trkpt lat="43.9321133" lon="11.76956"><ele>760.0</ele><time>2026-04-04T10:25:02.698Z</time></trkpt><trkpt lat="43.9321667" lon="11.7696467"><ele>760.0</ele><time>2026-04-04T10:25:03.697Z</time></trkpt><trkpt lat="43.9322067" lon="11.7697383"><ele>760.0</ele><time>2026-04-04T10:25:04.698Z</time></trkpt><trkpt lat="43.9322217" lon="11.7698583"><ele>760.0</ele><time>2026-04-04T10:25:05.697Z</time></trkpt><trkpt lat="43.9322317" lon="11.7699983"><ele>760.0</ele><time>2026-04-04T10:25:06.698Z</time></trkpt><trkpt lat="43.9322333" lon="11.7701417"><ele>760.0</ele><time>2026-04-04T10:25:07.697Z</time></trkpt><trkpt lat="43.932235" lon="11.7702667"><ele>758.1666666666667</ele><time>2026-04-04T10:25:08.698Z</time></trkpt><trkpt lat="43.9322383" lon="11.7703883"><ele>756.3333333333334</ele><time>2026-04-04T10:25:09.698Z</time></trkpt><trkpt lat="43.9322483" lon="11.7705083"><ele>754.5</ele><time>2026-04-04T10:25:10.697Z</time></trkpt><trkpt lat="43.93228" lon="11.7706017"><ele>752.6666666666666</ele><time>2026-04-04T10:25:11.698Z</time></trkpt><trkpt lat="43.9323267" lon="11.7706683"><ele>750.8333333333333</ele><time>2026-04-04T10:25:12.698Z</time></trkpt><trkpt lat="43.932395" lon="11.7707133"><ele>749.0</ele><time>2026-04-04T10:25:13.697Z</time></trkpt><trkpt lat="43.9324683" lon="11.7707483"><ele>749.0</ele><time>2026-04-04T10:25:14.698Z</time></trkpt><trkpt lat="43.9325417" lon="11.7707917"><ele>749.0</ele><time>2026-04-04T10:25:15.697Z</time></trkpt><trkpt lat="43.9326133" lon="11.7708667"><ele>749.0</ele><time>2026-04-04T10:25:16.697Z</time></trkpt><trkpt lat="43.93268" lon="11.7709417"><ele>749.0</ele><time>2026-04-04T10:25:17.697Z</time></trkpt><trkpt lat="43.932725" lon="11.771035"><ele>749.0</ele><time>2026-04-04T10:25:18.697Z</time></trkpt><trkpt lat="43.9327517" lon="11.7711433"><ele>749.0</ele><time>2026-04-04T10:25:19.698Z</time></trkpt><trkpt lat="43.9327517" lon="11.77126"><ele>749.5</ele><time>2026-04-04T10:25:20.698Z</time></trkpt><trkpt lat="43.932755" lon="11.7713567"><ele>750.0</ele><time>2026-04-04T10:25:21.698Z</time></trkpt><trkpt lat="43.9327633" lon="11.77146"><ele>750.5</ele><time>2026-04-04T10:25:22.698Z</time></trkpt><trkpt lat="43.9327717" lon="11.7715733"><ele>751.0</ele><time>2026-04-04T10:25:23.697Z</time></trkpt><trkpt lat="43.93278" lon="11.7716967"><ele>751.5</ele><time>2026-04-04T10:25:24.698Z</time></trkpt><trkpt lat="43.9327967" lon="11.7718283"><ele>752.0</ele><time>2026-04-04T10:25:25.698Z</time></trkpt><trkpt lat="43.9328117" lon="11.7719717"><ele>752.0</ele><time>2026-04-04T10:25:26.698Z</time></trkpt><trkpt lat="43.932825" lon="11.77213"><ele>752.0</ele><time>2026-04-04T10:25:27.697Z</time></trkpt><trkpt lat="43.932855" lon="11.7722833"><ele>752.0</ele><time>2026-04-04T10:25:28.697Z</time></trkpt><trkpt lat="43.9329" lon="11.7724333"><ele>752.0</ele><time>2026-04-04T10:25:29.698Z</time></trkpt><trkpt lat="43.932955" lon="11.772575"><ele>751.8</ele><time>2026-04-04T10:25:30.697Z</time></trkpt><trkpt lat="43.9330267" lon="11.7727133"><ele>751.6</ele><time>2026-04-04T10:25:31.697Z</time></trkpt><trkpt lat="43.93309" lon="11.7728367"><ele>751.4</ele><time>2026-04-04T10:25:32.697Z</time></trkpt><trkpt lat="43.9331333" lon="11.7729567"><ele>751.1999999999999</ele><time>2026-04-04T10:25:33.697Z</time></trkpt><trkpt lat="43.93316" lon="11.7730633"><ele>751.0</ele><time>2026-04-04T10:25:34.697Z</time></trkpt><trkpt lat="43.9331633" lon="11.7731733"><ele>751.0</ele><time>2026-04-04T10:25:35.697Z</time></trkpt><trkpt lat="43.9331583" lon="11.7732683"><ele>751.0</ele><time>2026-04-04T10:25:36.697Z</time></trkpt><trkpt lat="43.933125" lon="11.7733433"><ele>751.0</ele><time>2026-04-04T10:25:37.698Z</time></trkpt><trkpt lat="43.9330467" lon="11.7733933"><ele>751.0</ele><time>2026-04-04T10:25:38.698Z</time></trkpt><trkpt lat="43.9329617" lon="11.7734517"><ele>751.0</ele><time>2026-04-04T10:25:39.698Z</time></trkpt><trkpt lat="43.9328617" lon="11.7734917"><ele>751.0</ele><time>2026-04-04T10:25:40.698Z</time></trkpt><trkpt lat="43.9327567" lon="11.7735217"><ele>751.0</ele><time>2026-04-04T10:25:41.697Z</time></trkpt><trkpt lat="43.9326583" lon="11.7735267"><ele>751.0</ele><time>2026-04-04T10:25:42.698Z</time></trkpt><trkpt lat="43.9325633" lon="11.773515"><ele>751.0</ele><time>2026-04-04T10:25:43.698Z</time></trkpt><trkpt lat="43.9324683" lon="11.7734767"><ele>751.0</ele><time>2026-04-04T10:25:44.697Z</time></trkpt><trkpt lat="43.9323717" lon="11.7734167"><ele>751.0</ele><time>2026-04-04T10:25:45.698Z</time></trkpt><trkpt lat="43.9322767" lon="11.773335"><ele>753.5</ele><time>2026-04-04T10:25:46.697Z</time></trkpt><trkpt lat="43.9321917" lon="11.7732633"><ele>756.0</ele><time>2026-04-04T10:25:47.698Z</time></trkpt><trkpt lat="43.9321133" lon="11.773145"><ele>758.5</ele><time>2026-04-04T10:25:48.698Z</time></trkpt><trkpt lat="43.932045" lon="11.7730167"><ele>761.0</ele><time>2026-04-04T10:25:49.698Z</time></trkpt><trkpt lat="43.9319783" lon="11.7728783"><ele>761.0</ele><time>2026-04-04T10:25:50.698Z</time></trkpt><trkpt lat="43.9319267" lon="11.77277"><ele>761.0</ele><time>2026-04-04T10:25:51.697Z</time></trkpt><trkpt lat="43.9318717" lon="11.7726517"><ele>761.0</ele><time>2026-04-04T10:25:52.697Z</time></trkpt><trkpt lat="43.93182" lon="11.772545"><ele>761.0</ele><time>2026-04-04T10:25:53.698Z</time></trkpt><trkpt lat="43.9317833" lon="11.772425"><ele>761.0</ele><time>2026-04-04T10:25:54.698Z</time></trkpt><trkpt lat="43.931745" lon="11.77231"><ele>763.0</ele><time>2026-04-04T10:25:55.697Z</time></trkpt><trkpt lat="43.9316967" lon="11.7721933"><ele>765.0</ele><time>2026-04-04T10:25:56.698Z</time></trkpt><trkpt lat="43.93165" lon="11.7720983"><ele>767.0</ele><time>2026-04-04T10:25:57.698Z</time></trkpt><trkpt lat="43.93159" lon="11.7720217"><ele>769.0</ele><time>2026-04-04T10:25:58.698Z</time></trkpt><trkpt lat="43.931505" lon="11.77197"><ele>771.0000000000001</ele><time>2026-04-04T10:25:59.698Z</time></trkpt><trkpt lat="43.9314117" lon="11.7719483"><ele>773.0</ele><time>2026-04-04T10:26:00.697Z</time></trkpt><trkpt lat="43.9313167" lon="11.7719317"><ele>773.0</ele><time>2026-04-04T10:26:01.697Z</time></trkpt><trkpt lat="43.9312083" lon="11.771905"><ele>773.0</ele><time>2026-04-04T10:26:02.698Z</time></trkpt><trkpt lat="43.9311067" lon="11.7718817"><ele>773.0</ele><time>2026-04-04T10:26:03.697Z</time></trkpt><trkpt lat="43.9310083" lon="11.7718467"><ele>773.0</ele><time>2026-04-04T10:26:04.697Z</time></trkpt><trkpt lat="43.930915" lon="11.77183"><ele>773.0</ele><time>2026-04-04T10:26:05.698Z</time></trkpt><trkpt lat="43.9308333" lon="11.771815"><ele>773.3333333333334</ele><time>2026-04-04T10:26:06.697Z</time></trkpt><trkpt lat="43.9307633" lon="11.7718117"><ele>773.6666666666667</ele><time>2026-04-04T10:26:07.697Z</time></trkpt><trkpt lat="43.930685" lon="11.7718233"><ele>774.0</ele><time>2026-04-04T10:26:08.697Z</time></trkpt><trkpt lat="43.9306" lon="11.7718133"><ele>774.3333333333333</ele><time>2026-04-04T10:26:09.697Z</time></trkpt><trkpt lat="43.9305133" lon="11.7717917"><ele>774.6666666666666</ele><time>2026-04-04T10:26:10.697Z</time></trkpt><trkpt lat="43.9304317" lon="11.7717533"><ele>775.0</ele><time>2026-04-04T10:26:11.697Z</time></trkpt><trkpt lat="43.9303533" lon="11.7717017"><ele>775.0</ele><time>2026-04-04T10:26:12.697Z</time></trkpt><trkpt lat="43.930285" lon="11.7716133"><ele>775.0</ele><time>2026-04-04T10:26:13.697Z</time></trkpt><trkpt lat="43.93025" lon="11.7714883"><ele>775.0</ele><time>2026-04-04T10:26:14.697Z</time></trkpt><trkpt lat="43.9302367" lon="11.771335"><ele>775.0</ele><time>2026-04-04T10:26:15.697Z</time></trkpt><trkpt lat="43.93024" lon="11.771165"><ele>775.0</ele><time>2026-04-04T10:26:16.697Z</time></trkpt><trkpt lat="43.9302567" lon="11.770985"><ele>770.8</ele><time>2026-04-04T10:26:17.698Z</time></trkpt><trkpt lat="43.930285" lon="11.770805"><ele>766.6</ele><time>2026-04-04T10:26:18.697Z</time></trkpt><trkpt lat="43.93027" lon="11.7706583"><ele>762.4000000000001</ele><time>2026-04-04T10:26:19.698Z</time></trkpt><trkpt lat="43.9302517" lon="11.7705133"><ele>758.2</ele><time>2026-04-04T10:26:20.698Z</time></trkpt><trkpt lat="43.9302267" lon="11.770375"><ele>754.0</ele><time>2026-04-04T10:26:21.697Z</time></trkpt><trkpt lat="43.930175" lon="11.7702517"><ele>751.0</ele><time>2026-04-04T10:26:22.697Z</time></trkpt><trkpt lat="43.9301133" lon="11.7701383"><ele>748.0</ele><time>2026-04-04T10:26:23.697Z</time></trkpt><trkpt lat="43.9300317" lon="11.7700233"><ele>745.0</ele><time>2026-04-04T10:26:24.697Z</time></trkpt><trkpt lat="43.9299533" lon="11.769905"><ele>742.0</ele><time>2026-04-04T10:26:25.698Z</time></trkpt><trkpt lat="43.929875" lon="11.7697883"><ele>739.0</ele><time>2026-04-04T10:26:26.697Z</time></trkpt><trkpt lat="43.9298017" lon="11.7696833"><ele>747.1666666666667</ele><time>2026-04-04T10:26:27.697Z</time></trkpt><trkpt lat="43.9297383" lon="11.769585"><ele>755.3333333333334</ele><time>2026-04-04T10:26:28.697Z</time></trkpt><trkpt lat="43.929681" lon="11.7695202"><ele>763.5</ele><time>2026-04-04T10:26:29.697Z</time></trkpt><trkpt lat="43.9296239" lon="11.7694744"><ele>771.6666666666667</ele><time>2026-04-04T10:26:30.698Z</time></trkpt><trkpt lat="43.9295529" lon="11.769461"><ele>779.8333333333334</ele><time>2026-04-04T10:26:31.698Z</time></trkpt><trkpt lat="43.9294634" lon="11.7694776"><ele>788.0</ele><time>2026-04-04T10:26:32.697Z</time></trkpt><trkpt lat="43.9293645" lon="11.7695169"><ele>788.0</ele><time>2026-04-04T10:26:33.697Z</time></trkpt><trkpt lat="43.9292588" lon="11.7695726"><ele>788.0</ele><time>2026-04-04T10:26:34.697Z</time></trkpt><trkpt lat="43.9291518" lon="11.7696274"><ele>788.0</ele><time>2026-04-04T10:26:35.697Z</time></trkpt><trkpt lat="43.9290513" lon="11.7696748"><ele>788.0</ele><time>2026-04-04T10:26:36.697Z</time></trkpt><trkpt lat="43.9289556" lon="11.769719"><ele>788.0</ele><time>2026-04-04T10:26:37.697Z</time></trkpt><trkpt lat="43.9288662" lon="11.769757"><ele>792.2</ele><time>2026-04-04T10:26:38.697Z</time></trkpt><trkpt lat="43.9287736" lon="11.769791"><ele>796.4</ele><time>2026-04-04T10:26:39.698Z</time></trkpt><trkpt lat="43.9286798" lon="11.7698315"><ele>800.6</ele><time>2026-04-04T10:26:40.698Z</time></trkpt><trkpt lat="43.9285814" lon="11.7698843"><ele>804.8000000000001</ele><time>2026-04-04T10:26:41.697Z</time></trkpt><trkpt lat="43.9284851" lon="11.7699314"><ele>809.0</ele><time>2026-04-04T10:26:42.697Z</time></trkpt><trkpt lat="43.9283872" lon="11.7699747"><ele>810.6</ele><time>2026-04-04T10:26:43.698Z</time></trkpt><trkpt lat="43.9282809" lon="11.7700108"><ele>812.2</ele><time>2026-04-04T10:26:44.697Z</time></trkpt><trkpt lat="43.9281728" lon="11.7700317"><ele>813.8000000000001</ele><time>2026-04-04T10:26:45.698Z</time></trkpt><trkpt lat="43.9280728" lon="11.7700306"><ele>815.4000000000001</ele><time>2026-04-04T10:26:46.697Z</time></trkpt><trkpt lat="43.9279763" lon="11.7699998"><ele>817.0</ele><time>2026-04-04T10:26:47.697Z</time></trkpt><trkpt lat="43.9278777" lon="11.7699632"><ele>817.0</ele><time>2026-04-04T10:26:48.697Z</time></trkpt><trkpt lat="43.9277614" lon="11.7699066"><ele>817.0</ele><time>2026-04-04T10:26:49.697Z</time></trkpt><trkpt lat="43.9276462" lon="11.769846"><ele>817.0</ele><time>2026-04-04T10:26:50.697Z</time></trkpt><trkpt lat="43.9275369" lon="11.7697861"><ele>817.0</ele><time>2026-04-04T10:26:51.697Z</time></trkpt><trkpt lat="43.9274389" lon="11.7697274"><ele>820.0</ele><time>2026-04-04T10:26:52.696Z</time></trkpt><trkpt lat="43.9273556" lon="11.7696833"><ele>823.0</ele><time>2026-04-04T10:26:53.697Z</time></trkpt><trkpt lat="43.9272675" lon="11.7696597"><ele>826.0</ele><time>2026-04-04T10:26:54.697Z</time></trkpt><trkpt lat="43.9271722" lon="11.7696517"><ele>829.0</ele><time>2026-04-04T10:26:55.696Z</time></trkpt><trkpt lat="43.927078" lon="11.7696595"><ele>832.0</ele><time>2026-04-04T10:26:56.696Z</time></trkpt><trkpt lat="43.9269793" lon="11.7696831"><ele>832.0</ele><time>2026-04-04T10:26:57.696Z</time></trkpt><trkpt lat="43.9268786" lon="11.7697083"><ele>832.0</ele><time>2026-04-04T10:26:58.697Z</time></trkpt><trkpt lat="43.9267788" lon="11.7697247"><ele>832.0</ele><time>2026-04-04T10:26:59.697Z</time></trkpt><trkpt lat="43.9266784" lon="11.7697089"><ele>832.0</ele><time>2026-04-04T10:27:00.696Z</time></trkpt><trkpt lat="43.926576" lon="11.7696459"><ele>832.0</ele><time>2026-04-04T10:27:01.696Z</time></trkpt><trkpt lat="43.92649" lon="11.7695533"><ele>829.0</ele><time>2026-04-04T10:27:02.696Z</time></trkpt><trkpt lat="43.9264017" lon="11.76946"><ele>826.0</ele><time>2026-04-04T10:27:03.696Z</time></trkpt><trkpt lat="43.9263167" lon="11.7693633"><ele>823.0</ele><time>2026-04-04T10:27:04.696Z</time></trkpt><trkpt lat="43.92623" lon="11.7692683"><ele>820.0</ele><time>2026-04-04T10:27:05.696Z</time></trkpt><trkpt lat="43.9261517" lon="11.7691967"><ele>817.0</ele><time>2026-04-04T10:27:06.697Z</time></trkpt><trkpt lat="43.9260683" lon="11.7691717"><ele>817.0</ele><time>2026-04-04T10:27:07.696Z</time></trkpt><trkpt lat="43.925975" lon="11.769195"><ele>817.0</ele><time>2026-04-04T10:27:08.696Z</time></trkpt><trkpt lat="43.9258683" lon="11.7692417"><ele>817.0</ele><time>2026-04-04T10:27:09.697Z</time></trkpt><trkpt lat="43.9257667" lon="11.769295"><ele>817.0</ele><time>2026-04-04T10:27:10.697Z</time></trkpt><trkpt lat="43.9256717" lon="11.7693467"><ele>817.0</ele><time>2026-04-04T10:27:11.696Z</time></trkpt><trkpt lat="43.925595" lon="11.7693983"><ele>826.5</ele><time>2026-04-04T10:27:12.697Z</time></trkpt><trkpt lat="43.9255367" lon="11.7695067"><ele>836.0</ele><time>2026-04-04T10:27:13.696Z</time></trkpt><trkpt lat="43.92548" lon="11.7696383"><ele>845.5</ele><time>2026-04-04T10:27:14.697Z</time></trkpt><trkpt lat="43.9254483" lon="11.7698017"><ele>855.0</ele><time>2026-04-04T10:27:15.696Z</time></trkpt><trkpt lat="43.925415" lon="11.76999"><ele>855.0</ele><time>2026-04-04T10:27:16.697Z</time></trkpt><trkpt lat="43.9253817" lon="11.77015"><ele>855.0</ele><time>2026-04-04T10:27:17.696Z</time></trkpt><trkpt lat="43.9253433" lon="11.77029"><ele>855.0</ele><time>2026-04-04T10:27:18.696Z</time></trkpt><trkpt lat="43.9253033" lon="11.7704183"><ele>855.0</ele><time>2026-04-04T10:27:19.696Z</time></trkpt><trkpt lat="43.9252667" lon="11.77051"><ele>855.0</ele><time>2026-04-04T10:27:20.696Z</time></trkpt><trkpt lat="43.925215" lon="11.7705717"><ele>854.8333333333334</ele><time>2026-04-04T10:27:21.696Z</time></trkpt><trkpt lat="43.9251633" lon="11.7706417"><ele>854.6666666666667</ele><time>2026-04-04T10:27:22.696Z</time></trkpt><trkpt lat="43.92509" lon="11.7706967"><ele>854.5</ele><time>2026-04-04T10:27:23.697Z</time></trkpt><trkpt lat="43.92503" lon="11.7707467"><ele>854.3333333333334</ele><time>2026-04-04T10:27:24.697Z</time></trkpt><trkpt lat="43.9249517" lon="11.7707983"><ele>854.1666666666667</ele><time>2026-04-04T10:27:25.697Z</time></trkpt><trkpt lat="43.9248833" lon="11.7708617"><ele>854.0</ele><time>2026-04-04T10:27:26.696Z</time></trkpt><trkpt lat="43.9248133" lon="11.7709333"><ele>854.0000000000001</ele><time>2026-04-04T10:27:27.697Z</time></trkpt><trkpt lat="43.92474" lon="11.7709967"><ele>854.0</ele><time>2026-04-04T10:27:28.696Z</time></trkpt><trkpt lat="43.9246633" lon="11.771055"><ele>854.0</ele><time>2026-04-04T10:27:29.697Z</time></trkpt><trkpt lat="43.9245983" lon="11.7711133"><ele>854.0</ele><time>2026-04-04T10:27:30.696Z</time></trkpt><trkpt lat="43.92453" lon="11.77118"><ele>854.0000000000001</ele><time>2026-04-04T10:27:31.697Z</time></trkpt><trkpt lat="43.9244767" lon="11.7712367"><ele>854.0</ele><time>2026-04-04T10:27:32.696Z</time></trkpt><trkpt lat="43.9244283" lon="11.7713617"><ele>857.8000000000001</ele><time>2026-04-04T10:27:34.697Z</time></trkpt><trkpt lat="43.9245183" lon="11.7713967"><ele>861.6000000000001</ele><time>2026-04-04T10:27:36.696Z</time></trkpt><trkpt lat="43.9245825" lon="11.7713837"><ele>865.4</ele><time>2026-04-04T10:27:37.697Z</time></trkpt><trkpt lat="43.9246689" lon="11.7713311"><ele>869.2</ele><time>2026-04-04T10:27:38.697Z</time></trkpt><trkpt lat="43.9247866" lon="11.7712485"><ele>873.0</ele><time>2026-04-04T10:27:39.696Z</time></trkpt><trkpt lat="43.9249081" lon="11.7711874"><ele>873.0</ele><time>2026-04-04T10:27:40.696Z</time></trkpt><trkpt lat="43.9250228" lon="11.7711381"><ele>873.0</ele><time>2026-04-04T10:27:41.696Z</time></trkpt><trkpt lat="43.9251299" lon="11.7711061"><ele>873.0</ele><time>2026-04-04T10:27:42.696Z</time></trkpt><trkpt lat="43.9252228" lon="11.7710846"><ele>873.0</ele><time>2026-04-04T10:27:43.696Z</time></trkpt><trkpt lat="43.9252963" lon="11.7710681"><ele>873.0</ele><time>2026-04-04T10:27:44.697Z</time></trkpt><trkpt lat="43.9254136" lon="11.7710517"><ele>872.8</ele><time>2026-04-04T10:27:46.696Z</time></trkpt><trkpt lat="43.9254786" lon="11.7710226"><ele>872.5999999999999</ele><time>2026-04-04T10:27:47.697Z</time></trkpt><trkpt lat="43.9255683" lon="11.7709167"><ele>872.4000000000001</ele><time>2026-04-04T10:27:48.697Z</time></trkpt><trkpt lat="43.9256333" lon="11.7708233"><ele>872.2</ele><time>2026-04-04T10:27:49.696Z</time></trkpt><trkpt lat="43.92571" lon="11.7707217"><ele>872.0</ele><time>2026-04-04T10:27:50.696Z</time></trkpt><trkpt lat="43.925775" lon="11.770625"><ele>872.0000000000001</ele><time>2026-04-04T10:27:51.697Z</time></trkpt><trkpt lat="43.9258417" lon="11.77055"><ele>872.0</ele><time>2026-04-04T10:27:52.697Z</time></trkpt><trkpt lat="43.925915" lon="11.7704967"><ele>872.0</ele><time>2026-04-04T10:27:53.696Z</time></trkpt><trkpt lat="43.926" lon="11.7704683"><ele>872.0</ele><time>2026-04-04T10:27:54.697Z</time></trkpt><trkpt lat="43.92609" lon="11.7704683"><ele>872.0000000000001</ele><time>2026-04-04T10:27:55.697Z</time></trkpt><trkpt lat="43.9261833" lon="11.770505"><ele>872.0</ele><time>2026-04-04T10:27:56.696Z</time></trkpt><trkpt lat="43.92628" lon="11.7705517"><ele>872.2</ele><time>2026-04-04T10:27:57.697Z</time></trkpt><trkpt lat="43.9263867" lon="11.7706183"><ele>872.4000000000001</ele><time>2026-04-04T10:27:58.696Z</time></trkpt><trkpt lat="43.92648" lon="11.7707033"><ele>872.5999999999999</ele><time>2026-04-04T10:27:59.696Z</time></trkpt><trkpt lat="43.9265633" lon="11.77082"><ele>872.8</ele><time>2026-04-04T10:28:00.696Z</time></trkpt><trkpt lat="43.9266267" lon="11.7709117"><ele>873.0</ele><time>2026-04-04T10:28:01.697Z</time></trkpt><trkpt lat="43.9266667" lon="11.77098"><ele>876.0</ele><time>2026-04-04T10:28:02.696Z</time></trkpt><trkpt lat="43.926685" lon="11.7710683"><ele>879.0</ele><time>2026-04-04T10:28:03.696Z</time></trkpt><trkpt lat="43.9266833" lon="11.771235"><ele>882.0</ele><time>2026-04-04T10:28:05.697Z</time></trkpt><trkpt lat="43.92662" lon="11.7713917"><ele>885.0</ele><time>2026-04-04T10:28:07.696Z</time></trkpt><trkpt lat="43.9265367" lon="11.771535"><ele>888.0</ele><time>2026-04-04T10:28:09.697Z</time></trkpt><trkpt lat="43.9264733" lon="11.7716"><ele>888.0</ele><time>2026-04-04T10:28:10.696Z</time></trkpt><trkpt lat="43.926405" lon="11.7716667"><ele>888.0</ele><time>2026-04-04T10:28:11.696Z</time></trkpt><trkpt lat="43.9263333" lon="11.7717417"><ele>888.0</ele><time>2026-04-04T10:28:12.697Z</time></trkpt><trkpt lat="43.9262633" lon="11.7718267"><ele>888.0</ele><time>2026-04-04T10:28:13.697Z</time></trkpt><trkpt lat="43.9261817" lon="11.7719083"><ele>888.0</ele><time>2026-04-04T10:28:14.697Z</time></trkpt><trkpt lat="43.9260967" lon="11.7720117"><ele>889.4</ele><time>2026-04-04T10:28:15.696Z</time></trkpt><trkpt lat="43.926015" lon="11.7721117"><ele>890.8</ele><time>2026-04-04T10:28:16.696Z</time></trkpt><trkpt lat="43.9259317" lon="11.7721983"><ele>892.2</ele><time>2026-04-04T10:28:17.696Z</time></trkpt><trkpt lat="43.9258383" lon="11.7722767"><ele>893.6</ele><time>2026-04-04T10:28:18.696Z</time></trkpt><trkpt lat="43.9257417" lon="11.7723567"><ele>895.0</ele><time>2026-04-04T10:28:19.696Z</time></trkpt><trkpt lat="43.9256367" lon="11.7724317"><ele>895.0</ele><time>2026-04-04T10:28:20.697Z</time></trkpt><trkpt lat="43.9255483" lon="11.7724983"><ele>895.0</ele><time>2026-04-04T10:28:21.696Z</time></trkpt><trkpt lat="43.9254667" lon="11.7725667"><ele>895.0</ele><time>2026-04-04T10:28:22.696Z</time></trkpt><trkpt lat="43.9253783" lon="11.7726383"><ele>895.0</ele><time>2026-04-04T10:28:23.697Z</time></trkpt><trkpt lat="43.9252917" lon="11.7727167"><ele>895.0</ele><time>2026-04-04T10:28:24.697Z</time></trkpt><trkpt lat="43.9252067" lon="11.7727933"><ele>896.4</ele><time>2026-04-04T10:28:25.697Z</time></trkpt><trkpt lat="43.9251117" lon="11.772875"><ele>897.8</ele><time>2026-04-04T10:28:26.696Z</time></trkpt><trkpt lat="43.9250083" lon="11.77296"><ele>899.2</ele><time>2026-04-04T10:28:27.697Z</time></trkpt><trkpt lat="43.92492" lon="11.7730583"><ele>900.6</ele><time>2026-04-04T10:28:28.696Z</time></trkpt><trkpt lat="43.924845" lon="11.7731567"><ele>902.0</ele><time>2026-04-04T10:28:29.696Z</time></trkpt><trkpt lat="43.9247867" lon="11.77325"><ele>902.0</ele><time>2026-04-04T10:28:30.697Z</time></trkpt><trkpt lat="43.92474" lon="11.773335"><ele>902.0</ele><time>2026-04-04T10:28:31.696Z</time></trkpt><trkpt lat="43.9247333" lon="11.7734933"><ele>902.0</ele><time>2026-04-04T10:28:33.696Z</time></trkpt><trkpt lat="43.924795" lon="11.7736367"><ele>902.0</ele><time>2026-04-04T10:28:35.696Z</time></trkpt><trkpt lat="43.9248983" lon="11.773715"><ele>902.0</ele><time>2026-04-04T10:28:37.696Z</time></trkpt><trkpt lat="43.92502" lon="11.7737233"><ele>906.8</ele><time>2026-04-04T10:28:39.696Z</time></trkpt><trkpt lat="43.9251033" lon="11.7736933"><ele>911.6</ele><time>2026-04-04T10:28:40.697Z</time></trkpt><trkpt lat="43.9252067" lon="11.7736633"><ele>916.3999999999999</ele><time>2026-04-04T10:28:41.697Z</time></trkpt><trkpt lat="43.9253117" lon="11.7736417"><ele>921.1999999999999</ele><time>2026-04-04T10:28:42.697Z</time></trkpt><trkpt lat="43.92544" lon="11.7736067"><ele>926.0</ele><time>2026-04-04T10:28:43.696Z</time></trkpt><trkpt lat="43.9255567" lon="11.7735633"><ele>926.0</ele><time>2026-04-04T10:28:44.696Z</time></trkpt><trkpt lat="43.9256833" lon="11.773525"><ele>926.0</ele><time>2026-04-04T10:28:45.697Z</time></trkpt><trkpt lat="43.9258183" lon="11.7734883"><ele>926.0</ele><time>2026-04-04T10:28:46.696Z</time></trkpt><trkpt lat="43.9259717" lon="11.7734533"><ele>926.0</ele><time>2026-04-04T10:28:47.696Z</time></trkpt><trkpt lat="43.9261267" lon="11.77342"><ele>924.1999999999999</ele><time>2026-04-04T10:28:48.697Z</time></trkpt><trkpt lat="43.9262767" lon="11.7733733"><ele>922.3999999999999</ele><time>2026-04-04T10:28:49.697Z</time></trkpt><trkpt lat="43.9263883" lon="11.7733567"><ele>920.6</ele><time>2026-04-04T10:28:50.697Z</time></trkpt><trkpt lat="43.9264767" lon="11.7733767"><ele>918.8</ele><time>2026-04-04T10:28:51.697Z</time></trkpt><trkpt lat="43.9265483" lon="11.7734033"><ele>917.0</ele><time>2026-04-04T10:28:52.696Z</time></trkpt><trkpt lat="43.9266033" lon="11.7734633"><ele>919.6666666666667</ele><time>2026-04-04T10:28:53.697Z</time></trkpt><trkpt lat="43.92664" lon="11.7735567"><ele>922.3333333333334</ele><time>2026-04-04T10:28:54.697Z</time></trkpt><trkpt lat="43.9266533" lon="11.77367"><ele>925.0</ele><time>2026-04-04T10:28:55.696Z</time></trkpt><trkpt lat="43.926635" lon="11.7737833"><ele>927.6666666666667</ele><time>2026-04-04T10:28:56.697Z</time></trkpt><trkpt lat="43.9266033" lon="11.7738883"><ele>930.3333333333334</ele><time>2026-04-04T10:28:57.696Z</time></trkpt><trkpt lat="43.9265583" lon="11.773965"><ele>933.0</ele><time>2026-04-04T10:28:58.697Z</time></trkpt><trkpt lat="43.9264967" lon="11.7740117"><ele>933.0</ele><time>2026-04-04T10:28:59.696Z</time></trkpt><trkpt lat="43.9264217" lon="11.7740567"><ele>933.0</ele><time>2026-04-04T10:29:00.696Z</time></trkpt><trkpt lat="43.92634" lon="11.7740933"><ele>933.0</ele><time>2026-04-04T10:29:01.697Z</time></trkpt><trkpt lat="43.9262567" lon="11.7741333"><ele>933.0</ele><time>2026-04-04T10:29:02.696Z</time></trkpt><trkpt lat="43.926175" lon="11.77418"><ele>933.0</ele><time>2026-04-04T10:29:03.696Z</time></trkpt><trkpt lat="43.9260917" lon="11.7742267"><ele>933.0</ele><time>2026-04-04T10:29:04.697Z</time></trkpt><trkpt lat="43.9260067" lon="11.7742867"><ele>935.8</ele><time>2026-04-04T10:29:05.696Z</time></trkpt><trkpt lat="43.9259233" lon="11.774355"><ele>938.5999999999999</ele><time>2026-04-04T10:29:06.697Z</time></trkpt><trkpt lat="43.9258417" lon="11.7744333"><ele>941.4000000000001</ele><time>2026-04-04T10:29:07.696Z</time></trkpt><trkpt lat="43.9257583" lon="11.77451"><ele>944.2</ele><time>2026-04-04T10:29:08.696Z</time></trkpt><trkpt lat="43.9256733" lon="11.774585"><ele>947.0</ele><time>2026-04-04T10:29:09.696Z</time></trkpt><trkpt lat="43.92558" lon="11.7746567"><ele>947.0</ele><time>2026-04-04T10:29:10.696Z</time></trkpt><trkpt lat="43.9254783" lon="11.7747233"><ele>947.0</ele><time>2026-04-04T10:29:11.696Z</time></trkpt><trkpt lat="43.92538" lon="11.7747733"><ele>947.0</ele><time>2026-04-04T10:29:12.697Z</time></trkpt><trkpt lat="43.9252717" lon="11.77481"><ele>947.0</ele><time>2026-04-04T10:29:13.696Z</time></trkpt><trkpt lat="43.92517" lon="11.7748283"><ele>947.0</ele><time>2026-04-04T10:29:14.696Z</time></trkpt><trkpt lat="43.9250633" lon="11.7748417"><ele>947.5000000000001</ele><time>2026-04-04T10:29:15.696Z</time></trkpt><trkpt lat="43.9249633" lon="11.77483"><ele>948.0</ele><time>2026-04-04T10:29:16.697Z</time></trkpt><trkpt lat="43.92488" lon="11.7748133"><ele>948.5</ele><time>2026-04-04T10:29:17.697Z</time></trkpt><trkpt lat="43.9247983" lon="11.77478"><ele>949.0</ele><time>2026-04-04T10:29:18.696Z</time></trkpt><trkpt lat="43.924715" lon="11.77473"><ele>949.5000000000001</ele><time>2026-04-04T10:29:19.696Z</time></trkpt><trkpt lat="43.92465" lon="11.7746483"><ele>950.0</ele><time>2026-04-04T10:29:20.696Z</time></trkpt><trkpt lat="43.9245783" lon="11.7745533"><ele>950.0</ele><time>2026-04-04T10:29:21.697Z</time></trkpt><trkpt lat="43.9245167" lon="11.7744917"><ele>950.0</ele><time>2026-04-04T10:29:22.697Z</time></trkpt><trkpt lat="43.924445" lon="11.7744333"><ele>950.0</ele><time>2026-04-04T10:29:23.696Z</time></trkpt><trkpt lat="43.9243567" lon="11.7744117"><ele>950.0</ele><time>2026-04-04T10:29:24.697Z</time></trkpt><trkpt lat="43.9242567" lon="11.7744283"><ele>950.0</ele><time>2026-04-04T10:29:25.696Z</time></trkpt><trkpt lat="43.9241417" lon="11.774455"><ele>954.75</ele><time>2026-04-04T10:29:26.696Z</time></trkpt><trkpt lat="43.924015" lon="11.7745017"><ele>959.5</ele><time>2026-04-04T10:29:27.696Z</time></trkpt><trkpt lat="43.92388" lon="11.7745467"><ele>964.25</ele><time>2026-04-04T10:29:28.696Z</time></trkpt><trkpt lat="43.9237617" lon="11.774595"><ele>969.0</ele><time>2026-04-04T10:29:29.696Z</time></trkpt><trkpt lat="43.92363" lon="11.7746333"><ele>969.0</ele><time>2026-04-04T10:29:30.696Z</time></trkpt><trkpt lat="43.92351" lon="11.7746717"><ele>969.0000000000001</ele><time>2026-04-04T10:29:31.696Z</time></trkpt><trkpt lat="43.923395" lon="11.7746883"><ele>969.0000000000001</ele><time>2026-04-04T10:29:32.696Z</time></trkpt><trkpt lat="43.9233" lon="11.77468"><ele>969.0</ele><time>2026-04-04T10:29:33.696Z</time></trkpt><trkpt lat="43.92323" lon="11.7746583"><ele>969.0</ele><time>2026-04-04T10:29:34.696Z</time></trkpt><trkpt lat="43.92317" lon="11.7746317"><ele>967.8000000000001</ele><time>2026-04-04T10:29:35.696Z</time></trkpt><trkpt lat="43.9230483" lon="11.77456"><ele>966.6000000000001</ele><time>2026-04-04T10:29:37.697Z</time></trkpt><trkpt lat="43.9229933" lon="11.7745133"><ele>965.4</ele><time>2026-04-04T10:29:38.696Z</time></trkpt><trkpt lat="43.9229267" lon="11.7744733"><ele>964.2</ele><time>2026-04-04T10:29:39.697Z</time></trkpt><trkpt lat="43.922855" lon="11.77444"><ele>963.0</ele><time>2026-04-04T10:29:40.697Z</time></trkpt><trkpt lat="43.9227433" lon="11.7744033"><ele>963.0</ele><time>2026-04-04T10:29:42.696Z</time></trkpt><trkpt lat="43.922645" lon="11.77446"><ele>963.0</ele><time>2026-04-04T10:29:44.696Z</time></trkpt><trkpt lat="43.9226183" lon="11.774615"><ele>963.0</ele><time>2026-04-04T10:29:46.697Z</time></trkpt><trkpt lat="43.922635" lon="11.774725"><ele>963.0</ele><time>2026-04-04T10:29:47.696Z</time></trkpt><trkpt lat="43.92266" lon="11.7748383"><ele>963.0</ele><time>2026-04-04T10:29:48.697Z</time></trkpt><trkpt lat="43.9226883" lon="11.7749533"><ele>963.0</ele><time>2026-04-04T10:29:49.696Z</time></trkpt><trkpt lat="43.9227133" lon="11.7750717"><ele>963.0</ele><time>2026-04-04T10:29:50.697Z</time></trkpt><trkpt lat="43.9227317" lon="11.7751783"><ele>963.0</ele><time>2026-04-04T10:29:51.697Z</time></trkpt><trkpt lat="43.9227517" lon="11.7752933"><ele>963.0</ele><time>2026-04-04T10:29:52.696Z</time></trkpt><trkpt lat="43.9227717" lon="11.77541"><ele>963.0</ele><time>2026-04-04T10:29:53.696Z</time></trkpt><trkpt lat="43.9228067" lon="11.7755133"><ele>963.0</ele><time>2026-04-04T10:29:54.696Z</time></trkpt><trkpt lat="43.9228667" lon="11.7755833"><ele>960.6666666666666</ele><time>2026-04-04T10:29:55.697Z</time></trkpt><trkpt lat="43.9229517" lon="11.7756033"><ele>958.3333333333333</ele><time>2026-04-04T10:29:56.696Z</time></trkpt><trkpt lat="43.9230283" lon="11.77562"><ele>956.0</ele><time>2026-04-04T10:29:57.696Z</time></trkpt><trkpt lat="43.9231133" lon="11.775625"><ele>953.6666666666666</ele><time>2026-04-04T10:29:58.697Z</time></trkpt><trkpt lat="43.9231867" lon="11.775635"><ele>951.3333333333333</ele><time>2026-04-04T10:29:59.697Z</time></trkpt><trkpt lat="43.92326" lon="11.7756617"><ele>949.0</ele><time>2026-04-04T10:30:00.697Z</time></trkpt><trkpt lat="43.9233417" lon="11.77571"><ele>951.8333333333333</ele><time>2026-04-04T10:30:01.696Z</time></trkpt><trkpt lat="43.9234217" lon="11.7757667"><ele>954.6666666666666</ele><time>2026-04-04T10:30:02.696Z</time></trkpt><trkpt lat="43.923485" lon="11.7758233"><ele>957.5</ele><time>2026-04-04T10:30:03.696Z</time></trkpt><trkpt lat="43.9235433" lon="11.7758817"><ele>960.3333333333333</ele><time>2026-04-04T10:30:04.697Z</time></trkpt><trkpt lat="43.9235967" lon="11.7759433"><ele>963.1666666666666</ele><time>2026-04-04T10:30:05.696Z</time></trkpt><trkpt lat="43.9236517" lon="11.7760083"><ele>966.0</ele><time>2026-04-04T10:30:06.696Z</time></trkpt><trkpt lat="43.92368" lon="11.77613"><ele>966.0</ele><time>2026-04-04T10:30:07.696Z</time></trkpt><trkpt lat="43.923705" lon="11.7762667"><ele>965.9999999999999</ele><time>2026-04-04T10:30:08.697Z</time></trkpt><trkpt lat="43.923745" lon="11.7763917"><ele>965.9999999999999</ele><time>2026-04-04T10:30:09.697Z</time></trkpt><trkpt lat="43.9237933" lon="11.7765133"><ele>966.0</ele><time>2026-04-04T10:30:10.697Z</time></trkpt><trkpt lat="43.9238383" lon="11.7766317"><ele>966.0</ele><time>2026-04-04T10:30:11.697Z</time></trkpt><trkpt lat="43.92387" lon="11.7767617"><ele>963.0</ele><time>2026-04-04T10:30:12.696Z</time></trkpt><trkpt lat="43.9238767" lon="11.7768933"><ele>959.9999999999999</ele><time>2026-04-04T10:30:13.696Z</time></trkpt><trkpt lat="43.923865" lon="11.7770383"><ele>956.9999999999999</ele><time>2026-04-04T10:30:14.696Z</time></trkpt><trkpt lat="43.9238433" lon="11.7771817"><ele>954.0</ele><time>2026-04-04T10:30:15.696Z</time></trkpt><trkpt lat="43.9238467" lon="11.7773433"><ele>951.0</ele><time>2026-04-04T10:30:16.697Z</time></trkpt><trkpt lat="43.9238433" lon="11.77752"><ele>951.0</ele><time>2026-04-04T10:30:17.696Z</time></trkpt><trkpt lat="43.923865" lon="11.7776767"><ele>951.0</ele><time>2026-04-04T10:30:18.697Z</time></trkpt><trkpt lat="43.923885" lon="11.7778467"><ele>951.0</ele><time>2026-04-04T10:30:19.697Z</time></trkpt><trkpt lat="43.9238983" lon="11.7780067"><ele>951.0</ele><time>2026-04-04T10:30:20.696Z</time></trkpt><trkpt lat="43.9239033" lon="11.7781783"><ele>948.4</ele><time>2026-04-04T10:30:21.696Z</time></trkpt><trkpt lat="43.9239067" lon="11.7783383"><ele>945.8</ele><time>2026-04-04T10:30:22.696Z</time></trkpt><trkpt lat="43.9238967" lon="11.7784833"><ele>943.1999999999999</ele><time>2026-04-04T10:30:23.697Z</time></trkpt><trkpt lat="43.9238817" lon="11.7786033"><ele>940.5999999999999</ele><time>2026-04-04T10:30:24.696Z</time></trkpt><trkpt lat="43.92385" lon="11.7787167"><ele>938.0</ele><time>2026-04-04T10:30:25.697Z</time></trkpt><trkpt lat="43.9238133" lon="11.7788117"><ele>935.8</ele><time>2026-04-04T10:30:26.697Z</time></trkpt><trkpt lat="43.9238017" lon="11.7789333"><ele>933.5999999999999</ele><time>2026-04-04T10:30:27.696Z</time></trkpt><trkpt lat="43.923815" lon="11.7790533"><ele>931.4000000000001</ele><time>2026-04-04T10:30:28.696Z</time></trkpt><trkpt lat="43.9238517" lon="11.7791983"><ele>929.2</ele><time>2026-04-04T10:30:29.696Z</time></trkpt><trkpt lat="43.9239217" lon="11.7793267"><ele>927.0</ele><time>2026-04-04T10:30:30.697Z</time></trkpt><trkpt lat="43.9239933" lon="11.7794333"><ele>924.8</ele><time>2026-04-04T10:30:31.696Z</time></trkpt><trkpt lat="43.9240667" lon="11.7795467"><ele>922.6</ele><time>2026-04-04T10:30:32.696Z</time></trkpt><trkpt lat="43.9241333" lon="11.779665"><ele>920.3999999999999</ele><time>2026-04-04T10:30:33.696Z</time></trkpt><trkpt lat="43.9241833" lon="11.7797667"><ele>918.1999999999999</ele><time>2026-04-04T10:30:34.696Z</time></trkpt><trkpt lat="43.9242083" lon="11.77988"><ele>916.0</ele><time>2026-04-04T10:30:35.696Z</time></trkpt><trkpt lat="43.92413" lon="11.780065"><ele>916.0</ele><time>2026-04-04T10:30:37.696Z</time></trkpt><trkpt lat="43.9240533" lon="11.7801517"><ele>915.9999999999999</ele><time>2026-04-04T10:30:38.697Z</time></trkpt><trkpt lat="43.9239617" lon="11.780245"><ele>915.9999999999999</ele><time>2026-04-04T10:30:39.697Z</time></trkpt><trkpt lat="43.9238717" lon="11.7803367"><ele>916.0</ele><time>2026-04-04T10:30:40.697Z</time></trkpt><trkpt lat="43.923795" lon="11.7804133"><ele>916.0</ele><time>2026-04-04T10:30:41.697Z</time></trkpt><trkpt lat="43.92375" lon="11.7804967"><ele>914.4999999999999</ele><time>2026-04-04T10:30:42.697Z</time></trkpt><trkpt lat="43.923735" lon="11.78059"><ele>913.0</ele><time>2026-04-04T10:30:43.696Z</time></trkpt><trkpt lat="43.9237517" lon="11.7806767"><ele>911.5</ele><time>2026-04-04T10:30:44.696Z</time></trkpt><trkpt lat="43.9237967" lon="11.7807417"><ele>910.0</ele><time>2026-04-04T10:30:45.696Z</time></trkpt><trkpt lat="43.9238567" lon="11.780815"><ele>908.4999999999999</ele><time>2026-04-04T10:30:46.696Z</time></trkpt><trkpt lat="43.9239317" lon="11.7808717"><ele>907.0</ele><time>2026-04-04T10:30:47.696Z</time></trkpt><trkpt lat="43.924015" lon="11.7809133"><ele>907.0</ele><time>2026-04-04T10:30:48.696Z</time></trkpt><trkpt lat="43.9241017" lon="11.7809583"><ele>907.0</ele><time>2026-04-04T10:30:49.697Z</time></trkpt><trkpt lat="43.9241867" lon="11.7810283"><ele>907.0</ele><time>2026-04-04T10:30:50.697Z</time></trkpt><trkpt lat="43.9242667" lon="11.7811367"><ele>907.0</ele><time>2026-04-04T10:30:51.697Z</time></trkpt><trkpt lat="43.9243517" lon="11.7812417"><ele>907.0</ele><time>2026-04-04T10:30:52.697Z</time></trkpt><trkpt lat="43.9244367" lon="11.7813383"><ele>907.6</ele><time>2026-04-04T10:30:53.696Z</time></trkpt><trkpt lat="43.92452" lon="11.781425"><ele>908.2</ele><time>2026-04-04T10:30:54.696Z</time></trkpt><trkpt lat="43.924605" lon="11.7815167"><ele>908.8</ele><time>2026-04-04T10:30:55.697Z</time></trkpt><trkpt lat="43.92468" lon="11.7816067"><ele>909.4</ele><time>2026-04-04T10:30:56.696Z</time></trkpt><trkpt lat="43.9247517" lon="11.7817083"><ele>910.0</ele><time>2026-04-04T10:30:57.696Z</time></trkpt><trkpt lat="43.924805" lon="11.78183"><ele>905.6</ele><time>2026-04-04T10:30:58.696Z</time></trkpt><trkpt lat="43.9248317" lon="11.7819633"><ele>901.2</ele><time>2026-04-04T10:30:59.696Z</time></trkpt><trkpt lat="43.9248317" lon="11.7821183"><ele>896.8</ele><time>2026-04-04T10:31:00.696Z</time></trkpt><trkpt lat="43.9248167" lon="11.7822767"><ele>892.4</ele><time>2026-04-04T10:31:01.697Z</time></trkpt><trkpt lat="43.9248" lon="11.7824283"><ele>888.0</ele><time>2026-04-04T10:31:02.696Z</time></trkpt><trkpt lat="43.9247967" lon="11.7825533"><ele>888.0</ele><time>2026-04-04T10:31:03.696Z</time></trkpt><trkpt lat="43.9248217" lon="11.7826483"><ele>888.0</ele><time>2026-04-04T10:31:04.697Z</time></trkpt><trkpt lat="43.9248683" lon="11.782715"><ele>888.0</ele><time>2026-04-04T10:31:05.696Z</time></trkpt><trkpt lat="43.924945" lon="11.7827317"><ele>888.0</ele><time>2026-04-04T10:31:06.696Z</time></trkpt><trkpt lat="43.925025" lon="11.782725"><ele>888.0</ele><time>2026-04-04T10:31:07.697Z</time></trkpt><trkpt lat="43.9251233" lon="11.782715"><ele>888.0</ele><time>2026-04-04T10:31:08.697Z</time></trkpt><trkpt lat="43.9252367" lon="11.782735"><ele>887.75</ele><time>2026-04-04T10:31:09.696Z</time></trkpt><trkpt lat="43.925355" lon="11.7827883"><ele>887.5</ele><time>2026-04-04T10:31:10.696Z</time></trkpt><trkpt lat="43.92546" lon="11.7828583"><ele>887.25</ele><time>2026-04-04T10:31:11.696Z</time></trkpt><trkpt lat="43.925555" lon="11.7829317"><ele>887.0</ele><time>2026-04-04T10:31:12.696Z</time></trkpt><trkpt lat="43.9256317" lon="11.7830217"><ele>887.0</ele><time>2026-04-04T10:31:13.697Z</time></trkpt><trkpt lat="43.925685" lon="11.7831317"><ele>887.0</ele><time>2026-04-04T10:31:14.696Z</time></trkpt><trkpt lat="43.92572" lon="11.7832617"><ele>887.0</ele><time>2026-04-04T10:31:15.697Z</time></trkpt><trkpt lat="43.9257417" lon="11.7833833"><ele>887.0</ele><time>2026-04-04T10:31:16.696Z</time></trkpt><trkpt lat="43.925745" lon="11.7835133"><ele>887.0</ele><time>2026-04-04T10:31:17.696Z</time></trkpt><trkpt lat="43.92571" lon="11.78362"><ele>886.0</ele><time>2026-04-04T10:31:18.696Z</time></trkpt><trkpt lat="43.92566" lon="11.7837367"><ele>885.0</ele><time>2026-04-04T10:31:19.696Z</time></trkpt><trkpt lat="43.925585" lon="11.78383"><ele>884.0</ele><time>2026-04-04T10:31:20.696Z</time></trkpt><trkpt lat="43.92551" lon="11.783925"><ele>883.0</ele><time>2026-04-04T10:31:21.697Z</time></trkpt><trkpt lat="43.92543" lon="11.78402"><ele>882.0</ele><time>2026-04-04T10:31:22.696Z</time></trkpt><trkpt lat="43.92534" lon="11.7841367"><ele>882.0</ele><time>2026-04-04T10:31:23.696Z</time></trkpt><trkpt lat="43.92526" lon="11.784255"><ele>882.0</ele><time>2026-04-04T10:31:24.696Z</time></trkpt><trkpt lat="43.92518" lon="11.78438"><ele>882.0</ele><time>2026-04-04T10:31:25.697Z</time></trkpt><trkpt lat="43.925085" lon="11.7844967"><ele>882.0</ele><time>2026-04-04T10:31:26.697Z</time></trkpt><trkpt lat="43.9249917" lon="11.78461"><ele>875.2</ele><time>2026-04-04T10:31:27.696Z</time></trkpt><trkpt lat="43.924895" lon="11.784705"><ele>868.4000000000001</ele><time>2026-04-04T10:31:28.696Z</time></trkpt><trkpt lat="43.9248067" lon="11.7847933"><ele>861.5999999999999</ele><time>2026-04-04T10:31:29.696Z</time></trkpt><trkpt lat="43.92472" lon="11.78486"><ele>854.8</ele><time>2026-04-04T10:31:30.697Z</time></trkpt><trkpt lat="43.92464" lon="11.7848817"><ele>848.0</ele><time>2026-04-04T10:31:31.696Z</time></trkpt><trkpt lat="43.9245667" lon="11.7848583"><ele>848.0000000000001</ele><time>2026-04-04T10:31:32.697Z</time></trkpt><trkpt lat="43.9244967" lon="11.784795"><ele>848.0</ele><time>2026-04-04T10:31:33.696Z</time></trkpt><trkpt lat="43.9244417" lon="11.7847083"><ele>848.0</ele><time>2026-04-04T10:31:34.696Z</time></trkpt><trkpt lat="43.9243883" lon="11.78463"><ele>848.0</ele><time>2026-04-04T10:31:35.696Z</time></trkpt><trkpt lat="43.9243183" lon="11.7845783"><ele>848.0000000000001</ele><time>2026-04-04T10:31:36.697Z</time></trkpt><trkpt lat="43.9242267" lon="11.7845467"><ele>848.0</ele><time>2026-04-04T10:31:37.697Z</time></trkpt><trkpt lat="43.9241217" lon="11.784555"><ele>849.0</ele><time>2026-04-04T10:31:38.696Z</time></trkpt><trkpt lat="43.924015" lon="11.7845733"><ele>850.0</ele><time>2026-04-04T10:31:39.697Z</time></trkpt><trkpt lat="43.9239033" lon="11.78459"><ele>851.0</ele><time>2026-04-04T10:31:40.696Z</time></trkpt><trkpt lat="43.9237933" lon="11.7846267"><ele>852.0</ele><time>2026-04-04T10:31:41.696Z</time></trkpt><trkpt lat="43.923685" lon="11.78468"><ele>853.0</ele><time>2026-04-04T10:31:42.697Z</time></trkpt><trkpt lat="43.9235767" lon="11.784735"><ele>853.0</ele><time>2026-04-04T10:31:43.696Z</time></trkpt><trkpt lat="43.9234667" lon="11.7848"><ele>853.0</ele><time>2026-04-04T10:31:44.696Z</time></trkpt><trkpt lat="43.9233583" lon="11.7848767"><ele>853.0</ele><time>2026-04-04T10:31:45.697Z</time></trkpt><trkpt lat="43.9232633" lon="11.78498"><ele>853.0</ele><time>2026-04-04T10:31:46.696Z</time></trkpt><trkpt lat="43.9231817" lon="11.78507"><ele>851.4</ele><time>2026-04-04T10:31:47.697Z</time></trkpt><trkpt lat="43.923115" lon="11.7851767"><ele>849.8</ele><time>2026-04-04T10:31:48.696Z</time></trkpt><trkpt lat="43.92307" lon="11.7852883"><ele>848.2</ele><time>2026-04-04T10:31:49.697Z</time></trkpt><trkpt lat="43.9230567" lon="11.7854267"><ele>846.6</ele><time>2026-04-04T10:31:50.696Z</time></trkpt><trkpt lat="43.923055" lon="11.7855583"><ele>845.0</ele><time>2026-04-04T10:31:51.697Z</time></trkpt><trkpt lat="43.923035" lon="11.78567"><ele>845.0000000000001</ele><time>2026-04-04T10:31:52.696Z</time></trkpt><trkpt lat="43.922985" lon="11.78578"><ele>845.0</ele><time>2026-04-04T10:31:53.696Z</time></trkpt><trkpt lat="43.9229233" lon="11.7858617"><ele>845.0</ele><time>2026-04-04T10:31:54.696Z</time></trkpt><trkpt lat="43.922855" lon="11.785945"><ele>845.0</ele><time>2026-04-04T10:31:55.697Z</time></trkpt><trkpt lat="43.9228117" lon="11.7860317"><ele>845.0000000000001</ele><time>2026-04-04T10:31:56.697Z</time></trkpt><trkpt lat="43.9228067" lon="11.7861467"><ele>845.0</ele><time>2026-04-04T10:31:57.697Z</time></trkpt><trkpt lat="43.9228283" lon="11.786255"><ele>840.8333333333334</ele><time>2026-04-04T10:31:58.696Z</time></trkpt><trkpt lat="43.9228783" lon="11.7863417"><ele>836.6666666666667</ele><time>2026-04-04T10:31:59.697Z</time></trkpt><trkpt lat="43.9229567" lon="11.7864017"><ele>832.5</ele><time>2026-04-04T10:32:00.696Z</time></trkpt><trkpt lat="43.92305" lon="11.786435"><ele>828.3333333333333</ele><time>2026-04-04T10:32:01.697Z</time></trkpt><trkpt lat="43.9231433" lon="11.7864333"><ele>824.1666666666666</ele><time>2026-04-04T10:32:02.697Z</time></trkpt><trkpt lat="43.9232317" lon="11.7864383"><ele>820.0</ele><time>2026-04-04T10:32:03.696Z</time></trkpt><trkpt lat="43.9233117" lon="11.7864433"><ele>820.0</ele><time>2026-04-04T10:32:04.697Z</time></trkpt><trkpt lat="43.923385" lon="11.7864117"><ele>820.0</ele><time>2026-04-04T10:32:05.696Z</time></trkpt><trkpt lat="43.92344" lon="11.7863417"><ele>820.0</ele><time>2026-04-04T10:32:06.696Z</time></trkpt><trkpt lat="43.923515" lon="11.7862417"><ele>820.0</ele><time>2026-04-04T10:32:07.696Z</time></trkpt><trkpt lat="43.9235967" lon="11.7861333"><ele>820.0</ele><time>2026-04-04T10:32:08.696Z</time></trkpt><trkpt lat="43.92368" lon="11.7860267"><ele>820.6666666666666</ele><time>2026-04-04T10:32:09.697Z</time></trkpt><trkpt lat="43.9237517" lon="11.78592"><ele>821.3333333333333</ele><time>2026-04-04T10:32:10.697Z</time></trkpt><trkpt lat="43.92381" lon="11.7858167"><ele>822.0</ele><time>2026-04-04T10:32:11.696Z</time></trkpt><trkpt lat="43.9238667" lon="11.7857267"><ele>822.6666666666667</ele><time>2026-04-04T10:32:12.697Z</time></trkpt><trkpt lat="43.9239217" lon="11.7856533"><ele>823.3333333333334</ele><time>2026-04-04T10:32:13.696Z</time></trkpt><trkpt lat="43.9239917" lon="11.7856267"><ele>824.0</ele><time>2026-04-04T10:32:14.696Z</time></trkpt><trkpt lat="43.9240683" lon="11.7856217"><ele>824.0</ele><time>2026-04-04T10:32:15.696Z</time></trkpt><trkpt lat="43.9241617" lon="11.785625"><ele>824.0</ele><time>2026-04-04T10:32:16.697Z</time></trkpt><trkpt lat="43.9242617" lon="11.7856067"><ele>824.0</ele><time>2026-04-04T10:32:17.696Z</time></trkpt><trkpt lat="43.9243633" lon="11.785575"><ele>824.0</ele><time>2026-04-04T10:32:18.696Z</time></trkpt><trkpt lat="43.9244633" lon="11.7855483"><ele>824.0</ele><time>2026-04-04T10:32:19.696Z</time></trkpt><trkpt lat="43.92457" lon="11.7855317"><ele>824.0</ele><time>2026-04-04T10:32:20.696Z</time></trkpt><trkpt lat="43.9246683" lon="11.7855367"><ele>824.0</ele><time>2026-04-04T10:32:21.697Z</time></trkpt><trkpt lat="43.92478" lon="11.7855383"><ele>824.0</ele><time>2026-04-04T10:32:22.697Z</time></trkpt><trkpt lat="43.9248983" lon="11.7855533"><ele>824.0</ele><time>2026-04-04T10:32:23.697Z</time></trkpt><trkpt lat="43.925015" lon="11.7855633"><ele>824.0</ele><time>2026-04-04T10:32:24.696Z</time></trkpt><trkpt lat="43.9251267" lon="11.7855633"><ele>824.0000000000001</ele><time>2026-04-04T10:32:25.696Z</time></trkpt><trkpt lat="43.9252267" lon="11.7855783"><ele>824.0</ele><time>2026-04-04T10:32:26.697Z</time></trkpt><trkpt lat="43.9253083" lon="11.7856033"><ele>824.0</ele><time>2026-04-04T10:32:27.696Z</time></trkpt><trkpt lat="43.92538" lon="11.78565"><ele>824.0</ele><time>2026-04-04T10:32:28.696Z</time></trkpt><trkpt lat="43.9254267" lon="11.78573"><ele>824.0000000000001</ele><time>2026-04-04T10:32:29.696Z</time></trkpt><trkpt lat="43.9254717" lon="11.78583"><ele>824.0</ele><time>2026-04-04T10:32:30.696Z</time></trkpt><trkpt lat="43.9255167" lon="11.7859167"><ele>824.0000000000001</ele><time>2026-04-04T10:32:31.696Z</time></trkpt><trkpt lat="43.925575" lon="11.7859983"><ele>824.0</ele><time>2026-04-04T10:32:32.696Z</time></trkpt><trkpt lat="43.9256383" lon="11.7860733"><ele>824.0</ele><time>2026-04-04T10:32:33.696Z</time></trkpt><trkpt lat="43.925695" lon="11.7861417"><ele>824.0</ele><time>2026-04-04T10:32:34.696Z</time></trkpt><trkpt lat="43.9257567" lon="11.7861967"><ele>824.0000000000001</ele><time>2026-04-04T10:32:35.696Z</time></trkpt><trkpt lat="43.9258183" lon="11.78624"><ele>824.0</ele><time>2026-04-04T10:32:36.697Z</time></trkpt><trkpt lat="43.9259" lon="11.7862583"><ele>820.6666666666667</ele><time>2026-04-04T10:32:37.696Z</time></trkpt><trkpt lat="43.925985" lon="11.7862417"><ele>817.3333333333334</ele><time>2026-04-04T10:32:38.696Z</time></trkpt><trkpt lat="43.9260717" lon="11.78621"><ele>814.0</ele><time>2026-04-04T10:32:39.697Z</time></trkpt><trkpt lat="43.9261617" lon="11.7861833"><ele>810.6666666666667</ele><time>2026-04-04T10:32:40.697Z</time></trkpt><trkpt lat="43.9262467" lon="11.786195"><ele>807.3333333333334</ele><time>2026-04-04T10:32:41.697Z</time></trkpt><trkpt lat="43.9263283" lon="11.7862317"><ele>804.0</ele><time>2026-04-04T10:32:42.696Z</time></trkpt><trkpt lat="43.92639" lon="11.78631"><ele>804.0</ele><time>2026-04-04T10:32:43.696Z</time></trkpt><trkpt lat="43.9264667" lon="11.7864117"><ele>804.0</ele><time>2026-04-04T10:32:44.696Z</time></trkpt><trkpt lat="43.9265283" lon="11.7865317"><ele>804.0</ele><time>2026-04-04T10:32:45.696Z</time></trkpt><trkpt lat="43.9265817" lon="11.7866533"><ele>804.0</ele><time>2026-04-04T10:32:46.697Z</time></trkpt><trkpt lat="43.926615" lon="11.78676"><ele>804.0</ele><time>2026-04-04T10:32:47.697Z</time></trkpt><trkpt lat="43.92665" lon="11.7868717"><ele>802.8000000000001</ele><time>2026-04-04T10:32:48.697Z</time></trkpt><trkpt lat="43.9266833" lon="11.78696"><ele>801.6</ele><time>2026-04-04T10:32:49.696Z</time></trkpt><trkpt lat="43.9267517" lon="11.7871"><ele>800.4</ele><time>2026-04-04T10:32:51.696Z</time></trkpt><trkpt lat="43.9268517" lon="11.7872217"><ele>799.2</ele><time>2026-04-04T10:32:53.697Z</time></trkpt><trkpt lat="43.9269183" lon="11.7873017"><ele>798.0</ele><time>2026-04-04T10:32:54.696Z</time></trkpt><trkpt lat="43.9269967" lon="11.7873733"><ele>798.0</ele><time>2026-04-04T10:32:55.697Z</time></trkpt><trkpt lat="43.9270783" lon="11.7874383"><ele>798.0</ele><time>2026-04-04T10:32:56.697Z</time></trkpt><trkpt lat="43.9271633" lon="11.7874967"><ele>798.0</ele><time>2026-04-04T10:32:57.696Z</time></trkpt><trkpt lat="43.9272567" lon="11.7875383"><ele>798.0</ele><time>2026-04-04T10:32:58.696Z</time></trkpt><trkpt lat="43.927355" lon="11.7875517"><ele>798.0</ele><time>2026-04-04T10:32:59.696Z</time></trkpt><trkpt lat="43.9274417" lon="11.7875633"><ele>798.0</ele><time>2026-04-04T10:33:00.696Z</time></trkpt><trkpt lat="43.9275033" lon="11.7875917"><ele>798.0</ele><time>2026-04-04T10:33:01.696Z</time></trkpt><trkpt lat="43.927555" lon="11.7876533"><ele>798.0</ele><time>2026-04-04T10:33:02.696Z</time></trkpt><trkpt lat="43.9275983" lon="11.787795"><ele>798.0</ele><time>2026-04-04T10:33:04.697Z</time></trkpt><trkpt lat="43.92757" lon="11.7879533"><ele>798.0</ele><time>2026-04-04T10:33:06.696Z</time></trkpt><trkpt lat="43.9274917" lon="11.78804"><ele>798.4</ele><time>2026-04-04T10:33:07.696Z</time></trkpt><trkpt lat="43.927405" lon="11.7881167"><ele>798.8</ele><time>2026-04-04T10:33:08.697Z</time></trkpt><trkpt lat="43.927315" lon="11.7882017"><ele>799.2</ele><time>2026-04-04T10:33:09.696Z</time></trkpt><trkpt lat="43.9272183" lon="11.78829"><ele>799.6</ele><time>2026-04-04T10:33:10.696Z</time></trkpt><trkpt lat="43.927115" lon="11.788375"><ele>800.0</ele><time>2026-04-04T10:33:11.696Z</time></trkpt><trkpt lat="43.9269983" lon="11.788465"><ele>799.5</ele><time>2026-04-04T10:33:12.696Z</time></trkpt><trkpt lat="43.9268867" lon="11.7885467"><ele>799.0</ele><time>2026-04-04T10:33:13.697Z</time></trkpt><trkpt lat="43.9267617" lon="11.7886167"><ele>798.5</ele><time>2026-04-04T10:33:14.697Z</time></trkpt><trkpt lat="43.9266433" lon="11.7886833"><ele>798.0</ele><time>2026-04-04T10:33:15.696Z</time></trkpt><trkpt lat="43.926525" lon="11.78874"><ele>798.0</ele><time>2026-04-04T10:33:16.696Z</time></trkpt><trkpt lat="43.926405" lon="11.7887867"><ele>798.0</ele><time>2026-04-04T10:33:17.697Z</time></trkpt><trkpt lat="43.9262933" lon="11.7888383"><ele>798.0</ele><time>2026-04-04T10:33:18.696Z</time></trkpt><trkpt lat="43.9261817" lon="11.78889"><ele>798.0</ele><time>2026-04-04T10:33:19.697Z</time></trkpt><trkpt lat="43.9260783" lon="11.7889483"><ele>798.0</ele><time>2026-04-04T10:33:20.696Z</time></trkpt><trkpt lat="43.925985" lon="11.7890267"><ele>798.0</ele><time>2026-04-04T10:33:21.696Z</time></trkpt><trkpt lat="43.9258917" lon="11.7891217"><ele>798.0</ele><time>2026-04-04T10:33:22.696Z</time></trkpt><trkpt lat="43.9258233" lon="11.7892183"><ele>798.0</ele><time>2026-04-04T10:33:23.697Z</time></trkpt><trkpt lat="43.925755" lon="11.7893133"><ele>798.0</ele><time>2026-04-04T10:33:24.696Z</time></trkpt><trkpt lat="43.9257017" lon="11.78941"><ele>794.8</ele><time>2026-04-04T10:33:25.696Z</time></trkpt><trkpt lat="43.9256533" lon="11.7895133"><ele>791.5999999999999</ele><time>2026-04-04T10:33:26.696Z</time></trkpt><trkpt lat="43.925615" lon="11.7896383"><ele>788.4000000000001</ele><time>2026-04-04T10:33:27.696Z</time></trkpt><trkpt lat="43.9255883" lon="11.78979"><ele>785.2</ele><time>2026-04-04T10:33:28.697Z</time></trkpt><trkpt lat="43.9255617" lon="11.7899383"><ele>782.0</ele><time>2026-04-04T10:33:29.697Z</time></trkpt><trkpt lat="43.925515" lon="11.7900583"><ele>782.0000000000001</ele><time>2026-04-04T10:33:30.697Z</time></trkpt><trkpt lat="43.9254567" lon="11.7901633"><ele>782.0</ele><time>2026-04-04T10:33:31.696Z</time></trkpt><trkpt lat="43.925395" lon="11.7902483"><ele>782.0</ele><time>2026-04-04T10:33:32.696Z</time></trkpt><trkpt lat="43.9253183" lon="11.790315"><ele>782.0</ele><time>2026-04-04T10:33:33.697Z</time></trkpt><trkpt lat="43.9252467" lon="11.790385"><ele>782.0000000000001</ele><time>2026-04-04T10:33:34.696Z</time></trkpt><trkpt lat="43.925195" lon="11.7904567"><ele>782.0</ele><time>2026-04-04T10:33:35.696Z</time></trkpt><trkpt lat="43.925175" lon="11.7905517"><ele>781.2</ele><time>2026-04-04T10:33:36.697Z</time></trkpt><trkpt lat="43.9252017" lon="11.7906783"><ele>780.4000000000001</ele><time>2026-04-04T10:33:37.696Z</time></trkpt><trkpt lat="43.9252683" lon="11.7908033"><ele>779.5999999999999</ele><time>2026-04-04T10:33:38.696Z</time></trkpt><trkpt lat="43.9253333" lon="11.79093"><ele>778.8</ele><time>2026-04-04T10:33:39.697Z</time></trkpt><trkpt lat="43.9253817" lon="11.7910583"><ele>778.0</ele><time>2026-04-04T10:33:40.697Z</time></trkpt><trkpt lat="43.9254067" lon="11.79119"><ele>778.0</ele><time>2026-04-04T10:33:41.696Z</time></trkpt><trkpt lat="43.925395" lon="11.7913317"><ele>778.0</ele><time>2026-04-04T10:33:42.696Z</time></trkpt><trkpt lat="43.92536" lon="11.791495"><ele>778.0</ele><time>2026-04-04T10:33:43.696Z</time></trkpt><trkpt lat="43.9253067" lon="11.7916633"><ele>778.0</ele><time>2026-04-04T10:33:44.697Z</time></trkpt><trkpt lat="43.9252583" lon="11.79183"><ele>772.75</ele><time>2026-04-04T10:33:45.697Z</time></trkpt><trkpt lat="43.9251967" lon="11.7919867"><ele>767.5</ele><time>2026-04-04T10:33:46.697Z</time></trkpt><trkpt lat="43.925125" lon="11.792135"><ele>762.25</ele><time>2026-04-04T10:33:47.697Z</time></trkpt><trkpt lat="43.9250667" lon="11.7922667"><ele>757.0</ele><time>2026-04-04T10:33:48.697Z</time></trkpt><trkpt lat="43.9250183" lon="11.792375"><ele>754.8</ele><time>2026-04-04T10:33:49.696Z</time></trkpt><trkpt lat="43.924995" lon="11.792485"><ele>752.6</ele><time>2026-04-04T10:33:50.696Z</time></trkpt><trkpt lat="43.9249967" lon="11.7926117"><ele>750.4</ele><time>2026-04-04T10:33:51.696Z</time></trkpt><trkpt lat="43.9250367" lon="11.79275"><ele>748.1999999999999</ele><time>2026-04-04T10:33:52.697Z</time></trkpt><trkpt lat="43.9251067" lon="11.7928567"><ele>746.0</ele><time>2026-04-04T10:33:53.697Z</time></trkpt><trkpt lat="43.9251733" lon="11.7929267"><ele>745.8333333333333</ele><time>2026-04-04T10:33:54.696Z</time></trkpt><trkpt lat="43.9252383" lon="11.79297"><ele>745.6666666666666</ele><time>2026-04-04T10:33:55.697Z</time></trkpt><trkpt lat="43.9253167" lon="11.792975"><ele>745.5</ele><time>2026-04-04T10:33:56.697Z</time></trkpt><trkpt lat="43.9253883" lon="11.792955"><ele>745.3333333333334</ele><time>2026-04-04T10:33:57.696Z</time></trkpt><trkpt lat="43.9254567" lon="11.7928967"><ele>745.1666666666667</ele><time>2026-04-04T10:33:58.696Z</time></trkpt><trkpt lat="43.9255167" lon="11.79281"><ele>745.0</ele><time>2026-04-04T10:33:59.696Z</time></trkpt><trkpt lat="43.9255817" lon="11.792715"><ele>747.4</ele><time>2026-04-04T10:34:00.697Z</time></trkpt><trkpt lat="43.9256383" lon="11.7926117"><ele>749.8</ele><time>2026-04-04T10:34:01.697Z</time></trkpt><trkpt lat="43.925695" lon="11.7925317"><ele>752.2</ele><time>2026-04-04T10:34:02.697Z</time></trkpt><trkpt lat="43.925755" lon="11.792485"><ele>754.6</ele><time>2026-04-04T10:34:03.696Z</time></trkpt><trkpt lat="43.9258917" lon="11.7924817"><ele>757.0</ele><time>2026-04-04T10:34:05.696Z</time></trkpt><trkpt lat="43.925965" lon="11.79252"><ele>758.4000000000001</ele><time>2026-04-04T10:34:06.697Z</time></trkpt><trkpt lat="43.9260217" lon="11.7925967"><ele>759.8000000000001</ele><time>2026-04-04T10:34:07.697Z</time></trkpt><trkpt lat="43.9260683" lon="11.792675"><ele>761.2</ele><time>2026-04-04T10:34:08.697Z</time></trkpt><trkpt lat="43.926085" lon="11.792835"><ele>762.6</ele><time>2026-04-04T10:34:10.696Z</time></trkpt><trkpt lat="43.9260317" lon="11.7930033"><ele>764.0</ele><time>2026-04-04T10:34:12.696Z</time></trkpt><trkpt lat="43.925975" lon="11.7931067"><ele>764.0</ele><time>2026-04-04T10:34:13.697Z</time></trkpt><trkpt lat="43.9259217" lon="11.7932317"><ele>764.0</ele><time>2026-04-04T10:34:14.696Z</time></trkpt><trkpt lat="43.9258617" lon="11.7933483"><ele>764.0</ele><time>2026-04-04T10:34:15.696Z</time></trkpt><trkpt lat="43.9257917" lon="11.7934517"><ele>764.0</ele><time>2026-04-04T10:34:16.696Z</time></trkpt><trkpt lat="43.9257117" lon="11.79354"><ele>764.0</ele><time>2026-04-04T10:34:17.696Z</time></trkpt><trkpt lat="43.9256217" lon="11.79361"><ele>762.6</ele><time>2026-04-04T10:34:18.697Z</time></trkpt><trkpt lat="43.9255417" lon="11.7936767"><ele>761.2</ele><time>2026-04-04T10:34:19.696Z</time></trkpt><trkpt lat="43.9254567" lon="11.7937333"><ele>759.8000000000001</ele><time>2026-04-04T10:34:20.697Z</time></trkpt><trkpt lat="43.9253583" lon="11.793785"><ele>758.4000000000001</ele><time>2026-04-04T10:34:21.696Z</time></trkpt><trkpt lat="43.92526" lon="11.7938383"><ele>757.0</ele><time>2026-04-04T10:34:22.697Z</time></trkpt><trkpt lat="43.925175" lon="11.7938833"><ele>757.0</ele><time>2026-04-04T10:34:23.697Z</time></trkpt><trkpt lat="43.92509" lon="11.7939233"><ele>757.0</ele><time>2026-04-04T10:34:24.696Z</time></trkpt><trkpt lat="43.9250067" lon="11.7939517"><ele>757.0</ele><time>2026-04-04T10:34:25.697Z</time></trkpt><trkpt lat="43.924915" lon="11.7939567"><ele>757.0</ele><time>2026-04-04T10:34:26.696Z</time></trkpt><trkpt lat="43.9248233" lon="11.793965"><ele>757.0</ele><time>2026-04-04T10:34:27.696Z</time></trkpt><trkpt lat="43.92474" lon="11.79396"><ele>757.0</ele><time>2026-04-04T10:34:28.697Z</time></trkpt><trkpt lat="43.92466" lon="11.7939283"><ele>755.0</ele><time>2026-04-04T10:34:29.696Z</time></trkpt><trkpt lat="43.9245867" lon="11.79386"><ele>753.0</ele><time>2026-04-04T10:34:30.696Z</time></trkpt><trkpt lat="43.9245083" lon="11.79377"><ele>751.0</ele><time>2026-04-04T10:34:31.696Z</time></trkpt><trkpt lat="43.9244067" lon="11.7936783"><ele>749.0</ele><time>2026-04-04T10:34:32.696Z</time></trkpt><trkpt lat="43.9242933" lon="11.7935817"><ele>747.0</ele><time>2026-04-04T10:34:33.696Z</time></trkpt><trkpt lat="43.9241817" lon="11.793475"><ele>743.0</ele><time>2026-04-04T10:34:34.696Z</time></trkpt><trkpt lat="43.9240833" lon="11.7933717"><ele>739.0</ele><time>2026-04-04T10:34:35.696Z</time></trkpt><trkpt lat="43.92399" lon="11.79327"><ele>735.0</ele><time>2026-04-04T10:34:36.696Z</time></trkpt><trkpt lat="43.9238983" lon="11.7931733"><ele>731.0</ele><time>2026-04-04T10:34:37.697Z</time></trkpt><trkpt lat="43.9238217" lon="11.7930733"><ele>731.0</ele><time>2026-04-04T10:34:38.696Z</time></trkpt><trkpt lat="43.92375" lon="11.7929683"><ele>731.0</ele><time>2026-04-04T10:34:39.696Z</time></trkpt><trkpt lat="43.92367" lon="11.7928633"><ele>731.0</ele><time>2026-04-04T10:34:40.696Z</time></trkpt><trkpt lat="43.9235867" lon="11.792775"><ele>731.0</ele><time>2026-04-04T10:34:41.696Z</time></trkpt><trkpt lat="43.9235067" lon="11.792695"><ele>731.0</ele><time>2026-04-04T10:34:42.697Z</time></trkpt><trkpt lat="43.923425" lon="11.7926217"><ele>727.5999999999999</ele><time>2026-04-04T10:34:43.696Z</time></trkpt><trkpt lat="43.92332" lon="11.7925967"><ele>724.2</ele><time>2026-04-04T10:34:44.697Z</time></trkpt><trkpt lat="43.9232083" lon="11.792585"><ele>720.8</ele><time>2026-04-04T10:34:45.696Z</time></trkpt><trkpt lat="43.9231033" lon="11.7925683"><ele>717.4000000000001</ele><time>2026-04-04T10:34:46.697Z</time></trkpt><trkpt lat="43.92302" lon="11.7925483"><ele>714.0</ele><time>2026-04-04T10:34:47.696Z</time></trkpt><trkpt lat="43.9229367" lon="11.7925217"><ele>714.0</ele><time>2026-04-04T10:34:48.697Z</time></trkpt><trkpt lat="43.9228517" lon="11.7925"><ele>714.0</ele><time>2026-04-04T10:34:49.697Z</time></trkpt><trkpt lat="43.92276" lon="11.792485"><ele>714.0</ele><time>2026-04-04T10:34:50.697Z</time></trkpt><trkpt lat="43.9226717" lon="11.7924633"><ele>714.0</ele><time>2026-04-04T10:34:51.697Z</time></trkpt><trkpt lat="43.9225783" lon="11.7924383"><ele>714.0</ele><time>2026-04-04T10:34:52.696Z</time></trkpt><trkpt lat="43.9224917" lon="11.792415"><ele>713.8333333333334</ele><time>2026-04-04T10:34:53.696Z</time></trkpt><trkpt lat="43.9224117" lon="11.7924017"><ele>713.6666666666666</ele><time>2026-04-04T10:34:54.697Z</time></trkpt><trkpt lat="43.9223267" lon="11.7923883"><ele>713.5</ele><time>2026-04-04T10:34:55.697Z</time></trkpt><trkpt lat="43.9222467" lon="11.7923633"><ele>713.3333333333333</ele><time>2026-04-04T10:34:56.696Z</time></trkpt><trkpt lat="43.9221583" lon="11.7923317"><ele>713.1666666666666</ele><time>2026-04-04T10:34:57.697Z</time></trkpt><trkpt lat="43.9220817" lon="11.792275"><ele>713.0</ele><time>2026-04-04T10:34:58.696Z</time></trkpt><trkpt lat="43.9220167" lon="11.7922167"><ele>713.0</ele><time>2026-04-04T10:34:59.697Z</time></trkpt><trkpt lat="43.9219117" lon="11.7921283"><ele>713.0</ele><time>2026-04-04T10:35:01.697Z</time></trkpt><trkpt lat="43.92183" lon="11.7920533"><ele>713.0</ele><time>2026-04-04T10:35:03.697Z</time></trkpt><trkpt lat="43.92175" lon="11.791985"><ele>713.0</ele><time>2026-04-04T10:35:05.696Z</time></trkpt><trkpt lat="43.9216483" lon="11.7918883"><ele>713.0</ele><time>2026-04-04T10:35:07.697Z</time></trkpt><trkpt lat="43.9215983" lon="11.7918317"><ele>711.0</ele><time>2026-04-04T10:35:08.696Z</time></trkpt><trkpt lat="43.9215383" lon="11.791775"><ele>709.0</ele><time>2026-04-04T10:35:09.696Z</time></trkpt><trkpt lat="43.921465" lon="11.7917267"><ele>707.0</ele><time>2026-04-04T10:35:10.696Z</time></trkpt><trkpt lat="43.9213917" lon="11.7916733"><ele>705.0</ele><time>2026-04-04T10:35:11.696Z</time></trkpt><trkpt lat="43.921315" lon="11.7916283"><ele>703.0</ele><time>2026-04-04T10:35:12.697Z</time></trkpt><trkpt lat="43.92124" lon="11.7915667"><ele>701.0</ele><time>2026-04-04T10:35:13.697Z</time></trkpt><trkpt lat="43.9211567" lon="11.791485"><ele>701.0</ele><time>2026-04-04T10:35:14.697Z</time></trkpt><trkpt lat="43.9210733" lon="11.7914067"><ele>701.0</ele><time>2026-04-04T10:35:15.696Z</time></trkpt><trkpt lat="43.9209917" lon="11.7913367"><ele>701.0</ele><time>2026-04-04T10:35:16.696Z</time></trkpt><trkpt lat="43.9209133" lon="11.7912783"><ele>701.0</ele><time>2026-04-04T10:35:17.696Z</time></trkpt><trkpt lat="43.92084" lon="11.7912667"><ele>701.0</ele><time>2026-04-04T10:35:18.695Z</time></trkpt><trkpt lat="43.920765" lon="11.7912817"><ele>701.0</ele><time>2026-04-04T10:35:19.696Z</time></trkpt><trkpt lat="43.920675" lon="11.7913283"><ele>701.5999999999999</ele><time>2026-04-04T10:35:20.695Z</time></trkpt><trkpt lat="43.920595" lon="11.791405"><ele>702.2</ele><time>2026-04-04T10:35:21.695Z</time></trkpt><trkpt lat="43.92052" lon="11.791475"><ele>702.8</ele><time>2026-04-04T10:35:22.696Z</time></trkpt><trkpt lat="43.9204367" lon="11.7915283"><ele>703.4000000000001</ele><time>2026-04-04T10:35:23.695Z</time></trkpt><trkpt lat="43.9203517" lon="11.791565"><ele>704.0</ele><time>2026-04-04T10:35:24.696Z</time></trkpt><trkpt lat="43.92027" lon="11.7916033"><ele>704.0</ele><time>2026-04-04T10:35:25.695Z</time></trkpt><trkpt lat="43.9201983" lon="11.7916333"><ele>704.0</ele><time>2026-04-04T10:35:26.695Z</time></trkpt><trkpt lat="43.9201217" lon="11.7916667"><ele>704.0</ele><time>2026-04-04T10:35:27.696Z</time></trkpt><trkpt lat="43.9200617" lon="11.7916933"><ele>704.0</ele><time>2026-04-04T10:35:28.695Z</time></trkpt><trkpt lat="43.9200033" lon="11.79173"><ele>704.0</ele><time>2026-04-04T10:35:29.695Z</time></trkpt><trkpt lat="43.9199133" lon="11.79178"><ele>704.0</ele><time>2026-04-04T10:35:31.695Z</time></trkpt><trkpt lat="43.9198167" lon="11.79176"><ele>702.6</ele><time>2026-04-04T10:35:33.695Z</time></trkpt><trkpt lat="43.9197683" lon="11.7916717"><ele>701.2</ele><time>2026-04-04T10:35:35.695Z</time></trkpt><trkpt lat="43.9197583" lon="11.7914567"><ele>699.8000000000001</ele><time>2026-04-04T10:35:37.696Z</time></trkpt><trkpt lat="43.9197367" lon="11.7913067"><ele>698.4000000000001</ele><time>2026-04-04T10:35:38.695Z</time></trkpt><trkpt lat="43.9196983" lon="11.791175"><ele>697.0</ele><time>2026-04-04T10:35:39.696Z</time></trkpt><trkpt lat="43.9196283" lon="11.791065"><ele>693.25</ele><time>2026-04-04T10:35:40.696Z</time></trkpt><trkpt lat="43.9195267" lon="11.7909717"><ele>689.5</ele><time>2026-04-04T10:35:41.695Z</time></trkpt><trkpt lat="43.919405" lon="11.7908967"><ele>685.75</ele><time>2026-04-04T10:35:42.695Z</time></trkpt><trkpt lat="43.9192683" lon="11.7908183"><ele>682.0</ele><time>2026-04-04T10:35:43.695Z</time></trkpt><trkpt lat="43.91914" lon="11.790745"><ele>682.0</ele><time>2026-04-04T10:35:44.696Z</time></trkpt><trkpt lat="43.9190233" lon="11.7906633"><ele>682.0</ele><time>2026-04-04T10:35:45.695Z</time></trkpt><trkpt lat="43.9189267" lon="11.790595"><ele>682.0</ele><time>2026-04-04T10:35:46.695Z</time></trkpt><trkpt lat="43.91883" lon="11.7905533"><ele>682.0</ele><time>2026-04-04T10:35:47.695Z</time></trkpt><trkpt lat="43.918725" lon="11.7905217"><ele>682.0</ele><time>2026-04-04T10:35:48.696Z</time></trkpt><trkpt lat="43.9186233" lon="11.7905167"><ele>682.0</ele><time>2026-04-04T10:35:49.696Z</time></trkpt><trkpt lat="43.9185117" lon="11.790485"><ele>682.0</ele><time>2026-04-04T10:35:50.696Z</time></trkpt><trkpt lat="43.9184083" lon="11.79043"><ele>682.0</ele><time>2026-04-04T10:35:51.695Z</time></trkpt><trkpt lat="43.91831" lon="11.7903417"><ele>682.0</ele><time>2026-04-04T10:35:52.695Z</time></trkpt><trkpt lat="43.9182283" lon="11.79023"><ele>677.6666666666667</ele><time>2026-04-04T10:35:53.695Z</time></trkpt><trkpt lat="43.9181533" lon="11.7901267"><ele>673.3333333333334</ele><time>2026-04-04T10:35:54.695Z</time></trkpt><trkpt lat="43.91808" lon="11.7900267"><ele>669.0</ele><time>2026-04-04T10:35:55.696Z</time></trkpt><trkpt lat="43.9180067" lon="11.7899333"><ele>664.6666666666666</ele><time>2026-04-04T10:35:56.695Z</time></trkpt><trkpt lat="43.91794" lon="11.7899117"><ele>660.3333333333333</ele><time>2026-04-04T10:35:57.695Z</time></trkpt><trkpt lat="43.917875" lon="11.78994"><ele>656.0</ele><time>2026-04-04T10:35:58.695Z</time></trkpt><trkpt lat="43.9178083" lon="11.79004"><ele>656.0</ele><time>2026-04-04T10:35:59.695Z</time></trkpt><trkpt lat="43.9177583" lon="11.7901417"><ele>656.0</ele><time>2026-04-04T10:36:00.696Z</time></trkpt><trkpt lat="43.9177133" lon="11.7902533"><ele>656.0</ele><time>2026-04-04T10:36:01.695Z</time></trkpt><trkpt lat="43.9176583" lon="11.790345"><ele>656.0</ele><time>2026-04-04T10:36:02.696Z</time></trkpt><trkpt lat="43.9175933" lon="11.790405"><ele>656.0</ele><time>2026-04-04T10:36:03.696Z</time></trkpt><trkpt lat="43.9175083" lon="11.7904283"><ele>656.0</ele><time>2026-04-04T10:36:04.696Z</time></trkpt><trkpt lat="43.9174267" lon="11.7903967"><ele>655.8333333333333</ele><time>2026-04-04T10:36:05.696Z</time></trkpt><trkpt lat="43.9173567" lon="11.790345"><ele>655.6666666666666</ele><time>2026-04-04T10:36:06.696Z</time></trkpt><trkpt lat="43.9173033" lon="11.7902733"><ele>655.5</ele><time>2026-04-04T10:36:07.696Z</time></trkpt><trkpt lat="43.9172717" lon="11.790175"><ele>655.3333333333334</ele><time>2026-04-04T10:36:08.696Z</time></trkpt><trkpt lat="43.9172417" lon="11.7900483"><ele>655.1666666666667</ele><time>2026-04-04T10:36:09.695Z</time></trkpt><trkpt lat="43.9172033" lon="11.7899333"><ele>655.0</ele><time>2026-04-04T10:36:10.695Z</time></trkpt><trkpt lat="43.9171367" lon="11.7898417"><ele>655.0</ele><time>2026-04-04T10:36:11.695Z</time></trkpt><trkpt lat="43.9170633" lon="11.7897683"><ele>655.0</ele><time>2026-04-04T10:36:12.696Z</time></trkpt><trkpt lat="43.9169617" lon="11.78973"><ele>655.0</ele><time>2026-04-04T10:36:13.695Z</time></trkpt><trkpt lat="43.9168567" lon="11.789685"><ele>655.0</ele><time>2026-04-04T10:36:14.696Z</time></trkpt><trkpt lat="43.9167467" lon="11.789635"><ele>655.0</ele><time>2026-04-04T10:36:15.695Z</time></trkpt><trkpt lat="43.91662" lon="11.7895867"><ele>658.75</ele><time>2026-04-04T10:36:16.695Z</time></trkpt><trkpt lat="43.9164867" lon="11.7895383"><ele>662.5</ele><time>2026-04-04T10:36:17.696Z</time></trkpt><trkpt lat="43.9163533" lon="11.7894967"><ele>666.25</ele><time>2026-04-04T10:36:18.696Z</time></trkpt><trkpt lat="43.916235" lon="11.7894583"><ele>670.0</ele><time>2026-04-04T10:36:19.695Z</time></trkpt><trkpt lat="43.91611" lon="11.7894633"><ele>670.0</ele><time>2026-04-04T10:36:20.695Z</time></trkpt><trkpt lat="43.9160083" lon="11.7894867"><ele>670.0</ele><time>2026-04-04T10:36:21.695Z</time></trkpt><trkpt lat="43.91591" lon="11.7895417"><ele>670.0</ele><time>2026-04-04T10:36:23.695Z</time></trkpt><trkpt lat="43.91582" lon="11.7895667"><ele>670.0</ele><time>2026-04-04T10:36:25.696Z</time></trkpt><trkpt lat="43.91575" lon="11.78959"><ele>670.0</ele><time>2026-04-04T10:36:26.696Z</time></trkpt><trkpt lat="43.9156583" lon="11.7896233"><ele>666.75</ele><time>2026-04-04T10:36:27.696Z</time></trkpt><trkpt lat="43.9155517" lon="11.7896717"><ele>663.5</ele><time>2026-04-04T10:36:28.696Z</time></trkpt><trkpt lat="43.9154433" lon="11.78972"><ele>660.25</ele><time>2026-04-04T10:36:29.695Z</time></trkpt><trkpt lat="43.91532" lon="11.7897733"><ele>657.0</ele><time>2026-04-04T10:36:30.696Z</time></trkpt><trkpt lat="43.9152067" lon="11.78983"><ele>657.0</ele><time>2026-04-04T10:36:31.696Z</time></trkpt><trkpt lat="43.9150933" lon="11.7898683"><ele>657.0</ele><time>2026-04-04T10:36:32.695Z</time></trkpt><trkpt lat="43.9149833" lon="11.789895"><ele>657.0</ele><time>2026-04-04T10:36:33.695Z</time></trkpt><trkpt lat="43.9148717" lon="11.7898983"><ele>657.0</ele><time>2026-04-04T10:36:34.696Z</time></trkpt><trkpt lat="43.91476" lon="11.789875"><ele>654.2</ele><time>2026-04-04T10:36:35.695Z</time></trkpt><trkpt lat="43.9146517" lon="11.7898383"><ele>651.4000000000001</ele><time>2026-04-04T10:36:36.695Z</time></trkpt><trkpt lat="43.9145533" lon="11.7897867"><ele>648.5999999999999</ele><time>2026-04-04T10:36:37.695Z</time></trkpt><trkpt lat="43.9144467" lon="11.7897333"><ele>645.8</ele><time>2026-04-04T10:36:38.695Z</time></trkpt><trkpt lat="43.914335" lon="11.78971"><ele>643.0</ele><time>2026-04-04T10:36:39.696Z</time></trkpt><trkpt lat="43.9142183" lon="11.7897117"><ele>641.5</ele><time>2026-04-04T10:36:40.695Z</time></trkpt><trkpt lat="43.9140883" lon="11.7897167"><ele>640.0</ele><time>2026-04-04T10:36:41.695Z</time></trkpt><trkpt lat="43.9139517" lon="11.7897217"><ele>638.5</ele><time>2026-04-04T10:36:42.695Z</time></trkpt><trkpt lat="43.9138283" lon="11.7897183"><ele>637.0</ele><time>2026-04-04T10:36:43.695Z</time></trkpt><trkpt lat="43.9136983" lon="11.7896667"><ele>637.0</ele><time>2026-04-04T10:36:44.696Z</time></trkpt><trkpt lat="43.9135817" lon="11.7895967"><ele>637.0</ele><time>2026-04-04T10:36:45.695Z</time></trkpt><trkpt lat="43.9134683" lon="11.7895283"><ele>637.0</ele><time>2026-04-04T10:36:46.695Z</time></trkpt><trkpt lat="43.913355" lon="11.789455"><ele>637.0</ele><time>2026-04-04T10:36:47.695Z</time></trkpt><trkpt lat="43.9132383" lon="11.789405"><ele>635.25</ele><time>2026-04-04T10:36:48.695Z</time></trkpt><trkpt lat="43.913125" lon="11.7893917"><ele>633.5</ele><time>2026-04-04T10:36:49.695Z</time></trkpt><trkpt lat="43.9130267" lon="11.7894233"><ele>631.75</ele><time>2026-04-04T10:36:50.695Z</time></trkpt><trkpt lat="43.9129233" lon="11.789505"><ele>630.0</ele><time>2026-04-04T10:36:51.695Z</time></trkpt><trkpt lat="43.9128133" lon="11.7896183"><ele>630.0</ele><time>2026-04-04T10:36:52.695Z</time></trkpt><trkpt lat="43.9126983" lon="11.7897633"><ele>630.0</ele><time>2026-04-04T10:36:53.696Z</time></trkpt><trkpt lat="43.9125767" lon="11.7899167"><ele>630.0</ele><time>2026-04-04T10:36:54.695Z</time></trkpt><trkpt lat="43.9124483" lon="11.7900867"><ele>628.3333333333334</ele><time>2026-04-04T10:36:55.696Z</time></trkpt><trkpt lat="43.912305" lon="11.79026"><ele>626.6666666666667</ele><time>2026-04-04T10:36:56.696Z</time></trkpt><trkpt lat="43.9121633" lon="11.7904283"><ele>625.0</ele><time>2026-04-04T10:36:57.695Z</time></trkpt><trkpt lat="43.9120183" lon="11.790585"><ele>625.0</ele><time>2026-04-04T10:36:58.695Z</time></trkpt><trkpt lat="43.91189" lon="11.7907467"><ele>625.0</ele><time>2026-04-04T10:36:59.696Z</time></trkpt><trkpt lat="43.9117567" lon="11.7909033"><ele>625.0</ele><time>2026-04-04T10:37:00.696Z</time></trkpt><trkpt lat="43.9116183" lon="11.79105"><ele>622.0</ele><time>2026-04-04T10:37:01.695Z</time></trkpt><trkpt lat="43.9115017" lon="11.79121"><ele>619.0</ele><time>2026-04-04T10:37:02.695Z</time></trkpt><trkpt lat="43.91139" lon="11.7913733"><ele>616.0</ele><time>2026-04-04T10:37:03.696Z</time></trkpt><trkpt lat="43.911285" lon="11.7915333"><ele>616.0</ele><time>2026-04-04T10:37:04.696Z</time></trkpt><trkpt lat="43.911205" lon="11.791695"><ele>616.0</ele><time>2026-04-04T10:37:05.696Z</time></trkpt><trkpt lat="43.9111467" lon="11.7918367"><ele>616.0</ele><time>2026-04-04T10:37:06.696Z</time></trkpt><trkpt lat="43.9111217" lon="11.7919983"><ele>616.0</ele><time>2026-04-04T10:37:07.696Z</time></trkpt><trkpt lat="43.9111317" lon="11.792175"><ele>615.0</ele><time>2026-04-04T10:37:08.696Z</time></trkpt><trkpt lat="43.911185" lon="11.7923467"><ele>614.0</ele><time>2026-04-04T10:37:09.695Z</time></trkpt><trkpt lat="43.911255" lon="11.79248"><ele>613.0</ele><time>2026-04-04T10:37:10.695Z</time></trkpt><trkpt lat="43.91136" lon="11.7925783"><ele>612.0</ele><time>2026-04-04T10:37:11.696Z</time></trkpt><trkpt lat="43.9114883" lon="11.792645"><ele>609.75</ele><time>2026-04-04T10:37:12.696Z</time></trkpt><trkpt lat="43.91162" lon="11.7927133"><ele>607.5</ele><time>2026-04-04T10:37:13.696Z</time></trkpt><trkpt lat="43.9117383" lon="11.7927783"><ele>605.25</ele><time>2026-04-04T10:37:14.696Z</time></trkpt><trkpt lat="43.9118283" lon="11.7928883"><ele>603.0</ele><time>2026-04-04T10:37:15.696Z</time></trkpt><trkpt lat="43.9118983" lon="11.7930067"><ele>608.25</ele><time>2026-04-04T10:37:16.695Z</time></trkpt><trkpt lat="43.9119283" lon="11.7931583"><ele>613.5</ele><time>2026-04-04T10:37:17.695Z</time></trkpt><trkpt lat="43.911955" lon="11.7933217"><ele>618.75</ele><time>2026-04-04T10:37:18.695Z</time></trkpt><trkpt lat="43.91198" lon="11.79351"><ele>624.0</ele><time>2026-04-04T10:37:19.696Z</time></trkpt><trkpt lat="43.9119967" lon="11.7937083"><ele>624.0</ele><time>2026-04-04T10:37:20.695Z</time></trkpt><trkpt lat="43.9119967" lon="11.79387"><ele>624.0</ele><time>2026-04-04T10:37:21.696Z</time></trkpt><trkpt lat="43.91199" lon="11.7940033"><ele>624.0</ele><time>2026-04-04T10:37:22.695Z</time></trkpt><trkpt lat="43.9119383" lon="11.7941217"><ele>624.0</ele><time>2026-04-04T10:37:23.696Z</time></trkpt><trkpt lat="43.9118767" lon="11.794185"><ele>624.0</ele><time>2026-04-04T10:37:24.696Z</time></trkpt><trkpt lat="43.911785" lon="11.7942017"><ele>622.75</ele><time>2026-04-04T10:37:25.696Z</time></trkpt><trkpt lat="43.9116933" lon="11.79417"><ele>621.5</ele><time>2026-04-04T10:37:26.696Z</time></trkpt><trkpt lat="43.9115867" lon="11.7941083"><ele>620.25</ele><time>2026-04-04T10:37:27.696Z</time></trkpt><trkpt lat="43.911475" lon="11.7940217"><ele>619.0</ele><time>2026-04-04T10:37:28.696Z</time></trkpt><trkpt lat="43.9113633" lon="11.793935"><ele>619.0</ele><time>2026-04-04T10:37:29.696Z</time></trkpt><trkpt lat="43.9112583" lon="11.793885"><ele>619.0</ele><time>2026-04-04T10:37:30.696Z</time></trkpt><trkpt lat="43.9111483" lon="11.7938233"><ele>619.0</ele><time>2026-04-04T10:37:31.696Z</time></trkpt><trkpt lat="43.911025" lon="11.7937817"><ele>619.0</ele><time>2026-04-04T10:37:32.696Z</time></trkpt><trkpt lat="43.9108917" lon="11.7937583"><ele>621.25</ele><time>2026-04-04T10:37:33.695Z</time></trkpt><trkpt lat="43.9107533" lon="11.7937483"><ele>623.5</ele><time>2026-04-04T10:37:34.695Z</time></trkpt><trkpt lat="43.9106183" lon="11.7937183"><ele>625.75</ele><time>2026-04-04T10:37:35.695Z</time></trkpt><trkpt lat="43.9104867" lon="11.793675"><ele>628.0</ele><time>2026-04-04T10:37:36.696Z</time></trkpt><trkpt lat="43.9103683" lon="11.7935867"><ele>623.25</ele><time>2026-04-04T10:37:37.695Z</time></trkpt><trkpt lat="43.910265" lon="11.7934833"><ele>618.5</ele><time>2026-04-04T10:37:38.695Z</time></trkpt><trkpt lat="43.9101783" lon="11.79335"><ele>613.75</ele><time>2026-04-04T10:37:39.695Z</time></trkpt><trkpt lat="43.9100917" lon="11.7932383"><ele>609.0</ele><time>2026-04-04T10:37:40.695Z</time></trkpt><trkpt lat="43.9099917" lon="11.793135"><ele>609.0</ele><time>2026-04-04T10:37:41.695Z</time></trkpt><trkpt lat="43.9098833" lon="11.7930583"><ele>609.0</ele><time>2026-04-04T10:37:42.695Z</time></trkpt><trkpt lat="43.9097767" lon="11.792985"><ele>609.0</ele><time>2026-04-04T10:37:43.696Z</time></trkpt><trkpt lat="43.9096667" lon="11.7929083"><ele>609.0</ele><time>2026-04-04T10:37:44.696Z</time></trkpt><trkpt lat="43.9095517" lon="11.7928567"><ele>609.0</ele><time>2026-04-04T10:37:45.695Z</time></trkpt><trkpt lat="43.9094533" lon="11.7928333"><ele>609.0</ele><time>2026-04-04T10:37:46.695Z</time></trkpt><trkpt lat="43.90934" lon="11.7928333"><ele>609.0</ele><time>2026-04-04T10:37:47.695Z</time></trkpt><trkpt lat="43.90921" lon="11.7928767"><ele>609.0</ele><time>2026-04-04T10:37:48.696Z</time></trkpt><trkpt lat="43.9090717" lon="11.7929217"><ele>608.25</ele><time>2026-04-04T10:37:49.695Z</time></trkpt><trkpt lat="43.9089283" lon="11.79295"><ele>607.5</ele><time>2026-04-04T10:37:50.695Z</time></trkpt><trkpt lat="43.9087917" lon="11.7929567"><ele>606.75</ele><time>2026-04-04T10:37:51.695Z</time></trkpt><trkpt lat="43.9086683" lon="11.7929583"><ele>606.0</ele><time>2026-04-04T10:37:52.695Z</time></trkpt><trkpt lat="43.908535" lon="11.7929683"><ele>606.0</ele><time>2026-04-04T10:37:53.695Z</time></trkpt><trkpt lat="43.90842" lon="11.7930033"><ele>606.0</ele><time>2026-04-04T10:37:54.695Z</time></trkpt><trkpt lat="43.9083" lon="11.7930933"><ele>606.0</ele><time>2026-04-04T10:37:55.695Z</time></trkpt><trkpt lat="43.908195" lon="11.7932117"><ele>606.0</ele><time>2026-04-04T10:37:56.696Z</time></trkpt><trkpt lat="43.9080933" lon="11.7933417"><ele>604.5</ele><time>2026-04-04T10:37:57.695Z</time></trkpt><trkpt lat="43.9080017" lon="11.7934817"><ele>603.0</ele><time>2026-04-04T10:37:58.695Z</time></trkpt><trkpt lat="43.907905" lon="11.793605"><ele>601.5</ele><time>2026-04-04T10:37:59.696Z</time></trkpt><trkpt lat="43.9078067" lon="11.793735"><ele>600.0</ele><time>2026-04-04T10:38:00.696Z</time></trkpt><trkpt lat="43.9077217" lon="11.7938517"><ele>600.0</ele><time>2026-04-04T10:38:01.695Z</time></trkpt><trkpt lat="43.9076317" lon="11.7939517"><ele>600.0</ele><time>2026-04-04T10:38:02.696Z</time></trkpt><trkpt lat="43.907545" lon="11.7940417"><ele>600.0</ele><time>2026-04-04T10:38:03.696Z</time></trkpt><trkpt lat="43.907455" lon="11.7941133"><ele>600.0</ele><time>2026-04-04T10:38:04.695Z</time></trkpt><trkpt lat="43.90736" lon="11.794175"><ele>600.0</ele><time>2026-04-04T10:38:05.695Z</time></trkpt><trkpt lat="43.9072733" lon="11.794225"><ele>599.1666666666666</ele><time>2026-04-04T10:38:06.695Z</time></trkpt><trkpt lat="43.9072" lon="11.7942933"><ele>598.3333333333334</ele><time>2026-04-04T10:38:07.695Z</time></trkpt><trkpt lat="43.907145" lon="11.7943833"><ele>597.5</ele><time>2026-04-04T10:38:08.695Z</time></trkpt><trkpt lat="43.9071067" lon="11.7944883"><ele>596.6666666666667</ele><time>2026-04-04T10:38:09.695Z</time></trkpt><trkpt lat="43.9070767" lon="11.7945983"><ele>595.8333333333334</ele><time>2026-04-04T10:38:10.695Z</time></trkpt><trkpt lat="43.9070517" lon="11.7947083"><ele>595.0</ele><time>2026-04-04T10:38:11.695Z</time></trkpt><trkpt lat="43.9069783" lon="11.7948267"><ele>595.0</ele><time>2026-04-04T10:38:12.695Z</time></trkpt><trkpt lat="43.90688" lon="11.7949217"><ele>595.0</ele><time>2026-04-04T10:38:13.696Z</time></trkpt><trkpt lat="43.906775" lon="11.7950433"><ele>595.0</ele><time>2026-04-04T10:38:14.695Z</time></trkpt><trkpt lat="43.90668" lon="11.7951683"><ele>595.0</ele><time>2026-04-04T10:38:15.695Z</time></trkpt><trkpt lat="43.906585" lon="11.795295"><ele>591.75</ele><time>2026-04-04T10:38:16.695Z</time></trkpt><trkpt lat="43.9064833" lon="11.7954167"><ele>588.5</ele><time>2026-04-04T10:38:17.695Z</time></trkpt><trkpt lat="43.90639" lon="11.7955467"><ele>585.25</ele><time>2026-04-04T10:38:18.695Z</time></trkpt><trkpt lat="43.9063033" lon="11.7956833"><ele>582.0</ele><time>2026-04-04T10:38:19.695Z</time></trkpt><trkpt lat="43.9062217" lon="11.7958267"><ele>582.0</ele><time>2026-04-04T10:38:20.696Z</time></trkpt><trkpt lat="43.9061417" lon="11.79599"><ele>582.0</ele><time>2026-04-04T10:38:21.695Z</time></trkpt><trkpt lat="43.90607" lon="11.7961617"><ele>582.0</ele><time>2026-04-04T10:38:22.695Z</time></trkpt><trkpt lat="43.906" lon="11.79634"><ele>582.0</ele><time>2026-04-04T10:38:23.695Z</time></trkpt><trkpt lat="43.9059317" lon="11.79651"><ele>578.6666666666666</ele><time>2026-04-04T10:38:24.695Z</time></trkpt><trkpt lat="43.9058667" lon="11.7966367"><ele>575.3333333333334</ele><time>2026-04-04T10:38:25.695Z</time></trkpt><trkpt lat="43.905825" lon="11.796725"><ele>572.0</ele><time>2026-04-04T10:38:26.695Z</time></trkpt><trkpt lat="43.90578" lon="11.7967967"><ele>568.6666666666667</ele><time>2026-04-04T10:38:28.695Z</time></trkpt><trkpt lat="43.905715" lon="11.7967733"><ele>565.3333333333334</ele><time>2026-04-04T10:38:31.696Z</time></trkpt><trkpt lat="43.905655" lon="11.7968433"><ele>562.0</ele><time>2026-04-04T10:38:32.695Z</time></trkpt><trkpt lat="43.9056" lon="11.7969367"><ele>561.75</ele><time>2026-04-04T10:38:33.696Z</time></trkpt><trkpt lat="43.905565" lon="11.7970483"><ele>561.5</ele><time>2026-04-04T10:38:34.696Z</time></trkpt><trkpt lat="43.9055783" lon="11.7971933"><ele>561.25</ele><time>2026-04-04T10:38:35.696Z</time></trkpt><trkpt lat="43.9056133" lon="11.7973583"><ele>561.0</ele><time>2026-04-04T10:38:36.695Z</time></trkpt><trkpt lat="43.905675" lon="11.797535"><ele>558.0</ele><time>2026-04-04T10:38:37.695Z</time></trkpt><trkpt lat="43.9057583" lon="11.7977333"><ele>555.0</ele><time>2026-04-04T10:38:38.695Z</time></trkpt><trkpt lat="43.905855" lon="11.7979267"><ele>552.0</ele><time>2026-04-04T10:38:39.696Z</time></trkpt><trkpt lat="43.9059583" lon="11.7981333"><ele>559.0</ele><time>2026-04-04T10:38:40.695Z</time></trkpt><trkpt lat="43.90607" lon="11.7983183"><ele>566.0</ele><time>2026-04-04T10:38:41.695Z</time></trkpt><trkpt lat="43.9061783" lon="11.79847"><ele>573.0</ele><time>2026-04-04T10:38:42.695Z</time></trkpt><trkpt lat="43.90626" lon="11.7986067"><ele>573.0</ele><time>2026-04-04T10:38:43.695Z</time></trkpt><trkpt lat="43.906295" lon="11.7987283"><ele>573.0</ele><time>2026-04-04T10:38:44.696Z</time></trkpt><trkpt lat="43.9063167" lon="11.7988433"><ele>573.0</ele><time>2026-04-04T10:38:45.696Z</time></trkpt><trkpt lat="43.9062917" lon="11.7989583"><ele>573.0</ele><time>2026-04-04T10:38:46.696Z</time></trkpt><trkpt lat="43.90624" lon="11.79907"><ele>573.0</ele><time>2026-04-04T10:38:47.696Z</time></trkpt><trkpt lat="43.9061733" lon="11.7991583"><ele>573.0</ele><time>2026-04-04T10:38:48.696Z</time></trkpt><trkpt lat="43.9060967" lon="11.7992217"><ele>573.0</ele><time>2026-04-04T10:38:49.695Z</time></trkpt><trkpt lat="43.9059917" lon="11.79923"><ele>573.0</ele><time>2026-04-04T10:38:50.695Z</time></trkpt><trkpt lat="43.90586" lon="11.7991517"><ele>573.0</ele><time>2026-04-04T10:38:51.695Z</time></trkpt><trkpt lat="43.905725" lon="11.79908"><ele>569.5</ele><time>2026-04-04T10:38:52.696Z</time></trkpt><trkpt lat="43.9055833" lon="11.7990133"><ele>566.0</ele><time>2026-04-04T10:38:53.695Z</time></trkpt><trkpt lat="43.9054533" lon="11.7989533"><ele>562.5</ele><time>2026-04-04T10:38:54.695Z</time></trkpt><trkpt lat="43.90535" lon="11.7989217"><ele>559.0</ele><time>2026-04-04T10:38:55.695Z</time></trkpt><trkpt lat="43.905275" lon="11.7989533"><ele>559.0</ele><time>2026-04-04T10:38:56.695Z</time></trkpt><trkpt lat="43.905195" lon="11.799035"><ele>559.0</ele><time>2026-04-04T10:38:57.696Z</time></trkpt><trkpt lat="43.905125" lon="11.7991833"><ele>559.0</ele><time>2026-04-04T10:38:58.695Z</time></trkpt><trkpt lat="43.9050517" lon="11.79938"><ele>559.0</ele><time>2026-04-04T10:38:59.696Z</time></trkpt><trkpt lat="43.9049717" lon="11.79959"><ele>559.3333333333334</ele><time>2026-04-04T10:39:00.695Z</time></trkpt><trkpt lat="43.904875" lon="11.7997883"><ele>559.6666666666666</ele><time>2026-04-04T10:39:01.695Z</time></trkpt><trkpt lat="43.9047667" lon="11.79999"><ele>560.0</ele><time>2026-04-04T10:39:02.696Z</time></trkpt><trkpt lat="43.9046367" lon="11.8001733"><ele>557.6666666666666</ele><time>2026-04-04T10:39:03.695Z</time></trkpt><trkpt lat="43.9045067" lon="11.800355"><ele>555.3333333333334</ele><time>2026-04-04T10:39:04.695Z</time></trkpt><trkpt lat="43.9043683" lon="11.800525"><ele>553.0</ele><time>2026-04-04T10:39:05.696Z</time></trkpt><trkpt lat="43.904245" lon="11.8006817"><ele>553.0</ele><time>2026-04-04T10:39:06.695Z</time></trkpt><trkpt lat="43.9041317" lon="11.800835"><ele>553.0</ele><time>2026-04-04T10:39:07.696Z</time></trkpt><trkpt lat="43.90405" lon="11.8009917"><ele>553.0</ele><time>2026-04-04T10:39:08.695Z</time></trkpt><trkpt lat="43.9039917" lon="11.8011567"><ele>553.0</ele><time>2026-04-04T10:39:09.696Z</time></trkpt><trkpt lat="43.9039633" lon="11.801345"><ele>555.0</ele><time>2026-04-04T10:39:10.695Z</time></trkpt><trkpt lat="43.9039533" lon="11.801575"><ele>557.0</ele><time>2026-04-04T10:39:11.695Z</time></trkpt><trkpt lat="43.9039633" lon="11.8018283"><ele>559.0</ele><time>2026-04-04T10:39:12.695Z</time></trkpt><trkpt lat="43.903965" lon="11.8020767"><ele>559.0</ele><time>2026-04-04T10:39:13.695Z</time></trkpt><trkpt lat="43.903965" lon="11.8023233"><ele>559.0</ele><time>2026-04-04T10:39:14.696Z</time></trkpt><trkpt lat="43.903965" lon="11.802565"><ele>559.0</ele><time>2026-04-04T10:39:15.695Z</time></trkpt><trkpt lat="43.9039667" lon="11.8027917"><ele>559.3333333333334</ele><time>2026-04-04T10:39:16.695Z</time></trkpt><trkpt lat="43.903945" lon="11.8030083"><ele>559.6666666666666</ele><time>2026-04-04T10:39:17.695Z</time></trkpt><trkpt lat="43.9038933" lon="11.8032267"><ele>560.0</ele><time>2026-04-04T10:39:18.695Z</time></trkpt><trkpt lat="43.90383" lon="11.80343"><ele>558.25</ele><time>2026-04-04T10:39:19.695Z</time></trkpt><trkpt lat="43.903775" lon="11.803635"><ele>556.5</ele><time>2026-04-04T10:39:20.695Z</time></trkpt><trkpt lat="43.9037333" lon="11.8038083"><ele>554.75</ele><time>2026-04-04T10:39:21.696Z</time></trkpt><trkpt lat="43.9037267" lon="11.8039483"><ele>553.0</ele><time>2026-04-04T10:39:22.695Z</time></trkpt><trkpt lat="43.9037633" lon="11.80407"><ele>553.0</ele><time>2026-04-04T10:39:23.695Z</time></trkpt><trkpt lat="43.9038333" lon="11.8042"><ele>553.0</ele><time>2026-04-04T10:39:24.696Z</time></trkpt><trkpt lat="43.903925" lon="11.804345"><ele>553.0</ele><time>2026-04-04T10:39:25.695Z</time></trkpt><trkpt lat="43.9040367" lon="11.8045117"><ele>553.0</ele><time>2026-04-04T10:39:26.696Z</time></trkpt><trkpt lat="43.90417" lon="11.80468"><ele>556.6666666666667</ele><time>2026-04-04T10:39:27.696Z</time></trkpt><trkpt lat="43.90431" lon="11.8048617"><ele>560.3333333333334</ele><time>2026-04-04T10:39:28.695Z</time></trkpt><trkpt lat="43.9044417" lon="11.805035"><ele>564.0</ele><time>2026-04-04T10:39:29.695Z</time></trkpt><trkpt lat="43.9045533" lon="11.80519"><ele>564.0</ele><time>2026-04-04T10:39:30.695Z</time></trkpt><trkpt lat="43.904645" lon="11.8053367"><ele>564.0</ele><time>2026-04-04T10:39:31.695Z</time></trkpt><trkpt lat="43.9047" lon="11.8055233"><ele>564.0</ele><time>2026-04-04T10:39:32.695Z</time></trkpt><trkpt lat="43.9046933" lon="11.8057283"><ele>564.0</ele><time>2026-04-04T10:39:33.696Z</time></trkpt><trkpt lat="43.90466" lon="11.80596"><ele>562.0</ele><time>2026-04-04T10:39:34.696Z</time></trkpt><trkpt lat="43.904625" lon="11.80621"><ele>560.0</ele><time>2026-04-04T10:39:35.695Z</time></trkpt><trkpt lat="43.90461" lon="11.806485"><ele>558.0</ele><time>2026-04-04T10:39:36.695Z</time></trkpt><trkpt lat="43.9045583" lon="11.8067583"><ele>558.3333333333334</ele><time>2026-04-04T10:39:37.696Z</time></trkpt><trkpt lat="43.904465" lon="11.8070333"><ele>558.6666666666667</ele><time>2026-04-04T10:39:38.695Z</time></trkpt><trkpt lat="43.9043767" lon="11.8073083"><ele>559.0</ele><time>2026-04-04T10:39:39.696Z</time></trkpt><trkpt lat="43.9043083" lon="11.8075767"><ele>555.6666666666667</ele><time>2026-04-04T10:39:40.696Z</time></trkpt><trkpt lat="43.9042567" lon="11.8078117"><ele>552.3333333333334</ele><time>2026-04-04T10:39:41.696Z</time></trkpt><trkpt lat="43.9042133" lon="11.8080217"><ele>549.0</ele><time>2026-04-04T10:39:42.695Z</time></trkpt><trkpt lat="43.9042083" lon="11.808205"><ele>549.0</ele><time>2026-04-04T10:39:43.695Z</time></trkpt><trkpt lat="43.9042533" lon="11.8083633"><ele>549.0</ele><time>2026-04-04T10:39:44.696Z</time></trkpt><trkpt lat="43.90434" lon="11.808505"><ele>549.0</ele><time>2026-04-04T10:39:45.695Z</time></trkpt><trkpt lat="43.90445" lon="11.8086183"><ele>549.0</ele><time>2026-04-04T10:39:46.695Z</time></trkpt><trkpt lat="43.9045933" lon="11.8087"><ele>542.75</ele><time>2026-04-04T10:39:47.695Z</time></trkpt><trkpt lat="43.9047483" lon="11.8087717"><ele>536.5</ele><time>2026-04-04T10:39:48.695Z</time></trkpt><trkpt lat="43.90489" lon="11.8088517"><ele>530.25</ele><time>2026-04-04T10:39:49.695Z</time></trkpt><trkpt lat="43.9049683" lon="11.808955"><ele>524.0</ele><time>2026-04-04T10:39:50.696Z</time></trkpt><trkpt lat="43.9050183" lon="11.80911"><ele>524.0</ele><time>2026-04-04T10:39:51.696Z</time></trkpt><trkpt lat="43.9050283" lon="11.809285"><ele>524.0</ele><time>2026-04-04T10:39:52.695Z</time></trkpt><trkpt lat="43.9050217" lon="11.809505"><ele>524.0</ele><time>2026-04-04T10:39:53.696Z</time></trkpt><trkpt lat="43.9049967" lon="11.8097467"><ele>521.3333333333333</ele><time>2026-04-04T10:39:54.695Z</time></trkpt><trkpt lat="43.9049833" lon="11.81002"><ele>518.6666666666666</ele><time>2026-04-04T10:39:55.696Z</time></trkpt><trkpt lat="43.9049767" lon="11.8103083"><ele>516.0</ele><time>2026-04-04T10:39:56.695Z</time></trkpt><trkpt lat="43.904975" lon="11.81061"><ele>515.0</ele><time>2026-04-04T10:39:57.695Z</time></trkpt><trkpt lat="43.90498" lon="11.8109267"><ele>514.0</ele><time>2026-04-04T10:39:58.696Z</time></trkpt><trkpt lat="43.9049383" lon="11.811235"><ele>514.0</ele><time>2026-04-04T10:39:59.695Z</time></trkpt><trkpt lat="43.9048733" lon="11.8115417"><ele>514.0</ele><time>2026-04-04T10:40:00.696Z</time></trkpt><trkpt lat="43.9048017" lon="11.8118267"><ele>514.0</ele><time>2026-04-04T10:40:01.695Z</time></trkpt><trkpt lat="43.9047333" lon="11.81209"><ele>513.0</ele><time>2026-04-04T10:40:02.695Z</time></trkpt><trkpt lat="43.9046783" lon="11.8123167"><ele>512.0</ele><time>2026-04-04T10:40:03.696Z</time></trkpt><trkpt lat="43.9046283" lon="11.8125067"><ele>511.0</ele><time>2026-04-04T10:40:04.695Z</time></trkpt><trkpt lat="43.90461" lon="11.81268"><ele>510.0</ele><time>2026-04-04T10:40:05.696Z</time></trkpt><trkpt lat="43.9046283" lon="11.81283"><ele>507.25</ele><time>2026-04-04T10:40:06.695Z</time></trkpt><trkpt lat="43.9046967" lon="11.812975"><ele>504.5</ele><time>2026-04-04T10:40:07.696Z</time></trkpt><trkpt lat="43.9048017" lon="11.81311"><ele>501.75</ele><time>2026-04-04T10:40:08.696Z</time></trkpt><trkpt lat="43.90492" lon="11.8132533"><ele>499.0</ele><time>2026-04-04T10:40:09.695Z</time></trkpt><trkpt lat="43.9050517" lon="11.81336"><ele>501.79999999999995</ele><time>2026-04-04T10:40:10.695Z</time></trkpt><trkpt lat="43.9051683" lon="11.8134267"><ele>504.59999999999997</ele><time>2026-04-04T10:40:11.696Z</time></trkpt><trkpt lat="43.9052567" lon="11.813505"><ele>507.4</ele><time>2026-04-04T10:40:12.695Z</time></trkpt><trkpt lat="43.9053167" lon="11.8136183"><ele>510.2</ele><time>2026-04-04T10:40:13.696Z</time></trkpt><trkpt lat="43.9053483" lon="11.8137483"><ele>513.0</ele><time>2026-04-04T10:40:14.696Z</time></trkpt><trkpt lat="43.9053383" lon="11.8138783"><ele>515.25</ele><time>2026-04-04T10:40:15.695Z</time></trkpt><trkpt lat="43.905265" lon="11.8139933"><ele>517.5</ele><time>2026-04-04T10:40:16.695Z</time></trkpt><trkpt lat="43.90516" lon="11.8140867"><ele>519.75</ele><time>2026-04-04T10:40:17.696Z</time></trkpt><trkpt lat="43.9050133" lon="11.8141567"><ele>522.0</ele><time>2026-04-04T10:40:18.696Z</time></trkpt><trkpt lat="43.9048617" lon="11.8142133"><ele>515.25</ele><time>2026-04-04T10:40:19.695Z</time></trkpt><trkpt lat="43.9047217" lon="11.814275"><ele>508.5</ele><time>2026-04-04T10:40:20.695Z</time></trkpt><trkpt lat="43.904605" lon="11.814365"><ele>501.75</ele><time>2026-04-04T10:40:21.696Z</time></trkpt><trkpt lat="43.9045167" lon="11.814505"><ele>495.0</ele><time>2026-04-04T10:40:22.695Z</time></trkpt><trkpt lat="43.9044633" lon="11.814665"><ele>493.6</ele><time>2026-04-04T10:40:23.696Z</time></trkpt><trkpt lat="43.9044483" lon="11.8148267"><ele>492.2</ele><time>2026-04-04T10:40:24.695Z</time></trkpt><trkpt lat="43.9044817" lon="11.814985"><ele>490.79999999999995</ele><time>2026-04-04T10:40:25.695Z</time></trkpt><trkpt lat="43.90454" lon="11.8151083"><ele>489.4</ele><time>2026-04-04T10:40:26.696Z</time></trkpt><trkpt lat="43.90463" lon="11.81518"><ele>488.0</ele><time>2026-04-04T10:40:27.695Z</time></trkpt><trkpt lat="43.9047367" lon="11.8151917"><ele>490.25</ele><time>2026-04-04T10:40:28.696Z</time></trkpt><trkpt lat="43.9048483" lon="11.81518"><ele>492.5</ele><time>2026-04-04T10:40:29.695Z</time></trkpt><trkpt lat="43.9049533" lon="11.8152033"><ele>494.75</ele><time>2026-04-04T10:40:30.696Z</time></trkpt><trkpt lat="43.9050367" lon="11.8152817"><ele>497.0</ele><time>2026-04-04T10:40:31.695Z</time></trkpt><trkpt lat="43.9051117" lon="11.8154367"><ele>497.0</ele><time>2026-04-04T10:40:32.695Z</time></trkpt><trkpt lat="43.9052" lon="11.81561"><ele>497.0</ele><time>2026-04-04T10:40:33.696Z</time></trkpt><trkpt lat="43.90529" lon="11.8157767"><ele>497.0</ele><time>2026-04-04T10:40:34.696Z</time></trkpt><trkpt lat="43.905355" lon="11.815945"><ele>497.0</ele><time>2026-04-04T10:40:35.695Z</time></trkpt><trkpt lat="43.9054167" lon="11.8161083"><ele>494.66666666666663</ele><time>2026-04-04T10:40:36.695Z</time></trkpt><trkpt lat="43.9054417" lon="11.8162967"><ele>492.33333333333337</ele><time>2026-04-04T10:40:37.695Z</time></trkpt><trkpt lat="43.90545" lon="11.81651"><ele>490.0</ele><time>2026-04-04T10:40:38.695Z</time></trkpt><trkpt lat="43.905435" lon="11.8167333"><ele>485.0</ele><time>2026-04-04T10:40:39.695Z</time></trkpt><trkpt lat="43.9054133" lon="11.8169383"><ele>480.0</ele><time>2026-04-04T10:40:40.695Z</time></trkpt><trkpt lat="43.9053917" lon="11.817125"><ele>475.0</ele><time>2026-04-04T10:40:41.695Z</time></trkpt><trkpt lat="43.905415" lon="11.8172583"><ele>470.0</ele><time>2026-04-04T10:40:42.695Z</time></trkpt><trkpt lat="43.9054917" lon="11.8173517"><ele>470.0</ele><time>2026-04-04T10:40:43.695Z</time></trkpt><trkpt lat="43.9056083" lon="11.8174183"><ele>470.0</ele><time>2026-04-04T10:40:44.695Z</time></trkpt><trkpt lat="43.9057517" lon="11.8174817"><ele>470.0</ele><time>2026-04-04T10:40:45.696Z</time></trkpt><trkpt lat="43.9059133" lon="11.8175433"><ele>470.0</ele><time>2026-04-04T10:40:46.695Z</time></trkpt><trkpt lat="43.9060767" lon="11.8176167"><ele>465.3333333333333</ele><time>2026-04-04T10:40:47.695Z</time></trkpt><trkpt lat="43.9062367" lon="11.8176683"><ele>460.66666666666663</ele><time>2026-04-04T10:40:48.695Z</time></trkpt><trkpt lat="43.90638" lon="11.817745"><ele>456.0</ele><time>2026-04-04T10:40:49.695Z</time></trkpt><trkpt lat="43.9064933" lon="11.8178667"><ele>456.0</ele><time>2026-04-04T10:40:50.696Z</time></trkpt><trkpt lat="43.9066" lon="11.8180283"><ele>456.0</ele><time>2026-04-04T10:40:51.696Z</time></trkpt><trkpt lat="43.9067" lon="11.818205"><ele>456.0</ele><time>2026-04-04T10:40:52.695Z</time></trkpt><trkpt lat="43.9068217" lon="11.8183717"><ele>453.33333333333337</ele><time>2026-04-04T10:40:53.695Z</time></trkpt><trkpt lat="43.90697" lon="11.8185267"><ele>450.6666666666667</ele><time>2026-04-04T10:40:54.696Z</time></trkpt><trkpt lat="43.9071417" lon="11.8186667"><ele>448.0</ele><time>2026-04-04T10:40:55.696Z</time></trkpt><trkpt lat="43.9073333" lon="11.8188017"><ele>448.0</ele><time>2026-04-04T10:40:56.695Z</time></trkpt><trkpt lat="43.9075233" lon="11.81894"><ele>448.0</ele><time>2026-04-04T10:40:57.696Z</time></trkpt><trkpt lat="43.9077033" lon="11.8190833"><ele>448.0</ele><time>2026-04-04T10:40:58.696Z</time></trkpt><trkpt lat="43.907865" lon="11.81922"><ele>452.5</ele><time>2026-04-04T10:40:59.695Z</time></trkpt><trkpt lat="43.908" lon="11.819325"><ele>457.0</ele><time>2026-04-04T10:41:00.695Z</time></trkpt><trkpt lat="43.90809" lon="11.8194317"><ele>461.5</ele><time>2026-04-04T10:41:01.695Z</time></trkpt><trkpt lat="43.9081383" lon="11.8195817"><ele>466.0</ele><time>2026-04-04T10:41:02.696Z</time></trkpt><trkpt lat="43.9081583" lon="11.819785"><ele>466.0</ele><time>2026-04-04T10:41:03.695Z</time></trkpt><trkpt lat="43.9081533" lon="11.820015"><ele>466.0</ele><time>2026-04-04T10:41:04.696Z</time></trkpt><trkpt lat="43.9080983" lon="11.8202633"><ele>466.0</ele><time>2026-04-04T10:41:05.696Z</time></trkpt><trkpt lat="43.908015" lon="11.8205283"><ele>467.0</ele><time>2026-04-04T10:41:06.696Z</time></trkpt><trkpt lat="43.9079467" lon="11.8208083"><ele>468.0</ele><time>2026-04-04T10:41:07.696Z</time></trkpt><trkpt lat="43.9078967" lon="11.8211033"><ele>469.0</ele><time>2026-04-04T10:41:08.696Z</time></trkpt><trkpt lat="43.90784" lon="11.8213967"><ele>472.33333333333337</ele><time>2026-04-04T10:41:09.695Z</time></trkpt><trkpt lat="43.9077683" lon="11.8216767"><ele>475.66666666666663</ele><time>2026-04-04T10:41:10.695Z</time></trkpt><trkpt lat="43.90767" lon="11.8219517"><ele>479.0</ele><time>2026-04-04T10:41:11.696Z</time></trkpt><trkpt lat="43.907555" lon="11.8222167"><ele>463.5</ele><time>2026-04-04T10:41:12.696Z</time></trkpt><trkpt lat="43.9074633" lon="11.8225017"><ele>448.0</ele><time>2026-04-04T10:41:13.696Z</time></trkpt><trkpt lat="43.9073667" lon="11.822785"><ele>448.0</ele><time>2026-04-04T10:41:14.696Z</time></trkpt><trkpt lat="43.9073067" lon="11.8230567"><ele>448.0</ele><time>2026-04-04T10:41:15.695Z</time></trkpt><trkpt lat="43.9072733" lon="11.8233033"><ele>448.0</ele><time>2026-04-04T10:41:16.696Z</time></trkpt><trkpt lat="43.9072617" lon="11.82355"><ele>445.0</ele><time>2026-04-04T10:41:17.696Z</time></trkpt><trkpt lat="43.9072783" lon="11.8237867"><ele>442.0</ele><time>2026-04-04T10:41:18.695Z</time></trkpt><trkpt lat="43.9072883" lon="11.823975"><ele>439.0</ele><time>2026-04-04T10:41:19.696Z</time></trkpt><trkpt lat="43.9073183" lon="11.82413"><ele>436.0</ele><time>2026-04-04T10:41:20.695Z</time></trkpt><trkpt lat="43.9073917" lon="11.8242567"><ele>433.6666666666667</ele><time>2026-04-04T10:41:21.696Z</time></trkpt><trkpt lat="43.90751" lon="11.8243617"><ele>431.33333333333337</ele><time>2026-04-04T10:41:22.695Z</time></trkpt><trkpt lat="43.9076583" lon="11.824475"><ele>429.0</ele><time>2026-04-04T10:41:23.695Z</time></trkpt><trkpt lat="43.9078217" lon="11.8245933"><ele>429.0</ele><time>2026-04-04T10:41:24.695Z</time></trkpt><trkpt lat="43.9079933" lon="11.8247217"><ele>429.0</ele><time>2026-04-04T10:41:25.695Z</time></trkpt><trkpt lat="43.9081717" lon="11.8248317"><ele>429.0</ele><time>2026-04-04T10:41:26.696Z</time></trkpt><trkpt lat="43.90835" lon="11.8249383"><ele>432.0</ele><time>2026-04-04T10:41:27.696Z</time></trkpt><trkpt lat="43.9085283" lon="11.8250367"><ele>435.0</ele><time>2026-04-04T10:41:28.695Z</time></trkpt><trkpt lat="43.9086917" lon="11.8251317"><ele>438.0</ele><time>2026-04-04T10:41:29.695Z</time></trkpt><trkpt lat="43.9088383" lon="11.8252733"><ele>438.0</ele><time>2026-04-04T10:41:30.695Z</time></trkpt><trkpt lat="43.90896" lon="11.825445"><ele>438.0</ele><time>2026-04-04T10:41:31.695Z</time></trkpt><trkpt lat="43.90904" lon="11.825635"><ele>438.0</ele><time>2026-04-04T10:41:32.696Z</time></trkpt><trkpt lat="43.9090933" lon="11.8258483"><ele>436.0</ele><time>2026-04-04T10:41:33.695Z</time></trkpt><trkpt lat="43.9091233" lon="11.8260983"><ele>434.0</ele><time>2026-04-04T10:41:34.696Z</time></trkpt><trkpt lat="43.909125" lon="11.826365"><ele>432.0</ele><time>2026-04-04T10:41:35.695Z</time></trkpt><trkpt lat="43.9091283" lon="11.8266583"><ele>429.0</ele><time>2026-04-04T10:41:36.696Z</time></trkpt><trkpt lat="43.9091233" lon="11.826975"><ele>426.0</ele><time>2026-04-04T10:41:37.695Z</time></trkpt><trkpt lat="43.9091183" lon="11.8273083"><ele>426.5</ele><time>2026-04-04T10:41:38.695Z</time></trkpt><trkpt lat="43.9091083" lon="11.8276483"><ele>427.0</ele><time>2026-04-04T10:41:39.695Z</time></trkpt><trkpt lat="43.909085" lon="11.8279983"><ele>427.0</ele><time>2026-04-04T10:41:40.695Z</time></trkpt><trkpt lat="43.909055" lon="11.8283483"><ele>427.0</ele><time>2026-04-04T10:41:41.695Z</time></trkpt><trkpt lat="43.9090283" lon="11.8287033"><ele>426.5</ele><time>2026-04-04T10:41:42.695Z</time></trkpt><trkpt lat="43.909005" lon="11.8290617"><ele>426.0</ele><time>2026-04-04T10:41:43.696Z</time></trkpt><trkpt lat="43.9089783" lon="11.829385"><ele>426.0</ele><time>2026-04-04T10:41:44.695Z</time></trkpt><trkpt lat="43.908955" lon="11.829665"><ele>426.0</ele><time>2026-04-04T10:41:45.696Z</time></trkpt><trkpt lat="43.9089383" lon="11.82993"><ele>426.0</ele><time>2026-04-04T10:41:46.696Z</time></trkpt><trkpt lat="43.9089617" lon="11.8301867"><ele>423.66666666666663</ele><time>2026-04-04T10:41:47.696Z</time></trkpt><trkpt lat="43.90902" lon="11.8304433"><ele>421.3333333333333</ele><time>2026-04-04T10:41:48.696Z</time></trkpt><trkpt lat="43.90911" lon="11.8307017"><ele>419.0</ele><time>2026-04-04T10:41:49.695Z</time></trkpt><trkpt lat="43.90921" lon="11.830975"><ele>425.0</ele><time>2026-04-04T10:41:50.696Z</time></trkpt><trkpt lat="43.9093117" lon="11.83125"><ele>431.0</ele><time>2026-04-04T10:41:51.696Z</time></trkpt><trkpt lat="43.9094033" lon="11.8315283"><ele>437.0</ele><time>2026-04-04T10:41:52.695Z</time></trkpt><trkpt lat="43.9094867" lon="11.831805"><ele>434.66666666666663</ele><time>2026-04-04T10:41:53.696Z</time></trkpt><trkpt lat="43.909545" lon="11.8320883"><ele>432.33333333333337</ele><time>2026-04-04T10:41:54.695Z</time></trkpt><trkpt lat="43.9095717" lon="11.83239"><ele>430.0</ele><time>2026-04-04T10:41:55.695Z</time></trkpt><trkpt lat="43.909575" lon="11.8326883"><ele>426.6666666666667</ele><time>2026-04-04T10:41:56.695Z</time></trkpt><trkpt lat="43.9096083" lon="11.8329833"><ele>423.33333333333337</ele><time>2026-04-04T10:41:57.695Z</time></trkpt><trkpt lat="43.9096717" lon="11.8332617"><ele>420.0</ele><time>2026-04-04T10:41:58.695Z</time></trkpt><trkpt lat="43.909755" lon="11.8335217"><ele>418.33333333333337</ele><time>2026-04-04T10:41:59.696Z</time></trkpt><trkpt lat="43.909845" lon="11.83375"><ele>416.6666666666667</ele><time>2026-04-04T10:42:00.696Z</time></trkpt><trkpt lat="43.90991" lon="11.8339717"><ele>415.0</ele><time>2026-04-04T10:42:01.696Z</time></trkpt><trkpt lat="43.90996" lon="11.8341967"><ele>413.33333333333337</ele><time>2026-04-04T10:42:02.695Z</time></trkpt><trkpt lat="43.910005" lon="11.8344383"><ele>411.66666666666663</ele><time>2026-04-04T10:42:03.696Z</time></trkpt><trkpt lat="43.9100333" lon="11.8346883"><ele>410.0</ele><time>2026-04-04T10:42:04.696Z</time></trkpt><trkpt lat="43.91007" lon="11.8348967"><ele>409.25</ele><time>2026-04-04T10:42:05.695Z</time></trkpt><trkpt lat="43.910135" lon="11.8350517"><ele>408.5</ele><time>2026-04-04T10:42:06.695Z</time></trkpt><trkpt lat="43.9102517" lon="11.835175"><ele>407.75</ele><time>2026-04-04T10:42:07.695Z</time></trkpt><trkpt lat="43.91041" lon="11.83526"><ele>407.0</ele><time>2026-04-04T10:42:08.695Z</time></trkpt><trkpt lat="43.9105867" lon="11.8353667"><ele>407.0</ele><time>2026-04-04T10:42:09.695Z</time></trkpt><trkpt lat="43.9107683" lon="11.8354867"><ele>407.0</ele><time>2026-04-04T10:42:10.695Z</time></trkpt><trkpt lat="43.910965" lon="11.8356283"><ele>407.0</ele><time>2026-04-04T10:42:11.696Z</time></trkpt><trkpt lat="43.9111617" lon="11.835775"><ele>408.66666666666663</ele><time>2026-04-04T10:42:12.695Z</time></trkpt><trkpt lat="43.91136" lon="11.8359233"><ele>410.33333333333337</ele><time>2026-04-04T10:42:13.696Z</time></trkpt><trkpt lat="43.9115467" lon="11.83607"><ele>412.0</ele><time>2026-04-04T10:42:14.695Z</time></trkpt><trkpt lat="43.911725" lon="11.8362"><ele>409.0</ele><time>2026-04-04T10:42:15.696Z</time></trkpt><trkpt lat="43.9119183" lon="11.836295"><ele>406.0</ele><time>2026-04-04T10:42:16.695Z</time></trkpt><trkpt lat="43.912125" lon="11.8363517"><ele>403.0</ele><time>2026-04-04T10:42:17.696Z</time></trkpt><trkpt lat="43.91236" lon="11.8363883"><ele>403.5</ele><time>2026-04-04T10:42:18.696Z</time></trkpt><trkpt lat="43.91261" lon="11.8364033"><ele>404.0</ele><time>2026-04-04T10:42:19.695Z</time></trkpt><trkpt lat="43.9128583" lon="11.8364033"><ele>404.0</ele><time>2026-04-04T10:42:20.695Z</time></trkpt><trkpt lat="43.9130983" lon="11.8364017"><ele>404.0</ele><time>2026-04-04T10:42:21.695Z</time></trkpt><trkpt lat="43.9133367" lon="11.83643"><ele>405.3333333333333</ele><time>2026-04-04T10:42:22.695Z</time></trkpt><trkpt lat="43.913545" lon="11.8365133"><ele>406.66666666666663</ele><time>2026-04-04T10:42:23.696Z</time></trkpt><trkpt lat="43.9137283" lon="11.836605"><ele>408.0</ele><time>2026-04-04T10:42:24.695Z</time></trkpt><trkpt lat="43.9138933" lon="11.8366717"><ele>408.0</ele><time>2026-04-04T10:42:25.695Z</time></trkpt><trkpt lat="43.9140533" lon="11.8366983"><ele>408.0</ele><time>2026-04-04T10:42:26.696Z</time></trkpt><trkpt lat="43.9142383" lon="11.8366767"><ele>408.0</ele><time>2026-04-04T10:42:27.695Z</time></trkpt><trkpt lat="43.9144267" lon="11.8366133"><ele>407.66666666666663</ele><time>2026-04-04T10:42:28.695Z</time></trkpt><trkpt lat="43.9146117" lon="11.83653"><ele>407.3333333333333</ele><time>2026-04-04T10:42:29.695Z</time></trkpt><trkpt lat="43.9147917" lon="11.8364817"><ele>407.0</ele><time>2026-04-04T10:42:30.695Z</time></trkpt><trkpt lat="43.914965" lon="11.8365083"><ele>409.0</ele><time>2026-04-04T10:42:31.695Z</time></trkpt><trkpt lat="43.915145" lon="11.8366133"><ele>411.0</ele><time>2026-04-04T10:42:32.696Z</time></trkpt><trkpt lat="43.9153217" lon="11.8367217"><ele>413.0</ele><time>2026-04-04T10:42:33.695Z</time></trkpt><trkpt lat="43.9155217" lon="11.83683"><ele>409.5</ele><time>2026-04-04T10:42:34.695Z</time></trkpt><trkpt lat="43.9157267" lon="11.8369417"><ele>406.0</ele><time>2026-04-04T10:42:35.695Z</time></trkpt><trkpt lat="43.91595" lon="11.8370517"><ele>406.0</ele><time>2026-04-04T10:42:36.695Z</time></trkpt><trkpt lat="43.9161583" lon="11.8371533"><ele>406.0</ele><time>2026-04-04T10:42:37.695Z</time></trkpt><trkpt lat="43.9163433" lon="11.83728"><ele>406.0</ele><time>2026-04-04T10:42:38.696Z</time></trkpt><trkpt lat="43.9165067" lon="11.8374383"><ele>406.0</ele><time>2026-04-04T10:42:39.695Z</time></trkpt><trkpt lat="43.916645" lon="11.8376067"><ele>406.0</ele><time>2026-04-04T10:42:40.695Z</time></trkpt><trkpt lat="43.916825" lon="11.83772"><ele>406.0</ele><time>2026-04-04T10:42:41.695Z</time></trkpt><trkpt lat="43.917035" lon="11.8378083"><ele>402.0</ele><time>2026-04-04T10:42:42.695Z</time></trkpt><trkpt lat="43.9172567" lon="11.8378833"><ele>398.0</ele><time>2026-04-04T10:42:43.695Z</time></trkpt><trkpt lat="43.9174867" lon="11.8379667"><ele>404.0</ele><time>2026-04-04T10:42:44.695Z</time></trkpt><trkpt lat="43.9177217" lon="11.8380433"><ele>410.0</ele><time>2026-04-04T10:42:45.695Z</time></trkpt><trkpt lat="43.9179383" lon="11.8381217"><ele>410.0</ele><time>2026-04-04T10:42:46.695Z</time></trkpt><trkpt lat="43.9181333" lon="11.8382167"><ele>410.0</ele><time>2026-04-04T10:42:47.696Z</time></trkpt><trkpt lat="43.9182967" lon="11.838325"><ele>410.0</ele><time>2026-04-04T10:42:48.695Z</time></trkpt><trkpt lat="43.9184183" lon="11.8384783"><ele>412.3333333333333</ele><time>2026-04-04T10:42:49.695Z</time></trkpt><trkpt lat="43.91852" lon="11.838665"><ele>414.66666666666663</ele><time>2026-04-04T10:42:50.695Z</time></trkpt><trkpt lat="43.9186017" lon="11.8388883"><ele>417.0</ele><time>2026-04-04T10:42:51.696Z</time></trkpt><trkpt lat="43.9186483" lon="11.8391583"><ele>412.33333333333337</ele><time>2026-04-04T10:42:52.696Z</time></trkpt><trkpt lat="43.918715" lon="11.8394417"><ele>407.6666666666667</ele><time>2026-04-04T10:42:53.696Z</time></trkpt><trkpt lat="43.918785" lon="11.8397317"><ele>403.0</ele><time>2026-04-04T10:42:54.695Z</time></trkpt><trkpt lat="43.91886" lon="11.8400233"><ele>408.5</ele><time>2026-04-04T10:42:55.695Z</time></trkpt><trkpt lat="43.9189417" lon="11.8403233"><ele>414.0</ele><time>2026-04-04T10:42:56.695Z</time></trkpt><trkpt lat="43.919015" lon="11.8406283"><ele>414.0</ele><time>2026-04-04T10:42:57.696Z</time></trkpt><trkpt lat="43.9190583" lon="11.840965"><ele>414.0</ele><time>2026-04-04T10:42:58.696Z</time></trkpt><trkpt lat="43.9190917" lon="11.8412983"><ele>413.0</ele><time>2026-04-04T10:42:59.695Z</time></trkpt><trkpt lat="43.9191233" lon="11.84161"><ele>412.0</ele><time>2026-04-04T10:43:00.695Z</time></trkpt><trkpt lat="43.919155" lon="11.8419033"><ele>411.0</ele><time>2026-04-04T10:43:01.696Z</time></trkpt><trkpt lat="43.9191717" lon="11.8421867"><ele>410.0</ele><time>2026-04-04T10:43:02.696Z</time></trkpt><trkpt lat="43.91916" lon="11.8424333"><ele>409.0</ele><time>2026-04-04T10:43:03.696Z</time></trkpt><trkpt lat="43.9191533" lon="11.8426267"><ele>408.0</ele><time>2026-04-04T10:43:04.695Z</time></trkpt><trkpt lat="43.9191817" lon="11.8427883"><ele>407.0</ele><time>2026-04-04T10:43:05.695Z</time></trkpt><trkpt lat="43.9192467" lon="11.84292"><ele>406.75</ele><time>2026-04-04T10:43:06.695Z</time></trkpt><trkpt lat="43.9193383" lon="11.8430067"><ele>406.5</ele><time>2026-04-04T10:43:07.694Z</time></trkpt><trkpt lat="43.91946" lon="11.8430517"><ele>406.25</ele><time>2026-04-04T10:43:08.694Z</time></trkpt><trkpt lat="43.9195983" lon="11.8431317"><ele>406.0</ele><time>2026-04-04T10:43:09.695Z</time></trkpt><trkpt lat="43.919745" lon="11.843255"><ele>406.0</ele><time>2026-04-04T10:43:10.695Z</time></trkpt><trkpt lat="43.9198967" lon="11.8433833"><ele>406.0</ele><time>2026-04-04T10:43:11.694Z</time></trkpt><trkpt lat="43.9200733" lon="11.843475"><ele>406.0</ele><time>2026-04-04T10:43:12.694Z</time></trkpt><trkpt lat="43.9202533" lon="11.8435433"><ele>404.33333333333337</ele><time>2026-04-04T10:43:13.694Z</time></trkpt><trkpt lat="43.9204067" lon="11.8436217"><ele>402.66666666666663</ele><time>2026-04-04T10:43:14.694Z</time></trkpt><trkpt lat="43.9205183" lon="11.843755"><ele>401.0</ele><time>2026-04-04T10:43:15.694Z</time></trkpt><trkpt lat="43.9206017" lon="11.8439267"><ele>401.0</ele><time>2026-04-04T10:43:16.695Z</time></trkpt><trkpt lat="43.92068" lon="11.8441"><ele>401.0</ele><time>2026-04-04T10:43:17.694Z</time></trkpt><trkpt lat="43.920755" lon="11.8442433"><ele>401.0</ele><time>2026-04-04T10:43:18.694Z</time></trkpt><trkpt lat="43.9208517" lon="11.844315"><ele>401.0</ele><time>2026-04-04T10:43:19.694Z</time></trkpt><trkpt lat="43.920955" lon="11.8443017"><ele>399.25</ele><time>2026-04-04T10:43:20.694Z</time></trkpt><trkpt lat="43.9210733" lon="11.8442217"><ele>397.5</ele><time>2026-04-04T10:43:21.694Z</time></trkpt><trkpt lat="43.9212" lon="11.844125"><ele>395.75</ele><time>2026-04-04T10:43:22.694Z</time></trkpt><trkpt lat="43.9213517" lon="11.844045"><ele>394.0</ele><time>2026-04-04T10:43:23.695Z</time></trkpt><trkpt lat="43.9215067" lon="11.8440017"><ele>394.0</ele><time>2026-04-04T10:43:24.694Z</time></trkpt><trkpt lat="43.92167" lon="11.8440133"><ele>394.0</ele><time>2026-04-04T10:43:25.694Z</time></trkpt><trkpt lat="43.9218183" lon="11.8440667"><ele>394.0</ele><time>2026-04-04T10:43:26.694Z</time></trkpt><trkpt lat="43.921975" lon="11.8440967"><ele>390.6666666666667</ele><time>2026-04-04T10:43:27.694Z</time></trkpt><trkpt lat="43.9221417" lon="11.8440567"><ele>387.33333333333337</ele><time>2026-04-04T10:43:28.695Z</time></trkpt><trkpt lat="43.9223117" lon="11.8439617"><ele>384.0</ele><time>2026-04-04T10:43:29.694Z</time></trkpt><trkpt lat="43.9224867" lon="11.8438617"><ele>384.33333333333337</ele><time>2026-04-04T10:43:30.695Z</time></trkpt><trkpt lat="43.92268" lon="11.84378"><ele>384.6666666666667</ele><time>2026-04-04T10:43:31.694Z</time></trkpt><trkpt lat="43.92289" lon="11.8437367"><ele>385.0</ele><time>2026-04-04T10:43:32.694Z</time></trkpt><trkpt lat="43.923085" lon="11.8437383"><ele>385.0</ele><time>2026-04-04T10:43:33.695Z</time></trkpt><trkpt lat="43.9232633" lon="11.8437767"><ele>385.0</ele><time>2026-04-04T10:43:34.695Z</time></trkpt><trkpt lat="43.92343" lon="11.8438733"><ele>385.0</ele><time>2026-04-04T10:43:35.694Z</time></trkpt><trkpt lat="43.9235733" lon="11.8440267"><ele>395.33333333333337</ele><time>2026-04-04T10:43:36.695Z</time></trkpt><trkpt lat="43.923705" lon="11.8441967"><ele>405.66666666666663</ele><time>2026-04-04T10:43:37.694Z</time></trkpt><trkpt lat="43.9238067" lon="11.84441"><ele>416.0</ele><time>2026-04-04T10:43:38.694Z</time></trkpt><trkpt lat="43.92389" lon="11.8446533"><ele>416.0</ele><time>2026-04-04T10:43:39.694Z</time></trkpt><trkpt lat="43.9239317" lon="11.8449283"><ele>416.0</ele><time>2026-04-04T10:43:40.694Z</time></trkpt><trkpt lat="43.9239433" lon="11.8452233"><ele>416.0</ele><time>2026-04-04T10:43:41.695Z</time></trkpt><trkpt lat="43.9239217" lon="11.845515"><ele>416.66666666666663</ele><time>2026-04-04T10:43:42.694Z</time></trkpt><trkpt lat="43.9238567" lon="11.8458"><ele>417.33333333333337</ele><time>2026-04-04T10:43:43.694Z</time></trkpt><trkpt lat="43.923755" lon="11.8460567"><ele>418.0</ele><time>2026-04-04T10:43:44.694Z</time></trkpt><trkpt lat="43.9236367" lon="11.84629"><ele>422.0</ele><time>2026-04-04T10:43:45.695Z</time></trkpt><trkpt lat="43.9234983" lon="11.8464967"><ele>426.0</ele><time>2026-04-04T10:43:46.695Z</time></trkpt><trkpt lat="43.9233517" lon="11.8466833"><ele>430.0</ele><time>2026-04-04T10:43:47.694Z</time></trkpt><trkpt lat="43.9232167" lon="11.84686"><ele>419.33333333333337</ele><time>2026-04-04T10:43:48.694Z</time></trkpt><trkpt lat="43.9230933" lon="11.8470633"><ele>408.66666666666663</ele><time>2026-04-04T10:43:49.694Z</time></trkpt><trkpt lat="43.9229883" lon="11.8472867"><ele>398.0</ele><time>2026-04-04T10:43:50.694Z</time></trkpt><trkpt lat="43.9228583" lon="11.84749"><ele>393.0</ele><time>2026-04-04T10:43:51.694Z</time></trkpt><trkpt lat="43.9227317" lon="11.84767"><ele>388.0</ele><time>2026-04-04T10:43:52.695Z</time></trkpt><trkpt lat="43.9226217" lon="11.8478167"><ele>383.0</ele><time>2026-04-04T10:43:53.694Z</time></trkpt><trkpt lat="43.92255" lon="11.847945"><ele>383.0</ele><time>2026-04-04T10:43:54.695Z</time></trkpt><trkpt lat="43.92253" lon="11.8480867"><ele>383.0</ele><time>2026-04-04T10:43:55.694Z</time></trkpt><trkpt lat="43.9225667" lon="11.8482333"><ele>383.0</ele><time>2026-04-04T10:43:56.695Z</time></trkpt><trkpt lat="43.922635" lon="11.8483617"><ele>383.0</ele><time>2026-04-04T10:43:57.695Z</time></trkpt><trkpt lat="43.9227467" lon="11.8484183"><ele>383.0</ele><time>2026-04-04T10:43:58.694Z</time></trkpt><trkpt lat="43.92289" lon="11.8484017"><ele>383.0</ele><time>2026-04-04T10:43:59.695Z</time></trkpt><trkpt lat="43.9230433" lon="11.8483567"><ele>383.0</ele><time>2026-04-04T10:44:00.694Z</time></trkpt><trkpt lat="43.9232217" lon="11.8483183"><ele>381.6666666666667</ele><time>2026-04-04T10:44:01.695Z</time></trkpt><trkpt lat="43.923415" lon="11.8482717"><ele>380.3333333333333</ele><time>2026-04-04T10:44:02.695Z</time></trkpt><trkpt lat="43.92363" lon="11.848225"><ele>379.0</ele><time>2026-04-04T10:44:03.694Z</time></trkpt><trkpt lat="43.92386" lon="11.8481817"><ele>379.0</ele><time>2026-04-04T10:44:04.695Z</time></trkpt><trkpt lat="43.9240933" lon="11.8481317"><ele>379.0</ele><time>2026-04-04T10:44:05.694Z</time></trkpt><trkpt lat="43.9243383" lon="11.84807"><ele>372.5</ele><time>2026-04-04T10:44:06.694Z</time></trkpt><trkpt lat="43.9245767" lon="11.848"><ele>366.0</ele><time>2026-04-04T10:44:07.694Z</time></trkpt><trkpt lat="43.9248083" lon="11.8479267"><ele>366.0</ele><time>2026-04-04T10:44:08.694Z</time></trkpt><trkpt lat="43.9250433" lon="11.8478617"><ele>366.0</ele><time>2026-04-04T10:44:09.694Z</time></trkpt><trkpt lat="43.9252767" lon="11.847825"><ele>365.5</ele><time>2026-04-04T10:44:10.695Z</time></trkpt><trkpt lat="43.9255017" lon="11.84781"><ele>365.0</ele><time>2026-04-04T10:44:11.695Z</time></trkpt><trkpt lat="43.9257267" lon="11.8478383"><ele>370.5</ele><time>2026-04-04T10:44:12.694Z</time></trkpt><trkpt lat="43.9259483" lon="11.8479117"><ele>376.0</ele><time>2026-04-04T10:44:13.694Z</time></trkpt><trkpt lat="43.9261617" lon="11.8480183"><ele>376.0</ele><time>2026-04-04T10:44:14.694Z</time></trkpt><trkpt lat="43.9263533" lon="11.848135"><ele>376.0</ele><time>2026-04-04T10:44:15.694Z</time></trkpt><trkpt lat="43.9265283" lon="11.8483017"><ele>376.0</ele><time>2026-04-04T10:44:16.694Z</time></trkpt><trkpt lat="43.9266933" lon="11.848515"><ele>375.0</ele><time>2026-04-04T10:44:17.695Z</time></trkpt><trkpt lat="43.9268667" lon="11.8487233"><ele>374.0</ele><time>2026-04-04T10:44:18.695Z</time></trkpt><trkpt lat="43.9270667" lon="11.8488833"><ele>374.0</ele><time>2026-04-04T10:44:19.694Z</time></trkpt><trkpt lat="43.9272817" lon="11.84902"><ele>374.0</ele><time>2026-04-04T10:44:20.694Z</time></trkpt><trkpt lat="43.927505" lon="11.849135"><ele>376.5</ele><time>2026-04-04T10:44:21.694Z</time></trkpt><trkpt lat="43.9277467" lon="11.8492133"><ele>379.0</ele><time>2026-04-04T10:44:22.694Z</time></trkpt><trkpt lat="43.9280017" lon="11.8492617"><ele>373.0</ele><time>2026-04-04T10:44:23.694Z</time></trkpt><trkpt lat="43.92825" lon="11.84931"><ele>367.0</ele><time>2026-04-04T10:44:24.694Z</time></trkpt><trkpt lat="43.9285133" lon="11.8493783"><ele>367.0</ele><time>2026-04-04T10:44:25.695Z</time></trkpt><trkpt lat="43.9287683" lon="11.8494667"><ele>367.0</ele><time>2026-04-04T10:44:26.694Z</time></trkpt><trkpt lat="43.9290067" lon="11.84956"><ele>370.5</ele><time>2026-04-04T10:44:27.695Z</time></trkpt><trkpt lat="43.9292333" lon="11.8496617"><ele>374.0</ele><time>2026-04-04T10:44:28.694Z</time></trkpt><trkpt lat="43.929445" lon="11.8497683"><ele>374.0</ele><time>2026-04-04T10:44:29.694Z</time></trkpt><trkpt lat="43.9296383" lon="11.8498817"><ele>374.0</ele><time>2026-04-04T10:44:30.695Z</time></trkpt><trkpt lat="43.9297983" lon="11.8499817"><ele>374.0</ele><time>2026-04-04T10:44:31.694Z</time></trkpt><trkpt lat="43.9299217" lon="11.8500767"><ele>373.25</ele><time>2026-04-04T10:44:32.694Z</time></trkpt><trkpt lat="43.9300067" lon="11.8501933"><ele>372.5</ele><time>2026-04-04T10:44:33.694Z</time></trkpt><trkpt lat="43.9300783" lon="11.850345"><ele>371.75</ele><time>2026-04-04T10:44:34.694Z</time></trkpt><trkpt lat="43.9300983" lon="11.8505467"><ele>371.0</ele><time>2026-04-04T10:44:35.695Z</time></trkpt><trkpt lat="43.9301083" lon="11.85073"><ele>372.0</ele><time>2026-04-04T10:44:36.694Z</time></trkpt><trkpt lat="43.930075" lon="11.8508917"><ele>373.0</ele><time>2026-04-04T10:44:37.695Z</time></trkpt><trkpt lat="43.9299983" lon="11.85105"><ele>374.0</ele><time>2026-04-04T10:44:38.694Z</time></trkpt><trkpt lat="43.929905" lon="11.8512233"><ele>375.0</ele><time>2026-04-04T10:44:39.694Z</time></trkpt><trkpt lat="43.9298467" lon="11.851425"><ele>375.0</ele><time>2026-04-04T10:44:40.694Z</time></trkpt><trkpt lat="43.929815" lon="11.8516517"><ele>375.0</ele><time>2026-04-04T10:44:41.694Z</time></trkpt><trkpt lat="43.9297833" lon="11.8518917"><ele>375.0</ele><time>2026-04-04T10:44:42.695Z</time></trkpt><trkpt lat="43.9297483" lon="11.8521483"><ele>374.6666666666667</ele><time>2026-04-04T10:44:43.695Z</time></trkpt><trkpt lat="43.9297183" lon="11.85241"><ele>374.33333333333337</ele><time>2026-04-04T10:44:44.694Z</time></trkpt><trkpt lat="43.9297117" lon="11.85268"><ele>374.0</ele><time>2026-04-04T10:44:45.695Z</time></trkpt><trkpt lat="43.9297567" lon="11.85294"><ele>372.6666666666667</ele><time>2026-04-04T10:44:46.694Z</time></trkpt><trkpt lat="43.9298333" lon="11.85321"><ele>371.3333333333333</ele><time>2026-04-04T10:44:47.694Z</time></trkpt><trkpt lat="43.92993" lon="11.8534883"><ele>370.0</ele><time>2026-04-04T10:44:48.695Z</time></trkpt><trkpt lat="43.93003" lon="11.85376"><ele>377.3333333333333</ele><time>2026-04-04T10:44:49.694Z</time></trkpt><trkpt lat="43.9301217" lon="11.854025"><ele>384.66666666666663</ele><time>2026-04-04T10:44:50.694Z</time></trkpt><trkpt lat="43.9301783" lon="11.854305"><ele>392.0</ele><time>2026-04-04T10:44:51.694Z</time></trkpt><trkpt lat="43.93021" lon="11.8545717"><ele>392.0</ele><time>2026-04-04T10:44:52.695Z</time></trkpt><trkpt lat="43.93024" lon="11.8548233"><ele>392.0</ele><time>2026-04-04T10:44:53.694Z</time></trkpt><trkpt lat="43.9303167" lon="11.8550667"><ele>392.0</ele><time>2026-04-04T10:44:54.695Z</time></trkpt><trkpt lat="43.9304417" lon="11.8553033"><ele>387.66666666666663</ele><time>2026-04-04T10:44:55.695Z</time></trkpt><trkpt lat="43.9305917" lon="11.8555233"><ele>383.3333333333333</ele><time>2026-04-04T10:44:56.695Z</time></trkpt><trkpt lat="43.9307433" lon="11.8557567"><ele>379.0</ele><time>2026-04-04T10:44:57.695Z</time></trkpt><trkpt lat="43.9308983" lon="11.856005"><ele>379.0</ele><time>2026-04-04T10:44:58.695Z</time></trkpt><trkpt lat="43.9310433" lon="11.856245"><ele>379.0</ele><time>2026-04-04T10:44:59.695Z</time></trkpt><trkpt lat="43.93117" lon="11.8564733"><ele>379.0</ele><time>2026-04-04T10:45:00.695Z</time></trkpt><trkpt lat="43.9312667" lon="11.85671"><ele>380.3333333333333</ele><time>2026-04-04T10:45:01.695Z</time></trkpt><trkpt lat="43.9313433" lon="11.8569767"><ele>381.6666666666667</ele><time>2026-04-04T10:45:02.695Z</time></trkpt><trkpt lat="43.9313883" lon="11.8572617"><ele>383.0</ele><time>2026-04-04T10:45:03.695Z</time></trkpt><trkpt lat="43.9314317" lon="11.8575667"><ele>382.5</ele><time>2026-04-04T10:45:04.694Z</time></trkpt><trkpt lat="43.931485" lon="11.85788"><ele>382.0</ele><time>2026-04-04T10:45:05.694Z</time></trkpt><trkpt lat="43.9315383" lon="11.8581983"><ele>378.0</ele><time>2026-04-04T10:45:06.694Z</time></trkpt><trkpt lat="43.9315967" lon="11.8585117"><ele>374.0</ele><time>2026-04-04T10:45:07.694Z</time></trkpt><trkpt lat="43.9316467" lon="11.8588183"><ele>374.0</ele><time>2026-04-04T10:45:08.694Z</time></trkpt><trkpt lat="43.931685" lon="11.8591217"><ele>374.0</ele><time>2026-04-04T10:45:09.694Z</time></trkpt><trkpt lat="43.9316767" lon="11.8594367"><ele>374.0</ele><time>2026-04-04T10:45:10.695Z</time></trkpt><trkpt lat="43.931655" lon="11.8597633"><ele>375.33333333333337</ele><time>2026-04-04T10:45:11.694Z</time></trkpt><trkpt lat="43.9316133" lon="11.8600683"><ele>376.6666666666667</ele><time>2026-04-04T10:45:12.695Z</time></trkpt><trkpt lat="43.9315617" lon="11.86034"><ele>378.0</ele><time>2026-04-04T10:45:13.694Z</time></trkpt><trkpt lat="43.9315267" lon="11.86061"><ele>378.0</ele><time>2026-04-04T10:45:14.695Z</time></trkpt><trkpt lat="43.931505" lon="11.8608617"><ele>378.0</ele><time>2026-04-04T10:45:15.694Z</time></trkpt><trkpt lat="43.931485" lon="11.8610467"><ele>378.0</ele><time>2026-04-04T10:45:16.694Z</time></trkpt><trkpt lat="43.9314517" lon="11.8611883"><ele>378.0</ele><time>2026-04-04T10:45:17.695Z</time></trkpt><trkpt lat="43.931375" lon="11.8613283"><ele>386.33333333333337</ele><time>2026-04-04T10:45:18.695Z</time></trkpt><trkpt lat="43.9312517" lon="11.8614233"><ele>394.6666666666667</ele><time>2026-04-04T10:45:19.694Z</time></trkpt><trkpt lat="43.9310967" lon="11.86155"><ele>403.0</ele><time>2026-04-04T10:45:20.694Z</time></trkpt><trkpt lat="43.93095" lon="11.8616983"><ele>396.6666666666667</ele><time>2026-04-04T10:45:21.695Z</time></trkpt><trkpt lat="43.9308133" lon="11.8618683"><ele>390.33333333333337</ele><time>2026-04-04T10:45:22.695Z</time></trkpt><trkpt lat="43.9306867" lon="11.8620567"><ele>384.0</ele><time>2026-04-04T10:45:23.694Z</time></trkpt><trkpt lat="43.930575" lon="11.8622283"><ele>384.0</ele><time>2026-04-04T10:45:24.694Z</time></trkpt><trkpt lat="43.9304517" lon="11.8623567"><ele>384.0</ele><time>2026-04-04T10:45:25.695Z</time></trkpt><trkpt lat="43.930345" lon="11.8624783"><ele>384.0</ele><time>2026-04-04T10:45:26.695Z</time></trkpt><trkpt lat="43.9302567" lon="11.862635"><ele>384.0</ele><time>2026-04-04T10:45:27.694Z</time></trkpt><trkpt lat="43.9301883" lon="11.8628317"><ele>386.0</ele><time>2026-04-04T10:45:28.694Z</time></trkpt><trkpt lat="43.9301283" lon="11.8630233"><ele>388.0</ele><time>2026-04-04T10:45:29.695Z</time></trkpt><trkpt lat="43.9300933" lon="11.8631833"><ele>390.0</ele><time>2026-04-04T10:45:30.694Z</time></trkpt><trkpt lat="43.9301117" lon="11.8633533"><ele>392.0</ele><time>2026-04-04T10:45:31.694Z</time></trkpt><trkpt lat="43.9301783" lon="11.86353"><ele>392.0</ele><time>2026-04-04T10:45:32.694Z</time></trkpt><trkpt lat="43.9302467" lon="11.8637033"><ele>392.0</ele><time>2026-04-04T10:45:33.694Z</time></trkpt><trkpt lat="43.9302883" lon="11.8638767"><ele>392.0</ele><time>2026-04-04T10:45:34.695Z</time></trkpt><trkpt lat="43.9302867" lon="11.8640933"><ele>392.0</ele><time>2026-04-04T10:45:35.695Z</time></trkpt><trkpt lat="43.9302567" lon="11.864315"><ele>392.5</ele><time>2026-04-04T10:45:36.695Z</time></trkpt><trkpt lat="43.93021" lon="11.8645267"><ele>393.0</ele><time>2026-04-04T10:45:37.695Z</time></trkpt><trkpt lat="43.9301667" lon="11.86471"><ele>393.5</ele><time>2026-04-04T10:45:38.694Z</time></trkpt><trkpt lat="43.930155" lon="11.8648517"><ele>394.0</ele><time>2026-04-04T10:45:39.695Z</time></trkpt><trkpt lat="43.9301833" lon="11.8649917"><ele>392.75</ele><time>2026-04-04T10:45:40.694Z</time></trkpt><trkpt lat="43.9302483" lon="11.8651383"><ele>391.5</ele><time>2026-04-04T10:45:41.694Z</time></trkpt><trkpt lat="43.9303283" lon="11.8652933"><ele>390.25</ele><time>2026-04-04T10:45:42.694Z</time></trkpt><trkpt lat="43.9304033" lon="11.8654967"><ele>389.0</ele><time>2026-04-04T10:45:43.694Z</time></trkpt><trkpt lat="43.93046" lon="11.8657333"><ele>386.66666666666663</ele><time>2026-04-04T10:45:44.695Z</time></trkpt><trkpt lat="43.930505" lon="11.86599"><ele>384.3333333333333</ele><time>2026-04-04T10:45:45.694Z</time></trkpt><trkpt lat="43.9305333" lon="11.8662483"><ele>382.0</ele><time>2026-04-04T10:45:46.695Z</time></trkpt><trkpt lat="43.9305417" lon="11.866485"><ele>382.0</ele><time>2026-04-04T10:45:47.695Z</time></trkpt><trkpt lat="43.93056" lon="11.866685"><ele>382.0</ele><time>2026-04-04T10:45:48.695Z</time></trkpt><trkpt lat="43.9306017" lon="11.8668533"><ele>382.0</ele><time>2026-04-04T10:45:49.695Z</time></trkpt><trkpt lat="43.93067" lon="11.867015"><ele>382.0</ele><time>2026-04-04T10:45:50.695Z</time></trkpt><trkpt lat="43.9307533" lon="11.8671867"><ele>380.75</ele><time>2026-04-04T10:45:51.694Z</time></trkpt><trkpt lat="43.930825" lon="11.8673767"><ele>379.5</ele><time>2026-04-04T10:45:52.695Z</time></trkpt><trkpt lat="43.9308717" lon="11.8675583"><ele>378.25</ele><time>2026-04-04T10:45:53.694Z</time></trkpt><trkpt lat="43.9308617" lon="11.8677433"><ele>377.0</ele><time>2026-04-04T10:45:54.695Z</time></trkpt><trkpt lat="43.93081" lon="11.8679117"><ele>383.6666666666667</ele><time>2026-04-04T10:45:55.694Z</time></trkpt><trkpt lat="43.9307183" lon="11.8680617"><ele>390.33333333333337</ele><time>2026-04-04T10:45:56.694Z</time></trkpt><trkpt lat="43.93059" lon="11.8681717"><ele>397.0</ele><time>2026-04-04T10:45:57.694Z</time></trkpt><trkpt lat="43.930455" lon="11.86829"><ele>397.0</ele><time>2026-04-04T10:45:58.695Z</time></trkpt><trkpt lat="43.9303267" lon="11.8684183"><ele>397.0</ele><time>2026-04-04T10:45:59.695Z</time></trkpt><trkpt lat="43.9302367" lon="11.868605"><ele>397.0</ele><time>2026-04-04T10:46:00.694Z</time></trkpt><trkpt lat="43.9301367" lon="11.8687917"><ele>390.6666666666667</ele><time>2026-04-04T10:46:01.694Z</time></trkpt><trkpt lat="43.9300033" lon="11.868965"><ele>384.33333333333337</ele><time>2026-04-04T10:46:02.694Z</time></trkpt><trkpt lat="43.9298133" lon="11.8691267"><ele>378.0</ele><time>2026-04-04T10:46:03.694Z</time></trkpt><trkpt lat="43.9296333" lon="11.8692833"><ele>397.5</ele><time>2026-04-04T10:46:04.695Z</time></trkpt><trkpt lat="43.9294333" lon="11.8694467"><ele>417.0</ele><time>2026-04-04T10:46:05.694Z</time></trkpt><trkpt lat="43.9292267" lon="11.86962"><ele>398.5</ele><time>2026-04-04T10:46:06.695Z</time></trkpt><trkpt lat="43.9290167" lon="11.8697917"><ele>380.0</ele><time>2026-04-04T10:46:07.695Z</time></trkpt><trkpt lat="43.928815" lon="11.8699833"><ele>396.5</ele><time>2026-04-04T10:46:08.695Z</time></trkpt><trkpt lat="43.92862" lon="11.870195"><ele>413.0</ele><time>2026-04-04T10:46:09.694Z</time></trkpt><trkpt lat="43.928435" lon="11.8704233"><ele>391.0</ele><time>2026-04-04T10:46:10.694Z</time></trkpt><trkpt lat="43.9282483" lon="11.8706583"><ele>369.0</ele><time>2026-04-04T10:46:11.694Z</time></trkpt><trkpt lat="43.9280717" lon="11.87088"><ele>384.0</ele><time>2026-04-04T10:46:12.694Z</time></trkpt><trkpt lat="43.9278883" lon="11.8710983"><ele>399.0</ele><time>2026-04-04T10:46:13.695Z</time></trkpt><trkpt lat="43.9276983" lon="11.87131"><ele>382.0</ele><time>2026-04-04T10:46:14.695Z</time></trkpt><trkpt lat="43.9275033" lon="11.87151"><ele>365.0</ele><time>2026-04-04T10:46:15.694Z</time></trkpt><trkpt lat="43.9273" lon="11.8717017"><ele>377.0</ele><time>2026-04-04T10:46:16.694Z</time></trkpt><trkpt lat="43.9271" lon="11.8718833"><ele>389.0</ele><time>2026-04-04T10:46:17.695Z</time></trkpt><trkpt lat="43.9269117" lon="11.87206"><ele>389.0</ele><time>2026-04-04T10:46:18.694Z</time></trkpt><trkpt lat="43.926735" lon="11.8722333"><ele>389.0</ele><time>2026-04-04T10:46:19.694Z</time></trkpt><trkpt lat="43.92658" lon="11.8724167"><ele>389.0</ele><time>2026-04-04T10:46:20.694Z</time></trkpt><trkpt lat="43.9264467" lon="11.8726267"><ele>385.3333333333333</ele><time>2026-04-04T10:46:21.694Z</time></trkpt><trkpt lat="43.926325" lon="11.8728733"><ele>381.66666666666663</ele><time>2026-04-04T10:46:22.694Z</time></trkpt><trkpt lat="43.9262117" lon="11.87314"><ele>378.0</ele><time>2026-04-04T10:46:23.694Z</time></trkpt><trkpt lat="43.9260983" lon="11.8734067"><ele>380.66666666666663</ele><time>2026-04-04T10:46:24.695Z</time></trkpt><trkpt lat="43.9259883" lon="11.8736467"><ele>383.3333333333333</ele><time>2026-04-04T10:46:25.694Z</time></trkpt><trkpt lat="43.9258833" lon="11.8738733"><ele>386.0</ele><time>2026-04-04T10:46:26.694Z</time></trkpt><trkpt lat="43.9257817" lon="11.8740983"><ele>375.0</ele><time>2026-04-04T10:46:27.694Z</time></trkpt><trkpt lat="43.9257133" lon="11.87433"><ele>364.0</ele><time>2026-04-04T10:46:28.694Z</time></trkpt><trkpt lat="43.9256667" lon="11.8745883"><ele>353.0</ele><time>2026-04-04T10:46:29.694Z</time></trkpt><trkpt lat="43.9256267" lon="11.874845"><ele>353.0</ele><time>2026-04-04T10:46:30.694Z</time></trkpt><trkpt lat="43.9256017" lon="11.8750983"><ele>353.0</ele><time>2026-04-04T10:46:31.695Z</time></trkpt><trkpt lat="43.9255683" lon="11.8753233"><ele>353.0</ele><time>2026-04-04T10:46:32.694Z</time></trkpt><trkpt lat="43.9255233" lon="11.8755083"><ele>353.25</ele><time>2026-04-04T10:46:33.695Z</time></trkpt><trkpt lat="43.9254517" lon="11.8756467"><ele>353.5</ele><time>2026-04-04T10:46:34.694Z</time></trkpt><trkpt lat="43.92536" lon="11.8757533"><ele>353.75</ele><time>2026-04-04T10:46:35.694Z</time></trkpt><trkpt lat="43.9252317" lon="11.875845"><ele>354.0</ele><time>2026-04-04T10:46:36.694Z</time></trkpt><trkpt lat="43.925125" lon="11.8759583"><ele>350.25</ele><time>2026-04-04T10:46:37.694Z</time></trkpt><trkpt lat="43.9250567" lon="11.8761"><ele>346.5</ele><time>2026-04-04T10:46:38.695Z</time></trkpt><trkpt lat="43.9250533" lon="11.87628"><ele>342.75</ele><time>2026-04-04T10:46:39.695Z</time></trkpt><trkpt lat="43.9250983" lon="11.8764833"><ele>339.0</ele><time>2026-04-04T10:46:40.694Z</time></trkpt><trkpt lat="43.9251567" lon="11.8766967"><ele>350.6666666666667</ele><time>2026-04-04T10:46:41.695Z</time></trkpt><trkpt lat="43.9252" lon="11.8769467"><ele>362.33333333333337</ele><time>2026-04-04T10:46:42.695Z</time></trkpt><trkpt lat="43.92521" lon="11.87723"><ele>374.0</ele><time>2026-04-04T10:46:43.694Z</time></trkpt><trkpt lat="43.925215" lon="11.8775117"><ele>371.33333333333337</ele><time>2026-04-04T10:46:44.694Z</time></trkpt><trkpt lat="43.9252" lon="11.8777817"><ele>368.6666666666667</ele><time>2026-04-04T10:46:45.694Z</time></trkpt><trkpt lat="43.9251583" lon="11.878045"><ele>366.0</ele><time>2026-04-04T10:46:46.695Z</time></trkpt><trkpt lat="43.925085" lon="11.878295"><ele>355.3333333333333</ele><time>2026-04-04T10:46:47.694Z</time></trkpt><trkpt lat="43.9250217" lon="11.8785317"><ele>344.66666666666663</ele><time>2026-04-04T10:46:48.694Z</time></trkpt><trkpt lat="43.9249783" lon="11.8787733"><ele>334.0</ele><time>2026-04-04T10:46:49.694Z</time></trkpt><trkpt lat="43.92498" lon="11.8790367"><ele>331.0</ele><time>2026-04-04T10:46:50.694Z</time></trkpt><trkpt lat="43.9250217" lon="11.8793167"><ele>328.0</ele><time>2026-04-04T10:46:51.695Z</time></trkpt><trkpt lat="43.925095" lon="11.8796017"><ele>325.0</ele><time>2026-04-04T10:46:52.694Z</time></trkpt><trkpt lat="43.9251833" lon="11.8798833"><ele>334.5</ele><time>2026-04-04T10:46:53.695Z</time></trkpt><trkpt lat="43.925285" lon="11.8801717"><ele>344.0</ele><time>2026-04-04T10:46:54.695Z</time></trkpt><trkpt lat="43.9254" lon="11.8804567"><ele>344.0</ele><time>2026-04-04T10:46:55.694Z</time></trkpt><trkpt lat="43.9255117" lon="11.880745"><ele>344.0</ele><time>2026-04-04T10:46:56.694Z</time></trkpt><trkpt lat="43.9256233" lon="11.881025"><ele>336.5</ele><time>2026-04-04T10:46:57.694Z</time></trkpt><trkpt lat="43.9257283" lon="11.881305"><ele>329.0</ele><time>2026-04-04T10:46:58.694Z</time></trkpt><trkpt lat="43.925845" lon="11.881585"><ele>333.0</ele><time>2026-04-04T10:46:59.694Z</time></trkpt><trkpt lat="43.9259883" lon="11.8818533"><ele>337.0</ele><time>2026-04-04T10:47:00.694Z</time></trkpt><trkpt lat="43.92614" lon="11.8821033"><ele>337.0</ele><time>2026-04-04T10:47:01.695Z</time></trkpt><trkpt lat="43.9263067" lon="11.8823467"><ele>337.0</ele><time>2026-04-04T10:47:02.695Z</time></trkpt><trkpt lat="43.9264833" lon="11.8825717"><ele>340.5</ele><time>2026-04-04T10:47:03.695Z</time></trkpt><trkpt lat="43.9266717" lon="11.8827933"><ele>344.0</ele><time>2026-04-04T10:47:04.695Z</time></trkpt><trkpt lat="43.926855" lon="11.8830217"><ele>344.0</ele><time>2026-04-04T10:47:05.694Z</time></trkpt><trkpt lat="43.9270383" lon="11.883255"><ele>344.0</ele><time>2026-04-04T10:47:06.694Z</time></trkpt><trkpt lat="43.927225" lon="11.8834967"><ele>353.5</ele><time>2026-04-04T10:47:07.695Z</time></trkpt><trkpt lat="43.9274133" lon="11.88372"><ele>363.0</ele><time>2026-04-04T10:47:08.694Z</time></trkpt><trkpt lat="43.9275967" lon="11.8839267"><ele>363.0</ele><time>2026-04-04T10:47:09.694Z</time></trkpt><trkpt lat="43.92777" lon="11.8841233"><ele>363.0</ele><time>2026-04-04T10:47:10.695Z</time></trkpt><trkpt lat="43.927915" lon="11.88435"><ele>363.0</ele><time>2026-04-04T10:47:11.694Z</time></trkpt><trkpt lat="43.92805" lon="11.8846117"><ele>351.5</ele><time>2026-04-04T10:47:12.694Z</time></trkpt><trkpt lat="43.9281583" lon="11.8848917"><ele>340.0</ele><time>2026-04-04T10:47:13.694Z</time></trkpt><trkpt lat="43.9282483" lon="11.88518"><ele>331.0</ele><time>2026-04-04T10:47:14.694Z</time></trkpt><trkpt lat="43.9283133" lon="11.8854917"><ele>322.0</ele><time>2026-04-04T10:47:15.694Z</time></trkpt><trkpt lat="43.9283617" lon="11.8858133"><ele>331.0</ele><time>2026-04-04T10:47:16.695Z</time></trkpt><trkpt lat="43.9284117" lon="11.8861333"><ele>340.0</ele><time>2026-04-04T10:47:17.695Z</time></trkpt><trkpt lat="43.928465" lon="11.8864433"><ele>340.0</ele><time>2026-04-04T10:47:18.694Z</time></trkpt><trkpt lat="43.9285433" lon="11.886725"><ele>340.0</ele><time>2026-04-04T10:47:19.695Z</time></trkpt><trkpt lat="43.92865" lon="11.8869717"><ele>340.0</ele><time>2026-04-04T10:47:20.694Z</time></trkpt><trkpt lat="43.9287917" lon="11.88719"><ele>334.5</ele><time>2026-04-04T10:47:21.695Z</time></trkpt><trkpt lat="43.9289533" lon="11.8873983"><ele>329.0</ele><time>2026-04-04T10:47:22.694Z</time></trkpt><trkpt lat="43.929135" lon="11.8876033"><ele>325.5</ele><time>2026-04-04T10:47:23.695Z</time></trkpt><trkpt lat="43.92933" lon="11.8878183"><ele>322.0</ele><time>2026-04-04T10:47:24.695Z</time></trkpt><trkpt lat="43.9295283" lon="11.8880367"><ele>322.0</ele><time>2026-04-04T10:47:25.695Z</time></trkpt><trkpt lat="43.929725" lon="11.8882617"><ele>322.0</ele><time>2026-04-04T10:47:26.695Z</time></trkpt><trkpt lat="43.9299117" lon="11.88849"><ele>321.0</ele><time>2026-04-04T10:47:27.695Z</time></trkpt><trkpt lat="43.9300883" lon="11.88871"><ele>320.0</ele><time>2026-04-04T10:47:28.694Z</time></trkpt><trkpt lat="43.93026" lon="11.8889033"><ele>320.0</ele><time>2026-04-04T10:47:29.695Z</time></trkpt><trkpt lat="43.9304333" lon="11.88908"><ele>320.0</ele><time>2026-04-04T10:47:30.694Z</time></trkpt><trkpt lat="43.93064" lon="11.889225"><ele>320.0</ele><time>2026-04-04T10:47:31.694Z</time></trkpt><trkpt lat="43.93087" lon="11.8893433"><ele>319.0</ele><time>2026-04-04T10:47:32.694Z</time></trkpt><trkpt lat="43.9310883" lon="11.889455"><ele>318.0</ele><time>2026-04-04T10:47:33.695Z</time></trkpt><trkpt lat="43.931285" lon="11.88961"><ele>318.0</ele><time>2026-04-04T10:47:34.694Z</time></trkpt><trkpt lat="43.9314767" lon="11.889815"><ele>318.0</ele><time>2026-04-04T10:47:35.694Z</time></trkpt><trkpt lat="43.93166" lon="11.8900417"><ele>318.5</ele><time>2026-04-04T10:47:36.694Z</time></trkpt><trkpt lat="43.9318533" lon="11.8902683"><ele>319.0</ele><time>2026-04-04T10:47:37.695Z</time></trkpt><trkpt lat="43.9320383" lon="11.8904867"><ele>319.0</ele><time>2026-04-04T10:47:38.694Z</time></trkpt><trkpt lat="43.9322183" lon="11.8906767"><ele>319.0</ele><time>2026-04-04T10:47:39.695Z</time></trkpt><trkpt lat="43.9324117" lon="11.8908417"><ele>317.66666666666663</ele><time>2026-04-04T10:47:40.695Z</time></trkpt><trkpt lat="43.9326233" lon="11.8909517"><ele>316.3333333333333</ele><time>2026-04-04T10:47:41.694Z</time></trkpt><trkpt lat="43.9328233" lon="11.8910417"><ele>315.0</ele><time>2026-04-04T10:47:42.695Z</time></trkpt><trkpt lat="43.933015" lon="11.891135"><ele>315.0</ele><time>2026-04-04T10:47:43.694Z</time></trkpt><trkpt lat="43.9331783" lon="11.8913"><ele>315.0</ele><time>2026-04-04T10:47:44.694Z</time></trkpt><trkpt lat="43.9333367" lon="11.8915017"><ele>315.0</ele><time>2026-04-04T10:47:45.694Z</time></trkpt><trkpt lat="43.9334933" lon="11.8917233"><ele>315.6666666666667</ele><time>2026-04-04T10:47:46.694Z</time></trkpt><trkpt lat="43.933655" lon="11.89191"><ele>316.33333333333337</ele><time>2026-04-04T10:47:47.694Z</time></trkpt><trkpt lat="43.9337933" lon="11.8920917"><ele>317.0</ele><time>2026-04-04T10:47:48.694Z</time></trkpt><trkpt lat="43.9339" lon="11.8922717"><ele>317.0</ele><time>2026-04-04T10:47:49.695Z</time></trkpt><trkpt lat="43.9339683" lon="11.8924667"><ele>317.0</ele><time>2026-04-04T10:47:50.695Z</time></trkpt><trkpt lat="43.933985" lon="11.8926817"><ele>317.0</ele><time>2026-04-04T10:47:51.694Z</time></trkpt><trkpt lat="43.933985" lon="11.8929017"><ele>315.0</ele><time>2026-04-04T10:47:52.694Z</time></trkpt><trkpt lat="43.9340283" lon="11.893095"><ele>313.0</ele><time>2026-04-04T10:47:53.694Z</time></trkpt><trkpt lat="43.9341317" lon="11.893275"><ele>311.0</ele><time>2026-04-04T10:47:54.694Z</time></trkpt><trkpt lat="43.9342733" lon="11.89344"><ele>310.33333333333337</ele><time>2026-04-04T10:47:55.695Z</time></trkpt><trkpt lat="43.93443" lon="11.8936017"><ele>309.6666666666667</ele><time>2026-04-04T10:47:56.695Z</time></trkpt><trkpt lat="43.9345867" lon="11.893765"><ele>309.0</ele><time>2026-04-04T10:47:57.694Z</time></trkpt><trkpt lat="43.93472" lon="11.893925"><ele>309.0</ele><time>2026-04-04T10:47:58.694Z</time></trkpt><trkpt lat="43.9348133" lon="11.8940833"><ele>309.0</ele><time>2026-04-04T10:47:59.694Z</time></trkpt><trkpt lat="43.9348683" lon="11.89426"><ele>309.0</ele><time>2026-04-04T10:48:00.695Z</time></trkpt><trkpt lat="43.9348817" lon="11.8944483"><ele>309.0</ele><time>2026-04-04T10:48:01.695Z</time></trkpt><trkpt lat="43.9348233" lon="11.8946383"><ele>309.3333333333333</ele><time>2026-04-04T10:48:02.695Z</time></trkpt><trkpt lat="43.9347633" lon="11.8948567"><ele>309.66666666666663</ele><time>2026-04-04T10:48:03.694Z</time></trkpt><trkpt lat="43.93474" lon="11.8951"><ele>310.0</ele><time>2026-04-04T10:48:04.694Z</time></trkpt><trkpt lat="43.93474" lon="11.895365"><ele>309.3333333333333</ele><time>2026-04-04T10:48:05.694Z</time></trkpt><trkpt lat="43.93476" lon="11.895645"><ele>308.6666666666667</ele><time>2026-04-04T10:48:06.694Z</time></trkpt><trkpt lat="43.9347967" lon="11.8959167"><ele>308.0</ele><time>2026-04-04T10:48:07.695Z</time></trkpt><trkpt lat="43.934865" lon="11.89617"><ele>309.0</ele><time>2026-04-04T10:48:08.694Z</time></trkpt><trkpt lat="43.934955" lon="11.8964183"><ele>310.0</ele><time>2026-04-04T10:48:09.695Z</time></trkpt><trkpt lat="43.93507" lon="11.89665"><ele>311.0</ele><time>2026-04-04T10:48:10.695Z</time></trkpt><trkpt lat="43.9352167" lon="11.896835"><ele>306.33333333333337</ele><time>2026-04-04T10:48:11.695Z</time></trkpt><trkpt lat="43.9353733" lon="11.8970067"><ele>301.6666666666667</ele><time>2026-04-04T10:48:12.695Z</time></trkpt><trkpt lat="43.9355317" lon="11.8971683"><ele>297.0</ele><time>2026-04-04T10:48:13.694Z</time></trkpt><trkpt lat="43.93568" lon="11.897325"><ele>297.0</ele><time>2026-04-04T10:48:14.694Z</time></trkpt><trkpt lat="43.9358217" lon="11.8974783"><ele>297.0</ele><time>2026-04-04T10:48:15.694Z</time></trkpt><trkpt lat="43.93596" lon="11.8976067"><ele>297.0</ele><time>2026-04-04T10:48:16.694Z</time></trkpt><trkpt lat="43.936115" lon="11.897685"><ele>295.6666666666667</ele><time>2026-04-04T10:48:17.695Z</time></trkpt><trkpt lat="43.93629" lon="11.897695"><ele>294.33333333333337</ele><time>2026-04-04T10:48:18.694Z</time></trkpt><trkpt lat="43.9364633" lon="11.8976817"><ele>293.0</ele><time>2026-04-04T10:48:19.694Z</time></trkpt><trkpt lat="43.9366367" lon="11.89767"><ele>294.0</ele><time>2026-04-04T10:48:20.694Z</time></trkpt><trkpt lat="43.9368033" lon="11.8977133"><ele>295.0</ele><time>2026-04-04T10:48:21.694Z</time></trkpt><trkpt lat="43.9369733" lon="11.8978033"><ele>296.0</ele><time>2026-04-04T10:48:22.694Z</time></trkpt><trkpt lat="43.9371433" lon="11.8979367"><ele>296.0</ele><time>2026-04-04T10:48:23.694Z</time></trkpt><trkpt lat="43.9373117" lon="11.8981183"><ele>296.0</ele><time>2026-04-04T10:48:24.695Z</time></trkpt><trkpt lat="43.9374733" lon="11.89832"><ele>296.0</ele><time>2026-04-04T10:48:25.694Z</time></trkpt><trkpt lat="43.9376317" lon="11.8985267"><ele>294.6666666666667</ele><time>2026-04-04T10:48:26.694Z</time></trkpt><trkpt lat="43.9377817" lon="11.8987383"><ele>293.3333333333333</ele><time>2026-04-04T10:48:27.695Z</time></trkpt><trkpt lat="43.937905" lon="11.8989767"><ele>292.0</ele><time>2026-04-04T10:48:28.694Z</time></trkpt><trkpt lat="43.9380083" lon="11.8992333"><ele>289.66666666666663</ele><time>2026-04-04T10:48:29.694Z</time></trkpt><trkpt lat="43.9381183" lon="11.899485"><ele>287.3333333333333</ele><time>2026-04-04T10:48:30.694Z</time></trkpt><trkpt lat="43.9382367" lon="11.8997333"><ele>285.0</ele><time>2026-04-04T10:48:31.695Z</time></trkpt><trkpt lat="43.9383617" lon="11.8999767"><ele>284.3333333333333</ele><time>2026-04-04T10:48:32.694Z</time></trkpt><trkpt lat="43.938485" lon="11.90021"><ele>283.66666666666663</ele><time>2026-04-04T10:48:33.695Z</time></trkpt><trkpt lat="43.938605" lon="11.90044"><ele>283.0</ele><time>2026-04-04T10:48:34.694Z</time></trkpt><trkpt lat="43.9387267" lon="11.90065"><ele>283.0</ele><time>2026-04-04T10:48:35.694Z</time></trkpt><trkpt lat="43.9388517" lon="11.9008517"><ele>283.0</ele><time>2026-04-04T10:48:36.695Z</time></trkpt><trkpt lat="43.9389917" lon="11.9010267"><ele>283.0</ele><time>2026-04-04T10:48:37.695Z</time></trkpt><trkpt lat="43.9391367" lon="11.9011933"><ele>282.3333333333333</ele><time>2026-04-04T10:48:38.694Z</time></trkpt><trkpt lat="43.9392783" lon="11.901345"><ele>281.6666666666667</ele><time>2026-04-04T10:48:39.695Z</time></trkpt><trkpt lat="43.9394117" lon="11.901495"><ele>281.0</ele><time>2026-04-04T10:48:40.694Z</time></trkpt><trkpt lat="43.9395417" lon="11.9016433"><ele>280.0</ele><time>2026-04-04T10:48:41.694Z</time></trkpt><trkpt lat="43.93966" lon="11.90178"><ele>279.0</ele><time>2026-04-04T10:48:42.694Z</time></trkpt><trkpt lat="43.9397817" lon="11.9019183"><ele>278.0</ele><time>2026-04-04T10:48:43.694Z</time></trkpt><trkpt lat="43.9398917" lon="11.902045"><ele>278.0</ele><time>2026-04-04T10:48:44.695Z</time></trkpt><trkpt lat="43.94" lon="11.9021667"><ele>278.0</ele><time>2026-04-04T10:48:45.694Z</time></trkpt><trkpt lat="43.940115" lon="11.9022883"><ele>278.0</ele><time>2026-04-04T10:48:46.695Z</time></trkpt><trkpt lat="43.9402233" lon="11.9024233"><ele>278.0</ele><time>2026-04-04T10:48:47.694Z</time></trkpt><trkpt lat="43.9403383" lon="11.902555"><ele>277.25</ele><time>2026-04-04T10:48:48.695Z</time></trkpt><trkpt lat="43.940455" lon="11.902685"><ele>276.5</ele><time>2026-04-04T10:48:49.695Z</time></trkpt><trkpt lat="43.9405667" lon="11.9028167"><ele>275.75</ele><time>2026-04-04T10:48:50.694Z</time></trkpt><trkpt lat="43.9406767" lon="11.9029433"><ele>275.0</ele><time>2026-04-04T10:48:51.694Z</time></trkpt><trkpt lat="43.940785" lon="11.903065"><ele>275.25</ele><time>2026-04-04T10:48:52.694Z</time></trkpt><trkpt lat="43.9408983" lon="11.903185"><ele>275.5</ele><time>2026-04-04T10:48:53.694Z</time></trkpt><trkpt lat="43.9410133" lon="11.9033117"><ele>275.75</ele><time>2026-04-04T10:48:54.695Z</time></trkpt><trkpt lat="43.9411233" lon="11.9034417"><ele>276.0</ele><time>2026-04-04T10:48:55.695Z</time></trkpt><trkpt lat="43.9412483" lon="11.9035667"><ele>274.75</ele><time>2026-04-04T10:48:56.694Z</time></trkpt><trkpt lat="43.9413533" lon="11.90369"><ele>273.5</ele><time>2026-04-04T10:48:57.695Z</time></trkpt><trkpt lat="43.9414617" lon="11.9038067"><ele>272.25</ele><time>2026-04-04T10:48:58.694Z</time></trkpt><trkpt lat="43.9415667" lon="11.9039133"><ele>271.0</ele><time>2026-04-04T10:48:59.694Z</time></trkpt><trkpt lat="43.9416733" lon="11.9040183"><ele>271.5</ele><time>2026-04-04T10:49:00.695Z</time></trkpt><trkpt lat="43.9417733" lon="11.9041283"><ele>272.0</ele><time>2026-04-04T10:49:01.694Z</time></trkpt><trkpt lat="43.9418683" lon="11.90424"><ele>272.5</ele><time>2026-04-04T10:49:02.694Z</time></trkpt><trkpt lat="43.9419533" lon="11.90435"><ele>273.0</ele><time>2026-04-04T10:49:03.695Z</time></trkpt><trkpt lat="43.9420317" lon="11.9044583"><ele>271.4</ele><time>2026-04-04T10:49:04.694Z</time></trkpt><trkpt lat="43.94211" lon="11.9045517"><ele>269.8</ele><time>2026-04-04T10:49:05.695Z</time></trkpt><trkpt lat="43.9421883" lon="11.9046383"><ele>268.2</ele><time>2026-04-04T10:49:06.694Z</time></trkpt><trkpt lat="43.94227" lon="11.90472"><ele>266.6</ele><time>2026-04-04T10:49:07.695Z</time></trkpt><trkpt lat="43.9423533" lon="11.9048"><ele>265.0</ele><time>2026-04-04T10:49:08.694Z</time></trkpt><trkpt lat="43.94246" lon="11.90488"><ele>265.25</ele><time>2026-04-04T10:49:09.694Z</time></trkpt><trkpt lat="43.9425783" lon="11.9049683"><ele>265.5</ele><time>2026-04-04T10:49:10.694Z</time></trkpt><trkpt lat="43.9427117" lon="11.9050767"><ele>265.75</ele><time>2026-04-04T10:49:11.694Z</time></trkpt><trkpt lat="43.9428517" lon="11.9051833"><ele>266.0</ele><time>2026-04-04T10:49:12.695Z</time></trkpt><trkpt lat="43.9430133" lon="11.905275"><ele>264.0</ele><time>2026-04-04T10:49:13.695Z</time></trkpt><trkpt lat="43.9431717" lon="11.9053917"><ele>262.0</ele><time>2026-04-04T10:49:14.694Z</time></trkpt><trkpt lat="43.9433267" lon="11.90547"><ele>260.0</ele><time>2026-04-04T10:49:15.695Z</time></trkpt><trkpt lat="43.9434717" lon="11.90555"><ele>260.0</ele><time>2026-04-04T10:49:16.695Z</time></trkpt><trkpt lat="43.9436133" lon="11.905625"><ele>260.0</ele><time>2026-04-04T10:49:17.695Z</time></trkpt><trkpt lat="43.9437283" lon="11.9057133"><ele>260.0</ele><time>2026-04-04T10:49:18.694Z</time></trkpt><trkpt lat="43.9438183" lon="11.9058217"><ele>260.0</ele><time>2026-04-04T10:49:19.694Z</time></trkpt><trkpt lat="43.9438567" lon="11.9059633"><ele>259.25</ele><time>2026-04-04T10:49:20.694Z</time></trkpt><trkpt lat="43.9438517" lon="11.906125"><ele>258.5</ele><time>2026-04-04T10:49:21.695Z</time></trkpt><trkpt lat="43.9438217" lon="11.9063167"><ele>257.75</ele><time>2026-04-04T10:49:22.694Z</time></trkpt><trkpt lat="43.9437817" lon="11.90652"><ele>257.0</ele><time>2026-04-04T10:49:23.695Z</time></trkpt><trkpt lat="43.9437433" lon="11.9067067"><ele>257.5</ele><time>2026-04-04T10:49:24.693Z</time></trkpt><trkpt lat="43.9437283" lon="11.9068583"><ele>258.0</ele><time>2026-04-04T10:49:25.694Z</time></trkpt><trkpt lat="43.9437417" lon="11.9069967"><ele>258.5</ele><time>2026-04-04T10:49:26.694Z</time></trkpt><trkpt lat="43.943805" lon="11.907125"><ele>259.0</ele><time>2026-04-04T10:49:27.693Z</time></trkpt><trkpt lat="43.9439083" lon="11.9072467"><ele>259.0</ele><time>2026-04-04T10:49:28.693Z</time></trkpt><trkpt lat="43.944015" lon="11.9073667"><ele>259.0</ele><time>2026-04-04T10:49:29.694Z</time></trkpt><trkpt lat="43.9441083" lon="11.9074667"><ele>259.0</ele><time>2026-04-04T10:49:30.694Z</time></trkpt><trkpt lat="43.9441833" lon="11.9075533"><ele>259.0</ele><time>2026-04-04T10:49:31.694Z</time></trkpt><trkpt lat="43.9442417" lon="11.907625"><ele>259.0</ele><time>2026-04-04T10:49:32.693Z</time></trkpt><trkpt lat="43.944295" lon="11.9076933"><ele>258.59999999999997</ele><time>2026-04-04T10:49:33.693Z</time></trkpt><trkpt lat="43.944345" lon="11.9077633"><ele>258.2</ele><time>2026-04-04T10:49:34.693Z</time></trkpt><trkpt lat="43.944395" lon="11.9078267"><ele>257.79999999999995</ele><time>2026-04-04T10:49:35.693Z</time></trkpt><trkpt lat="43.9444683" lon="11.9079083"><ele>257.4</ele><time>2026-04-04T10:49:36.693Z</time></trkpt><trkpt lat="43.9445583" lon="11.9080117"><ele>257.0</ele><time>2026-04-04T10:49:37.693Z</time></trkpt><trkpt lat="43.9446733" lon="11.9081367"><ele>257.0</ele><time>2026-04-04T10:49:38.694Z</time></trkpt><trkpt lat="43.944795" lon="11.9082667"><ele>257.0</ele><time>2026-04-04T10:49:39.694Z</time></trkpt><trkpt lat="43.944915" lon="11.908395"><ele>257.0</ele><time>2026-04-04T10:49:40.693Z</time></trkpt><trkpt lat="43.9450333" lon="11.9085383"><ele>257.0</ele><time>2026-04-04T10:49:41.694Z</time></trkpt><trkpt lat="43.9451533" lon="11.9086833"><ele>257.0</ele><time>2026-04-04T10:49:42.694Z</time></trkpt><trkpt lat="43.9452833" lon="11.9088267"><ele>257.0</ele><time>2026-04-04T10:49:43.693Z</time></trkpt><trkpt lat="43.94541" lon="11.90898"><ele>257.0</ele><time>2026-04-04T10:49:44.693Z</time></trkpt><trkpt lat="43.9455333" lon="11.9091267"><ele>257.0</ele><time>2026-04-04T10:49:45.693Z</time></trkpt><trkpt lat="43.9456617" lon="11.9092567"><ele>257.0</ele><time>2026-04-04T10:49:46.693Z</time></trkpt><trkpt lat="43.9457617" lon="11.909395"><ele>257.25</ele><time>2026-04-04T10:49:47.694Z</time></trkpt><trkpt lat="43.9458667" lon="11.9095217"><ele>257.5</ele><time>2026-04-04T10:49:48.693Z</time></trkpt><trkpt lat="43.9459633" lon="11.90964"><ele>257.75</ele><time>2026-04-04T10:49:49.693Z</time></trkpt><trkpt lat="43.946055" lon="11.90975"><ele>258.0</ele><time>2026-04-04T10:49:50.694Z</time></trkpt><trkpt lat="43.946125" lon="11.9098367"><ele>258.75</ele><time>2026-04-04T10:49:51.693Z</time></trkpt><trkpt lat="43.9461917" lon="11.9098967"><ele>259.5</ele><time>2026-04-04T10:49:52.693Z</time></trkpt><trkpt lat="43.9463017" lon="11.9099833"><ele>260.25</ele><time>2026-04-04T10:49:54.694Z</time></trkpt><trkpt lat="43.9464417" lon="11.9099683"><ele>261.0</ele><time>2026-04-04T10:49:56.694Z</time></trkpt><trkpt lat="43.9465367" lon="11.9099017"><ele>261.0</ele><time>2026-04-04T10:49:57.694Z</time></trkpt><trkpt lat="43.946645" lon="11.90981"><ele>261.0</ele><time>2026-04-04T10:49:58.694Z</time></trkpt><trkpt lat="43.94674" lon="11.9097017"><ele>261.0</ele><time>2026-04-04T10:49:59.693Z</time></trkpt><trkpt lat="43.94682" lon="11.9095717"><ele>261.0</ele><time>2026-04-04T10:50:00.693Z</time></trkpt><trkpt lat="43.9468983" lon="11.909435"><ele>259.5</ele><time>2026-04-04T10:50:01.694Z</time></trkpt><trkpt lat="43.94698" lon="11.90929"><ele>258.0</ele><time>2026-04-04T10:50:02.693Z</time></trkpt><trkpt lat="43.9470617" lon="11.909145"><ele>256.5</ele><time>2026-04-04T10:50:03.694Z</time></trkpt><trkpt lat="43.94714" lon="11.9089933"><ele>255.0</ele><time>2026-04-04T10:50:04.693Z</time></trkpt><trkpt lat="43.947215" lon="11.908835"><ele>254.5</ele><time>2026-04-04T10:50:05.694Z</time></trkpt><trkpt lat="43.9472967" lon="11.9086717"><ele>254.0</ele><time>2026-04-04T10:50:06.693Z</time></trkpt><trkpt lat="43.947375" lon="11.9085033"><ele>253.5</ele><time>2026-04-04T10:50:07.693Z</time></trkpt><trkpt lat="43.947445" lon="11.9083283"><ele>253.0</ele><time>2026-04-04T10:50:08.693Z</time></trkpt><trkpt lat="43.9475183" lon="11.9081417"><ele>256.0</ele><time>2026-04-04T10:50:09.694Z</time></trkpt><trkpt lat="43.94759" lon="11.9079517"><ele>259.0</ele><time>2026-04-04T10:50:10.693Z</time></trkpt><trkpt lat="43.9476617" lon="11.9077467"><ele>262.0</ele><time>2026-04-04T10:50:11.693Z</time></trkpt><trkpt lat="43.9477283" lon="11.9075533"><ele>263.75</ele><time>2026-04-04T10:50:12.693Z</time></trkpt><trkpt lat="43.9477867" lon="11.9073883"><ele>265.5</ele><time>2026-04-04T10:50:13.693Z</time></trkpt><trkpt lat="43.9478367" lon="11.9072483"><ele>267.25</ele><time>2026-04-04T10:50:14.694Z</time></trkpt><trkpt lat="43.9479083" lon="11.907135"><ele>269.0</ele><time>2026-04-04T10:50:15.694Z</time></trkpt><trkpt lat="43.948015" lon="11.9070767"><ele>269.0</ele><time>2026-04-04T10:50:16.693Z</time></trkpt><trkpt lat="43.9481517" lon="11.9070833"><ele>269.0</ele><time>2026-04-04T10:50:17.694Z</time></trkpt><trkpt lat="43.9482917" lon="11.90716"><ele>269.0</ele><time>2026-04-04T10:50:18.694Z</time></trkpt><trkpt lat="43.948435" lon="11.90728"><ele>271.6666666666667</ele><time>2026-04-04T10:50:19.693Z</time></trkpt><trkpt lat="43.9485917" lon="11.9073933"><ele>274.3333333333333</ele><time>2026-04-04T10:50:20.693Z</time></trkpt><trkpt lat="43.9487317" lon="11.9075417"><ele>277.0</ele><time>2026-04-04T10:50:21.694Z</time></trkpt><trkpt lat="43.94887" lon="11.907695"><ele>277.0</ele><time>2026-04-04T10:50:22.693Z</time></trkpt><trkpt lat="43.948985" lon="11.9078633"><ele>277.0</ele><time>2026-04-04T10:50:23.693Z</time></trkpt><trkpt lat="43.9490867" lon="11.9080667"><ele>277.0</ele><time>2026-04-04T10:50:24.694Z</time></trkpt><trkpt lat="43.94916" lon="11.9082933"><ele>275.66666666666663</ele><time>2026-04-04T10:50:25.693Z</time></trkpt><trkpt lat="43.949205" lon="11.9085433"><ele>274.3333333333333</ele><time>2026-04-04T10:50:26.693Z</time></trkpt><trkpt lat="43.9492367" lon="11.908765"><ele>273.0</ele><time>2026-04-04T10:50:27.694Z</time></trkpt><trkpt lat="43.94927" lon="11.908975"><ele>275.0</ele><time>2026-04-04T10:50:28.693Z</time></trkpt><trkpt lat="43.949345" lon="11.9091717"><ele>277.0</ele><time>2026-04-04T10:50:29.693Z</time></trkpt><trkpt lat="43.9494567" lon="11.9093567"><ele>279.0</ele><time>2026-04-04T10:50:30.694Z</time></trkpt><trkpt lat="43.9495967" lon="11.9095183"><ele>279.0</ele><time>2026-04-04T10:50:31.694Z</time></trkpt><trkpt lat="43.9497483" lon="11.9096367"><ele>279.0</ele><time>2026-04-04T10:50:32.693Z</time></trkpt><trkpt lat="43.94992" lon="11.9097133"><ele>279.0</ele><time>2026-04-04T10:50:33.694Z</time></trkpt><trkpt lat="43.9501133" lon="11.9097567"><ele>278.6666666666667</ele><time>2026-04-04T10:50:34.693Z</time></trkpt><trkpt lat="43.950285" lon="11.9097967"><ele>278.33333333333337</ele><time>2026-04-04T10:50:35.694Z</time></trkpt><trkpt lat="43.9504533" lon="11.9098483"><ele>278.0</ele><time>2026-04-04T10:50:36.693Z</time></trkpt><trkpt lat="43.950615" lon="11.9098967"><ele>278.0</ele><time>2026-04-04T10:50:37.693Z</time></trkpt><trkpt lat="43.9507783" lon="11.90993"><ele>278.0</ele><time>2026-04-04T10:50:38.693Z</time></trkpt><trkpt lat="43.950945" lon="11.90996"><ele>278.0</ele><time>2026-04-04T10:50:39.694Z</time></trkpt><trkpt lat="43.9511267" lon="11.910005"><ele>277.6666666666667</ele><time>2026-04-04T10:50:40.694Z</time></trkpt><trkpt lat="43.9512983" lon="11.9100583"><ele>277.3333333333333</ele><time>2026-04-04T10:50:41.693Z</time></trkpt><trkpt lat="43.9514733" lon="11.9101067"><ele>277.0</ele><time>2026-04-04T10:50:42.693Z</time></trkpt><trkpt lat="43.95165" lon="11.9101483"><ele>276.0</ele><time>2026-04-04T10:50:43.693Z</time></trkpt><trkpt lat="43.95182" lon="11.9101933"><ele>275.0</ele><time>2026-04-04T10:50:44.693Z</time></trkpt><trkpt lat="43.9519817" lon="11.9102267"><ele>274.0</ele><time>2026-04-04T10:50:45.693Z</time></trkpt><trkpt lat="43.9521217" lon="11.91027"><ele>274.0</ele><time>2026-04-04T10:50:46.693Z</time></trkpt><trkpt lat="43.95224" lon="11.91033"><ele>274.0</ele><time>2026-04-04T10:50:47.693Z</time></trkpt><trkpt lat="43.9523383" lon="11.9104117"><ele>274.0</ele><time>2026-04-04T10:50:48.694Z</time></trkpt><trkpt lat="43.9524583" lon="11.9104483"><ele>274.0</ele><time>2026-04-04T10:50:49.693Z</time></trkpt><trkpt lat="43.9525933" lon="11.9104433"><ele>274.0</ele><time>2026-04-04T10:50:50.693Z</time></trkpt><trkpt lat="43.9527483" lon="11.9104567"><ele>274.0</ele><time>2026-04-04T10:50:51.694Z</time></trkpt><trkpt lat="43.9529233" lon="11.9104983"><ele>274.0</ele><time>2026-04-04T10:50:52.694Z</time></trkpt><trkpt lat="43.9531067" lon="11.91054"><ele>274.0</ele><time>2026-04-04T10:50:53.693Z</time></trkpt><trkpt lat="43.9533017" lon="11.9105917"><ele>274.0</ele><time>2026-04-04T10:50:54.693Z</time></trkpt><trkpt lat="43.9535033" lon="11.91064"><ele>274.0</ele><time>2026-04-04T10:50:55.694Z</time></trkpt><trkpt lat="43.95371" lon="11.9106817"><ele>273.66666666666663</ele><time>2026-04-04T10:50:56.693Z</time></trkpt><trkpt lat="43.9539233" lon="11.9107317"><ele>273.3333333333333</ele><time>2026-04-04T10:50:57.693Z</time></trkpt><trkpt lat="43.95414" lon="11.9107817"><ele>273.0</ele><time>2026-04-04T10:50:58.694Z</time></trkpt><trkpt lat="43.95436" lon="11.91085"><ele>270.0</ele><time>2026-04-04T10:50:59.694Z</time></trkpt><trkpt lat="43.9545717" lon="11.9109217"><ele>267.0</ele><time>2026-04-04T10:51:00.694Z</time></trkpt><trkpt lat="43.9547883" lon="11.9109983"><ele>264.0</ele><time>2026-04-04T10:51:01.694Z</time></trkpt><trkpt lat="43.9550083" lon="11.9110617"><ele>264.5</ele><time>2026-04-04T10:51:02.694Z</time></trkpt><trkpt lat="43.9552367" lon="11.9111167"><ele>265.0</ele><time>2026-04-04T10:51:03.694Z</time></trkpt><trkpt lat="43.9554683" lon="11.9111683"><ele>265.0</ele><time>2026-04-04T10:51:04.693Z</time></trkpt><trkpt lat="43.9556983" lon="11.9112283"><ele>265.0</ele><time>2026-04-04T10:51:05.694Z</time></trkpt><trkpt lat="43.9559317" lon="11.9112767"><ele>265.5</ele><time>2026-04-04T10:51:06.694Z</time></trkpt><trkpt lat="43.9561583" lon="11.9113367"><ele>266.0</ele><time>2026-04-04T10:51:07.694Z</time></trkpt><trkpt lat="43.95639" lon="11.911405"><ele>266.0</ele><time>2026-04-04T10:51:08.693Z</time></trkpt><trkpt lat="43.956615" lon="11.91147"><ele>266.0</ele><time>2026-04-04T10:51:09.693Z</time></trkpt><trkpt lat="43.9568417" lon="11.9115317"><ele>266.5</ele><time>2026-04-04T10:51:10.693Z</time></trkpt><trkpt lat="43.9570667" lon="11.911595"><ele>267.0</ele><time>2026-04-04T10:51:11.693Z</time></trkpt><trkpt lat="43.9572867" lon="11.9116667"><ele>267.0</ele><time>2026-04-04T10:51:12.694Z</time></trkpt><trkpt lat="43.957505" lon="11.9117083"><ele>267.0</ele><time>2026-04-04T10:51:13.694Z</time></trkpt><trkpt lat="43.9577217" lon="11.91173"><ele>267.0</ele><time>2026-04-04T10:51:14.694Z</time></trkpt><trkpt lat="43.9579333" lon="11.9117117"><ele>266.6666666666667</ele><time>2026-04-04T10:51:15.694Z</time></trkpt><trkpt lat="43.95814" lon="11.911635"><ele>266.33333333333337</ele><time>2026-04-04T10:51:16.694Z</time></trkpt><trkpt lat="43.9583367" lon="11.9115333"><ele>266.0</ele><time>2026-04-04T10:51:17.693Z</time></trkpt><trkpt lat="43.9585267" lon="11.9114483"><ele>264.33333333333337</ele><time>2026-04-04T10:51:18.693Z</time></trkpt><trkpt lat="43.9587383" lon="11.9113983"><ele>262.6666666666667</ele><time>2026-04-04T10:51:19.694Z</time></trkpt><trkpt lat="43.9589567" lon="11.9113917"><ele>261.0</ele><time>2026-04-04T10:51:20.693Z</time></trkpt><trkpt lat="43.9591783" lon="11.9114217"><ele>260.0</ele><time>2026-04-04T10:51:21.693Z</time></trkpt><trkpt lat="43.9594017" lon="11.9114533"><ele>259.0</ele><time>2026-04-04T10:51:22.693Z</time></trkpt><trkpt lat="43.959615" lon="11.9114867"><ele>258.0</ele><time>2026-04-04T10:51:23.693Z</time></trkpt><trkpt lat="43.9598233" lon="11.9114833"><ele>258.0</ele><time>2026-04-04T10:51:24.694Z</time></trkpt><trkpt lat="43.9600233" lon="11.9114233"><ele>258.0</ele><time>2026-04-04T10:51:25.694Z</time></trkpt><trkpt lat="43.9602217" lon="11.9113083"><ele>258.0</ele><time>2026-04-04T10:51:26.694Z</time></trkpt><trkpt lat="43.9603967" lon="11.9111383"><ele>258.6666666666667</ele><time>2026-04-04T10:51:27.694Z</time></trkpt><trkpt lat="43.960565" lon="11.91094"><ele>259.33333333333337</ele><time>2026-04-04T10:51:28.694Z</time></trkpt><trkpt lat="43.9607333" lon="11.9107317"><ele>260.0</ele><time>2026-04-04T10:51:29.693Z</time></trkpt><trkpt lat="43.96091" lon="11.9105133"><ele>260.0</ele><time>2026-04-04T10:51:30.693Z</time></trkpt><trkpt lat="43.9610933" lon="11.9102933"><ele>260.0</ele><time>2026-04-04T10:51:31.694Z</time></trkpt><trkpt lat="43.96128" lon="11.910055"><ele>260.0</ele><time>2026-04-04T10:51:32.694Z</time></trkpt><trkpt lat="43.961465" lon="11.909815"><ele>260.0</ele><time>2026-04-04T10:51:33.694Z</time></trkpt><trkpt lat="43.9616483" lon="11.9095733"><ele>262.5</ele><time>2026-04-04T10:51:34.693Z</time></trkpt><trkpt lat="43.961825" lon="11.9093467"><ele>265.0</ele><time>2026-04-04T10:51:35.694Z</time></trkpt><trkpt lat="43.9620083" lon="11.9091383"><ele>265.0</ele><time>2026-04-04T10:51:36.693Z</time></trkpt><trkpt lat="43.9622017" lon="11.9089817"><ele>265.0</ele><time>2026-04-04T10:51:37.694Z</time></trkpt><trkpt lat="43.9624067" lon="11.908855"><ele>265.0</ele><time>2026-04-04T10:51:38.693Z</time></trkpt><trkpt lat="43.9625917" lon="11.9087783"><ele>263.3333333333333</ele><time>2026-04-04T10:51:39.694Z</time></trkpt><trkpt lat="43.9627817" lon="11.9087317"><ele>261.6666666666667</ele><time>2026-04-04T10:51:40.693Z</time></trkpt><trkpt lat="43.962985" lon="11.9087517"><ele>260.0</ele><time>2026-04-04T10:51:41.693Z</time></trkpt><trkpt lat="43.9631833" lon="11.9088333"><ele>259.33333333333337</ele><time>2026-04-04T10:51:42.693Z</time></trkpt><trkpt lat="43.9633783" lon="11.9089383"><ele>258.6666666666667</ele><time>2026-04-04T10:51:43.693Z</time></trkpt><trkpt lat="43.9635883" lon="11.909015"><ele>258.0</ele><time>2026-04-04T10:51:44.694Z</time></trkpt><trkpt lat="43.9638117" lon="11.909065"><ele>258.0</ele><time>2026-04-04T10:51:45.694Z</time></trkpt><trkpt lat="43.9640383" lon="11.9090617"><ele>258.0</ele><time>2026-04-04T10:51:46.693Z</time></trkpt><trkpt lat="43.9642667" lon="11.9090467"><ele>259.0</ele><time>2026-04-04T10:51:47.694Z</time></trkpt><trkpt lat="43.9645033" lon="11.9090433"><ele>260.0</ele><time>2026-04-04T10:51:48.693Z</time></trkpt><trkpt lat="43.96474" lon="11.9090867"><ele>260.0</ele><time>2026-04-04T10:51:49.693Z</time></trkpt><trkpt lat="43.9649733" lon="11.9091567"><ele>260.0</ele><time>2026-04-04T10:51:50.693Z</time></trkpt><trkpt lat="43.9651967" lon="11.909235"><ele>257.33333333333337</ele><time>2026-04-04T10:51:51.694Z</time></trkpt><trkpt lat="43.96541" lon="11.909295"><ele>254.66666666666669</ele><time>2026-04-04T10:51:52.693Z</time></trkpt><trkpt lat="43.96561" lon="11.9093433"><ele>252.0</ele><time>2026-04-04T10:51:53.693Z</time></trkpt><trkpt lat="43.965785" lon="11.909385"><ele>253.75</ele><time>2026-04-04T10:51:54.694Z</time></trkpt><trkpt lat="43.9659383" lon="11.9094267"><ele>255.5</ele><time>2026-04-04T10:51:55.694Z</time></trkpt><trkpt lat="43.96608" lon="11.9094567"><ele>257.25</ele><time>2026-04-04T10:51:56.693Z</time></trkpt><trkpt lat="43.966215" lon="11.909445"><ele>259.0</ele><time>2026-04-04T10:51:57.693Z</time></trkpt><trkpt lat="43.966335" lon="11.9093883"><ele>259.0</ele><time>2026-04-04T10:51:58.693Z</time></trkpt><trkpt lat="43.9664533" lon="11.909315"><ele>259.0</ele><time>2026-04-04T10:51:59.693Z</time></trkpt><trkpt lat="43.9665717" lon="11.9091967"><ele>259.0</ele><time>2026-04-04T10:52:00.694Z</time></trkpt><trkpt lat="43.96671" lon="11.9090583"><ele>259.0</ele><time>2026-04-04T10:52:01.694Z</time></trkpt><trkpt lat="43.9668617" lon="11.9089333"><ele>259.0</ele><time>2026-04-04T10:52:02.693Z</time></trkpt><trkpt lat="43.9670333" lon="11.9088"><ele>259.0</ele><time>2026-04-04T10:52:03.693Z</time></trkpt><trkpt lat="43.9672083" lon="11.9086433"><ele>259.0</ele><time>2026-04-04T10:52:04.693Z</time></trkpt><trkpt lat="43.9673867" lon="11.90847"><ele>262.5</ele><time>2026-04-04T10:52:05.694Z</time></trkpt><trkpt lat="43.96758" lon="11.9083"><ele>266.0</ele><time>2026-04-04T10:52:06.694Z</time></trkpt><trkpt lat="43.9677817" lon="11.9081733"><ele>266.0</ele><time>2026-04-04T10:52:07.693Z</time></trkpt><trkpt lat="43.967985" lon="11.9081117"><ele>266.0</ele><time>2026-04-04T10:52:08.693Z</time></trkpt><trkpt lat="43.9681883" lon="11.9081017"><ele>266.0</ele><time>2026-04-04T10:52:09.693Z</time></trkpt><trkpt lat="43.9684" lon="11.9080967"><ele>262.5</ele><time>2026-04-04T10:52:10.693Z</time></trkpt><trkpt lat="43.968625" lon="11.90804"><ele>259.0</ele><time>2026-04-04T10:52:11.693Z</time></trkpt><trkpt lat="43.96884" lon="11.9079583"><ele>259.0</ele><time>2026-04-04T10:52:12.693Z</time></trkpt><trkpt lat="43.9690667" lon="11.9078667"><ele>259.0</ele><time>2026-04-04T10:52:13.693Z</time></trkpt><trkpt lat="43.9693017" lon="11.9077733"><ele>259.5</ele><time>2026-04-04T10:52:14.693Z</time></trkpt><trkpt lat="43.9695383" lon="11.9076717"><ele>260.0</ele><time>2026-04-04T10:52:15.694Z</time></trkpt><trkpt lat="43.9697533" lon="11.907525"><ele>260.0</ele><time>2026-04-04T10:52:16.693Z</time></trkpt><trkpt lat="43.9699733" lon="11.9073583"><ele>260.0</ele><time>2026-04-04T10:52:17.694Z</time></trkpt><trkpt lat="43.9701883" lon="11.9072383"><ele>257.0</ele><time>2026-04-04T10:52:18.693Z</time></trkpt><trkpt lat="43.9704233" lon="11.9071567"><ele>254.0</ele><time>2026-04-04T10:52:19.694Z</time></trkpt><trkpt lat="43.9706567" lon="11.9071067"><ele>251.5</ele><time>2026-04-04T10:52:20.693Z</time></trkpt><trkpt lat="43.9708917" lon="11.9070817"><ele>249.0</ele><time>2026-04-04T10:52:21.694Z</time></trkpt><trkpt lat="43.9711167" lon="11.9070967"><ele>249.0</ele><time>2026-04-04T10:52:22.694Z</time></trkpt><trkpt lat="43.9713333" lon="11.907105"><ele>249.0</ele><time>2026-04-04T10:52:23.693Z</time></trkpt><trkpt lat="43.9715333" lon="11.90708"><ele>249.0</ele><time>2026-04-04T10:52:24.693Z</time></trkpt><trkpt lat="43.9717183" lon="11.9070333"><ele>247.33333333333331</ele><time>2026-04-04T10:52:25.694Z</time></trkpt><trkpt lat="43.9719067" lon="11.9069433"><ele>245.66666666666666</ele><time>2026-04-04T10:52:26.694Z</time></trkpt><trkpt lat="43.9720867" lon="11.9067983"><ele>244.0</ele><time>2026-04-04T10:52:27.693Z</time></trkpt><trkpt lat="43.972265" lon="11.9066117"><ele>244.5</ele><time>2026-04-04T10:52:28.694Z</time></trkpt><trkpt lat="43.972455" lon="11.90642"><ele>245.0</ele><time>2026-04-04T10:52:29.694Z</time></trkpt><trkpt lat="43.9726333" lon="11.9062267"><ele>245.0</ele><time>2026-04-04T10:52:30.693Z</time></trkpt><trkpt lat="43.972825" lon="11.9060283"><ele>245.0</ele><time>2026-04-04T10:52:31.693Z</time></trkpt><trkpt lat="43.97302" lon="11.9058483"><ele>249.0</ele><time>2026-04-04T10:52:32.694Z</time></trkpt><trkpt lat="43.9732317" lon="11.9056817"><ele>253.0</ele><time>2026-04-04T10:52:33.694Z</time></trkpt><trkpt lat="43.973445" lon="11.905545"><ele>253.0</ele><time>2026-04-04T10:52:34.693Z</time></trkpt><trkpt lat="43.973675" lon="11.90541"><ele>253.0</ele><time>2026-04-04T10:52:35.693Z</time></trkpt><trkpt lat="43.973905" lon="11.9052633"><ele>253.0</ele><time>2026-04-04T10:52:36.693Z</time></trkpt><trkpt lat="43.974125" lon="11.9051133"><ele>253.0</ele><time>2026-04-04T10:52:37.693Z</time></trkpt><trkpt lat="43.97435" lon="11.9049583"><ele>258.0</ele><time>2026-04-04T10:52:38.694Z</time></trkpt><trkpt lat="43.9745733" lon="11.9048167"><ele>263.0</ele><time>2026-04-04T10:52:39.693Z</time></trkpt><trkpt lat="43.9748117" lon="11.9046967"><ele>262.0</ele><time>2026-04-04T10:52:40.693Z</time></trkpt><trkpt lat="43.9750633" lon="11.90461"><ele>261.0</ele><time>2026-04-04T10:52:41.693Z</time></trkpt><trkpt lat="43.9753167" lon="11.9045283"><ele>261.0</ele><time>2026-04-04T10:52:42.693Z</time></trkpt><trkpt lat="43.975565" lon="11.90446"><ele>261.0</ele><time>2026-04-04T10:52:43.694Z</time></trkpt><trkpt lat="43.9758183" lon="11.9043917"><ele>261.0</ele><time>2026-04-04T10:52:44.693Z</time></trkpt><trkpt lat="43.976075" lon="11.90433"><ele>261.0</ele><time>2026-04-04T10:52:45.693Z</time></trkpt><trkpt lat="43.9763317" lon="11.9042467"><ele>264.0</ele><time>2026-04-04T10:52:46.693Z</time></trkpt><trkpt lat="43.9765867" lon="11.9041667"><ele>267.0</ele><time>2026-04-04T10:52:47.693Z</time></trkpt><trkpt lat="43.9768367" lon="11.9040933"><ele>267.0</ele><time>2026-04-04T10:52:48.694Z</time></trkpt><trkpt lat="43.977085" lon="11.9040367"><ele>267.0</ele><time>2026-04-04T10:52:49.694Z</time></trkpt><trkpt lat="43.97733" lon="11.90397"><ele>267.5</ele><time>2026-04-04T10:52:50.693Z</time></trkpt><trkpt lat="43.97756" lon="11.903905"><ele>268.0</ele><time>2026-04-04T10:52:51.694Z</time></trkpt><trkpt lat="43.9777733" lon="11.9038417"><ele>268.0</ele><time>2026-04-04T10:52:52.693Z</time></trkpt><trkpt lat="43.9779867" lon="11.903775"><ele>268.0</ele><time>2026-04-04T10:52:53.693Z</time></trkpt><trkpt lat="43.9781867" lon="11.9037367"><ele>268.0</ele><time>2026-04-04T10:52:54.693Z</time></trkpt><trkpt lat="43.9783917" lon="11.903715"><ele>269.66666666666663</ele><time>2026-04-04T10:52:55.694Z</time></trkpt><trkpt lat="43.9785767" lon="11.9037433"><ele>271.3333333333333</ele><time>2026-04-04T10:52:56.693Z</time></trkpt><trkpt lat="43.9787567" lon="11.9038433"><ele>273.0</ele><time>2026-04-04T10:52:57.693Z</time></trkpt><trkpt lat="43.9789283" lon="11.9039733"><ele>273.0</ele><time>2026-04-04T10:52:58.694Z</time></trkpt><trkpt lat="43.979105" lon="11.9040917"><ele>273.0</ele><time>2026-04-04T10:52:59.693Z</time></trkpt><trkpt lat="43.9792733" lon="11.9042017"><ele>273.0</ele><time>2026-04-04T10:53:00.693Z</time></trkpt><trkpt lat="43.979445" lon="11.904285"><ele>267.3333333333333</ele><time>2026-04-04T10:53:01.693Z</time></trkpt><trkpt lat="43.9796317" lon="11.9043317"><ele>261.66666666666663</ele><time>2026-04-04T10:53:02.693Z</time></trkpt><trkpt lat="43.9798167" lon="11.9043567"><ele>256.0</ele><time>2026-04-04T10:53:03.693Z</time></trkpt><trkpt lat="43.9800083" lon="11.9043733"><ele>253.33333333333331</ele><time>2026-04-04T10:53:04.693Z</time></trkpt><trkpt lat="43.9801883" lon="11.9043583"><ele>250.66666666666669</ele><time>2026-04-04T10:53:05.693Z</time></trkpt><trkpt lat="43.9803583" lon="11.9042883"><ele>248.0</ele><time>2026-04-04T10:53:06.693Z</time></trkpt><trkpt lat="43.9805167" lon="11.9041717"><ele>257.33333333333337</ele><time>2026-04-04T10:53:07.693Z</time></trkpt><trkpt lat="43.9806667" lon="11.9040317"><ele>266.6666666666667</ele><time>2026-04-04T10:53:08.693Z</time></trkpt><trkpt lat="43.9808167" lon="11.9039183"><ele>276.0</ele><time>2026-04-04T10:53:09.693Z</time></trkpt><trkpt lat="43.9809833" lon="11.9038817"><ele>277.0</ele><time>2026-04-04T10:53:10.694Z</time></trkpt><trkpt lat="43.98118" lon="11.9039167"><ele>278.0</ele><time>2026-04-04T10:53:11.694Z</time></trkpt><trkpt lat="43.98138" lon="11.9039917"><ele>279.0</ele><time>2026-04-04T10:53:12.694Z</time></trkpt><trkpt lat="43.981585" lon="11.9040783"><ele>274.0</ele><time>2026-04-04T10:53:13.694Z</time></trkpt><trkpt lat="43.9817867" lon="11.9041967"><ele>269.0</ele><time>2026-04-04T10:53:14.693Z</time></trkpt><trkpt lat="43.9819933" lon="11.9043417"><ele>269.0</ele><time>2026-04-04T10:53:15.693Z</time></trkpt><trkpt lat="43.982195" lon="11.9045017"><ele>269.0</ele><time>2026-04-04T10:53:16.693Z</time></trkpt><trkpt lat="43.9824033" lon="11.9046583"><ele>286.0</ele><time>2026-04-04T10:53:17.693Z</time></trkpt><trkpt lat="43.9826167" lon="11.9048183"><ele>303.0</ele><time>2026-04-04T10:53:18.693Z</time></trkpt><trkpt lat="43.98283" lon="11.904975"><ele>281.5</ele><time>2026-04-04T10:53:19.694Z</time></trkpt><trkpt lat="43.9830317" lon="11.9051467"><ele>260.0</ele><time>2026-04-04T10:53:20.693Z</time></trkpt><trkpt lat="43.9832133" lon="11.9053533"><ele>260.0</ele><time>2026-04-04T10:53:21.693Z</time></trkpt><trkpt lat="43.9833767" lon="11.905565"><ele>260.0</ele><time>2026-04-04T10:53:22.694Z</time></trkpt><trkpt lat="43.9835267" lon="11.905765"><ele>260.0</ele><time>2026-04-04T10:53:23.694Z</time></trkpt><trkpt lat="43.9836867" lon="11.90594"><ele>260.0</ele><time>2026-04-04T10:53:24.693Z</time></trkpt><trkpt lat="43.9838733" lon="11.906075"><ele>260.0</ele><time>2026-04-04T10:53:25.693Z</time></trkpt><trkpt lat="43.98409" lon="11.90616"><ele>260.0</ele><time>2026-04-04T10:53:26.693Z</time></trkpt><trkpt lat="43.9843183" lon="11.9062117"><ele>260.5</ele><time>2026-04-04T10:53:27.694Z</time></trkpt><trkpt lat="43.9845567" lon="11.9062567"><ele>261.0</ele><time>2026-04-04T10:53:28.693Z</time></trkpt><trkpt lat="43.9848083" lon="11.9062967"><ele>262.0</ele><time>2026-04-04T10:53:29.694Z</time></trkpt><trkpt lat="43.98506" lon="11.9063383"><ele>263.0</ele><time>2026-04-04T10:53:30.693Z</time></trkpt><trkpt lat="43.9853233" lon="11.90638"><ele>263.0</ele><time>2026-04-04T10:53:31.693Z</time></trkpt><trkpt lat="43.9855867" lon="11.90643"><ele>263.0</ele><time>2026-04-04T10:53:32.693Z</time></trkpt><trkpt lat="43.9858467" lon="11.90647"><ele>261.5</ele><time>2026-04-04T10:53:33.693Z</time></trkpt><trkpt lat="43.9861" lon="11.906505"><ele>260.0</ele><time>2026-04-04T10:53:34.694Z</time></trkpt><trkpt lat="43.9863317" lon="11.9065367"><ele>260.0</ele><time>2026-04-04T10:53:35.693Z</time></trkpt><trkpt lat="43.9865333" lon="11.9065767"><ele>260.0</ele><time>2026-04-04T10:53:36.693Z</time></trkpt><trkpt lat="43.986725" lon="11.9066367"><ele>260.0</ele><time>2026-04-04T10:53:37.693Z</time></trkpt><trkpt lat="43.986915" lon="11.9067267"><ele>258.33333333333337</ele><time>2026-04-04T10:53:38.693Z</time></trkpt><trkpt lat="43.9870833" lon="11.9068383"><ele>256.6666666666667</ele><time>2026-04-04T10:53:39.694Z</time></trkpt><trkpt lat="43.9872317" lon="11.9069383"><ele>255.0</ele><time>2026-04-04T10:53:40.694Z</time></trkpt><trkpt lat="43.98733" lon="11.90703"><ele>255.0</ele><time>2026-04-04T10:53:41.693Z</time></trkpt><trkpt lat="43.98742" lon="11.9070667"><ele>255.0</ele><time>2026-04-04T10:53:42.694Z</time></trkpt><trkpt lat="43.9875183" lon="11.907045"><ele>255.0</ele><time>2026-04-04T10:53:43.693Z</time></trkpt><trkpt lat="43.9876217" lon="11.9069683"><ele>255.0</ele><time>2026-04-04T10:53:44.693Z</time></trkpt><trkpt lat="43.987745" lon="11.90687"><ele>255.0</ele><time>2026-04-04T10:53:45.694Z</time></trkpt><trkpt lat="43.987895" lon="11.906795"><ele>255.0</ele><time>2026-04-04T10:53:46.694Z</time></trkpt><trkpt lat="43.988065" lon="11.9067733"><ele>255.0</ele><time>2026-04-04T10:53:47.694Z</time></trkpt><trkpt lat="43.9882583" lon="11.9067817"><ele>254.33333333333331</ele><time>2026-04-04T10:53:48.693Z</time></trkpt><trkpt lat="43.9884517" lon="11.90682"><ele>253.66666666666666</ele><time>2026-04-04T10:53:49.693Z</time></trkpt><trkpt lat="43.9886617" lon="11.9068533"><ele>253.0</ele><time>2026-04-04T10:53:50.694Z</time></trkpt><trkpt lat="43.9888783" lon="11.90688"><ele>253.0</ele><time>2026-04-04T10:53:51.693Z</time></trkpt><trkpt lat="43.9890983" lon="11.9069067"><ele>253.0</ele><time>2026-04-04T10:53:52.693Z</time></trkpt><trkpt lat="43.9893167" lon="11.9069333"><ele>253.0</ele><time>2026-04-04T10:53:53.694Z</time></trkpt><trkpt lat="43.98954" lon="11.9069533"><ele>254.0</ele><time>2026-04-04T10:53:54.693Z</time></trkpt><trkpt lat="43.9897717" lon="11.9069717"><ele>255.0</ele><time>2026-04-04T10:53:55.694Z</time></trkpt><trkpt lat="43.9900017" lon="11.9069767"><ele>253.0</ele><time>2026-04-04T10:53:56.694Z</time></trkpt><trkpt lat="43.9902317" lon="11.906975"><ele>251.0</ele><time>2026-04-04T10:53:57.694Z</time></trkpt><trkpt lat="43.9904683" lon="11.906975"><ele>251.0</ele><time>2026-04-04T10:53:58.694Z</time></trkpt><trkpt lat="43.9907117" lon="11.9069767"><ele>251.0</ele><time>2026-04-04T10:53:59.693Z</time></trkpt><trkpt lat="43.9909583" lon="11.9069783"><ele>248.0</ele><time>2026-04-04T10:54:00.693Z</time></trkpt><trkpt lat="43.9912033" lon="11.9069733"><ele>245.0</ele><time>2026-04-04T10:54:01.693Z</time></trkpt><trkpt lat="43.9914483" lon="11.90699"><ele>246.5</ele><time>2026-04-04T10:54:02.693Z</time></trkpt><trkpt lat="43.9917" lon="11.9070283"><ele>248.0</ele><time>2026-04-04T10:54:03.694Z</time></trkpt><trkpt lat="43.9919333" lon="11.9071033"><ele>248.0</ele><time>2026-04-04T10:54:04.693Z</time></trkpt><trkpt lat="43.9921617" lon="11.9072"><ele>248.0</ele><time>2026-04-04T10:54:05.693Z</time></trkpt><trkpt lat="43.992385" lon="11.9073067"><ele>248.66666666666669</ele><time>2026-04-04T10:54:06.693Z</time></trkpt><trkpt lat="43.9925883" lon="11.9074217"><ele>249.33333333333331</ele><time>2026-04-04T10:54:07.693Z</time></trkpt><trkpt lat="43.9927867" lon="11.9075317"><ele>250.0</ele><time>2026-04-04T10:54:08.693Z</time></trkpt><trkpt lat="43.992975" lon="11.9076467"><ele>247.33333333333331</ele><time>2026-04-04T10:54:09.694Z</time></trkpt><trkpt lat="43.9931683" lon="11.907755"><ele>244.66666666666669</ele><time>2026-04-04T10:54:10.693Z</time></trkpt><trkpt lat="43.9933667" lon="11.9078517"><ele>242.0</ele><time>2026-04-04T10:54:11.693Z</time></trkpt><trkpt lat="43.9935717" lon="11.9079517"><ele>242.0</ele><time>2026-04-04T10:54:12.694Z</time></trkpt><trkpt lat="43.99377" lon="11.9080517"><ele>242.0</ele><time>2026-04-04T10:54:13.693Z</time></trkpt><trkpt lat="43.9939517" lon="11.90816"><ele>242.0</ele><time>2026-04-04T10:54:14.694Z</time></trkpt><trkpt lat="43.994115" lon="11.9082467"><ele>241.75</ele><time>2026-04-04T10:54:15.693Z</time></trkpt><trkpt lat="43.994255" lon="11.90835"><ele>241.5</ele><time>2026-04-04T10:54:16.694Z</time></trkpt><trkpt lat="43.9943883" lon="11.9084233"><ele>241.25</ele><time>2026-04-04T10:54:17.693Z</time></trkpt><trkpt lat="43.9945017" lon="11.9085017"><ele>241.0</ele><time>2026-04-04T10:54:18.694Z</time></trkpt><trkpt lat="43.9945967" lon="11.9085717"><ele>240.8</ele><time>2026-04-04T10:54:19.693Z</time></trkpt><trkpt lat="43.994685" lon="11.9086417"><ele>240.60000000000002</ele><time>2026-04-04T10:54:20.693Z</time></trkpt><trkpt lat="43.9947717" lon="11.908715"><ele>240.4</ele><time>2026-04-04T10:54:21.693Z</time></trkpt><trkpt lat="43.9948583" lon="11.9087917"><ele>240.2</ele><time>2026-04-04T10:54:22.693Z</time></trkpt><trkpt lat="43.9949517" lon="11.908885"><ele>240.0</ele><time>2026-04-04T10:54:23.694Z</time></trkpt><trkpt lat="43.9950567" lon="11.9089817"><ele>240.0</ele><time>2026-04-04T10:54:24.694Z</time></trkpt><trkpt lat="43.9951683" lon="11.90908"><ele>240.0</ele><time>2026-04-04T10:54:25.694Z</time></trkpt><trkpt lat="43.9952933" lon="11.90918"><ele>240.0</ele><time>2026-04-04T10:54:26.694Z</time></trkpt><trkpt lat="43.9954233" lon="11.9093067"><ele>240.0</ele><time>2026-04-04T10:54:27.693Z</time></trkpt><trkpt lat="43.9955567" lon="11.9094317"><ele>239.33333333333331</ele><time>2026-04-04T10:54:28.694Z</time></trkpt><trkpt lat="43.995695" lon="11.9095567"><ele>238.66666666666666</ele><time>2026-04-04T10:54:29.693Z</time></trkpt><trkpt lat="43.9958283" lon="11.909675"><ele>238.0</ele><time>2026-04-04T10:54:30.693Z</time></trkpt><trkpt lat="43.9959633" lon="11.9097833"><ele>238.0</ele><time>2026-04-04T10:54:31.693Z</time></trkpt><trkpt lat="43.9961017" lon="11.9098983"><ele>238.0</ele><time>2026-04-04T10:54:32.693Z</time></trkpt><trkpt lat="43.9962367" lon="11.91001"><ele>238.0</ele><time>2026-04-04T10:54:33.694Z</time></trkpt><trkpt lat="43.9963583" lon="11.91012"><ele>237.60000000000002</ele><time>2026-04-04T10:54:34.694Z</time></trkpt><trkpt lat="43.9964667" lon="11.910235"><ele>237.20000000000002</ele><time>2026-04-04T10:54:35.694Z</time></trkpt><trkpt lat="43.996555" lon="11.9103233"><ele>236.8</ele><time>2026-04-04T10:54:36.694Z</time></trkpt><trkpt lat="43.9966367" lon="11.910405"><ele>236.4</ele><time>2026-04-04T10:54:37.693Z</time></trkpt><trkpt lat="43.996705" lon="11.9104983"><ele>236.0</ele><time>2026-04-04T10:54:38.694Z</time></trkpt><trkpt lat="43.9967517" lon="11.91059"><ele>235.8</ele><time>2026-04-04T10:54:39.693Z</time></trkpt><trkpt lat="43.9967783" lon="11.9107017"><ele>235.60000000000002</ele><time>2026-04-04T10:54:40.693Z</time></trkpt><trkpt lat="43.9967967" lon="11.9108217"><ele>235.4</ele><time>2026-04-04T10:54:41.694Z</time></trkpt><trkpt lat="43.9967833" lon="11.9109683"><ele>235.2</ele><time>2026-04-04T10:54:42.693Z</time></trkpt><trkpt lat="43.9967483" lon="11.9111233"><ele>235.0</ele><time>2026-04-04T10:54:43.694Z</time></trkpt><trkpt lat="43.996725" lon="11.9112683"><ele>235.0</ele><time>2026-04-04T10:54:44.694Z</time></trkpt><trkpt lat="43.996705" lon="11.911395"><ele>235.0</ele><time>2026-04-04T10:54:45.693Z</time></trkpt><trkpt lat="43.9966833" lon="11.9115083"><ele>235.0</ele><time>2026-04-04T10:54:46.693Z</time></trkpt><trkpt lat="43.996665" lon="11.911635"><ele>235.0</ele><time>2026-04-04T10:54:47.693Z</time></trkpt><trkpt lat="43.99665" lon="11.911765"><ele>235.0</ele><time>2026-04-04T10:54:48.693Z</time></trkpt><trkpt lat="43.9966483" lon="11.911895"><ele>234.6</ele><time>2026-04-04T10:54:49.693Z</time></trkpt><trkpt lat="43.9966367" lon="11.91203"><ele>234.2</ele><time>2026-04-04T10:54:50.693Z</time></trkpt><trkpt lat="43.9966217" lon="11.9121683"><ele>233.8</ele><time>2026-04-04T10:54:51.693Z</time></trkpt><trkpt lat="43.9966067" lon="11.912315"><ele>233.4</ele><time>2026-04-04T10:54:52.694Z</time></trkpt><trkpt lat="43.9965933" lon="11.9124633"><ele>233.0</ele><time>2026-04-04T10:54:53.693Z</time></trkpt><trkpt lat="43.996585" lon="11.912615"><ele>232.0</ele><time>2026-04-04T10:54:54.693Z</time></trkpt><trkpt lat="43.9965767" lon="11.9127583"><ele>231.0</ele><time>2026-04-04T10:54:55.693Z</time></trkpt><trkpt lat="43.99658" lon="11.9129"><ele>230.0</ele><time>2026-04-04T10:54:56.693Z</time></trkpt><trkpt lat="43.9966133" lon="11.9130283"><ele>229.0</ele><time>2026-04-04T10:54:57.693Z</time></trkpt><trkpt lat="43.9966817" lon="11.9131367"><ele>228.0</ele><time>2026-04-04T10:54:58.693Z</time></trkpt><trkpt lat="43.9967717" lon="11.9131967"><ele>228.0</ele><time>2026-04-04T10:54:59.693Z</time></trkpt><trkpt lat="43.996905" lon="11.9132283"><ele>228.0</ele><time>2026-04-04T10:55:00.694Z</time></trkpt><trkpt lat="43.9970683" lon="11.913255"><ele>228.0</ele><time>2026-04-04T10:55:01.694Z</time></trkpt><trkpt lat="43.9972567" lon="11.9132917"><ele>228.0</ele><time>2026-04-04T10:55:02.694Z</time></trkpt><trkpt lat="43.99747" lon="11.91334"><ele>228.0</ele><time>2026-04-04T10:55:03.694Z</time></trkpt><trkpt lat="43.997695" lon="11.9133967"><ele>228.0</ele><time>2026-04-04T10:55:04.693Z</time></trkpt><trkpt lat="43.99791" lon="11.9134483"><ele>225.33333333333331</ele><time>2026-04-04T10:55:05.694Z</time></trkpt><trkpt lat="43.9981083" lon="11.9135017"><ele>222.66666666666666</ele><time>2026-04-04T10:55:06.694Z</time></trkpt><trkpt lat="43.99831" lon="11.913545"><ele>220.0</ele><time>2026-04-04T10:55:07.694Z</time></trkpt><trkpt lat="43.9985167" lon="11.9135883"><ele>219.0</ele><time>2026-04-04T10:55:08.693Z</time></trkpt><trkpt lat="43.9987317" lon="11.9136367"><ele>218.0</ele><time>2026-04-04T10:55:09.693Z</time></trkpt><trkpt lat="43.9989433" lon="11.9136833"><ele>217.0</ele><time>2026-04-04T10:55:10.693Z</time></trkpt><trkpt lat="43.9991567" lon="11.9137233"><ele>215.33333333333331</ele><time>2026-04-04T10:55:11.693Z</time></trkpt><trkpt lat="43.9993617" lon="11.9137667"><ele>213.66666666666669</ele><time>2026-04-04T10:55:12.693Z</time></trkpt><trkpt lat="43.99957" lon="11.9138083"><ele>212.0</ele><time>2026-04-04T10:55:13.693Z</time></trkpt><trkpt lat="43.9997783" lon="11.9138433"><ele>212.0</ele><time>2026-04-04T10:55:14.693Z</time></trkpt><trkpt lat="43.9999783" lon="11.9138817"><ele>212.0</ele><time>2026-04-04T10:55:15.694Z</time></trkpt><trkpt lat="44.00017" lon="11.9139283"><ele>212.0</ele><time>2026-04-04T10:55:16.693Z</time></trkpt><trkpt lat="44.000355" lon="11.9139817"><ele>212.0</ele><time>2026-04-04T10:55:17.693Z</time></trkpt><trkpt lat="44.0005467" lon="11.91407"><ele>212.0</ele><time>2026-04-04T10:55:18.692Z</time></trkpt><trkpt lat="44.0007317" lon="11.9141983"><ele>212.0</ele><time>2026-04-04T10:55:19.693Z</time></trkpt><trkpt lat="44.0009167" lon="11.91435"><ele>206.0</ele><time>2026-04-04T10:55:20.692Z</time></trkpt><trkpt lat="44.0010917" lon="11.9145317"><ele>200.0</ele><time>2026-04-04T10:55:21.692Z</time></trkpt><trkpt lat="44.0012817" lon="11.914715"><ele>200.0</ele><time>2026-04-04T10:55:22.692Z</time></trkpt><trkpt lat="44.001475" lon="11.9149017"><ele>200.0</ele><time>2026-04-04T10:55:23.692Z</time></trkpt><trkpt lat="44.0016617" lon="11.9150967"><ele>204.0</ele><time>2026-04-04T10:55:24.693Z</time></trkpt><trkpt lat="44.0018433" lon="11.91532"><ele>208.0</ele><time>2026-04-04T10:55:25.693Z</time></trkpt><trkpt lat="44.0019983" lon="11.9155733"><ele>208.0</ele><time>2026-04-04T10:55:26.692Z</time></trkpt><trkpt lat="44.0021383" lon="11.9158483"><ele>208.0</ele><time>2026-04-04T10:55:27.692Z</time></trkpt><trkpt lat="44.0022633" lon="11.91614"><ele>211.5</ele><time>2026-04-04T10:55:28.692Z</time></trkpt><trkpt lat="44.0023583" lon="11.9164733"><ele>215.0</ele><time>2026-04-04T10:55:29.693Z</time></trkpt><trkpt lat="44.002435" lon="11.9168133"><ele>215.5</ele><time>2026-04-04T10:55:30.692Z</time></trkpt><trkpt lat="44.00251" lon="11.9171617"><ele>216.0</ele><time>2026-04-04T10:55:31.693Z</time></trkpt><trkpt lat="44.0025933" lon="11.9174983"><ele>218.0</ele><time>2026-04-04T10:55:32.693Z</time></trkpt><trkpt lat="44.0026833" lon="11.9178417"><ele>220.0</ele><time>2026-04-04T10:55:33.692Z</time></trkpt><trkpt lat="44.002775" lon="11.918195"><ele>228.0</ele><time>2026-04-04T10:55:34.693Z</time></trkpt><trkpt lat="44.0028817" lon="11.9185417"><ele>236.0</ele><time>2026-04-04T10:55:35.692Z</time></trkpt><trkpt lat="44.003" lon="11.91888"><ele>236.0</ele><time>2026-04-04T10:55:36.692Z</time></trkpt><trkpt lat="44.0031233" lon="11.9192217"><ele>236.0</ele><time>2026-04-04T10:55:37.692Z</time></trkpt><trkpt lat="44.0032367" lon="11.9195783"><ele>236.5</ele><time>2026-04-04T10:55:38.692Z</time></trkpt><trkpt lat="44.0033483" lon="11.9199467"><ele>237.0</ele><time>2026-04-04T10:55:39.692Z</time></trkpt><trkpt lat="44.0034617" lon="11.92031"><ele>237.0</ele><time>2026-04-04T10:55:40.693Z</time></trkpt><trkpt lat="44.0035867" lon="11.9206667"><ele>237.0</ele><time>2026-04-04T10:55:41.692Z</time></trkpt><trkpt lat="44.00372" lon="11.9210217"><ele>246.5</ele><time>2026-04-04T10:55:42.693Z</time></trkpt><trkpt lat="44.0038633" lon="11.9213717"><ele>256.0</ele><time>2026-04-04T10:55:43.692Z</time></trkpt><trkpt lat="44.0040067" lon="11.92171"><ele>259.0</ele><time>2026-04-04T10:55:44.692Z</time></trkpt><trkpt lat="44.004145" lon="11.9220533"><ele>262.0</ele><time>2026-04-04T10:55:45.693Z</time></trkpt><trkpt lat="44.0042733" lon="11.9224017"><ele>249.0</ele><time>2026-04-04T10:55:46.693Z</time></trkpt><trkpt lat="44.0043883" lon="11.9227517"><ele>236.0</ele><time>2026-04-04T10:55:47.693Z</time></trkpt><trkpt lat="44.004485" lon="11.9231217"><ele>237.0</ele><time>2026-04-04T10:55:48.692Z</time></trkpt><trkpt lat="44.0045767" lon="11.9234867"><ele>238.0</ele><time>2026-04-04T10:55:49.692Z</time></trkpt><trkpt lat="44.0046617" lon="11.9238567"><ele>239.0</ele><time>2026-04-04T10:55:50.693Z</time></trkpt><trkpt lat="44.0047417" lon="11.92423"><ele>240.0</ele><time>2026-04-04T10:55:51.693Z</time></trkpt><trkpt lat="44.0048233" lon="11.9246133"><ele>240.0</ele><time>2026-04-04T10:55:52.692Z</time></trkpt><trkpt lat="44.0049067" lon="11.924995"><ele>240.0</ele><time>2026-04-04T10:55:53.692Z</time></trkpt><trkpt lat="44.0049833" lon="11.92537"><ele>239.0</ele><time>2026-04-04T10:55:54.692Z</time></trkpt><trkpt lat="44.0050683" lon="11.92574"><ele>238.0</ele><time>2026-04-04T10:55:55.693Z</time></trkpt><trkpt lat="44.0051417" lon="11.92611"><ele>238.0</ele><time>2026-04-04T10:55:56.692Z</time></trkpt><trkpt lat="44.005215" lon="11.926475"><ele>238.0</ele><time>2026-04-04T10:55:57.693Z</time></trkpt><trkpt lat="44.0052867" lon="11.926835"><ele>238.5</ele><time>2026-04-04T10:55:58.692Z</time></trkpt><trkpt lat="44.0053383" lon="11.92721"><ele>239.0</ele><time>2026-04-04T10:55:59.692Z</time></trkpt><trkpt lat="44.00536" lon="11.927575"><ele>237.5</ele><time>2026-04-04T10:56:00.692Z</time></trkpt><trkpt lat="44.0053433" lon="11.9279467"><ele>236.0</ele><time>2026-04-04T10:56:01.692Z</time></trkpt><trkpt lat="44.0053133" lon="11.9282967"><ele>235.0</ele><time>2026-04-04T10:56:02.692Z</time></trkpt><trkpt lat="44.0052767" lon="11.9286317"><ele>234.0</ele><time>2026-04-04T10:56:03.693Z</time></trkpt><trkpt lat="44.005245" lon="11.9289433"><ele>233.66666666666669</ele><time>2026-04-04T10:56:04.693Z</time></trkpt><trkpt lat="44.0052233" lon="11.9292333"><ele>233.33333333333334</ele><time>2026-04-04T10:56:05.693Z</time></trkpt><trkpt lat="44.0052317" lon="11.9295233"><ele>233.0</ele><time>2026-04-04T10:56:06.692Z</time></trkpt><trkpt lat="44.005255" lon="11.9298233"><ele>230.0</ele><time>2026-04-04T10:56:07.693Z</time></trkpt><trkpt lat="44.0053067" lon="11.93013"><ele>227.0</ele><time>2026-04-04T10:56:08.692Z</time></trkpt><trkpt lat="44.005375" lon="11.9304433"><ele>227.0</ele><time>2026-04-04T10:56:09.693Z</time></trkpt><trkpt lat="44.0054717" lon="11.930755"><ele>227.0</ele><time>2026-04-04T10:56:10.692Z</time></trkpt><trkpt lat="44.0055867" lon="11.9310583"><ele>223.0</ele><time>2026-04-04T10:56:11.693Z</time></trkpt><trkpt lat="44.0057133" lon="11.931365"><ele>219.0</ele><time>2026-04-04T10:56:12.692Z</time></trkpt><trkpt lat="44.0058383" lon="11.9316733"><ele>210.0</ele><time>2026-04-04T10:56:13.692Z</time></trkpt><trkpt lat="44.0059683" lon="11.931985"><ele>201.0</ele><time>2026-04-04T10:56:14.692Z</time></trkpt><trkpt lat="44.0061" lon="11.9322917"><ele>207.0</ele><time>2026-04-04T10:56:15.693Z</time></trkpt><trkpt lat="44.006225" lon="11.93258"><ele>213.0</ele><time>2026-04-04T10:56:16.692Z</time></trkpt><trkpt lat="44.00635" lon="11.9328617"><ele>213.0</ele><time>2026-04-04T10:56:17.693Z</time></trkpt><trkpt lat="44.00647" lon="11.93314"><ele>213.0</ele><time>2026-04-04T10:56:18.692Z</time></trkpt><trkpt lat="44.00659" lon="11.933415"><ele>215.0</ele><time>2026-04-04T10:56:19.693Z</time></trkpt><trkpt lat="44.006695" lon="11.933685"><ele>217.0</ele><time>2026-04-04T10:56:20.692Z</time></trkpt><trkpt lat="44.0067783" lon="11.9339417"><ele>219.0</ele><time>2026-04-04T10:56:21.692Z</time></trkpt><trkpt lat="44.006835" lon="11.9342067"><ele>219.0</ele><time>2026-04-04T10:56:22.692Z</time></trkpt><trkpt lat="44.0068783" lon="11.934475"><ele>219.0</ele><time>2026-04-04T10:56:23.693Z</time></trkpt><trkpt lat="44.0069133" lon="11.934715"><ele>219.0</ele><time>2026-04-04T10:56:24.692Z</time></trkpt><trkpt lat="44.0069317" lon="11.9349183"><ele>218.5</ele><time>2026-04-04T10:56:25.692Z</time></trkpt><trkpt lat="44.00694" lon="11.935105"><ele>218.0</ele><time>2026-04-04T10:56:26.692Z</time></trkpt><trkpt lat="44.0069517" lon="11.9352783"><ele>217.5</ele><time>2026-04-04T10:56:27.692Z</time></trkpt><trkpt lat="44.0069667" lon="11.9354467"><ele>217.0</ele><time>2026-04-04T10:56:28.692Z</time></trkpt><trkpt lat="44.0069783" lon="11.9356133"><ele>217.0</ele><time>2026-04-04T10:56:29.693Z</time></trkpt><trkpt lat="44.0069833" lon="11.93578"><ele>217.0</ele><time>2026-04-04T10:56:30.693Z</time></trkpt><trkpt lat="44.0069967" lon="11.935955"><ele>217.0</ele><time>2026-04-04T10:56:31.693Z</time></trkpt><trkpt lat="44.00701" lon="11.9361383"><ele>217.0</ele><time>2026-04-04T10:56:32.692Z</time></trkpt><trkpt lat="44.00702" lon="11.9363333"><ele>217.66666666666666</ele><time>2026-04-04T10:56:33.692Z</time></trkpt><trkpt lat="44.0070283" lon="11.9365433"><ele>218.33333333333331</ele><time>2026-04-04T10:56:34.692Z</time></trkpt><trkpt lat="44.0070433" lon="11.93676"><ele>219.0</ele><time>2026-04-04T10:56:35.692Z</time></trkpt><trkpt lat="44.0070533" lon="11.9369867"><ele>219.0</ele><time>2026-04-04T10:56:36.692Z</time></trkpt><trkpt lat="44.0070667" lon="11.9372233"><ele>219.0</ele><time>2026-04-04T10:56:37.692Z</time></trkpt><trkpt lat="44.0070833" lon="11.9374667"><ele>219.0</ele><time>2026-04-04T10:56:38.692Z</time></trkpt><trkpt lat="44.0070983" lon="11.937715"><ele>219.0</ele><time>2026-04-04T10:56:39.693Z</time></trkpt><trkpt lat="44.0071133" lon="11.9379617"><ele>219.0</ele><time>2026-04-04T10:56:40.692Z</time></trkpt><trkpt lat="44.00713" lon="11.9382"><ele>219.0</ele><time>2026-04-04T10:56:41.692Z</time></trkpt><trkpt lat="44.0071483" lon="11.9384333"><ele>219.0</ele><time>2026-04-04T10:56:42.693Z</time></trkpt><trkpt lat="44.0071517" lon="11.93867"><ele>219.0</ele><time>2026-04-04T10:56:43.693Z</time></trkpt><trkpt lat="44.007165" lon="11.9388983"><ele>219.0</ele><time>2026-04-04T10:56:44.693Z</time></trkpt><trkpt lat="44.0071867" lon="11.9391233"><ele>219.75</ele><time>2026-04-04T10:56:45.692Z</time></trkpt><trkpt lat="44.0072067" lon="11.9393383"><ele>220.5</ele><time>2026-04-04T10:56:46.692Z</time></trkpt><trkpt lat="44.0072183" lon="11.9395417"><ele>221.25</ele><time>2026-04-04T10:56:47.693Z</time></trkpt><trkpt lat="44.0072333" lon="11.93974"><ele>222.0</ele><time>2026-04-04T10:56:48.693Z</time></trkpt><trkpt lat="44.0072433" lon="11.9399317"><ele>221.5</ele><time>2026-04-04T10:56:49.693Z</time></trkpt><trkpt lat="44.0072467" lon="11.9401417"><ele>221.0</ele><time>2026-04-04T10:56:50.692Z</time></trkpt><trkpt lat="44.0072483" lon="11.9403433"><ele>220.5</ele><time>2026-04-04T10:56:51.692Z</time></trkpt><trkpt lat="44.00725" lon="11.940545"><ele>220.0</ele><time>2026-04-04T10:56:52.692Z</time></trkpt><trkpt lat="44.0072367" lon="11.940735"><ele>219.5</ele><time>2026-04-04T10:56:53.693Z</time></trkpt><trkpt lat="44.0072117" lon="11.9409283"><ele>219.0</ele><time>2026-04-04T10:56:54.692Z</time></trkpt><trkpt lat="44.0071667" lon="11.9411"><ele>218.5</ele><time>2026-04-04T10:56:55.692Z</time></trkpt><trkpt lat="44.007095" lon="11.9412767"><ele>218.0</ele><time>2026-04-04T10:56:56.692Z</time></trkpt><trkpt lat="44.00699" lon="11.9414233"><ele>218.0</ele><time>2026-04-04T10:56:57.692Z</time></trkpt><trkpt lat="44.0068833" lon="11.9415767"><ele>218.0</ele><time>2026-04-04T10:56:58.692Z</time></trkpt><trkpt lat="44.006765" lon="11.9417383"><ele>218.0</ele><time>2026-04-04T10:56:59.693Z</time></trkpt><trkpt lat="44.0066433" lon="11.9418967"><ele>220.0</ele><time>2026-04-04T10:57:00.692Z</time></trkpt><trkpt lat="44.00654" lon="11.9420783"><ele>222.0</ele><time>2026-04-04T10:57:01.692Z</time></trkpt><trkpt lat="44.006465" lon="11.9422767"><ele>224.0</ele><time>2026-04-04T10:57:02.693Z</time></trkpt><trkpt lat="44.0064233" lon="11.9424867"><ele>223.75</ele><time>2026-04-04T10:57:03.693Z</time></trkpt><trkpt lat="44.0064" lon="11.9426933"><ele>223.5</ele><time>2026-04-04T10:57:04.693Z</time></trkpt><trkpt lat="44.0063833" lon="11.9428917"><ele>223.25</ele><time>2026-04-04T10:57:05.692Z</time></trkpt><trkpt lat="44.00637" lon="11.9430767"><ele>223.0</ele><time>2026-04-04T10:57:06.692Z</time></trkpt><trkpt lat="44.0063617" lon="11.9432567"><ele>223.5</ele><time>2026-04-04T10:57:07.692Z</time></trkpt><trkpt lat="44.0063667" lon="11.9434167"><ele>224.0</ele><time>2026-04-04T10:57:08.692Z</time></trkpt><trkpt lat="44.0063783" lon="11.9435733"><ele>224.5</ele><time>2026-04-04T10:57:09.692Z</time></trkpt><trkpt lat="44.0064083" lon="11.9437233"><ele>225.0</ele><time>2026-04-04T10:57:10.693Z</time></trkpt><trkpt lat="44.0064583" lon="11.9438717"><ele>225.0</ele><time>2026-04-04T10:57:11.692Z</time></trkpt><trkpt lat="44.0065167" lon="11.9440167"><ele>225.0</ele><time>2026-04-04T10:57:12.692Z</time></trkpt><trkpt lat="44.00659" lon="11.9441433"><ele>225.0</ele><time>2026-04-04T10:57:13.693Z</time></trkpt><trkpt lat="44.0066817" lon="11.94426"><ele>225.0</ele><time>2026-04-04T10:57:14.693Z</time></trkpt><trkpt lat="44.00678" lon="11.9443583"><ele>222.66666666666669</ele><time>2026-04-04T10:57:15.693Z</time></trkpt><trkpt lat="44.0069083" lon="11.94447"><ele>220.33333333333334</ele><time>2026-04-04T10:57:16.693Z</time></trkpt><trkpt lat="44.0070517" lon="11.9445917"><ele>218.0</ele><time>2026-04-04T10:57:17.693Z</time></trkpt><trkpt lat="44.00721" lon="11.944715"><ele>218.0</ele><time>2026-04-04T10:57:18.693Z</time></trkpt><trkpt lat="44.0073883" lon="11.9448383"><ele>218.0</ele><time>2026-04-04T10:57:19.693Z</time></trkpt><trkpt lat="44.0075783" lon="11.944965"><ele>218.0</ele><time>2026-04-04T10:57:20.692Z</time></trkpt><trkpt lat="44.0077683" lon="11.945095"><ele>218.0</ele><time>2026-04-04T10:57:21.693Z</time></trkpt><trkpt lat="44.0079667" lon="11.94524"><ele>218.0</ele><time>2026-04-04T10:57:22.692Z</time></trkpt><trkpt lat="44.00817" lon="11.9453833"><ele>211.0</ele><time>2026-04-04T10:57:23.692Z</time></trkpt><trkpt lat="44.0083733" lon="11.9455333"><ele>204.0</ele><time>2026-04-04T10:57:24.692Z</time></trkpt><trkpt lat="44.0085683" lon="11.945695"><ele>204.0</ele><time>2026-04-04T10:57:25.692Z</time></trkpt><trkpt lat="44.0087433" lon="11.94587"><ele>204.0</ele><time>2026-04-04T10:57:26.692Z</time></trkpt><trkpt lat="44.0088867" lon="11.9460567"><ele>204.0</ele><time>2026-04-04T10:57:27.692Z</time></trkpt><trkpt lat="44.0090067" lon="11.94626"><ele>205.33333333333331</ele><time>2026-04-04T10:57:28.692Z</time></trkpt><trkpt lat="44.0091117" lon="11.9464533"><ele>206.66666666666666</ele><time>2026-04-04T10:57:29.692Z</time></trkpt><trkpt lat="44.009205" lon="11.9466233"><ele>208.0</ele><time>2026-04-04T10:57:30.693Z</time></trkpt><trkpt lat="44.0092933" lon="11.9467983"><ele>205.75</ele><time>2026-04-04T10:57:31.693Z</time></trkpt><trkpt lat="44.009375" lon="11.9469683"><ele>203.5</ele><time>2026-04-04T10:57:32.692Z</time></trkpt><trkpt lat="44.00946" lon="11.94714"><ele>201.25</ele><time>2026-04-04T10:57:33.692Z</time></trkpt><trkpt lat="44.0095433" lon="11.9473083"><ele>199.0</ele><time>2026-04-04T10:57:34.692Z</time></trkpt><trkpt lat="44.0096267" lon="11.9474733"><ele>200.5</ele><time>2026-04-04T10:57:35.692Z</time></trkpt><trkpt lat="44.0097083" lon="11.94763"><ele>202.0</ele><time>2026-04-04T10:57:36.693Z</time></trkpt><trkpt lat="44.0097717" lon="11.9477783"><ele>203.5</ele><time>2026-04-04T10:57:37.693Z</time></trkpt><trkpt lat="44.0098333" lon="11.9479167"><ele>205.0</ele><time>2026-04-04T10:57:38.692Z</time></trkpt><trkpt lat="44.0098983" lon="11.9480417"><ele>205.0</ele><time>2026-04-04T10:57:39.693Z</time></trkpt><trkpt lat="44.0099567" lon="11.9481783"><ele>205.0</ele><time>2026-04-04T10:57:40.692Z</time></trkpt><trkpt lat="44.010025" lon="11.9483317"><ele>205.0</ele><time>2026-04-04T10:57:41.692Z</time></trkpt><trkpt lat="44.0101017" lon="11.9484817"><ele>205.0</ele><time>2026-04-04T10:57:42.692Z</time></trkpt><trkpt lat="44.01017" lon="11.94865"><ele>204.66666666666666</ele><time>2026-04-04T10:57:43.692Z</time></trkpt><trkpt lat="44.0102483" lon="11.9488467"><ele>204.33333333333331</ele><time>2026-04-04T10:57:44.693Z</time></trkpt><trkpt lat="44.0103383" lon="11.9490583"><ele>204.0</ele><time>2026-04-04T10:57:45.692Z</time></trkpt><trkpt lat="44.0104233" lon="11.9493033"><ele>204.0</ele><time>2026-04-04T10:57:46.692Z</time></trkpt><trkpt lat="44.0105083" lon="11.9495767"><ele>204.0</ele><time>2026-04-04T10:57:47.693Z</time></trkpt><trkpt lat="44.0106017" lon="11.9498683"><ele>204.0</ele><time>2026-04-04T10:57:48.693Z</time></trkpt><trkpt lat="44.0107083" lon="11.9501733"><ele>206.0</ele><time>2026-04-04T10:57:49.693Z</time></trkpt><trkpt lat="44.0108133" lon="11.9504933"><ele>208.0</ele><time>2026-04-04T10:57:50.692Z</time></trkpt><trkpt lat="44.0109267" lon="11.950825"><ele>201.0</ele><time>2026-04-04T10:57:51.693Z</time></trkpt><trkpt lat="44.011035" lon="11.9511667"><ele>194.0</ele><time>2026-04-04T10:57:52.692Z</time></trkpt><trkpt lat="44.0111517" lon="11.951515"><ele>195.5</ele><time>2026-04-04T10:57:53.693Z</time></trkpt><trkpt lat="44.0112633" lon="11.9518767"><ele>197.0</ele><time>2026-04-04T10:57:54.693Z</time></trkpt><trkpt lat="44.011385" lon="11.9522483"><ele>198.0</ele><time>2026-04-04T10:57:55.692Z</time></trkpt><trkpt lat="44.0114967" lon="11.952615"><ele>199.0</ele><time>2026-04-04T10:57:56.693Z</time></trkpt><trkpt lat="44.0116117" lon="11.9529533"><ele>194.5</ele><time>2026-04-04T10:57:57.692Z</time></trkpt><trkpt lat="44.01172" lon="11.9532817"><ele>190.0</ele><time>2026-04-04T10:57:58.692Z</time></trkpt><trkpt lat="44.0118217" lon="11.9536033"><ele>190.0</ele><time>2026-04-04T10:57:59.692Z</time></trkpt><trkpt lat="44.011925" lon="11.9539267"><ele>190.0</ele><time>2026-04-04T10:58:00.692Z</time></trkpt><trkpt lat="44.0120283" lon="11.954255"><ele>191.5</ele><time>2026-04-04T10:58:01.692Z</time></trkpt><trkpt lat="44.01212" lon="11.9545983"><ele>193.0</ele><time>2026-04-04T10:58:02.693Z</time></trkpt><trkpt lat="44.0122017" lon="11.9549617"><ele>193.0</ele><time>2026-04-04T10:58:03.692Z</time></trkpt><trkpt lat="44.0122767" lon="11.9553367"><ele>193.0</ele><time>2026-04-04T10:58:04.692Z</time></trkpt><trkpt lat="44.0123417" lon="11.9557233"><ele>193.5</ele><time>2026-04-04T10:58:05.692Z</time></trkpt><trkpt lat="44.0124017" lon="11.9561233"><ele>194.0</ele><time>2026-04-04T10:58:06.692Z</time></trkpt><trkpt lat="44.0124583" lon="11.9565233"><ele>189.0</ele><time>2026-04-04T10:58:07.692Z</time></trkpt><trkpt lat="44.0125067" lon="11.9569333"><ele>184.0</ele><time>2026-04-04T10:58:08.693Z</time></trkpt><trkpt lat="44.01257" lon="11.9573417"><ele>184.5</ele><time>2026-04-04T10:58:09.693Z</time></trkpt><trkpt lat="44.0126333" lon="11.9577567"><ele>185.0</ele><time>2026-04-04T10:58:10.693Z</time></trkpt><trkpt lat="44.0127017" lon="11.9581733"><ele>186.5</ele><time>2026-04-04T10:58:11.692Z</time></trkpt><trkpt lat="44.0127619" lon="11.9585921"><ele>188.0</ele><time>2026-04-04T10:58:12.692Z</time></trkpt><trkpt lat="44.0128241" lon="11.9590137"><ele>190.5</ele><time>2026-04-04T10:58:13.692Z</time></trkpt><trkpt lat="44.0128873" lon="11.9594466"><ele>193.0</ele><time>2026-04-04T10:58:14.692Z</time></trkpt><trkpt lat="44.0129482" lon="11.9598713"><ele>197.5</ele><time>2026-04-04T10:58:15.692Z</time></trkpt><trkpt lat="44.0130106" lon="11.960279"><ele>202.0</ele><time>2026-04-04T10:58:16.692Z</time></trkpt><trkpt lat="44.0130779" lon="11.9606507"><ele>205.0</ele><time>2026-04-04T10:58:17.693Z</time></trkpt><trkpt lat="44.01316" lon="11.961008"><ele>208.0</ele><time>2026-04-04T10:58:18.692Z</time></trkpt><trkpt lat="44.0132701" lon="11.9613483"><ele>202.0</ele><time>2026-04-04T10:58:19.693Z</time></trkpt><trkpt lat="44.0134073" lon="11.9616725"><ele>196.0</ele><time>2026-04-04T10:58:20.693Z</time></trkpt><trkpt lat="44.0135722" lon="11.9619802"><ele>196.0</ele><time>2026-04-04T10:58:21.693Z</time></trkpt><trkpt lat="44.0137483" lon="11.9622902"><ele>196.0</ele><time>2026-04-04T10:58:22.692Z</time></trkpt><trkpt lat="44.0139266" lon="11.9626122"><ele>192.0</ele><time>2026-04-04T10:58:23.693Z</time></trkpt><trkpt lat="44.0141146" lon="11.9629337"><ele>188.0</ele><time>2026-04-04T10:58:24.693Z</time></trkpt><trkpt lat="44.0143226" lon="11.963232"><ele>192.5</ele><time>2026-04-04T10:58:25.692Z</time></trkpt><trkpt lat="44.0145517" lon="11.9635097"><ele>197.0</ele><time>2026-04-04T10:58:26.692Z</time></trkpt><trkpt lat="44.0147895" lon="11.9637844"><ele>191.0</ele><time>2026-04-04T10:58:27.693Z</time></trkpt><trkpt lat="44.0150272" lon="11.9640706"><ele>185.0</ele><time>2026-04-04T10:58:28.693Z</time></trkpt><trkpt lat="44.0152662" lon="11.9643606"><ele>185.0</ele><time>2026-04-04T10:58:29.692Z</time></trkpt><trkpt lat="44.0155061" lon="11.9646492"><ele>185.0</ele><time>2026-04-04T10:58:30.692Z</time></trkpt><trkpt lat="44.0157375" lon="11.9649302"><ele>181.5</ele><time>2026-04-04T10:58:31.693Z</time></trkpt><trkpt lat="44.0159534" lon="11.9651857"><ele>178.0</ele><time>2026-04-04T10:58:32.692Z</time></trkpt><trkpt lat="44.0161513" lon="11.9654233"><ele>178.0</ele><time>2026-04-04T10:58:33.692Z</time></trkpt><trkpt lat="44.0163294" lon="11.9656661"><ele>178.0</ele><time>2026-04-04T10:58:34.692Z</time></trkpt><trkpt lat="44.0164873" lon="11.9659368"><ele>180.5</ele><time>2026-04-04T10:58:35.693Z</time></trkpt><trkpt lat="44.0166273" lon="11.966234"><ele>183.0</ele><time>2026-04-04T10:58:36.692Z</time></trkpt><trkpt lat="44.0167461" lon="11.9665531"><ele>187.0</ele><time>2026-04-04T10:58:37.692Z</time></trkpt><trkpt lat="44.0168306" lon="11.9668945"><ele>191.0</ele><time>2026-04-04T10:58:38.692Z</time></trkpt><trkpt lat="44.0169146" lon="11.9672417"><ele>194.5</ele><time>2026-04-04T10:58:39.692Z</time></trkpt><trkpt lat="44.0170029" lon="11.9675822"><ele>198.0</ele><time>2026-04-04T10:58:40.693Z</time></trkpt><trkpt lat="44.0171043" lon="11.9679042"><ele>198.0</ele><time>2026-04-04T10:58:41.692Z</time></trkpt><trkpt lat="44.0172221" lon="11.9682166"><ele>198.0</ele><time>2026-04-04T10:58:42.692Z</time></trkpt><trkpt lat="44.0173614" lon="11.9685202"><ele>199.0</ele><time>2026-04-04T10:58:43.692Z</time></trkpt><trkpt lat="44.0175181" lon="11.9688068"><ele>200.0</ele><time>2026-04-04T10:58:44.692Z</time></trkpt><trkpt lat="44.0177024" lon="11.9690812"><ele>208.5</ele><time>2026-04-04T10:58:45.692Z</time></trkpt><trkpt lat="44.0179107" lon="11.9693362"><ele>217.0</ele><time>2026-04-04T10:58:46.693Z</time></trkpt><trkpt lat="44.0181331" lon="11.9695827"><ele>214.0</ele><time>2026-04-04T10:58:47.693Z</time></trkpt><trkpt lat="44.0183668" lon="11.9698178"><ele>211.0</ele><time>2026-04-04T10:58:48.692Z</time></trkpt><trkpt lat="44.0186112" lon="11.9700361"><ele>211.0</ele><time>2026-04-04T10:58:49.692Z</time></trkpt><trkpt lat="44.0188624" lon="11.9702531"><ele>211.0</ele><time>2026-04-04T10:58:50.692Z</time></trkpt><trkpt lat="44.0191119" lon="11.9704812"><ele>208.0</ele><time>2026-04-04T10:58:51.692Z</time></trkpt><trkpt lat="44.0193699" lon="11.9707133"><ele>205.0</ele><time>2026-04-04T10:58:52.692Z</time></trkpt><trkpt lat="44.0196311" lon="11.9709489"><ele>205.0</ele><time>2026-04-04T10:58:53.692Z</time></trkpt><trkpt lat="44.0198883" lon="11.9711912"><ele>205.0</ele><time>2026-04-04T10:58:54.693Z</time></trkpt><trkpt lat="44.0201507" lon="11.9714269"><ele>203.0</ele><time>2026-04-04T10:58:55.692Z</time></trkpt><trkpt lat="44.0204128" lon="11.9716613"><ele>201.0</ele><time>2026-04-04T10:58:56.693Z</time></trkpt><trkpt lat="44.0206733" lon="11.9719018"><ele>196.0</ele><time>2026-04-04T10:58:57.693Z</time></trkpt><trkpt lat="44.0209339" lon="11.9721376"><ele>191.0</ele><time>2026-04-04T10:58:58.692Z</time></trkpt><trkpt lat="44.0211966" lon="11.9723702"><ele>191.5</ele><time>2026-04-04T10:58:59.692Z</time></trkpt><trkpt lat="44.0214563" lon="11.972613"><ele>192.0</ele><time>2026-04-04T10:59:00.693Z</time></trkpt><trkpt lat="44.0217185" lon="11.9728578"><ele>192.0</ele><time>2026-04-04T10:59:01.693Z</time></trkpt><trkpt lat="44.021979" lon="11.9731024"><ele>192.0</ele><time>2026-04-04T10:59:02.692Z</time></trkpt><trkpt lat="44.0222364" lon="11.9733376"><ele>193.5</ele><time>2026-04-04T10:59:03.692Z</time></trkpt><trkpt lat="44.0224826" lon="11.9735683"><ele>195.0</ele><time>2026-04-04T10:59:04.692Z</time></trkpt><trkpt lat="44.0227124" lon="11.9737879"><ele>195.0</ele><time>2026-04-04T10:59:05.693Z</time></trkpt><trkpt lat="44.022927" lon="11.9739941"><ele>195.0</ele><time>2026-04-04T10:59:06.693Z</time></trkpt><trkpt lat="44.0231313" lon="11.9741857"><ele>196.0</ele><time>2026-04-04T10:59:07.693Z</time></trkpt><trkpt lat="44.0233308" lon="11.974371"><ele>197.0</ele><time>2026-04-04T10:59:08.693Z</time></trkpt><trkpt lat="44.0235196" lon="11.9745511"><ele>197.0</ele><time>2026-04-04T10:59:09.693Z</time></trkpt><trkpt lat="44.0236984" lon="11.9747229"><ele>197.0</ele><time>2026-04-04T10:59:10.692Z</time></trkpt><trkpt lat="44.02387" lon="11.9748926"><ele>197.0</ele><time>2026-04-04T10:59:11.693Z</time></trkpt><trkpt lat="44.0240369" lon="11.9750533"><ele>195.0</ele><time>2026-04-04T10:59:12.693Z</time></trkpt><trkpt lat="44.0241932" lon="11.9752064"><ele>193.0</ele><time>2026-04-04T10:59:13.692Z</time></trkpt><trkpt lat="44.0243432" lon="11.9753484"><ele>191.0</ele><time>2026-04-04T10:59:14.693Z</time></trkpt><trkpt lat="44.024488" lon="11.9754796"><ele>191.0</ele><time>2026-04-04T10:59:15.693Z</time></trkpt><trkpt lat="44.0246312" lon="11.9756105"><ele>191.0</ele><time>2026-04-04T10:59:16.692Z</time></trkpt><trkpt lat="44.0247695" lon="11.9757422"><ele>191.0</ele><time>2026-04-04T10:59:17.693Z</time></trkpt><trkpt lat="44.024908" lon="11.9758778"><ele>188.0</ele><time>2026-04-04T10:59:18.693Z</time></trkpt><trkpt lat="44.0250462" lon="11.9760253"><ele>185.0</ele><time>2026-04-04T10:59:19.693Z</time></trkpt><trkpt lat="44.0251793" lon="11.9762081"><ele>182.0</ele><time>2026-04-04T10:59:20.693Z</time></trkpt><trkpt lat="44.0252985" lon="11.9764261"><ele>182.0</ele><time>2026-04-04T10:59:21.692Z</time></trkpt><trkpt lat="44.0254115" lon="11.9766701"><ele>182.0</ele><time>2026-04-04T10:59:22.693Z</time></trkpt><trkpt lat="44.0255232" lon="11.9769205"><ele>182.0</ele><time>2026-04-04T10:59:23.692Z</time></trkpt><trkpt lat="44.0256323" lon="11.9771618"><ele>182.33333333333331</ele><time>2026-04-04T10:59:24.693Z</time></trkpt><trkpt lat="44.0257362" lon="11.9773873"><ele>182.66666666666666</ele><time>2026-04-04T10:59:25.692Z</time></trkpt><trkpt lat="44.0258284" lon="11.9775908"><ele>183.0</ele><time>2026-04-04T10:59:26.692Z</time></trkpt><trkpt lat="44.0259071" lon="11.9777714"><ele>183.0</ele><time>2026-04-04T10:59:27.692Z</time></trkpt><trkpt lat="44.0259783" lon="11.9779319"><ele>183.0</ele><time>2026-04-04T10:59:28.692Z</time></trkpt><trkpt lat="44.0260413" lon="11.9780862"><ele>183.0</ele><time>2026-04-04T10:59:29.692Z</time></trkpt><trkpt lat="44.0261038" lon="11.978225"><ele>183.0</ele><time>2026-04-04T10:59:30.692Z</time></trkpt><trkpt lat="44.0261636" lon="11.9783544"><ele>183.0</ele><time>2026-04-04T10:59:31.692Z</time></trkpt><trkpt lat="44.0262196" lon="11.9784788"><ele>183.0</ele><time>2026-04-04T10:59:32.692Z</time></trkpt><trkpt lat="44.0262833" lon="11.978606"><ele>183.0</ele><time>2026-04-04T10:59:33.692Z</time></trkpt><trkpt lat="44.0263485" lon="11.9787285"><ele>183.0</ele><time>2026-04-04T10:59:34.692Z</time></trkpt><trkpt lat="44.0264192" lon="11.9788403"><ele>183.0</ele><time>2026-04-04T10:59:35.692Z</time></trkpt><trkpt lat="44.0264954" lon="11.978943"><ele>183.0</ele><time>2026-04-04T10:59:36.693Z</time></trkpt><trkpt lat="44.0265791" lon="11.9790451"><ele>183.0</ele><time>2026-04-04T10:59:37.692Z</time></trkpt><trkpt lat="44.0266646" lon="11.9791415"><ele>183.0</ele><time>2026-04-04T10:59:38.693Z</time></trkpt><trkpt lat="44.0267467" lon="11.9792441"><ele>183.0</ele><time>2026-04-04T10:59:39.692Z</time></trkpt><trkpt lat="44.0268326" lon="11.9793493"><ele>183.0</ele><time>2026-04-04T10:59:40.692Z</time></trkpt><trkpt lat="44.0269277" lon="11.9794667"><ele>182.5</ele><time>2026-04-04T10:59:41.692Z</time></trkpt><trkpt lat="44.0270277" lon="11.9795894"><ele>182.0</ele><time>2026-04-04T10:59:42.692Z</time></trkpt><trkpt lat="44.0271242" lon="11.9797185"><ele>181.5</ele><time>2026-04-04T10:59:43.693Z</time></trkpt><trkpt lat="44.0272113" lon="11.9798526"><ele>181.0</ele><time>2026-04-04T10:59:44.693Z</time></trkpt><trkpt lat="44.027293" lon="11.979998"><ele>181.0</ele><time>2026-04-04T10:59:45.693Z</time></trkpt><trkpt lat="44.0273621" lon="11.9801515"><ele>181.0</ele><time>2026-04-04T10:59:46.692Z</time></trkpt><trkpt lat="44.0274283" lon="11.9803211"><ele>181.0</ele><time>2026-04-04T10:59:47.692Z</time></trkpt><trkpt lat="44.0275021" lon="11.9805153"><ele>181.0</ele><time>2026-04-04T10:59:48.692Z</time></trkpt><trkpt lat="44.0275906" lon="11.9807497"><ele>178.66666666666669</ele><time>2026-04-04T10:59:49.692Z</time></trkpt><trkpt lat="44.0277041" lon="11.9810044"><ele>176.33333333333334</ele><time>2026-04-04T10:59:50.692Z</time></trkpt><trkpt lat="44.0278407" lon="11.9812656"><ele>174.0</ele><time>2026-04-04T10:59:51.692Z</time></trkpt><trkpt lat="44.0280048" lon="11.9815144"><ele>174.0</ele><time>2026-04-04T10:59:52.692Z</time></trkpt><trkpt lat="44.0281954" lon="11.9817536"><ele>174.0</ele><time>2026-04-04T10:59:53.692Z</time></trkpt><trkpt lat="44.0283988" lon="11.9819902"><ele>170.0</ele><time>2026-04-04T10:59:54.692Z</time></trkpt><trkpt lat="44.0286083" lon="11.9822264"><ele>166.0</ele><time>2026-04-04T10:59:55.693Z</time></trkpt><trkpt lat="44.0288202" lon="11.982479"><ele>167.5</ele><time>2026-04-04T10:59:56.693Z</time></trkpt><trkpt lat="44.0290406" lon="11.9827373"><ele>169.0</ele><time>2026-04-04T10:59:57.693Z</time></trkpt><trkpt lat="44.0292658" lon="11.9830025"><ele>165.5</ele><time>2026-04-04T10:59:58.693Z</time></trkpt><trkpt lat="44.0294987" lon="11.9832726"><ele>162.0</ele><time>2026-04-04T10:59:59.692Z</time></trkpt><trkpt lat="44.0297387" lon="11.9835395"><ele>161.0</ele><time>2026-04-04T11:00:00.693Z</time></trkpt><trkpt lat="44.0299814" lon="11.9838039"><ele>160.0</ele><time>2026-04-04T11:00:01.692Z</time></trkpt><trkpt lat="44.0302246" lon="11.984073"><ele>159.5</ele><time>2026-04-04T11:00:02.693Z</time></trkpt><trkpt lat="44.0304711" lon="11.9843459"><ele>159.0</ele><time>2026-04-04T11:00:03.693Z</time></trkpt><trkpt lat="44.0307183" lon="11.9846186"><ele>159.0</ele><time>2026-04-04T11:00:04.693Z</time></trkpt><trkpt lat="44.0309645" lon="11.9848959"><ele>159.0</ele><time>2026-04-04T11:00:05.692Z</time></trkpt><trkpt lat="44.0312139" lon="11.985172"><ele>159.0</ele><time>2026-04-04T11:00:06.692Z</time></trkpt><trkpt lat="44.0314667" lon="11.9854491"><ele>159.0</ele><time>2026-04-04T11:00:07.693Z</time></trkpt><trkpt lat="44.0317215" lon="11.9857276"><ele>160.0</ele><time>2026-04-04T11:00:08.692Z</time></trkpt><trkpt lat="44.0319755" lon="11.9860101"><ele>161.0</ele><time>2026-04-04T11:00:09.692Z</time></trkpt><trkpt lat="44.0322265" lon="11.9862962"><ele>161.5</ele><time>2026-04-04T11:00:10.692Z</time></trkpt><trkpt lat="44.0324845" lon="11.9865851"><ele>162.0</ele><time>2026-04-04T11:00:11.693Z</time></trkpt><trkpt lat="44.032748" lon="11.9868654"><ele>162.0</ele><time>2026-04-04T11:00:12.693Z</time></trkpt><trkpt lat="44.0330067" lon="11.9871475"><ele>162.0</ele><time>2026-04-04T11:00:13.693Z</time></trkpt><trkpt lat="44.0332613" lon="11.9874382"><ele>160.5</ele><time>2026-04-04T11:00:14.693Z</time></trkpt><trkpt lat="44.0335055" lon="11.9877539"><ele>159.0</ele><time>2026-04-04T11:00:15.692Z</time></trkpt><trkpt lat="44.033737" lon="11.9880876"><ele>159.0</ele><time>2026-04-04T11:00:16.693Z</time></trkpt><trkpt lat="44.0339574" lon="11.9884424"><ele>159.0</ele><time>2026-04-04T11:00:17.692Z</time></trkpt><trkpt lat="44.034176" lon="11.9888012"><ele>156.0</ele><time>2026-04-04T11:00:18.692Z</time></trkpt><trkpt lat="44.0343979" lon="11.9891536"><ele>153.0</ele><time>2026-04-04T11:00:19.692Z</time></trkpt><trkpt lat="44.0346238" lon="11.9895072"><ele>153.0</ele><time>2026-04-04T11:00:20.693Z</time></trkpt><trkpt lat="44.0348519" lon="11.9898659"><ele>153.0</ele><time>2026-04-04T11:00:21.693Z</time></trkpt><trkpt lat="44.0350848" lon="11.9902203"><ele>154.0</ele><time>2026-04-04T11:00:22.693Z</time></trkpt><trkpt lat="44.0353129" lon="11.9905806"><ele>155.0</ele><time>2026-04-04T11:00:23.693Z</time></trkpt><trkpt lat="44.0355379" lon="11.990936"><ele>155.0</ele><time>2026-04-04T11:00:24.693Z</time></trkpt><trkpt lat="44.0357534" lon="11.9912789"><ele>155.0</ele><time>2026-04-04T11:00:25.693Z</time></trkpt><trkpt lat="44.035954" lon="11.9916041"><ele>152.0</ele><time>2026-04-04T11:00:26.693Z</time></trkpt><trkpt lat="44.0361387" lon="11.9919147"><ele>149.0</ele><time>2026-04-04T11:00:27.692Z</time></trkpt><trkpt lat="44.0363178" lon="11.9922055"><ele>149.0</ele><time>2026-04-04T11:00:28.693Z</time></trkpt><trkpt lat="44.0364997" lon="11.9924666"><ele>149.0</ele><time>2026-04-04T11:00:29.692Z</time></trkpt><trkpt lat="44.0367025" lon="11.9926988"><ele>149.0</ele><time>2026-04-04T11:00:30.692Z</time></trkpt><trkpt lat="44.0369237" lon="11.9929128"><ele>149.0</ele><time>2026-04-04T11:00:31.692Z</time></trkpt><trkpt lat="44.0371632" lon="11.9931153"><ele>149.0</ele><time>2026-04-04T11:00:32.693Z</time></trkpt><trkpt lat="44.0374209" lon="11.9933148"><ele>149.0</ele><time>2026-04-04T11:00:33.692Z</time></trkpt><trkpt lat="44.0376768" lon="11.9935056"><ele>147.5</ele><time>2026-04-04T11:00:34.693Z</time></trkpt><trkpt lat="44.0379244" lon="11.9936952"><ele>146.0</ele><time>2026-04-04T11:00:35.693Z</time></trkpt><trkpt lat="44.038153" lon="11.9938856"><ele>143.0</ele><time>2026-04-04T11:00:36.692Z</time></trkpt><trkpt lat="44.0383514" lon="11.9940931"><ele>140.0</ele><time>2026-04-04T11:00:37.692Z</time></trkpt><trkpt lat="44.0384949" lon="11.9943175"><ele>140.0</ele><time>2026-04-04T11:00:38.692Z</time></trkpt><trkpt lat="44.0385847" lon="11.9945767"><ele>140.0</ele><time>2026-04-04T11:00:39.693Z</time></trkpt><trkpt lat="44.0386452" lon="11.994882"><ele>140.0</ele><time>2026-04-04T11:00:40.693Z</time></trkpt><trkpt lat="44.0386699" lon="11.9952162"><ele>141.5</ele><time>2026-04-04T11:00:41.692Z</time></trkpt><trkpt lat="44.0386814" lon="11.9955633"><ele>143.0</ele><time>2026-04-04T11:00:42.693Z</time></trkpt><trkpt lat="44.0386913" lon="11.9959106"><ele>139.0</ele><time>2026-04-04T11:00:43.692Z</time></trkpt><trkpt lat="44.0387344" lon="11.9962553"><ele>135.0</ele><time>2026-04-04T11:00:44.693Z</time></trkpt><trkpt lat="44.038806" lon="11.9965803"><ele>129.0</ele><time>2026-04-04T11:00:45.693Z</time></trkpt><trkpt lat="44.0389235" lon="11.996873"><ele>123.0</ele><time>2026-04-04T11:00:46.693Z</time></trkpt><trkpt lat="44.0390712" lon="11.9971554"><ele>122.0</ele><time>2026-04-04T11:00:47.692Z</time></trkpt><trkpt lat="44.039241" lon="11.9974265"><ele>121.0</ele><time>2026-04-04T11:00:48.693Z</time></trkpt><trkpt lat="44.0394126" lon="11.9976969"><ele>121.0</ele><time>2026-04-04T11:00:49.692Z</time></trkpt><trkpt lat="44.0395886" lon="11.9979627"><ele>121.0</ele><time>2026-04-04T11:00:50.692Z</time></trkpt><trkpt lat="44.0397636" lon="11.9982338"><ele>121.0</ele><time>2026-04-04T11:00:51.692Z</time></trkpt><trkpt lat="44.0399364" lon="11.9985132"><ele>121.0</ele><time>2026-04-04T11:00:52.692Z</time></trkpt><trkpt lat="44.0401074" lon="11.9987958"><ele>121.0</ele><time>2026-04-04T11:00:53.692Z</time></trkpt><trkpt lat="44.0402752" lon="11.9990773"><ele>121.0</ele><time>2026-04-04T11:00:54.692Z</time></trkpt><trkpt lat="44.0404493" lon="11.9993649"><ele>120.0</ele><time>2026-04-04T11:00:55.693Z</time></trkpt><trkpt lat="44.0406191" lon="11.9996491"><ele>119.0</ele><time>2026-04-04T11:00:56.692Z</time></trkpt><trkpt lat="44.0407842" lon="11.9999376"><ele>119.5</ele><time>2026-04-04T11:00:57.692Z</time></trkpt><trkpt lat="44.0409358" lon="12.0002311"><ele>120.0</ele><time>2026-04-04T11:00:58.693Z</time></trkpt><trkpt lat="44.0410646" lon="12.0005114"><ele>120.0</ele><time>2026-04-04T11:00:59.692Z</time></trkpt><trkpt lat="44.0411846" lon="12.000775"><ele>120.0</ele><time>2026-04-04T11:01:00.692Z</time></trkpt><trkpt lat="44.0412933" lon="12.00103"><ele>120.0</ele><time>2026-04-04T11:01:01.693Z</time></trkpt><trkpt lat="44.0414083" lon="12.0012783"><ele>120.0</ele><time>2026-04-04T11:01:02.692Z</time></trkpt><trkpt lat="44.04152" lon="12.0015283"><ele>120.0</ele><time>2026-04-04T11:01:03.693Z</time></trkpt><trkpt lat="44.0416317" lon="12.0017867"><ele>120.0</ele><time>2026-04-04T11:01:04.692Z</time></trkpt><trkpt lat="44.0417517" lon="12.0020283"><ele>120.0</ele><time>2026-04-04T11:01:05.692Z</time></trkpt><trkpt lat="44.041875" lon="12.0022933"><ele>120.0</ele><time>2026-04-04T11:01:06.692Z</time></trkpt><trkpt lat="44.042" lon="12.0025717"><ele>119.0</ele><time>2026-04-04T11:01:07.692Z</time></trkpt><trkpt lat="44.042135" lon="12.0028533"><ele>118.0</ele><time>2026-04-04T11:01:08.693Z</time></trkpt><trkpt lat="44.04227" lon="12.0031417"><ele>118.0</ele><time>2026-04-04T11:01:09.693Z</time></trkpt><trkpt lat="44.042395" lon="12.0034267"><ele>118.0</ele><time>2026-04-04T11:01:10.692Z</time></trkpt><trkpt lat="44.0425117" lon="12.0037117"><ele>118.0</ele><time>2026-04-04T11:01:11.692Z</time></trkpt><trkpt lat="44.0426117" lon="12.0040167"><ele>118.0</ele><time>2026-04-04T11:01:12.692Z</time></trkpt><trkpt lat="44.0426683" lon="12.0043317"><ele>117.5</ele><time>2026-04-04T11:01:13.692Z</time></trkpt><trkpt lat="44.0427067" lon="12.0046633"><ele>117.0</ele><time>2026-04-04T11:01:14.691Z</time></trkpt><trkpt lat="44.0427333" lon="12.0049733"><ele>117.0</ele><time>2026-04-04T11:01:15.691Z</time></trkpt><trkpt lat="44.04277" lon="12.00523"><ele>117.0</ele><time>2026-04-04T11:01:16.692Z</time></trkpt><trkpt lat="44.04283" lon="12.0054567"><ele>117.0</ele><time>2026-04-04T11:01:17.691Z</time></trkpt><trkpt lat="44.042925" lon="12.005645"><ele>117.0</ele><time>2026-04-04T11:01:18.691Z</time></trkpt><trkpt lat="44.0430617" lon="12.0058017"><ele>117.0</ele><time>2026-04-04T11:01:19.692Z</time></trkpt><trkpt lat="44.0432367" lon="12.0059017"><ele>117.0</ele><time>2026-04-04T11:01:20.691Z</time></trkpt><trkpt lat="44.0434433" lon="12.0059683"><ele>117.66666666666666</ele><time>2026-04-04T11:01:21.691Z</time></trkpt><trkpt lat="44.0436467" lon="12.0060067"><ele>118.33333333333333</ele><time>2026-04-04T11:01:22.692Z</time></trkpt><trkpt lat="44.0438583" lon="12.0060383"><ele>119.0</ele><time>2026-04-04T11:01:23.691Z</time></trkpt><trkpt lat="44.0440767" lon="12.0060767"><ele>118.0</ele><time>2026-04-04T11:01:24.691Z</time></trkpt><trkpt lat="44.0442567" lon="12.0060983"><ele>117.0</ele><time>2026-04-04T11:01:25.691Z</time></trkpt><trkpt lat="44.0444033" lon="12.0061383"><ele>116.0</ele><time>2026-04-04T11:01:26.691Z</time></trkpt><trkpt lat="44.04451" lon="12.0062167"><ele>116.0</ele><time>2026-04-04T11:01:27.691Z</time></trkpt><trkpt lat="44.0445917" lon="12.006335"><ele>116.0</ele><time>2026-04-04T11:01:28.692Z</time></trkpt><trkpt lat="44.044635" lon="12.0065067"><ele>116.0</ele><time>2026-04-04T11:01:29.691Z</time></trkpt><trkpt lat="44.0446767" lon="12.0066867"><ele>116.0</ele><time>2026-04-04T11:01:30.692Z</time></trkpt><trkpt lat="44.0447117" lon="12.0068783"><ele>117.5</ele><time>2026-04-04T11:01:31.691Z</time></trkpt><trkpt lat="44.044745" lon="12.007075"><ele>119.0</ele><time>2026-04-04T11:01:32.691Z</time></trkpt><trkpt lat="44.04477" lon="12.0072717"><ele>120.5</ele><time>2026-04-04T11:01:33.692Z</time></trkpt><trkpt lat="44.04481" lon="12.0074517"><ele>122.0</ele><time>2026-04-04T11:01:34.691Z</time></trkpt><trkpt lat="44.0448333" lon="12.0076267"><ele>122.25</ele><time>2026-04-04T11:01:35.692Z</time></trkpt><trkpt lat="44.04487" lon="12.0077917"><ele>122.5</ele><time>2026-04-04T11:01:36.691Z</time></trkpt><trkpt lat="44.044915" lon="12.007945"><ele>122.75</ele><time>2026-04-04T11:01:37.691Z</time></trkpt><trkpt lat="44.0449533" lon="12.0081033"><ele>123.0</ele><time>2026-04-04T11:01:38.691Z</time></trkpt><trkpt lat="44.0449933" lon="12.0082617"><ele>120.75</ele><time>2026-04-04T11:01:39.691Z</time></trkpt><trkpt lat="44.0450317" lon="12.0084283"><ele>118.5</ele><time>2026-04-04T11:01:40.691Z</time></trkpt><trkpt lat="44.04508" lon="12.0086067"><ele>116.25</ele><time>2026-04-04T11:01:41.691Z</time></trkpt><trkpt lat="44.0451183" lon="12.0088033"><ele>114.0</ele><time>2026-04-04T11:01:42.691Z</time></trkpt><trkpt lat="44.045175" lon="12.0089983"><ele>114.33333333333334</ele><time>2026-04-04T11:01:43.691Z</time></trkpt><trkpt lat="44.0452417" lon="12.009195"><ele>114.66666666666667</ele><time>2026-04-04T11:01:44.691Z</time></trkpt><trkpt lat="44.0453033" lon="12.0094183"><ele>115.0</ele><time>2026-04-04T11:01:45.691Z</time></trkpt><trkpt lat="44.0453783" lon="12.009645"><ele>115.0</ele><time>2026-04-04T11:01:46.691Z</time></trkpt><trkpt lat="44.0454533" lon="12.0098567"><ele>115.0</ele><time>2026-04-04T11:01:47.691Z</time></trkpt><trkpt lat="44.0455333" lon="12.0100683"><ele>115.0</ele><time>2026-04-04T11:01:48.692Z</time></trkpt><trkpt lat="44.04562" lon="12.0102717"><ele>114.66666666666667</ele><time>2026-04-04T11:01:49.692Z</time></trkpt><trkpt lat="44.045715" lon="12.010485"><ele>114.33333333333334</ele><time>2026-04-04T11:01:50.691Z</time></trkpt><trkpt lat="44.045825" lon="12.010695"><ele>114.0</ele><time>2026-04-04T11:01:51.691Z</time></trkpt><trkpt lat="44.0459467" lon="12.010905"><ele>114.0</ele><time>2026-04-04T11:01:52.691Z</time></trkpt><trkpt lat="44.046075" lon="12.0111267"><ele>114.0</ele><time>2026-04-04T11:01:53.691Z</time></trkpt><trkpt lat="44.0461983" lon="12.0113233"><ele>114.0</ele><time>2026-04-04T11:01:54.692Z</time></trkpt><trkpt lat="44.046305" lon="12.0115033"><ele>113.66666666666666</ele><time>2026-04-04T11:01:55.691Z</time></trkpt><trkpt lat="44.0464267" lon="12.011665"><ele>113.33333333333333</ele><time>2026-04-04T11:01:56.691Z</time></trkpt><trkpt lat="44.0465583" lon="12.01183"><ele>113.0</ele><time>2026-04-04T11:01:57.692Z</time></trkpt><trkpt lat="44.0467083" lon="12.0119967"><ele>113.0</ele><time>2026-04-04T11:01:58.691Z</time></trkpt><trkpt lat="44.0468817" lon="12.012165"><ele>113.0</ele><time>2026-04-04T11:01:59.691Z</time></trkpt><trkpt lat="44.0470667" lon="12.0123417"><ele>113.0</ele><time>2026-04-04T11:02:00.691Z</time></trkpt><trkpt lat="44.047265" lon="12.0125133"><ele>112.0</ele><time>2026-04-04T11:02:01.691Z</time></trkpt><trkpt lat="44.0474833" lon="12.01267"><ele>111.0</ele><time>2026-04-04T11:02:02.691Z</time></trkpt><trkpt lat="44.0477183" lon="12.0128317"><ele>111.0</ele><time>2026-04-04T11:02:03.691Z</time></trkpt><trkpt lat="44.0479533" lon="12.01298"><ele>111.0</ele><time>2026-04-04T11:02:04.691Z</time></trkpt><trkpt lat="44.048205" lon="12.013135"><ele>110.5</ele><time>2026-04-04T11:02:05.692Z</time></trkpt><trkpt lat="44.0484583" lon="12.0132883"><ele>110.0</ele><time>2026-04-04T11:02:06.692Z</time></trkpt><trkpt lat="44.04871" lon="12.01345"><ele>110.0</ele><time>2026-04-04T11:02:07.692Z</time></trkpt><trkpt lat="44.0489517" lon="12.0135967"><ele>110.0</ele><time>2026-04-04T11:02:08.691Z</time></trkpt><trkpt lat="44.0491883" lon="12.0137467"><ele>109.5</ele><time>2026-04-04T11:02:09.691Z</time></trkpt><trkpt lat="44.0494183" lon="12.0138983"><ele>109.0</ele><time>2026-04-04T11:02:10.691Z</time></trkpt><trkpt lat="44.0496517" lon="12.0140367"><ele>109.0</ele><time>2026-04-04T11:02:11.691Z</time></trkpt><trkpt lat="44.0498717" lon="12.01417"><ele>109.0</ele><time>2026-04-04T11:02:12.692Z</time></trkpt><trkpt lat="44.0500817" lon="12.0143033"><ele>109.0</ele><time>2026-04-04T11:02:13.692Z</time></trkpt><trkpt lat="44.050285" lon="12.0144517"><ele>109.0</ele><time>2026-04-04T11:02:14.691Z</time></trkpt><trkpt lat="44.0504917" lon="12.014585"><ele>109.0</ele><time>2026-04-04T11:02:15.692Z</time></trkpt><trkpt lat="44.0506967" lon="12.0147"><ele>109.0</ele><time>2026-04-04T11:02:16.691Z</time></trkpt><trkpt lat="44.0508933" lon="12.0148233"><ele>109.0</ele><time>2026-04-04T11:02:17.691Z</time></trkpt><trkpt lat="44.05109" lon="12.014955"><ele>108.66666666666667</ele><time>2026-04-04T11:02:18.691Z</time></trkpt><trkpt lat="44.051275" lon="12.0150867"><ele>108.33333333333334</ele><time>2026-04-04T11:02:19.691Z</time></trkpt><trkpt lat="44.05146" lon="12.0152167"><ele>108.0</ele><time>2026-04-04T11:02:20.692Z</time></trkpt><trkpt lat="44.0516433" lon="12.015355"><ele>108.0</ele><time>2026-04-04T11:02:21.691Z</time></trkpt><trkpt lat="44.051825" lon="12.015505"><ele>108.0</ele><time>2026-04-04T11:02:22.692Z</time></trkpt><trkpt lat="44.0519983" lon="12.0156667"><ele>108.0</ele><time>2026-04-04T11:02:23.691Z</time></trkpt><trkpt lat="44.05218" lon="12.0158383"><ele>108.0</ele><time>2026-04-04T11:02:24.692Z</time></trkpt><trkpt lat="44.0523633" lon="12.0160267"><ele>108.0</ele><time>2026-04-04T11:02:25.692Z</time></trkpt><trkpt lat="44.052545" lon="12.0162333"><ele>108.0</ele><time>2026-04-04T11:02:26.691Z</time></trkpt><trkpt lat="44.052725" lon="12.0164683"><ele>108.0</ele><time>2026-04-04T11:02:27.692Z</time></trkpt><trkpt lat="44.0529" lon="12.0167217"><ele>110.0</ele><time>2026-04-04T11:02:28.691Z</time></trkpt><trkpt lat="44.0530767" lon="12.016995"><ele>112.0</ele><time>2026-04-04T11:02:29.692Z</time></trkpt><trkpt lat="44.0532617" lon="12.0172717"><ele>111.5</ele><time>2026-04-04T11:02:30.691Z</time></trkpt><trkpt lat="44.0534533" lon="12.0175483"><ele>111.0</ele><time>2026-04-04T11:02:31.691Z</time></trkpt><trkpt lat="44.0536483" lon="12.0178283"><ele>111.0</ele><time>2026-04-04T11:02:32.692Z</time></trkpt><trkpt lat="44.0538433" lon="12.0181117"><ele>111.0</ele><time>2026-04-04T11:02:33.691Z</time></trkpt><trkpt lat="44.05405" lon="12.01839"><ele>110.0</ele><time>2026-04-04T11:02:34.691Z</time></trkpt><trkpt lat="44.0542683" lon="12.0186533"><ele>109.0</ele><time>2026-04-04T11:02:35.692Z</time></trkpt><trkpt lat="44.0545017" lon="12.0189083"><ele>107.5</ele><time>2026-04-04T11:02:36.692Z</time></trkpt><trkpt lat="44.0547367" lon="12.0191767"><ele>106.0</ele><time>2026-04-04T11:02:37.692Z</time></trkpt><trkpt lat="44.05498" lon="12.0194417"><ele>106.0</ele><time>2026-04-04T11:02:38.691Z</time></trkpt><trkpt lat="44.05521" lon="12.0197217"><ele>106.0</ele><time>2026-04-04T11:02:39.691Z</time></trkpt><trkpt lat="44.0554317" lon="12.0200167"><ele>105.5</ele><time>2026-04-04T11:02:40.691Z</time></trkpt><trkpt lat="44.0556333" lon="12.0203383"><ele>105.0</ele><time>2026-04-04T11:02:41.691Z</time></trkpt><trkpt lat="44.0558267" lon="12.02068"><ele>107.0</ele><time>2026-04-04T11:02:42.692Z</time></trkpt><trkpt lat="44.0560217" lon="12.0210217"><ele>109.0</ele><time>2026-04-04T11:02:43.691Z</time></trkpt><trkpt lat="44.0562067" lon="12.0213717"><ele>111.0</ele><time>2026-04-04T11:02:44.692Z</time></trkpt><trkpt lat="44.0563883" lon="12.0217333"><ele>113.0</ele><time>2026-04-04T11:02:45.691Z</time></trkpt><trkpt lat="44.0565617" lon="12.0220683"><ele>111.0</ele><time>2026-04-04T11:02:46.692Z</time></trkpt><trkpt lat="44.0567433" lon="12.022375"><ele>109.0</ele><time>2026-04-04T11:02:47.691Z</time></trkpt><trkpt lat="44.056945" lon="12.0226533"><ele>109.0</ele><time>2026-04-04T11:02:48.691Z</time></trkpt><trkpt lat="44.0571583" lon="12.02288"><ele>109.0</ele><time>2026-04-04T11:02:49.692Z</time></trkpt><trkpt lat="44.057385" lon="12.0230483"><ele>105.5</ele><time>2026-04-04T11:02:50.692Z</time></trkpt><trkpt lat="44.0576383" lon="12.02319"><ele>102.0</ele><time>2026-04-04T11:02:51.692Z</time></trkpt><trkpt lat="44.05792" lon="12.023285"><ele>104.5</ele><time>2026-04-04T11:02:52.691Z</time></trkpt><trkpt lat="44.0581983" lon="12.02338"><ele>107.0</ele><time>2026-04-04T11:02:53.692Z</time></trkpt><trkpt lat="44.05847" lon="12.0234917"><ele>107.0</ele><time>2026-04-04T11:02:54.691Z</time></trkpt><trkpt lat="44.0587433" lon="12.0236267"><ele>107.0</ele><time>2026-04-04T11:02:55.691Z</time></trkpt><trkpt lat="44.0590117" lon="12.023775"><ele>106.0</ele><time>2026-04-04T11:02:56.691Z</time></trkpt><trkpt lat="44.0592767" lon="12.0239267"><ele>105.0</ele><time>2026-04-04T11:02:57.691Z</time></trkpt><trkpt lat="44.0595517" lon="12.0240867"><ele>105.5</ele><time>2026-04-04T11:02:58.692Z</time></trkpt><trkpt lat="44.0598333" lon="12.02425"><ele>106.0</ele><time>2026-04-04T11:02:59.692Z</time></trkpt><trkpt lat="44.0601117" lon="12.02443"><ele>106.0</ele><time>2026-04-04T11:03:00.692Z</time></trkpt><trkpt lat="44.0603883" lon="12.0246117"><ele>106.0</ele><time>2026-04-04T11:03:01.691Z</time></trkpt><trkpt lat="44.06066" lon="12.0247967"><ele>104.5</ele><time>2026-04-04T11:03:02.692Z</time></trkpt><trkpt lat="44.06094" lon="12.0249717"><ele>103.0</ele><time>2026-04-04T11:03:03.691Z</time></trkpt><trkpt lat="44.0612117" lon="12.02516"><ele>106.0</ele><time>2026-04-04T11:03:04.691Z</time></trkpt><trkpt lat="44.0614917" lon="12.025345"><ele>109.0</ele><time>2026-04-04T11:03:05.692Z</time></trkpt><trkpt lat="44.06177" lon="12.02553"><ele>109.0</ele><time>2026-04-04T11:03:06.691Z</time></trkpt><trkpt lat="44.06205" lon="12.0257167"><ele>109.0</ele><time>2026-04-04T11:03:07.691Z</time></trkpt><trkpt lat="44.062325" lon="12.0259067"><ele>111.0</ele><time>2026-04-04T11:03:08.692Z</time></trkpt><trkpt lat="44.062605" lon="12.0260817"><ele>113.0</ele><time>2026-04-04T11:03:09.691Z</time></trkpt><trkpt lat="44.0628833" lon="12.0262617"><ele>113.0</ele><time>2026-04-04T11:03:10.692Z</time></trkpt><trkpt lat="44.0631683" lon="12.0264433"><ele>113.0</ele><time>2026-04-04T11:03:11.691Z</time></trkpt><trkpt lat="44.0634467" lon="12.0266167"><ele>114.0</ele><time>2026-04-04T11:03:12.691Z</time></trkpt><trkpt lat="44.0637183" lon="12.02677"><ele>115.0</ele><time>2026-04-04T11:03:13.691Z</time></trkpt><trkpt lat="44.0639883" lon="12.02691"><ele>114.5</ele><time>2026-04-04T11:03:14.692Z</time></trkpt><trkpt lat="44.0642483" lon="12.0270383"><ele>114.0</ele><time>2026-04-04T11:03:15.691Z</time></trkpt><trkpt lat="44.06451" lon="12.0271717"><ele>114.0</ele><time>2026-04-04T11:03:16.691Z</time></trkpt><trkpt lat="44.0647717" lon="12.0273083"><ele>114.0</ele><time>2026-04-04T11:03:17.692Z</time></trkpt><trkpt lat="44.06503" lon="12.0274517"><ele>114.0</ele><time>2026-04-04T11:03:18.692Z</time></trkpt><trkpt lat="44.0652933" lon="12.02759"><ele>114.0</ele><time>2026-04-04T11:03:19.691Z</time></trkpt><trkpt lat="44.06556" lon="12.0277333"><ele>113.0</ele><time>2026-04-04T11:03:20.692Z</time></trkpt><trkpt lat="44.0658367" lon="12.027875"><ele>112.0</ele><time>2026-04-04T11:03:21.691Z</time></trkpt><trkpt lat="44.0661133" lon="12.0280233"><ele>112.0</ele><time>2026-04-04T11:03:22.691Z</time></trkpt><trkpt lat="44.0663833" lon="12.0281767"><ele>112.0</ele><time>2026-04-04T11:03:23.692Z</time></trkpt><trkpt lat="44.0666583" lon="12.02834"><ele>113.0</ele><time>2026-04-04T11:03:24.691Z</time></trkpt><trkpt lat="44.066925" lon="12.0285233"><ele>114.0</ele><time>2026-04-04T11:03:25.691Z</time></trkpt><trkpt lat="44.06719" lon="12.02871"><ele>114.5</ele><time>2026-04-04T11:03:26.691Z</time></trkpt><trkpt lat="44.0674583" lon="12.0289067"><ele>115.0</ele><time>2026-04-04T11:03:27.692Z</time></trkpt><trkpt lat="44.067725" lon="12.0291033"><ele>115.0</ele><time>2026-04-04T11:03:28.691Z</time></trkpt><trkpt lat="44.0679983" lon="12.0293117"><ele>115.0</ele><time>2026-04-04T11:03:29.692Z</time></trkpt><trkpt lat="44.0682767" lon="12.0295083"><ele>114.0</ele><time>2026-04-04T11:03:30.691Z</time></trkpt><trkpt lat="44.068555" lon="12.0297133"><ele>113.0</ele><time>2026-04-04T11:03:31.691Z</time></trkpt><trkpt lat="44.06882" lon="12.0298967"><ele>114.0</ele><time>2026-04-04T11:03:32.692Z</time></trkpt><trkpt lat="44.0690667" lon="12.030085"><ele>115.0</ele><time>2026-04-04T11:03:33.691Z</time></trkpt><trkpt lat="44.0692967" lon="12.0302467"><ele>115.0</ele><time>2026-04-04T11:03:34.692Z</time></trkpt><trkpt lat="44.0695167" lon="12.0304067"><ele>115.0</ele><time>2026-04-04T11:03:35.692Z</time></trkpt><trkpt lat="44.0697283" lon="12.030555"><ele>115.0</ele><time>2026-04-04T11:03:36.691Z</time></trkpt><trkpt lat="44.06993" lon="12.0306983"><ele>115.0</ele><time>2026-04-04T11:03:37.692Z</time></trkpt><trkpt lat="44.07011" lon="12.0308333"><ele>115.0</ele><time>2026-04-04T11:03:38.691Z</time></trkpt><trkpt lat="44.0702817" lon="12.0309533"><ele>115.0</ele><time>2026-04-04T11:03:39.691Z</time></trkpt><trkpt lat="44.0704483" lon="12.0310717"><ele>115.0</ele><time>2026-04-04T11:03:40.691Z</time></trkpt><trkpt lat="44.0705967" lon="12.0311817"><ele>115.0</ele><time>2026-04-04T11:03:41.691Z</time></trkpt><trkpt lat="44.0707417" lon="12.0312817"><ele>114.0</ele><time>2026-04-04T11:03:42.691Z</time></trkpt><trkpt lat="44.0708867" lon="12.0313717"><ele>113.0</ele><time>2026-04-04T11:03:43.691Z</time></trkpt><trkpt lat="44.0710333" lon="12.0314567"><ele>112.0</ele><time>2026-04-04T11:03:44.691Z</time></trkpt><trkpt lat="44.0711833" lon="12.0315433"><ele>112.0</ele><time>2026-04-04T11:03:45.692Z</time></trkpt><trkpt lat="44.071355" lon="12.0316283"><ele>112.0</ele><time>2026-04-04T11:03:46.692Z</time></trkpt><trkpt lat="44.0715433" lon="12.0317117"><ele>112.0</ele><time>2026-04-04T11:03:47.692Z</time></trkpt><trkpt lat="44.07173" lon="12.0318017"><ele>112.33333333333334</ele><time>2026-04-04T11:03:48.691Z</time></trkpt><trkpt lat="44.071935" lon="12.031905"><ele>112.66666666666666</ele><time>2026-04-04T11:03:49.691Z</time></trkpt><trkpt lat="44.0721467" lon="12.0320183"><ele>113.0</ele><time>2026-04-04T11:03:50.691Z</time></trkpt><trkpt lat="44.0723733" lon="12.0321317"><ele>109.0</ele><time>2026-04-04T11:03:51.692Z</time></trkpt><trkpt lat="44.0726233" lon="12.0322167"><ele>105.0</ele><time>2026-04-04T11:03:52.691Z</time></trkpt><trkpt lat="44.0728967" lon="12.0323067"><ele>105.0</ele><time>2026-04-04T11:03:53.691Z</time></trkpt><trkpt lat="44.0731733" lon="12.03238"><ele>105.0</ele><time>2026-04-04T11:03:54.691Z</time></trkpt><trkpt lat="44.0734617" lon="12.032445"><ele>97.0</ele><time>2026-04-04T11:03:55.691Z</time></trkpt><trkpt lat="44.07376" lon="12.0325017"><ele>89.0</ele><time>2026-04-04T11:03:56.692Z</time></trkpt><trkpt lat="44.074055" lon="12.0325433"><ele>91.0</ele><time>2026-04-04T11:03:57.691Z</time></trkpt><trkpt lat="44.0743517" lon="12.0325767"><ele>93.0</ele><time>2026-04-04T11:03:58.691Z</time></trkpt><trkpt lat="44.07465" lon="12.0326083"><ele>96.5</ele><time>2026-04-04T11:03:59.691Z</time></trkpt><trkpt lat="44.0749517" lon="12.032645"><ele>100.0</ele><time>2026-04-04T11:04:00.691Z</time></trkpt><trkpt lat="44.0752533" lon="12.0326883"><ele>100.0</ele><time>2026-04-04T11:04:01.691Z</time></trkpt><trkpt lat="44.075565" lon="12.0327333"><ele>100.0</ele><time>2026-04-04T11:04:02.692Z</time></trkpt><trkpt lat="44.0758717" lon="12.03277"><ele>100.0</ele><time>2026-04-04T11:04:03.691Z</time></trkpt><trkpt lat="44.0761767" lon="12.032815"><ele>100.0</ele><time>2026-04-04T11:04:04.692Z</time></trkpt><trkpt lat="44.076485" lon="12.0328683"><ele>101.0</ele><time>2026-04-04T11:04:05.691Z</time></trkpt><trkpt lat="44.0768017" lon="12.0329367"><ele>102.0</ele><time>2026-04-04T11:04:06.692Z</time></trkpt><trkpt lat="44.0771083" lon="12.0330233"><ele>102.0</ele><time>2026-04-04T11:04:07.692Z</time></trkpt><trkpt lat="44.0774167" lon="12.03314"><ele>102.0</ele><time>2026-04-04T11:04:08.692Z</time></trkpt><trkpt lat="44.0777183" lon="12.0332767"><ele>102.5</ele><time>2026-04-04T11:04:09.691Z</time></trkpt><trkpt lat="44.0780117" lon="12.0334417"><ele>103.0</ele><time>2026-04-04T11:04:10.691Z</time></trkpt><trkpt lat="44.0782983" lon="12.0336233"><ele>103.0</ele><time>2026-04-04T11:04:11.691Z</time></trkpt><trkpt lat="44.07858" lon="12.0338283"><ele>103.0</ele><time>2026-04-04T11:04:12.691Z</time></trkpt><trkpt lat="44.0788567" lon="12.0340467"><ele>104.0</ele><time>2026-04-04T11:04:13.691Z</time></trkpt><trkpt lat="44.0791217" lon="12.034275"><ele>105.0</ele><time>2026-04-04T11:04:14.692Z</time></trkpt><trkpt lat="44.079375" lon="12.034505"><ele>105.0</ele><time>2026-04-04T11:04:15.691Z</time></trkpt><trkpt lat="44.079615" lon="12.0347467"><ele>105.0</ele><time>2026-04-04T11:04:16.691Z</time></trkpt><trkpt lat="44.0798467" lon="12.0350017"><ele>105.5</ele><time>2026-04-04T11:04:17.691Z</time></trkpt><trkpt lat="44.0800783" lon="12.0352617"><ele>106.0</ele><time>2026-04-04T11:04:18.691Z</time></trkpt><trkpt lat="44.0803183" lon="12.0355233"><ele>106.0</ele><time>2026-04-04T11:04:19.691Z</time></trkpt><trkpt lat="44.0805517" lon="12.0357883"><ele>106.0</ele><time>2026-04-04T11:04:20.692Z</time></trkpt><trkpt lat="44.080785" lon="12.0360817"><ele>103.5</ele><time>2026-04-04T11:04:21.692Z</time></trkpt><trkpt lat="44.0810267" lon="12.03637"><ele>101.0</ele><time>2026-04-04T11:04:22.692Z</time></trkpt><trkpt lat="44.08127" lon="12.0366517"><ele>101.0</ele><time>2026-04-04T11:04:23.692Z</time></trkpt><trkpt lat="44.0815167" lon="12.03692"><ele>101.0</ele><time>2026-04-04T11:04:24.692Z</time></trkpt><trkpt lat="44.0817617" lon="12.0371983"><ele>100.0</ele><time>2026-04-04T11:04:25.692Z</time></trkpt><trkpt lat="44.08201" lon="12.0374717"><ele>99.0</ele><time>2026-04-04T11:04:26.692Z</time></trkpt><trkpt lat="44.0822683" lon="12.0377367"><ele>101.0</ele><time>2026-04-04T11:04:27.692Z</time></trkpt><trkpt lat="44.0825267" lon="12.0380183"><ele>103.0</ele><time>2026-04-04T11:04:28.691Z</time></trkpt><trkpt lat="44.0827917" lon="12.038295"><ele>102.0</ele><time>2026-04-04T11:04:29.692Z</time></trkpt><trkpt lat="44.083055" lon="12.0385633"><ele>101.0</ele><time>2026-04-04T11:04:30.692Z</time></trkpt><trkpt lat="44.0833183" lon="12.03884"><ele>100.5</ele><time>2026-04-04T11:04:31.691Z</time></trkpt><trkpt lat="44.08359" lon="12.039115"><ele>100.0</ele><time>2026-04-04T11:04:32.692Z</time></trkpt><trkpt lat="44.08386" lon="12.039395"><ele>97.0</ele><time>2026-04-04T11:04:33.691Z</time></trkpt><trkpt lat="44.0841333" lon="12.0396617"><ele>94.0</ele><time>2026-04-04T11:04:34.692Z</time></trkpt><trkpt lat="44.084405" lon="12.0399283"><ele>93.0</ele><time>2026-04-04T11:04:35.692Z</time></trkpt><trkpt lat="44.0846767" lon="12.0401967"><ele>92.0</ele><time>2026-04-04T11:04:36.691Z</time></trkpt><trkpt lat="44.08495" lon="12.0404517"><ele>92.0</ele><time>2026-04-04T11:04:37.692Z</time></trkpt><trkpt lat="44.08523" lon="12.040695"><ele>92.0</ele><time>2026-04-04T11:04:38.691Z</time></trkpt><trkpt lat="44.08551" lon="12.040935"><ele>95.0</ele><time>2026-04-04T11:04:39.691Z</time></trkpt><trkpt lat="44.085795" lon="12.0411767"><ele>98.0</ele><time>2026-04-04T11:04:40.691Z</time></trkpt><trkpt lat="44.0860817" lon="12.041415"><ele>96.5</ele><time>2026-04-04T11:04:41.692Z</time></trkpt><trkpt lat="44.0863617" lon="12.041655"><ele>95.0</ele><time>2026-04-04T11:04:42.691Z</time></trkpt><trkpt lat="44.0866433" lon="12.0418883"><ele>98.0</ele><time>2026-04-04T11:04:43.691Z</time></trkpt><trkpt lat="44.0869317" lon="12.0421183"><ele>101.0</ele><time>2026-04-04T11:04:44.691Z</time></trkpt><trkpt lat="44.087215" lon="12.0423467"><ele>100.0</ele><time>2026-04-04T11:04:45.691Z</time></trkpt><trkpt lat="44.0875" lon="12.0425817"><ele>99.0</ele><time>2026-04-04T11:04:46.691Z</time></trkpt><trkpt lat="44.0877817" lon="12.0428183"><ele>99.0</ele><time>2026-04-04T11:04:47.691Z</time></trkpt><trkpt lat="44.08806" lon="12.0430517"><ele>99.0</ele><time>2026-04-04T11:04:48.692Z</time></trkpt><trkpt lat="44.0883417" lon="12.0432867"><ele>99.0</ele><time>2026-04-04T11:04:49.691Z</time></trkpt><trkpt lat="44.0886217" lon="12.043525"><ele>99.0</ele><time>2026-04-04T11:04:50.691Z</time></trkpt><trkpt lat="44.088905" lon="12.0437617"><ele>99.0</ele><time>2026-04-04T11:04:51.691Z</time></trkpt><trkpt lat="44.0891917" lon="12.0439883"><ele>99.0</ele><time>2026-04-04T11:04:52.692Z</time></trkpt><trkpt lat="44.08946" lon="12.04421"><ele>99.0</ele><time>2026-04-04T11:04:53.691Z</time></trkpt><trkpt lat="44.0897117" lon="12.04442"><ele>99.0</ele><time>2026-04-04T11:04:54.691Z</time></trkpt><trkpt lat="44.08995" lon="12.04461"><ele>100.5</ele><time>2026-04-04T11:04:55.691Z</time></trkpt><trkpt lat="44.09017" lon="12.044795"><ele>102.0</ele><time>2026-04-04T11:04:56.692Z</time></trkpt><trkpt lat="44.0903883" lon="12.0449567"><ele>102.0</ele><time>2026-04-04T11:04:57.692Z</time></trkpt><trkpt lat="44.0906003" lon="12.0450971"><ele>102.0</ele><time>2026-04-04T11:04:58.692Z</time></trkpt><trkpt lat="44.090799" lon="12.0452393"><ele>102.0</ele><time>2026-04-04T11:04:59.692Z</time></trkpt><trkpt lat="44.0909815" lon="12.0453676"><ele>102.0</ele><time>2026-04-04T11:05:00.692Z</time></trkpt><trkpt lat="44.0911397" lon="12.0454895"><ele>102.0</ele><time>2026-04-04T11:05:01.691Z</time></trkpt><trkpt lat="44.0912809" lon="12.0456173"><ele>102.0</ele><time>2026-04-04T11:05:02.691Z</time></trkpt><trkpt lat="44.0913923" lon="12.0457879"><ele>102.0</ele><time>2026-04-04T11:05:03.692Z</time></trkpt><trkpt lat="44.0915151" lon="12.0459498"><ele>102.0</ele><time>2026-04-04T11:05:04.691Z</time></trkpt><trkpt lat="44.0916644" lon="12.0460827"><ele>102.33333333333334</ele><time>2026-04-04T11:05:05.691Z</time></trkpt><trkpt lat="44.0918418" lon="12.0461965"><ele>102.66666666666667</ele><time>2026-04-04T11:05:06.692Z</time></trkpt><trkpt lat="44.0920266" lon="12.0463208"><ele>103.0</ele><time>2026-04-04T11:05:07.691Z</time></trkpt><trkpt lat="44.0922059" lon="12.0464491"><ele>103.0</ele><time>2026-04-04T11:05:08.691Z</time></trkpt><trkpt lat="44.092375" lon="12.0465812"><ele>103.0</ele><time>2026-04-04T11:05:09.692Z</time></trkpt><trkpt lat="44.0925393" lon="12.0467115"><ele>103.0</ele><time>2026-04-04T11:05:10.691Z</time></trkpt><trkpt lat="44.0927031" lon="12.0468497"><ele>103.33333333333334</ele><time>2026-04-04T11:05:11.692Z</time></trkpt><trkpt lat="44.0928718" lon="12.0469914"><ele>103.66666666666666</ele><time>2026-04-04T11:05:12.691Z</time></trkpt><trkpt lat="44.0930336" lon="12.0471304"><ele>104.0</ele><time>2026-04-04T11:05:13.691Z</time></trkpt><trkpt lat="44.0931886" lon="12.0472558"><ele>103.66666666666666</ele><time>2026-04-04T11:05:14.692Z</time></trkpt><trkpt lat="44.0933284" lon="12.0473742"><ele>103.33333333333334</ele><time>2026-04-04T11:05:15.691Z</time></trkpt><trkpt lat="44.0934556" lon="12.0474929"><ele>103.0</ele><time>2026-04-04T11:05:16.691Z</time></trkpt><trkpt lat="44.093583" lon="12.0476116"><ele>103.0</ele><time>2026-04-04T11:05:17.691Z</time></trkpt><trkpt lat="44.0937067" lon="12.0477251"><ele>103.0</ele><time>2026-04-04T11:05:18.692Z</time></trkpt><trkpt lat="44.093831" lon="12.0478258"><ele>103.0</ele><time>2026-04-04T11:05:19.692Z</time></trkpt><trkpt lat="44.0939511" lon="12.047934"><ele>103.0</ele><time>2026-04-04T11:05:20.692Z</time></trkpt><trkpt lat="44.094063" lon="12.0480415"><ele>102.5</ele><time>2026-04-04T11:05:21.691Z</time></trkpt><trkpt lat="44.0941676" lon="12.0481344"><ele>102.0</ele><time>2026-04-04T11:05:22.691Z</time></trkpt><trkpt lat="44.0942707" lon="12.0482282"><ele>101.5</ele><time>2026-04-04T11:05:23.691Z</time></trkpt><trkpt lat="44.0943769" lon="12.0483176"><ele>101.0</ele><time>2026-04-04T11:05:24.691Z</time></trkpt><trkpt lat="44.0944825" lon="12.0484095"><ele>100.75</ele><time>2026-04-04T11:05:25.691Z</time></trkpt><trkpt lat="44.0945878" lon="12.0484898"><ele>100.5</ele><time>2026-04-04T11:05:26.691Z</time></trkpt><trkpt lat="44.0946901" lon="12.0485554"><ele>100.25</ele><time>2026-04-04T11:05:27.691Z</time></trkpt><trkpt lat="44.0947901" lon="12.0486194"><ele>100.0</ele><time>2026-04-04T11:05:28.692Z</time></trkpt><trkpt lat="44.094896" lon="12.0486743"><ele>99.5</ele><time>2026-04-04T11:05:29.692Z</time></trkpt><trkpt lat="44.0950109" lon="12.0487217"><ele>99.0</ele><time>2026-04-04T11:05:30.691Z</time></trkpt><trkpt lat="44.0951267" lon="12.04876"><ele>98.5</ele><time>2026-04-04T11:05:31.691Z</time></trkpt><trkpt lat="44.09524" lon="12.0488"><ele>98.0</ele><time>2026-04-04T11:05:32.691Z</time></trkpt><trkpt lat="44.0953567" lon="12.0488333"><ele>98.0</ele><time>2026-04-04T11:05:33.691Z</time></trkpt><trkpt lat="44.095465" lon="12.0488717"><ele>98.0</ele><time>2026-04-04T11:05:34.692Z</time></trkpt><trkpt lat="44.095575" lon="12.0489083"><ele>98.0</ele><time>2026-04-04T11:05:35.691Z</time></trkpt><trkpt lat="44.0956833" lon="12.04894"><ele>98.0</ele><time>2026-04-04T11:05:36.692Z</time></trkpt><trkpt lat="44.0957933" lon="12.04897"><ele>98.0</ele><time>2026-04-04T11:05:37.691Z</time></trkpt><trkpt lat="44.0959083" lon="12.049005"><ele>97.75</ele><time>2026-04-04T11:05:38.692Z</time></trkpt><trkpt lat="44.0960267" lon="12.0490433"><ele>97.5</ele><time>2026-04-04T11:05:39.691Z</time></trkpt><trkpt lat="44.0961433" lon="12.0490783"><ele>97.25</ele><time>2026-04-04T11:05:40.692Z</time></trkpt><trkpt lat="44.0962617" lon="12.0491117"><ele>97.0</ele><time>2026-04-04T11:05:41.692Z</time></trkpt><trkpt lat="44.096385" lon="12.0491467"><ele>97.0</ele><time>2026-04-04T11:05:42.691Z</time></trkpt><trkpt lat="44.0965067" lon="12.049175"><ele>97.0</ele><time>2026-04-04T11:05:43.691Z</time></trkpt><trkpt lat="44.096635" lon="12.0492067"><ele>97.0</ele><time>2026-04-04T11:05:44.692Z</time></trkpt><trkpt lat="44.096765" lon="12.0492383"><ele>97.0</ele><time>2026-04-04T11:05:45.691Z</time></trkpt><trkpt lat="44.0968933" lon="12.0492767"><ele>95.75</ele><time>2026-04-04T11:05:46.691Z</time></trkpt><trkpt lat="44.0970217" lon="12.049315"><ele>94.5</ele><time>2026-04-04T11:05:47.691Z</time></trkpt><trkpt lat="44.097145" lon="12.0493617"><ele>93.25</ele><time>2026-04-04T11:05:48.692Z</time></trkpt><trkpt lat="44.097265" lon="12.0494"><ele>92.0</ele><time>2026-04-04T11:05:49.692Z</time></trkpt><trkpt lat="44.0973833" lon="12.04943"><ele>91.8</ele><time>2026-04-04T11:05:50.692Z</time></trkpt><trkpt lat="44.0975033" lon="12.0494733"><ele>91.6</ele><time>2026-04-04T11:05:51.691Z</time></trkpt><trkpt lat="44.0976167" lon="12.0495117"><ele>91.39999999999999</ele><time>2026-04-04T11:05:52.692Z</time></trkpt><trkpt lat="44.0977267" lon="12.0495467"><ele>91.19999999999999</ele><time>2026-04-04T11:05:53.691Z</time></trkpt><trkpt lat="44.0978167" lon="12.0495783"><ele>91.0</ele><time>2026-04-04T11:05:54.691Z</time></trkpt><trkpt lat="44.097885" lon="12.049595"><ele>91.0</ele><time>2026-04-04T11:05:55.691Z</time></trkpt><trkpt lat="44.0980017" lon="12.0496167"><ele>91.0</ele><time>2026-04-04T11:05:57.691Z</time></trkpt><trkpt lat="44.0981067" lon="12.0496517"><ele>91.0</ele><time>2026-04-04T11:05:59.692Z</time></trkpt><trkpt lat="44.098225" lon="12.0496883"><ele>91.0</ele><time>2026-04-04T11:06:01.691Z</time></trkpt><trkpt lat="44.0982917" lon="12.04971"><ele>91.0</ele><time>2026-04-04T11:06:02.692Z</time></trkpt><trkpt lat="44.098375" lon="12.0497283"><ele>92.5</ele><time>2026-04-04T11:06:03.692Z</time></trkpt><trkpt lat="44.0984717" lon="12.0497617"><ele>94.0</ele><time>2026-04-04T11:06:04.692Z</time></trkpt><trkpt lat="44.098595" lon="12.0498017"><ele>95.5</ele><time>2026-04-04T11:06:05.692Z</time></trkpt><trkpt lat="44.09875" lon="12.0498483"><ele>97.0</ele><time>2026-04-04T11:06:06.692Z</time></trkpt><trkpt lat="44.0989283" lon="12.04991"><ele>96.33333333333334</ele><time>2026-04-04T11:06:07.691Z</time></trkpt><trkpt lat="44.0991167" lon="12.04998"><ele>95.66666666666667</ele><time>2026-04-04T11:06:08.691Z</time></trkpt><trkpt lat="44.0993033" lon="12.0500483"><ele>95.0</ele><time>2026-04-04T11:06:09.691Z</time></trkpt><trkpt lat="44.0994767" lon="12.0501117"><ele>95.0</ele><time>2026-04-04T11:06:10.692Z</time></trkpt><trkpt lat="44.0996383" lon="12.0501683"><ele>95.0</ele><time>2026-04-04T11:06:11.692Z</time></trkpt><trkpt lat="44.0997883" lon="12.0502183"><ele>95.0</ele><time>2026-04-04T11:06:12.692Z</time></trkpt><trkpt lat="44.09993" lon="12.050265"><ele>95.0</ele><time>2026-04-04T11:06:13.691Z</time></trkpt><trkpt lat="44.1000667" lon="12.050305"><ele>95.0</ele><time>2026-04-04T11:06:14.691Z</time></trkpt><trkpt lat="44.1001983" lon="12.0503467"><ele>95.0</ele><time>2026-04-04T11:06:15.691Z</time></trkpt><trkpt lat="44.100335" lon="12.0503833"><ele>95.0</ele><time>2026-04-04T11:06:16.691Z</time></trkpt><trkpt lat="44.1004633" lon="12.050415"><ele>95.0</ele><time>2026-04-04T11:06:17.692Z</time></trkpt><trkpt lat="44.1005967" lon="12.0504667"><ele>95.0</ele><time>2026-04-04T11:06:18.692Z</time></trkpt><trkpt lat="44.10073" lon="12.0505033"><ele>95.0</ele><time>2026-04-04T11:06:19.691Z</time></trkpt><trkpt lat="44.1008683" lon="12.0505383"><ele>95.0</ele><time>2026-04-04T11:06:20.691Z</time></trkpt><trkpt lat="44.101" lon="12.0505833"><ele>95.0</ele><time>2026-04-04T11:06:21.691Z</time></trkpt><trkpt lat="44.10114" lon="12.05063"><ele>95.0</ele><time>2026-04-04T11:06:22.692Z</time></trkpt><trkpt lat="44.1012717" lon="12.0506733"><ele>95.0</ele><time>2026-04-04T11:06:23.691Z</time></trkpt><trkpt lat="44.1014017" lon="12.05072"><ele>95.0</ele><time>2026-04-04T11:06:24.692Z</time></trkpt><trkpt lat="44.1015367" lon="12.0507667"><ele>94.33333333333334</ele><time>2026-04-04T11:06:25.691Z</time></trkpt><trkpt lat="44.1016883" lon="12.0508017"><ele>93.66666666666667</ele><time>2026-04-04T11:06:26.691Z</time></trkpt><trkpt lat="44.1018617" lon="12.0508433"><ele>93.0</ele><time>2026-04-04T11:06:27.692Z</time></trkpt><trkpt lat="44.1020583" lon="12.0509117"><ele>93.0</ele><time>2026-04-04T11:06:28.692Z</time></trkpt><trkpt lat="44.1022667" lon="12.0509867"><ele>93.0</ele><time>2026-04-04T11:06:29.691Z</time></trkpt><trkpt lat="44.10249" lon="12.0510567"><ele>93.0</ele><time>2026-04-04T11:06:30.692Z</time></trkpt><trkpt lat="44.10272" lon="12.0511267"><ele>92.5</ele><time>2026-04-04T11:06:31.691Z</time></trkpt><trkpt lat="44.102955" lon="12.0511983"><ele>92.0</ele><time>2026-04-04T11:06:32.691Z</time></trkpt><trkpt lat="44.1032017" lon="12.051275"><ele>92.0</ele><time>2026-04-04T11:06:33.691Z</time></trkpt><trkpt lat="44.1034483" lon="12.05135"><ele>92.0</ele><time>2026-04-04T11:06:34.692Z</time></trkpt><trkpt lat="44.103685" lon="12.05142"><ele>92.0</ele><time>2026-04-04T11:06:35.691Z</time></trkpt><trkpt lat="44.103925" lon="12.0514983"><ele>92.0</ele><time>2026-04-04T11:06:36.691Z</time></trkpt><trkpt lat="44.10416" lon="12.0515767"><ele>92.0</ele><time>2026-04-04T11:06:37.692Z</time></trkpt><trkpt lat="44.10441" lon="12.0516617"><ele>92.0</ele><time>2026-04-04T11:06:38.691Z</time></trkpt><trkpt lat="44.1046683" lon="12.05175"><ele>92.0</ele><time>2026-04-04T11:06:39.692Z</time></trkpt><trkpt lat="44.1049267" lon="12.0518533"><ele>92.0</ele><time>2026-04-04T11:06:40.692Z</time></trkpt><trkpt lat="44.1051933" lon="12.051965"><ele>92.0</ele><time>2026-04-04T11:06:41.691Z</time></trkpt><trkpt lat="44.10546" lon="12.0520917"><ele>92.0</ele><time>2026-04-04T11:06:42.691Z</time></trkpt><trkpt lat="44.10572" lon="12.0522383"><ele>92.0</ele><time>2026-04-04T11:06:43.69Z</time></trkpt><trkpt lat="44.1059733" lon="12.0523933"><ele>92.0</ele><time>2026-04-04T11:06:44.69Z</time></trkpt><trkpt lat="44.1062367" lon="12.0525567"><ele>90.5</ele><time>2026-04-04T11:06:45.691Z</time></trkpt><trkpt lat="44.1065" lon="12.0527233"><ele>89.0</ele><time>2026-04-04T11:06:46.69Z</time></trkpt><trkpt lat="44.1067567" lon="12.052895"><ele>88.5</ele><time>2026-04-04T11:06:47.691Z</time></trkpt><trkpt lat="44.1070133" lon="12.0530617"><ele>88.0</ele><time>2026-04-04T11:06:48.69Z</time></trkpt><trkpt lat="44.1072733" lon="12.0532333"><ele>87.0</ele><time>2026-04-04T11:06:49.69Z</time></trkpt><trkpt lat="44.10754" lon="12.0534083"><ele>86.0</ele><time>2026-04-04T11:06:50.691Z</time></trkpt><trkpt lat="44.10781" lon="12.053585"><ele>86.0</ele><time>2026-04-04T11:06:51.69Z</time></trkpt><trkpt lat="44.1080783" lon="12.0537617"><ele>86.0</ele><time>2026-04-04T11:06:52.691Z</time></trkpt><trkpt lat="44.108345" lon="12.0539233"><ele>85.5</ele><time>2026-04-04T11:06:53.691Z</time></trkpt><trkpt lat="44.1085883" lon="12.0540933"><ele>85.0</ele><time>2026-04-04T11:06:54.69Z</time></trkpt><trkpt lat="44.1088217" lon="12.054235"><ele>84.5</ele><time>2026-04-04T11:06:55.69Z</time></trkpt><trkpt lat="44.10904" lon="12.0543833"><ele>84.0</ele><time>2026-04-04T11:06:56.691Z</time></trkpt><trkpt lat="44.10926" lon="12.05452"><ele>84.0</ele><time>2026-04-04T11:06:57.691Z</time></trkpt><trkpt lat="44.1094783" lon="12.0546617"><ele>84.0</ele><time>2026-04-04T11:06:58.69Z</time></trkpt><trkpt lat="44.109695" lon="12.05481"><ele>83.5</ele><time>2026-04-04T11:06:59.69Z</time></trkpt><trkpt lat="44.10991" lon="12.0549533"><ele>83.0</ele><time>2026-04-04T11:07:00.691Z</time></trkpt><trkpt lat="44.11013" lon="12.055105"><ele>83.0</ele><time>2026-04-04T11:07:01.69Z</time></trkpt><trkpt lat="44.1103567" lon="12.055245"><ele>83.0</ele><time>2026-04-04T11:07:02.69Z</time></trkpt><trkpt lat="44.110585" lon="12.0553867"><ele>83.0</ele><time>2026-04-04T11:07:03.69Z</time></trkpt><trkpt lat="44.1108167" lon="12.0555367"><ele>83.0</ele><time>2026-04-04T11:07:04.691Z</time></trkpt><trkpt lat="44.1110567" lon="12.05569"><ele>83.5</ele><time>2026-04-04T11:07:05.69Z</time></trkpt><trkpt lat="44.1113083" lon="12.0558433"><ele>84.0</ele><time>2026-04-04T11:07:06.69Z</time></trkpt><trkpt lat="44.111555" lon="12.0560067"><ele>83.0</ele><time>2026-04-04T11:07:07.69Z</time></trkpt><trkpt lat="44.111805" lon="12.0561567"><ele>82.0</ele><time>2026-04-04T11:07:08.691Z</time></trkpt><trkpt lat="44.1120483" lon="12.0563233"><ele>82.0</ele><time>2026-04-04T11:07:09.69Z</time></trkpt><trkpt lat="44.1122983" lon="12.0564817"><ele>82.0</ele><time>2026-04-04T11:07:10.69Z</time></trkpt><trkpt lat="44.1125467" lon="12.0566317"><ele>81.0</ele><time>2026-04-04T11:07:11.691Z</time></trkpt><trkpt lat="44.1127883" lon="12.0567783"><ele>80.0</ele><time>2026-04-04T11:07:12.691Z</time></trkpt><trkpt lat="44.11302" lon="12.05693"><ele>79.5</ele><time>2026-04-04T11:07:13.69Z</time></trkpt><trkpt lat="44.1132467" lon="12.0570817"><ele>79.0</ele><time>2026-04-04T11:07:14.69Z</time></trkpt><trkpt lat="44.11346" lon="12.0572233"><ele>79.0</ele><time>2026-04-04T11:07:15.69Z</time></trkpt><trkpt lat="44.1136717" lon="12.0573517"><ele>79.0</ele><time>2026-04-04T11:07:16.69Z</time></trkpt><trkpt lat="44.1138683" lon="12.057485"><ele>79.0</ele><time>2026-04-04T11:07:17.69Z</time></trkpt><trkpt lat="44.1140583" lon="12.05761"><ele>79.0</ele><time>2026-04-04T11:07:18.69Z</time></trkpt><trkpt lat="44.11424" lon="12.0577267"><ele>79.0</ele><time>2026-04-04T11:07:19.691Z</time></trkpt><trkpt lat="44.11441" lon="12.0578383"><ele>79.0</ele><time>2026-04-04T11:07:20.69Z</time></trkpt><trkpt lat="44.1145833" lon="12.057945"><ele>79.0</ele><time>2026-04-04T11:07:21.691Z</time></trkpt><trkpt lat="44.1147517" lon="12.0580467"><ele>79.0</ele><time>2026-04-04T11:07:22.69Z</time></trkpt><trkpt lat="44.1149117" lon="12.0581433"><ele>78.33333333333333</ele><time>2026-04-04T11:07:23.691Z</time></trkpt><trkpt lat="44.1150933" lon="12.05821"><ele>77.66666666666667</ele><time>2026-04-04T11:07:24.69Z</time></trkpt><trkpt lat="44.115255" lon="12.058255"><ele>77.0</ele><time>2026-04-04T11:07:25.69Z</time></trkpt><trkpt lat="44.1154133" lon="12.058295"><ele>77.0</ele><time>2026-04-04T11:07:26.691Z</time></trkpt><trkpt lat="44.11556" lon="12.0583233"><ele>77.0</ele><time>2026-04-04T11:07:27.691Z</time></trkpt><trkpt lat="44.11571" lon="12.0583317"><ele>77.0</ele><time>2026-04-04T11:07:28.691Z</time></trkpt><trkpt lat="44.115845" lon="12.0583317"><ele>77.0</ele><time>2026-04-04T11:07:29.69Z</time></trkpt><trkpt lat="44.11597" lon="12.058305"><ele>77.25</ele><time>2026-04-04T11:07:30.69Z</time></trkpt><trkpt lat="44.1160967" lon="12.0582833"><ele>77.5</ele><time>2026-04-04T11:07:31.691Z</time></trkpt><trkpt lat="44.1162433" lon="12.05824"><ele>77.75</ele><time>2026-04-04T11:07:32.69Z</time></trkpt><trkpt lat="44.11641" lon="12.0581983"><ele>78.0</ele><time>2026-04-04T11:07:33.69Z</time></trkpt><trkpt lat="44.1165867" lon="12.0581483"><ele>78.33333333333333</ele><time>2026-04-04T11:07:34.691Z</time></trkpt><trkpt lat="44.116765" lon="12.0580817"><ele>78.66666666666666</ele><time>2026-04-04T11:07:35.691Z</time></trkpt><trkpt lat="44.116965" lon="12.05802"><ele>79.0</ele><time>2026-04-04T11:07:36.691Z</time></trkpt><trkpt lat="44.1171533" lon="12.05793"><ele>79.0</ele><time>2026-04-04T11:07:37.69Z</time></trkpt><trkpt lat="44.11736" lon="12.0578367"><ele>79.0</ele><time>2026-04-04T11:07:38.69Z</time></trkpt><trkpt lat="44.1175467" lon="12.0577617"><ele>79.0</ele><time>2026-04-04T11:07:39.691Z</time></trkpt><trkpt lat="44.117755" lon="12.0576883"><ele>77.0</ele><time>2026-04-04T11:07:40.691Z</time></trkpt><trkpt lat="44.1179617" lon="12.0576433"><ele>75.0</ele><time>2026-04-04T11:07:41.69Z</time></trkpt><trkpt lat="44.1181733" lon="12.05763"><ele>73.0</ele><time>2026-04-04T11:07:42.69Z</time></trkpt><trkpt lat="44.1183733" lon="12.0576633"><ele>70.33333333333333</ele><time>2026-04-04T11:07:43.69Z</time></trkpt><trkpt lat="44.1185517" lon="12.0577417"><ele>67.66666666666667</ele><time>2026-04-04T11:07:44.69Z</time></trkpt><trkpt lat="44.1187267" lon="12.0578767"><ele>65.0</ele><time>2026-04-04T11:07:45.691Z</time></trkpt><trkpt lat="44.1189" lon="12.0580433"><ele>66.0</ele><time>2026-04-04T11:07:46.69Z</time></trkpt><trkpt lat="44.1190683" lon="12.0582333"><ele>67.0</ele><time>2026-04-04T11:07:47.69Z</time></trkpt><trkpt lat="44.1192383" lon="12.0584383"><ele>68.0</ele><time>2026-04-04T11:07:48.691Z</time></trkpt><trkpt lat="44.1194233" lon="12.0586433"><ele>68.0</ele><time>2026-04-04T11:07:49.691Z</time></trkpt><trkpt lat="44.1196017" lon="12.0588483"><ele>68.0</ele><time>2026-04-04T11:07:50.691Z</time></trkpt><trkpt lat="44.1197833" lon="12.0590283"><ele>67.0</ele><time>2026-04-04T11:07:51.691Z</time></trkpt><trkpt lat="44.119965" lon="12.05916"><ele>66.0</ele><time>2026-04-04T11:07:52.69Z</time></trkpt><trkpt lat="44.120175" lon="12.0592483"><ele>65.0</ele><time>2026-04-04T11:07:53.69Z</time></trkpt><trkpt lat="44.120405" lon="12.0593133"><ele>65.0</ele><time>2026-04-04T11:07:54.691Z</time></trkpt><trkpt lat="44.12063" lon="12.059385"><ele>65.0</ele><time>2026-04-04T11:07:55.69Z</time></trkpt><trkpt lat="44.1208483" lon="12.0594233"><ele>66.0</ele><time>2026-04-04T11:07:56.691Z</time></trkpt><trkpt lat="44.12108" lon="12.0594333"><ele>67.0</ele><time>2026-04-04T11:07:57.69Z</time></trkpt><trkpt lat="44.12131" lon="12.0594317"><ele>67.0</ele><time>2026-04-04T11:07:58.69Z</time></trkpt><trkpt lat="44.1215417" lon="12.0594167"><ele>67.0</ele><time>2026-04-04T11:07:59.691Z</time></trkpt><trkpt lat="44.121775" lon="12.0594067"><ele>68.5</ele><time>2026-04-04T11:08:00.69Z</time></trkpt><trkpt lat="44.1220183" lon="12.059385"><ele>70.0</ele><time>2026-04-04T11:08:01.69Z</time></trkpt><trkpt lat="44.1222483" lon="12.0593667"><ele>70.33333333333333</ele><time>2026-04-04T11:08:02.69Z</time></trkpt><trkpt lat="44.1224683" lon="12.05934"><ele>70.66666666666667</ele><time>2026-04-04T11:08:03.69Z</time></trkpt><trkpt lat="44.1226817" lon="12.0593167"><ele>71.0</ele><time>2026-04-04T11:08:04.691Z</time></trkpt><trkpt lat="44.1229" lon="12.05929"><ele>71.0</ele><time>2026-04-04T11:08:05.69Z</time></trkpt><trkpt lat="44.1231167" lon="12.059235"><ele>71.0</ele><time>2026-04-04T11:08:06.69Z</time></trkpt><trkpt lat="44.1233367" lon="12.0591617"><ele>71.0</ele><time>2026-04-04T11:08:07.69Z</time></trkpt><trkpt lat="44.123565" lon="12.0590917"><ele>74.5</ele><time>2026-04-04T11:08:08.69Z</time></trkpt><trkpt lat="44.1238017" lon="12.0590133"><ele>78.0</ele><time>2026-04-04T11:08:09.691Z</time></trkpt><trkpt lat="44.1240267" lon="12.05895"><ele>77.5</ele><time>2026-04-04T11:08:10.691Z</time></trkpt><trkpt lat="44.1242583" lon="12.058855"><ele>77.0</ele><time>2026-04-04T11:08:11.691Z</time></trkpt><trkpt lat="44.1245033" lon="12.0587683"><ele>77.0</ele><time>2026-04-04T11:08:12.691Z</time></trkpt><trkpt lat="44.1247517" lon="12.0586717"><ele>77.0</ele><time>2026-04-04T11:08:13.69Z</time></trkpt><trkpt lat="44.1249933" lon="12.0585767"><ele>76.0</ele><time>2026-04-04T11:08:14.69Z</time></trkpt><trkpt lat="44.1252383" lon="12.05849"><ele>75.0</ele><time>2026-04-04T11:08:15.69Z</time></trkpt><trkpt lat="44.1254667" lon="12.0584333"><ele>75.0</ele><time>2026-04-04T11:08:16.691Z</time></trkpt><trkpt lat="44.1256917" lon="12.0584067"><ele>75.0</ele><time>2026-04-04T11:08:17.691Z</time></trkpt><trkpt lat="44.1259133" lon="12.058405"><ele>75.0</ele><time>2026-04-04T11:08:18.691Z</time></trkpt><trkpt lat="44.12613" lon="12.0584333"><ele>75.0</ele><time>2026-04-04T11:08:19.691Z</time></trkpt><trkpt lat="44.126355" lon="12.058485"><ele>75.0</ele><time>2026-04-04T11:08:20.69Z</time></trkpt><trkpt lat="44.1265917" lon="12.0585467"><ele>75.0</ele><time>2026-04-04T11:08:21.69Z</time></trkpt><trkpt lat="44.1268283" lon="12.058615"><ele>75.0</ele><time>2026-04-04T11:08:22.69Z</time></trkpt><trkpt lat="44.12707" lon="12.05869"><ele>75.0</ele><time>2026-04-04T11:08:23.691Z</time></trkpt><trkpt lat="44.1273033" lon="12.0587717"><ele>75.0</ele><time>2026-04-04T11:08:24.69Z</time></trkpt><trkpt lat="44.1275383" lon="12.0588533"><ele>78.0</ele><time>2026-04-04T11:08:25.691Z</time></trkpt><trkpt lat="44.127775" lon="12.0589367"><ele>81.0</ele><time>2026-04-04T11:08:26.691Z</time></trkpt><trkpt lat="44.1280133" lon="12.0590217"><ele>79.0</ele><time>2026-04-04T11:08:27.69Z</time></trkpt><trkpt lat="44.1282467" lon="12.0590917"><ele>77.0</ele><time>2026-04-04T11:08:28.69Z</time></trkpt><trkpt lat="44.1284817" lon="12.059155"><ele>77.0</ele><time>2026-04-04T11:08:29.691Z</time></trkpt><trkpt lat="44.1287133" lon="12.0592217"><ele>77.0</ele><time>2026-04-04T11:08:30.69Z</time></trkpt><trkpt lat="44.1289417" lon="12.0592883"><ele>78.5</ele><time>2026-04-04T11:08:31.69Z</time></trkpt><trkpt lat="44.1291817" lon="12.05936"><ele>80.0</ele><time>2026-04-04T11:08:32.691Z</time></trkpt><trkpt lat="44.1294283" lon="12.059435"><ele>80.0</ele><time>2026-04-04T11:08:33.69Z</time></trkpt><trkpt lat="44.1296833" lon="12.0594983"><ele>80.0</ele><time>2026-04-04T11:08:34.69Z</time></trkpt><trkpt lat="44.1299467" lon="12.0595733"><ele>76.5</ele><time>2026-04-04T11:08:35.69Z</time></trkpt><trkpt lat="44.1302017" lon="12.059635"><ele>73.0</ele><time>2026-04-04T11:08:36.691Z</time></trkpt><trkpt lat="44.1304517" lon="12.0596917"><ele>73.0</ele><time>2026-04-04T11:08:37.689Z</time></trkpt><trkpt lat="44.1306967" lon="12.0597567"><ele>73.0</ele><time>2026-04-04T11:08:38.69Z</time></trkpt><trkpt lat="44.1309483" lon="12.0598167"><ele>70.0</ele><time>2026-04-04T11:08:39.69Z</time></trkpt><trkpt lat="44.131205" lon="12.0598817"><ele>67.0</ele><time>2026-04-04T11:08:40.691Z</time></trkpt><trkpt lat="44.1314683" lon="12.0599417"><ele>65.5</ele><time>2026-04-04T11:08:41.69Z</time></trkpt><trkpt lat="44.13173" lon="12.0599967"><ele>64.0</ele><time>2026-04-04T11:08:42.691Z</time></trkpt><trkpt lat="44.1319817" lon="12.060045"><ele>64.0</ele><time>2026-04-04T11:08:43.691Z</time></trkpt><trkpt lat="44.13221" lon="12.0601083"><ele>64.0</ele><time>2026-04-04T11:08:44.69Z</time></trkpt><trkpt lat="44.132435" lon="12.0601667"><ele>63.33333333333333</ele><time>2026-04-04T11:08:45.691Z</time></trkpt><trkpt lat="44.1326433" lon="12.0602317"><ele>62.66666666666667</ele><time>2026-04-04T11:08:46.69Z</time></trkpt><trkpt lat="44.1328533" lon="12.0602883"><ele>62.0</ele><time>2026-04-04T11:08:47.691Z</time></trkpt><trkpt lat="44.1330417" lon="12.06035"><ele>62.0</ele><time>2026-04-04T11:08:48.691Z</time></trkpt><trkpt lat="44.1331917" lon="12.0604283"><ele>62.0</ele><time>2026-04-04T11:08:49.69Z</time></trkpt><trkpt lat="44.1333033" lon="12.0605183"><ele>62.0</ele><time>2026-04-04T11:08:50.691Z</time></trkpt><trkpt lat="44.1333883" lon="12.0606083"><ele>62.0</ele><time>2026-04-04T11:08:51.691Z</time></trkpt><trkpt lat="44.1334633" lon="12.0606933"><ele>61.0</ele><time>2026-04-04T11:08:52.691Z</time></trkpt><trkpt lat="44.1335617" lon="12.06077"><ele>60.0</ele><time>2026-04-04T11:08:53.69Z</time></trkpt><trkpt lat="44.1336567" lon="12.0608567"><ele>59.0</ele><time>2026-04-04T11:08:54.691Z</time></trkpt><trkpt lat="44.133735" lon="12.0609417"><ele>58.0</ele><time>2026-04-04T11:08:55.691Z</time></trkpt><trkpt lat="44.1337867" lon="12.0610117"><ele>57.0</ele><time>2026-04-04T11:08:56.69Z</time></trkpt><trkpt lat="44.1338283" lon="12.0610883"><ele>56.8</ele><time>2026-04-04T11:08:57.69Z</time></trkpt><trkpt lat="44.1338417" lon="12.0612383"><ele>56.6</ele><time>2026-04-04T11:08:59.69Z</time></trkpt><trkpt lat="44.133835" lon="12.0613983"><ele>56.39999999999999</ele><time>2026-04-04T11:09:01.69Z</time></trkpt><trkpt lat="44.1338517" lon="12.061495"><ele>56.199999999999996</ele><time>2026-04-04T11:09:02.691Z</time></trkpt><trkpt lat="44.133895" lon="12.0615867"><ele>56.0</ele><time>2026-04-04T11:09:03.691Z</time></trkpt><trkpt lat="44.1339633" lon="12.0616667"><ele>55.8</ele><time>2026-04-04T11:09:04.69Z</time></trkpt><trkpt lat="44.1340317" lon="12.06176"><ele>55.599999999999994</ele><time>2026-04-04T11:09:05.69Z</time></trkpt><trkpt lat="44.1340883" lon="12.0618733"><ele>55.4</ele><time>2026-04-04T11:09:06.69Z</time></trkpt><trkpt lat="44.1341283" lon="12.0620033"><ele>55.2</ele><time>2026-04-04T11:09:07.69Z</time></trkpt><trkpt lat="44.1341583" lon="12.0621267"><ele>55.0</ele><time>2026-04-04T11:09:08.691Z</time></trkpt><trkpt lat="44.1341867" lon="12.0622483"><ele>54.25</ele><time>2026-04-04T11:09:09.69Z</time></trkpt><trkpt lat="44.134225" lon="12.062395"><ele>53.5</ele><time>2026-04-04T11:09:10.69Z</time></trkpt><trkpt lat="44.1342467" lon="12.0625567"><ele>52.75</ele><time>2026-04-04T11:09:11.691Z</time></trkpt><trkpt lat="44.134255" lon="12.0627233"><ele>52.0</ele><time>2026-04-04T11:09:12.69Z</time></trkpt><trkpt lat="44.13425" lon="12.0628683"><ele>51.5</ele><time>2026-04-04T11:09:13.69Z</time></trkpt><trkpt lat="44.1342617" lon="12.0630083"><ele>51.0</ele><time>2026-04-04T11:09:14.69Z</time></trkpt><trkpt lat="44.134325" lon="12.0631333"><ele>50.5</ele><time>2026-04-04T11:09:15.69Z</time></trkpt><trkpt lat="44.13442" lon="12.06326"><ele>50.0</ele><time>2026-04-04T11:09:16.69Z</time></trkpt><trkpt lat="44.1345233" lon="12.0634167"><ele>50.0</ele><time>2026-04-04T11:09:17.69Z</time></trkpt><trkpt lat="44.1346483" lon="12.063595"><ele>50.0</ele><time>2026-04-04T11:09:18.69Z</time></trkpt><trkpt lat="44.134785" lon="12.0637883"><ele>50.0</ele><time>2026-04-04T11:09:19.69Z</time></trkpt><trkpt lat="44.13494" lon="12.0639733"><ele>49.333333333333336</ele><time>2026-04-04T11:09:20.691Z</time></trkpt><trkpt lat="44.135105" lon="12.0641633"><ele>48.66666666666667</ele><time>2026-04-04T11:09:21.691Z</time></trkpt><trkpt lat="44.1352867" lon="12.0643567"><ele>48.0</ele><time>2026-04-04T11:09:22.69Z</time></trkpt><trkpt lat="44.1354717" lon="12.06455"><ele>48.0</ele><time>2026-04-04T11:09:23.69Z</time></trkpt><trkpt lat="44.135665" lon="12.064745"><ele>48.0</ele><time>2026-04-04T11:09:24.69Z</time></trkpt><trkpt lat="44.13586" lon="12.06494"><ele>48.0</ele><time>2026-04-04T11:09:25.691Z</time></trkpt><trkpt lat="44.13606" lon="12.0651283"><ele>48.0</ele><time>2026-04-04T11:09:26.69Z</time></trkpt><trkpt lat="44.136265" lon="12.06531"><ele>48.0</ele><time>2026-04-04T11:09:27.69Z</time></trkpt><trkpt lat="44.1364817" lon="12.0654817"><ele>48.0</ele><time>2026-04-04T11:09:28.69Z</time></trkpt><trkpt lat="44.1367067" lon="12.0656367"><ele>48.0</ele><time>2026-04-04T11:09:29.69Z</time></trkpt><trkpt lat="44.1369383" lon="12.065785"><ele>48.0</ele><time>2026-04-04T11:09:30.691Z</time></trkpt><trkpt lat="44.1371733" lon="12.065925"><ele>49.0</ele><time>2026-04-04T11:09:31.69Z</time></trkpt><trkpt lat="44.1374167" lon="12.066055"><ele>50.0</ele><time>2026-04-04T11:09:32.691Z</time></trkpt><trkpt lat="44.137665" lon="12.0661817"><ele>50.0</ele><time>2026-04-04T11:09:33.69Z</time></trkpt><trkpt lat="44.137915" lon="12.0663083"><ele>50.0</ele><time>2026-04-04T11:09:34.69Z</time></trkpt><trkpt lat="44.1381683" lon="12.06643"><ele>50.0</ele><time>2026-04-04T11:09:35.69Z</time></trkpt><trkpt lat="44.1384183" lon="12.0665483"><ele>50.0</ele><time>2026-04-04T11:09:36.691Z</time></trkpt><trkpt lat="44.1386667" lon="12.0666633"><ele>49.5</ele><time>2026-04-04T11:09:37.691Z</time></trkpt><trkpt lat="44.1389167" lon="12.06678"><ele>49.0</ele><time>2026-04-04T11:09:38.691Z</time></trkpt><trkpt lat="44.13917" lon="12.0668983"><ele>49.0</ele><time>2026-04-04T11:09:39.691Z</time></trkpt><trkpt lat="44.1394233" lon="12.0670183"><ele>49.0</ele><time>2026-04-04T11:09:40.691Z</time></trkpt><trkpt lat="44.13968" lon="12.0671433"><ele>49.0</ele><time>2026-04-04T11:09:41.69Z</time></trkpt><trkpt lat="44.1399417" lon="12.0672733"><ele>49.0</ele><time>2026-04-04T11:09:42.69Z</time></trkpt><trkpt lat="44.1402083" lon="12.0674033"><ele>49.0</ele><time>2026-04-04T11:09:43.691Z</time></trkpt><trkpt lat="44.1404783" lon="12.067535"><ele>49.0</ele><time>2026-04-04T11:09:44.69Z</time></trkpt><trkpt lat="44.1407483" lon="12.06767"><ele>48.5</ele><time>2026-04-04T11:09:45.69Z</time></trkpt><trkpt lat="44.1410233" lon="12.0677917"><ele>48.0</ele><time>2026-04-04T11:09:46.69Z</time></trkpt><trkpt lat="44.1413" lon="12.0679167"><ele>49.0</ele><time>2026-04-04T11:09:47.69Z</time></trkpt><trkpt lat="44.1415717" lon="12.0680433"><ele>50.0</ele><time>2026-04-04T11:09:48.69Z</time></trkpt><trkpt lat="44.1418233" lon="12.0681767"><ele>49.5</ele><time>2026-04-04T11:09:49.691Z</time></trkpt><trkpt lat="44.142045" lon="12.0683217"><ele>49.0</ele><time>2026-04-04T11:09:50.691Z</time></trkpt><trkpt lat="44.1422383" lon="12.0684617"><ele>49.0</ele><time>2026-04-04T11:09:51.69Z</time></trkpt><trkpt lat="44.1424017" lon="12.068605"><ele>49.0</ele><time>2026-04-04T11:09:52.691Z</time></trkpt><trkpt lat="44.14254" lon="12.068765"><ele>49.0</ele><time>2026-04-04T11:09:53.69Z</time></trkpt><trkpt lat="44.1426367" lon="12.0689333"><ele>49.0</ele><time>2026-04-04T11:09:54.69Z</time></trkpt><trkpt lat="44.142735" lon="12.06906"><ele>49.0</ele><time>2026-04-04T11:09:55.691Z</time></trkpt><trkpt lat="44.1428533" lon="12.06914"><ele>49.0</ele><time>2026-04-04T11:09:56.691Z</time></trkpt><trkpt lat="44.1429967" lon="12.0692217"><ele>49.0</ele><time>2026-04-04T11:09:57.691Z</time></trkpt><trkpt lat="44.1431369" lon="12.0693449"><ele>49.0</ele><time>2026-04-04T11:09:58.69Z</time></trkpt><trkpt lat="44.1432816" lon="12.0695036"><ele>49.0</ele><time>2026-04-04T11:09:59.691Z</time></trkpt><trkpt lat="44.1434354" lon="12.0696789"><ele>49.0</ele><time>2026-04-04T11:10:00.691Z</time></trkpt><trkpt lat="44.1435933" lon="12.0698603"><ele>49.0</ele><time>2026-04-04T11:10:01.69Z</time></trkpt><trkpt lat="44.1437579" lon="12.0700512"><ele>49.0</ele><time>2026-04-04T11:10:02.691Z</time></trkpt><trkpt lat="44.1439259" lon="12.0702532"><ele>49.0</ele><time>2026-04-04T11:10:03.69Z</time></trkpt><trkpt lat="44.1441011" lon="12.0704635"><ele>49.0</ele><time>2026-04-04T11:10:04.69Z</time></trkpt><trkpt lat="44.1442802" lon="12.0706814"><ele>49.0</ele><time>2026-04-04T11:10:05.691Z</time></trkpt><trkpt lat="44.144465" lon="12.0709013"><ele>48.5</ele><time>2026-04-04T11:10:06.691Z</time></trkpt><trkpt lat="44.1446509" lon="12.0711165"><ele>48.0</ele><time>2026-04-04T11:10:07.69Z</time></trkpt><trkpt lat="44.1448405" lon="12.0713195"><ele>48.0</ele><time>2026-04-04T11:10:08.691Z</time></trkpt><trkpt lat="44.1450381" lon="12.0714845"><ele>48.0</ele><time>2026-04-04T11:10:09.69Z</time></trkpt><trkpt lat="44.1452434" lon="12.071607"><ele>47.333333333333336</ele><time>2026-04-04T11:10:10.691Z</time></trkpt><trkpt lat="44.1454481" lon="12.0716956"><ele>46.66666666666667</ele><time>2026-04-04T11:10:11.69Z</time></trkpt><trkpt lat="44.1456457" lon="12.071761"><ele>46.0</ele><time>2026-04-04T11:10:12.69Z</time></trkpt><trkpt lat="44.1458356" lon="12.0717976"><ele>46.0</ele><time>2026-04-04T11:10:13.691Z</time></trkpt><trkpt lat="44.1460098" lon="12.0718212"><ele>46.0</ele><time>2026-04-04T11:10:14.69Z</time></trkpt><trkpt lat="44.1461516" lon="12.071846"><ele>46.0</ele><time>2026-04-04T11:10:15.69Z</time></trkpt><trkpt lat="44.146262" lon="12.0718731"><ele>46.0</ele><time>2026-04-04T11:10:16.69Z</time></trkpt><trkpt lat="44.1463667" lon="12.0719243"><ele>46.0</ele><time>2026-04-04T11:10:17.691Z</time></trkpt><trkpt lat="44.1464634" lon="12.0720049"><ele>46.0</ele><time>2026-04-04T11:10:18.69Z</time></trkpt><trkpt lat="44.1465441" lon="12.072104"><ele>46.0</ele><time>2026-04-04T11:10:19.691Z</time></trkpt><trkpt lat="44.1466184" lon="12.0721932"><ele>46.0</ele><time>2026-04-04T11:10:20.691Z</time></trkpt><trkpt lat="44.1466998" lon="12.0722451"><ele>46.0</ele><time>2026-04-04T11:10:21.691Z</time></trkpt><trkpt lat="44.1467849" lon="12.0722518"><ele>46.199999999999996</ele><time>2026-04-04T11:10:22.69Z</time></trkpt><trkpt lat="44.1468666" lon="12.0722155"><ele>46.4</ele><time>2026-04-04T11:10:23.691Z</time></trkpt><trkpt lat="44.1469426" lon="12.0721511"><ele>46.6</ele><time>2026-04-04T11:10:24.69Z</time></trkpt><trkpt lat="44.1470176" lon="12.0720618"><ele>46.8</ele><time>2026-04-04T11:10:25.69Z</time></trkpt><trkpt lat="44.1471043" lon="12.0719696"><ele>47.0</ele><time>2026-04-04T11:10:26.69Z</time></trkpt><trkpt lat="44.1472081" lon="12.0719061"><ele>47.0</ele><time>2026-04-04T11:10:27.691Z</time></trkpt><trkpt lat="44.1473423" lon="12.0718791"><ele>47.0</ele><time>2026-04-04T11:10:28.691Z</time></trkpt><trkpt lat="44.147503" lon="12.0718745"><ele>47.0</ele><time>2026-04-04T11:10:29.69Z</time></trkpt><trkpt lat="44.1476812" lon="12.0718734"><ele>47.666666666666664</ele><time>2026-04-04T11:10:30.691Z</time></trkpt><trkpt lat="44.147875" lon="12.0718817"><ele>48.33333333333333</ele><time>2026-04-04T11:10:31.691Z</time></trkpt><trkpt lat="44.1480767" lon="12.07189"><ele>49.0</ele><time>2026-04-04T11:10:32.69Z</time></trkpt><trkpt lat="44.14829" lon="12.0719067"><ele>49.0</ele><time>2026-04-04T11:10:33.69Z</time></trkpt><trkpt lat="44.1485117" lon="12.0719217"><ele>49.0</ele><time>2026-04-04T11:10:34.691Z</time></trkpt><trkpt lat="44.1487483" lon="12.0719383"><ele>49.0</ele><time>2026-04-04T11:10:35.69Z</time></trkpt><trkpt lat="44.1489867" lon="12.07195"><ele>49.0</ele><time>2026-04-04T11:10:36.69Z</time></trkpt><trkpt lat="44.1492333" lon="12.071945"><ele>49.5</ele><time>2026-04-04T11:10:37.691Z</time></trkpt><trkpt lat="44.1494817" lon="12.071925"><ele>50.0</ele><time>2026-04-04T11:10:38.69Z</time></trkpt><trkpt lat="44.1497367" lon="12.071885"><ele>50.0</ele><time>2026-04-04T11:10:39.69Z</time></trkpt><trkpt lat="44.1499967" lon="12.0718283"><ele>50.0</ele><time>2026-04-04T11:10:40.69Z</time></trkpt><trkpt lat="44.15026" lon="12.0717583"><ele>50.0</ele><time>2026-04-04T11:10:41.69Z</time></trkpt><trkpt lat="44.1505283" lon="12.071685"><ele>50.0</ele><time>2026-04-04T11:10:42.691Z</time></trkpt><trkpt lat="44.1508" lon="12.0716117"><ele>51.0</ele><time>2026-04-04T11:10:43.69Z</time></trkpt><trkpt lat="44.15107" lon="12.071535"><ele>52.0</ele><time>2026-04-04T11:10:44.691Z</time></trkpt><trkpt lat="44.1513417" lon="12.071455"><ele>51.5</ele><time>2026-04-04T11:10:45.691Z</time></trkpt><trkpt lat="44.1516117" lon="12.0713717"><ele>51.0</ele><time>2026-04-04T11:10:46.69Z</time></trkpt><trkpt lat="44.1518767" lon="12.0712917"><ele>51.0</ele><time>2026-04-04T11:10:47.691Z</time></trkpt><trkpt lat="44.15215" lon="12.0712317"><ele>51.0</ele><time>2026-04-04T11:10:48.691Z</time></trkpt><trkpt lat="44.1524283" lon="12.0711933"><ele>50.0</ele><time>2026-04-04T11:10:49.691Z</time></trkpt><trkpt lat="44.1527017" lon="12.0711883"><ele>49.0</ele><time>2026-04-04T11:10:50.69Z</time></trkpt><trkpt lat="44.1529767" lon="12.0712133"><ele>49.5</ele><time>2026-04-04T11:10:51.691Z</time></trkpt><trkpt lat="44.1532333" lon="12.0712883"><ele>50.0</ele><time>2026-04-04T11:10:52.691Z</time></trkpt><trkpt lat="44.1534833" lon="12.0713883"><ele>50.0</ele><time>2026-04-04T11:10:53.69Z</time></trkpt><trkpt lat="44.1537333" lon="12.0715233"><ele>50.0</ele><time>2026-04-04T11:10:54.69Z</time></trkpt><trkpt lat="44.1539833" lon="12.0716733"><ele>49.0</ele><time>2026-04-04T11:10:55.691Z</time></trkpt><trkpt lat="44.1542333" lon="12.0718383"><ele>48.0</ele><time>2026-04-04T11:10:56.691Z</time></trkpt><trkpt lat="44.154485" lon="12.0720033"><ele>48.0</ele><time>2026-04-04T11:10:57.69Z</time></trkpt><trkpt lat="44.1547483" lon="12.0721517"><ele>48.0</ele><time>2026-04-04T11:10:58.69Z</time></trkpt><trkpt lat="44.1550217" lon="12.0722817"><ele>47.5</ele><time>2026-04-04T11:10:59.69Z</time></trkpt><trkpt lat="44.1553117" lon="12.0723933"><ele>47.0</ele><time>2026-04-04T11:11:00.691Z</time></trkpt><trkpt lat="44.155605" lon="12.07248"><ele>46.5</ele><time>2026-04-04T11:11:01.69Z</time></trkpt><trkpt lat="44.1559033" lon="12.0725433"><ele>46.0</ele><time>2026-04-04T11:11:02.69Z</time></trkpt><trkpt lat="44.1562" lon="12.0726067"><ele>46.0</ele><time>2026-04-04T11:11:03.69Z</time></trkpt><trkpt lat="44.1565" lon="12.0726717"><ele>46.0</ele><time>2026-04-04T11:11:04.691Z</time></trkpt><trkpt lat="44.156805" lon="12.0727333"><ele>46.0</ele><time>2026-04-04T11:11:05.691Z</time></trkpt><trkpt lat="44.1571083" lon="12.0727967"><ele>46.0</ele><time>2026-04-04T11:11:06.69Z</time></trkpt><trkpt lat="44.1574133" lon="12.0728633"><ele>46.0</ele><time>2026-04-04T11:11:07.691Z</time></trkpt><trkpt lat="44.1577167" lon="12.0729417"><ele>46.0</ele><time>2026-04-04T11:11:08.69Z</time></trkpt><trkpt lat="44.1580217" lon="12.0730383"><ele>46.0</ele><time>2026-04-04T11:11:09.69Z</time></trkpt><trkpt lat="44.1583217" lon="12.0731533"><ele>46.0</ele><time>2026-04-04T11:11:10.69Z</time></trkpt><trkpt lat="44.1586233" lon="12.07328"><ele>46.0</ele><time>2026-04-04T11:11:11.69Z</time></trkpt><trkpt lat="44.158925" lon="12.0734133"><ele>46.0</ele><time>2026-04-04T11:11:12.69Z</time></trkpt><trkpt lat="44.1592283" lon="12.0735417"><ele>45.5</ele><time>2026-04-04T11:11:13.69Z</time></trkpt><trkpt lat="44.1595333" lon="12.07367"><ele>45.0</ele><time>2026-04-04T11:11:14.69Z</time></trkpt><trkpt lat="44.1598383" lon="12.0738033"><ele>45.0</ele><time>2026-04-04T11:11:15.69Z</time></trkpt><trkpt lat="44.160145" lon="12.0739267"><ele>45.0</ele><time>2026-04-04T11:11:16.69Z</time></trkpt><trkpt lat="44.1604533" lon="12.074045"><ele>43.5</ele><time>2026-04-04T11:11:17.691Z</time></trkpt><trkpt lat="44.1607667" lon="12.07416"><ele>42.0</ele><time>2026-04-04T11:11:18.691Z</time></trkpt><trkpt lat="44.16108" lon="12.0742733"><ele>42.0</ele><time>2026-04-04T11:11:19.69Z</time></trkpt><trkpt lat="44.1613967" lon="12.0743833"><ele>42.0</ele><time>2026-04-04T11:11:20.691Z</time></trkpt><trkpt lat="44.1617083" lon="12.0744917"><ele>42.5</ele><time>2026-04-04T11:11:21.69Z</time></trkpt><trkpt lat="44.162" lon="12.074595"><ele>43.0</ele><time>2026-04-04T11:11:22.69Z</time></trkpt><trkpt lat="44.1622783" lon="12.0746883"><ele>43.5</ele><time>2026-04-04T11:11:23.69Z</time></trkpt><trkpt lat="44.1625383" lon="12.0747717"><ele>44.0</ele><time>2026-04-04T11:11:24.69Z</time></trkpt><trkpt lat="44.1627867" lon="12.0748333"><ele>44.0</ele><time>2026-04-04T11:11:25.691Z</time></trkpt><trkpt lat="44.1630333" lon="12.0748967"><ele>44.0</ele><time>2026-04-04T11:11:26.69Z</time></trkpt><trkpt lat="44.16326" lon="12.0749517"><ele>44.0</ele><time>2026-04-04T11:11:27.691Z</time></trkpt><trkpt lat="44.1634783" lon="12.0749933"><ele>44.0</ele><time>2026-04-04T11:11:28.69Z</time></trkpt><trkpt lat="44.1636883" lon="12.0750167"><ele>44.0</ele><time>2026-04-04T11:11:29.69Z</time></trkpt><trkpt lat="44.1638833" lon="12.07504"><ele>43.33333333333333</ele><time>2026-04-04T11:11:30.691Z</time></trkpt><trkpt lat="44.164065" lon="12.0750667"><ele>42.666666666666664</ele><time>2026-04-04T11:11:31.69Z</time></trkpt><trkpt lat="44.1642367" lon="12.0750917"><ele>42.0</ele><time>2026-04-04T11:11:32.691Z</time></trkpt><trkpt lat="44.1644017" lon="12.0751117"><ele>42.0</ele><time>2026-04-04T11:11:33.69Z</time></trkpt><trkpt lat="44.164555" lon="12.0751283"><ele>42.0</ele><time>2026-04-04T11:11:34.69Z</time></trkpt><trkpt lat="44.1647017" lon="12.075135"><ele>42.0</ele><time>2026-04-04T11:11:35.691Z</time></trkpt><trkpt lat="44.164845" lon="12.0751533"><ele>42.0</ele><time>2026-04-04T11:11:36.691Z</time></trkpt><trkpt lat="44.1649883" lon="12.0751833"><ele>41.333333333333336</ele><time>2026-04-04T11:11:37.691Z</time></trkpt><trkpt lat="44.165135" lon="12.0752033"><ele>40.66666666666667</ele><time>2026-04-04T11:11:38.69Z</time></trkpt><trkpt lat="44.165295" lon="12.0752233"><ele>40.0</ele><time>2026-04-04T11:11:39.69Z</time></trkpt><trkpt lat="44.1654633" lon="12.0752583"><ele>40.0</ele><time>2026-04-04T11:11:40.69Z</time></trkpt><trkpt lat="44.16564" lon="12.07531"><ele>40.0</ele><time>2026-04-04T11:11:41.689Z</time></trkpt><trkpt lat="44.1658283" lon="12.0753767"><ele>40.0</ele><time>2026-04-04T11:11:42.689Z</time></trkpt><trkpt lat="44.16602" lon="12.075445"><ele>40.333333333333336</ele><time>2026-04-04T11:11:43.69Z</time></trkpt><trkpt lat="44.16621" lon="12.0755133"><ele>40.666666666666664</ele><time>2026-04-04T11:11:44.689Z</time></trkpt><trkpt lat="44.166395" lon="12.0755833"><ele>41.0</ele><time>2026-04-04T11:11:45.689Z</time></trkpt><trkpt lat="44.1665867" lon="12.0756533"><ele>40.33333333333333</ele><time>2026-04-04T11:11:46.69Z</time></trkpt><trkpt lat="44.1667867" lon="12.0757267"><ele>39.666666666666664</ele><time>2026-04-04T11:11:47.689Z</time></trkpt><trkpt lat="44.1669933" lon="12.07581"><ele>39.0</ele><time>2026-04-04T11:11:48.689Z</time></trkpt><trkpt lat="44.167215" lon="12.075895"><ele>38.5</ele><time>2026-04-04T11:11:49.689Z</time></trkpt><trkpt lat="44.1674417" lon="12.0759817"><ele>38.0</ele><time>2026-04-04T11:11:50.69Z</time></trkpt><trkpt lat="44.16768" lon="12.0760733"><ele>38.0</ele><time>2026-04-04T11:11:51.69Z</time></trkpt><trkpt lat="44.167925" lon="12.0761667"><ele>38.0</ele><time>2026-04-04T11:11:52.689Z</time></trkpt><trkpt lat="44.1681783" lon="12.0762567"><ele>37.5</ele><time>2026-04-04T11:11:53.69Z</time></trkpt><trkpt lat="44.168435" lon="12.0763483"><ele>37.0</ele><time>2026-04-04T11:11:54.689Z</time></trkpt><trkpt lat="44.1686967" lon="12.0764433"><ele>37.0</ele><time>2026-04-04T11:11:55.689Z</time></trkpt><trkpt lat="44.1689633" lon="12.0765383"><ele>37.0</ele><time>2026-04-04T11:11:56.69Z</time></trkpt><trkpt lat="44.169235" lon="12.0766283"><ele>37.0</ele><time>2026-04-04T11:11:57.689Z</time></trkpt><trkpt lat="44.1695117" lon="12.0767133"><ele>37.0</ele><time>2026-04-04T11:11:58.689Z</time></trkpt><trkpt lat="44.1697917" lon="12.0767983"><ele>37.0</ele><time>2026-04-04T11:11:59.69Z</time></trkpt><trkpt lat="44.1700733" lon="12.0768833"><ele>37.0</ele><time>2026-04-04T11:12:00.689Z</time></trkpt><trkpt lat="44.17036" lon="12.076965"><ele>37.0</ele><time>2026-04-04T11:12:01.69Z</time></trkpt><trkpt lat="44.1706467" lon="12.07705"><ele>37.0</ele><time>2026-04-04T11:12:02.689Z</time></trkpt><trkpt lat="44.1709383" lon="12.077135"><ele>37.0</ele><time>2026-04-04T11:12:03.689Z</time></trkpt><trkpt lat="44.1712283" lon="12.077225"><ele>37.0</ele><time>2026-04-04T11:12:04.689Z</time></trkpt><trkpt lat="44.1715233" lon="12.0773067"><ele>37.0</ele><time>2026-04-04T11:12:05.69Z</time></trkpt><trkpt lat="44.1718217" lon="12.0773917"><ele>37.0</ele><time>2026-04-04T11:12:06.69Z</time></trkpt><trkpt lat="44.1721233" lon="12.0774733"><ele>35.5</ele><time>2026-04-04T11:12:07.689Z</time></trkpt><trkpt lat="44.1724283" lon="12.0775533"><ele>34.0</ele><time>2026-04-04T11:12:08.69Z</time></trkpt><trkpt lat="44.1727317" lon="12.077635"><ele>34.0</ele><time>2026-04-04T11:12:09.69Z</time></trkpt><trkpt lat="44.1730383" lon="12.0777217"><ele>34.0</ele><time>2026-04-04T11:12:10.689Z</time></trkpt><trkpt lat="44.17335" lon="12.077805"><ele>34.0</ele><time>2026-04-04T11:12:11.69Z</time></trkpt><trkpt lat="44.1736483" lon="12.077895"><ele>34.0</ele><time>2026-04-04T11:12:12.689Z</time></trkpt><trkpt lat="44.1739333" lon="12.0779783"><ele>33.5</ele><time>2026-04-04T11:12:13.69Z</time></trkpt><trkpt lat="44.1742017" lon="12.07806"><ele>33.0</ele><time>2026-04-04T11:12:14.69Z</time></trkpt><trkpt lat="44.1744583" lon="12.0781367"><ele>33.0</ele><time>2026-04-04T11:12:15.689Z</time></trkpt><trkpt lat="44.1747" lon="12.0781983"><ele>33.0</ele><time>2026-04-04T11:12:16.69Z</time></trkpt><trkpt lat="44.1749283" lon="12.0782333"><ele>33.0</ele><time>2026-04-04T11:12:17.689Z</time></trkpt><trkpt lat="44.1751317" lon="12.0782533"><ele>33.0</ele><time>2026-04-04T11:12:18.689Z</time></trkpt><trkpt lat="44.175325" lon="12.0782967"><ele>33.0</ele><time>2026-04-04T11:12:19.689Z</time></trkpt><trkpt lat="44.1755133" lon="12.07838"><ele>33.0</ele><time>2026-04-04T11:12:20.69Z</time></trkpt><trkpt lat="44.1756983" lon="12.078495"><ele>33.0</ele><time>2026-04-04T11:12:21.689Z</time></trkpt><trkpt lat="44.1758667" lon="12.0786383"><ele>33.0</ele><time>2026-04-04T11:12:22.689Z</time></trkpt><trkpt lat="44.17601" lon="12.0788017"><ele>33.0</ele><time>2026-04-04T11:12:23.689Z</time></trkpt><trkpt lat="44.1761467" lon="12.0789533"><ele>33.0</ele><time>2026-04-04T11:12:24.69Z</time></trkpt><trkpt lat="44.1762983" lon="12.0790567"><ele>33.0</ele><time>2026-04-04T11:12:25.689Z</time></trkpt><trkpt lat="44.1764783" lon="12.0791"><ele>33.333333333333336</ele><time>2026-04-04T11:12:26.69Z</time></trkpt><trkpt lat="44.176675" lon="12.07909"><ele>33.66666666666667</ele><time>2026-04-04T11:12:27.69Z</time></trkpt><trkpt lat="44.17686" lon="12.0790533"><ele>34.0</ele><time>2026-04-04T11:12:28.689Z</time></trkpt><trkpt lat="44.1770367" lon="12.07902"><ele>34.0</ele><time>2026-04-04T11:12:29.689Z</time></trkpt><trkpt lat="44.177205" lon="12.0789883"><ele>34.0</ele><time>2026-04-04T11:12:30.689Z</time></trkpt><trkpt lat="44.1773683" lon="12.079"><ele>34.0</ele><time>2026-04-04T11:12:31.69Z</time></trkpt><trkpt lat="44.1775233" lon="12.0790283"><ele>33.75</ele><time>2026-04-04T11:12:32.689Z</time></trkpt><trkpt lat="44.1776667" lon="12.079065"><ele>33.5</ele><time>2026-04-04T11:12:33.689Z</time></trkpt><trkpt lat="44.1778083" lon="12.0791083"><ele>33.25</ele><time>2026-04-04T11:12:34.69Z</time></trkpt><trkpt lat="44.1779417" lon="12.0791517"><ele>33.0</ele><time>2026-04-04T11:12:35.689Z</time></trkpt><trkpt lat="44.1780667" lon="12.079175"><ele>33.0</ele><time>2026-04-04T11:12:36.689Z</time></trkpt><trkpt lat="44.1781917" lon="12.0792017"><ele>33.0</ele><time>2026-04-04T11:12:37.689Z</time></trkpt><trkpt lat="44.178285" lon="12.0792233"><ele>33.0</ele><time>2026-04-04T11:12:38.689Z</time></trkpt><trkpt lat="44.178365" lon="12.079245"><ele>33.0</ele><time>2026-04-04T11:12:39.689Z</time></trkpt><trkpt lat="44.1784433" lon="12.0792"><ele>33.0</ele><time>2026-04-04T11:12:41.69Z</time></trkpt><trkpt lat="44.1784817" lon="12.0791"><ele>32.666666666666664</ele><time>2026-04-04T11:12:44.69Z</time></trkpt><trkpt lat="44.1785267" lon="12.079035"><ele>32.333333333333336</ele><time>2026-04-04T11:13:10.689Z</time></trkpt><trkpt lat="44.1785667" lon="12.07893"><ele>32.0</ele><time>2026-04-04T11:13:12.69Z</time></trkpt><trkpt lat="44.1786267" lon="12.07881"><ele>31.666666666666668</ele><time>2026-04-04T11:13:14.689Z</time></trkpt><trkpt lat="44.1786683" lon="12.0786883"><ele>31.333333333333336</ele><time>2026-04-04T11:13:16.689Z</time></trkpt><trkpt lat="44.1786983" lon="12.0785883"><ele>31.0</ele><time>2026-04-04T11:13:18.689Z</time></trkpt><trkpt lat="44.178625" lon="12.078545"><ele>31.0</ele><time>2026-04-04T11:13:21.689Z</time></trkpt><trkpt lat="44.1785483" lon="12.0786167"><ele>31.0</ele><time>2026-04-04T11:13:24.69Z</time></trkpt><trkpt lat="44.1785033" lon="12.078705"><ele>31.0</ele><time>2026-04-04T11:13:28.69Z</time></trkpt><trkpt lat="44.1784683" lon="12.07879"><ele>31.0</ele><time>2026-04-04T11:13:35.689Z</time></trkpt><trkpt lat="44.1784683" lon="12.07879"><ele>31.0</ele><time>2026-04-04T11:13:35.689Z</time></trkpt></trkseg></trk></gpx>